<?xml version="1.0" encoding="UTF-8" standalone="no" ?>
<gpx xmlns="http://www.topografix.com/GPX/1/1" xmlns:xsi="http://www.w3.org/2001/XMLSchema-instance" xsi:schemaLocation="http://www.topografix.com/GPX/1/1 http://www.topografix.com/GPX/1/1/gpx.xsd" version="1.1" creator="VisuGPX - https://www.visugpx.com">
  <metadata>
    <name>10-PAMIERS - LE MAS D'AZIL</name>
    <desc><![CDATA[Dixième étape d'un parcours de la de la Méditerranée à l'Atlantique.(Pamiers à Le Mas d'Azil). Relevé "Terrain" à l'aide d'un "iPad mini" et du logiciel "IphiGéNie". Pour en savoir plus (photos, commentaires, liens divers) voir mon site : [url]www.la-marche-au-long-cours.fr/crbst_94.html[/url]]]></desc>
  </metadata>
  <trk>
    <name><![CDATA[Pamiers-Le Mas d'Azil]]></name>
    <cmt><![CDATA[25 juil. 2014 06:50:11]]></cmt>
    <trkseg>
      <trkpt lat="43.10337" lon="1.62997">
        <ele>314</ele>
        <time>2014-07-25T04:50:12Z</time>
      </trkpt>
      <trkpt lat="43.10356" lon="1.62999">
        <ele>315</ele>
        <time>2014-07-25T04:50:13Z</time>
      </trkpt>
      <trkpt lat="43.10355" lon="1.62993">
        <ele>318</ele>
        <time>2014-07-25T04:50:16Z</time>
      </trkpt>
      <trkpt lat="43.10352" lon="1.62986">
        <ele>319</ele>
        <time>2014-07-25T04:50:20Z</time>
      </trkpt>
      <trkpt lat="43.10348" lon="1.62982">
        <ele>318</ele>
        <time>2014-07-25T04:50:24Z</time>
      </trkpt>
      <trkpt lat="43.10336" lon="1.62967">
        <ele>313</ele>
        <time>2014-07-25T04:50:37Z</time>
      </trkpt>
      <trkpt lat="43.10332" lon="1.62964">
        <ele>314</ele>
        <time>2014-07-25T04:50:42Z</time>
      </trkpt>
      <trkpt lat="43.1033" lon="1.62959">
        <ele>313</ele>
        <time>2014-07-25T04:50:45Z</time>
      </trkpt>
      <trkpt lat="43.10325" lon="1.62945">
        <ele>312</ele>
        <time>2014-07-25T04:50:53Z</time>
      </trkpt>
      <trkpt lat="43.10326" lon="1.62939">
        <ele>310</ele>
        <time>2014-07-25T04:50:56Z</time>
      </trkpt>
      <trkpt lat="43.10328" lon="1.62917">
        <ele>308</ele>
        <time>2014-07-25T04:51:09Z</time>
      </trkpt>
      <trkpt lat="43.10324" lon="1.62912">
        <ele>308</ele>
        <time>2014-07-25T04:51:13Z</time>
      </trkpt>
      <trkpt lat="43.10315" lon="1.62903">
        <ele>308</ele>
        <time>2014-07-25T04:51:21Z</time>
      </trkpt>
      <trkpt lat="43.10312" lon="1.62897">
        <ele>308</ele>
        <time>2014-07-25T04:51:25Z</time>
      </trkpt>
      <trkpt lat="43.10312" lon="1.62891">
        <ele>308</ele>
        <time>2014-07-25T04:51:29Z</time>
      </trkpt>
      <trkpt lat="43.10317" lon="1.62871">
        <ele>307</ele>
        <time>2014-07-25T04:51:40Z</time>
      </trkpt>
      <trkpt lat="43.10318" lon="1.62842">
        <ele>310</ele>
        <time>2014-07-25T04:51:53Z</time>
      </trkpt>
      <trkpt lat="43.1032" lon="1.62836">
        <ele>310</ele>
        <time>2014-07-25T04:51:57Z</time>
      </trkpt>
      <trkpt lat="43.10324" lon="1.62824">
        <ele>308</ele>
        <time>2014-07-25T04:52:05Z</time>
      </trkpt>
      <trkpt lat="43.10325" lon="1.62817">
        <ele>308</ele>
        <time>2014-07-25T04:52:09Z</time>
      </trkpt>
      <trkpt lat="43.10327" lon="1.62811">
        <ele>309</ele>
        <time>2014-07-25T04:52:13Z</time>
      </trkpt>
      <trkpt lat="43.10327" lon="1.62803">
        <ele>308</ele>
        <time>2014-07-25T04:52:18Z</time>
      </trkpt>
      <trkpt lat="43.1033" lon="1.62797">
        <ele>307</ele>
        <time>2014-07-25T04:52:23Z</time>
      </trkpt>
      <trkpt lat="43.10336" lon="1.62776">
        <ele>306</ele>
        <time>2014-07-25T04:52:35Z</time>
      </trkpt>
      <trkpt lat="43.10337" lon="1.62769">
        <ele>306</ele>
        <time>2014-07-25T04:52:39Z</time>
      </trkpt>
      <trkpt lat="43.10339" lon="1.62755">
        <ele>306</ele>
        <time>2014-07-25T04:52:46Z</time>
      </trkpt>
      <trkpt lat="43.1034" lon="1.62749">
        <ele>306</ele>
        <time>2014-07-25T04:52:50Z</time>
      </trkpt>
      <trkpt lat="43.10347" lon="1.62731">
        <ele>307</ele>
        <time>2014-07-25T04:53:02Z</time>
      </trkpt>
      <trkpt lat="43.1035" lon="1.62725">
        <ele>307</ele>
        <time>2014-07-25T04:53:06Z</time>
      </trkpt>
      <trkpt lat="43.1035" lon="1.62718">
        <ele>308</ele>
        <time>2014-07-25T04:53:10Z</time>
      </trkpt>
      <trkpt lat="43.1035" lon="1.62711">
        <ele>308</ele>
        <time>2014-07-25T04:53:13Z</time>
      </trkpt>
      <trkpt lat="43.10353" lon="1.6269">
        <ele>311</ele>
        <time>2014-07-25T04:53:25Z</time>
      </trkpt>
      <trkpt lat="43.10355" lon="1.6267">
        <ele>310</ele>
        <time>2014-07-25T04:53:36Z</time>
      </trkpt>
      <trkpt lat="43.10357" lon="1.62663">
        <ele>309</ele>
        <time>2014-07-25T04:53:40Z</time>
      </trkpt>
      <trkpt lat="43.10359" lon="1.62656">
        <ele>309</ele>
        <time>2014-07-25T04:53:43Z</time>
      </trkpt>
      <trkpt lat="43.1036" lon="1.6265">
        <ele>309</ele>
        <time>2014-07-25T04:53:47Z</time>
      </trkpt>
      <trkpt lat="43.10364" lon="1.6263">
        <ele>307</ele>
        <time>2014-07-25T04:53:58Z</time>
      </trkpt>
      <trkpt lat="43.10367" lon="1.62615">
        <ele>307</ele>
        <time>2014-07-25T04:54:04Z</time>
      </trkpt>
      <trkpt lat="43.10375" lon="1.6258">
        <ele>304</ele>
        <time>2014-07-25T04:54:23Z</time>
      </trkpt>
      <trkpt lat="43.10377" lon="1.62574">
        <ele>305</ele>
        <time>2014-07-25T04:54:27Z</time>
      </trkpt>
      <trkpt lat="43.10379" lon="1.62568">
        <ele>305</ele>
        <time>2014-07-25T04:54:31Z</time>
      </trkpt>
      <trkpt lat="43.10383" lon="1.62555">
        <ele>306</ele>
        <time>2014-07-25T04:54:38Z</time>
      </trkpt>
      <trkpt lat="43.10387" lon="1.62542">
        <ele>306</ele>
        <time>2014-07-25T04:54:46Z</time>
      </trkpt>
      <trkpt lat="43.10389" lon="1.62535">
        <ele>307</ele>
        <time>2014-07-25T04:54:50Z</time>
      </trkpt>
      <trkpt lat="43.10396" lon="1.625">
        <ele>305</ele>
        <time>2014-07-25T04:55:09Z</time>
      </trkpt>
      <trkpt lat="43.10397" lon="1.62493">
        <ele>306</ele>
        <time>2014-07-25T04:55:13Z</time>
      </trkpt>
      <trkpt lat="43.10401" lon="1.62479">
        <ele>304</ele>
        <time>2014-07-25T04:55:21Z</time>
      </trkpt>
      <trkpt lat="43.10404" lon="1.62464">
        <ele>304</ele>
        <time>2014-07-25T04:55:29Z</time>
      </trkpt>
      <trkpt lat="43.10405" lon="1.62457">
        <ele>305</ele>
        <time>2014-07-25T04:55:33Z</time>
      </trkpt>
      <trkpt lat="43.10408" lon="1.6245">
        <ele>305</ele>
        <time>2014-07-25T04:55:37Z</time>
      </trkpt>
      <trkpt lat="43.10413" lon="1.62446">
        <ele>305</ele>
        <time>2014-07-25T04:55:41Z</time>
      </trkpt>
      <trkpt lat="43.10416" lon="1.62441">
        <ele>305</ele>
        <time>2014-07-25T04:55:46Z</time>
      </trkpt>
      <trkpt lat="43.10416" lon="1.62434">
        <ele>305</ele>
        <time>2014-07-25T04:55:51Z</time>
      </trkpt>
      <trkpt lat="43.10413" lon="1.62427">
        <ele>306</ele>
        <time>2014-07-25T04:55:55Z</time>
      </trkpt>
      <trkpt lat="43.10411" lon="1.6242">
        <ele>307</ele>
        <time>2014-07-25T04:55:59Z</time>
      </trkpt>
      <trkpt lat="43.1041" lon="1.62412">
        <ele>308</ele>
        <time>2014-07-25T04:56:03Z</time>
      </trkpt>
      <trkpt lat="43.10413" lon="1.62405">
        <ele>309</ele>
        <time>2014-07-25T04:56:07Z</time>
      </trkpt>
      <trkpt lat="43.10417" lon="1.62384">
        <ele>305</ele>
        <time>2014-07-25T04:56:19Z</time>
      </trkpt>
      <trkpt lat="43.1042" lon="1.6237">
        <ele>305</ele>
        <time>2014-07-25T04:56:27Z</time>
      </trkpt>
      <trkpt lat="43.10421" lon="1.62363">
        <ele>306</ele>
        <time>2014-07-25T04:56:31Z</time>
      </trkpt>
      <trkpt lat="43.10423" lon="1.62355">
        <ele>306</ele>
        <time>2014-07-25T04:56:35Z</time>
      </trkpt>
      <trkpt lat="43.10424" lon="1.62348">
        <ele>306</ele>
        <time>2014-07-25T04:56:39Z</time>
      </trkpt>
      <trkpt lat="43.10425" lon="1.62341">
        <ele>305</ele>
        <time>2014-07-25T04:56:43Z</time>
      </trkpt>
      <trkpt lat="43.10428" lon="1.62328">
        <ele>305</ele>
        <time>2014-07-25T04:56:51Z</time>
      </trkpt>
      <trkpt lat="43.10433" lon="1.62317">
        <ele>304</ele>
        <time>2014-07-25T04:56:58Z</time>
      </trkpt>
      <trkpt lat="43.10437" lon="1.6231">
        <ele>303</ele>
        <time>2014-07-25T04:57:02Z</time>
      </trkpt>
      <trkpt lat="43.10439" lon="1.62297">
        <ele>303</ele>
        <time>2014-07-25T04:57:09Z</time>
      </trkpt>
      <trkpt lat="43.10441" lon="1.62284">
        <ele>304</ele>
        <time>2014-07-25T04:57:17Z</time>
      </trkpt>
      <trkpt lat="43.10445" lon="1.62271">
        <ele>305</ele>
        <time>2014-07-25T04:57:24Z</time>
      </trkpt>
      <trkpt lat="43.10447" lon="1.62249">
        <ele>308</ele>
        <time>2014-07-25T04:57:35Z</time>
      </trkpt>
      <trkpt lat="43.1045" lon="1.62227">
        <ele>307</ele>
        <time>2014-07-25T04:57:47Z</time>
      </trkpt>
      <trkpt lat="43.10451" lon="1.6222">
        <ele>307</ele>
        <time>2014-07-25T04:57:51Z</time>
      </trkpt>
      <trkpt lat="43.10452" lon="1.62213">
        <ele>307</ele>
        <time>2014-07-25T04:57:55Z</time>
      </trkpt>
      <trkpt lat="43.10457" lon="1.622">
        <ele>308</ele>
        <time>2014-07-25T04:58:03Z</time>
      </trkpt>
      <trkpt lat="43.1046" lon="1.62194">
        <ele>308</ele>
        <time>2014-07-25T04:58:07Z</time>
      </trkpt>
      <trkpt lat="43.10461" lon="1.62188">
        <ele>308</ele>
        <time>2014-07-25T04:58:10Z</time>
      </trkpt>
      <trkpt lat="43.10463" lon="1.62181">
        <ele>308</ele>
        <time>2014-07-25T04:58:14Z</time>
      </trkpt>
      <trkpt lat="43.10468" lon="1.6215">
        <ele>311</ele>
        <time>2014-07-25T04:58:29Z</time>
      </trkpt>
      <trkpt lat="43.10469" lon="1.62144">
        <ele>311</ele>
        <time>2014-07-25T04:58:32Z</time>
      </trkpt>
      <trkpt lat="43.10482" lon="1.62089">
        <ele>305</ele>
        <time>2014-07-25T04:59:04Z</time>
      </trkpt>
      <trkpt lat="43.10486" lon="1.62075">
        <ele>305</ele>
        <time>2014-07-25T04:59:12Z</time>
      </trkpt>
      <trkpt lat="43.10488" lon="1.62069">
        <ele>305</ele>
        <time>2014-07-25T04:59:16Z</time>
      </trkpt>
      <trkpt lat="43.10493" lon="1.62026">
        <ele>310</ele>
        <time>2014-07-25T04:59:40Z</time>
      </trkpt>
      <trkpt lat="43.10508" lon="1.61982">
        <ele>301</ele>
        <time>2014-07-25T05:00:07Z</time>
      </trkpt>
      <trkpt lat="43.10511" lon="1.61978">
        <ele>301</ele>
        <time>2014-07-25T05:00:11Z</time>
      </trkpt>
      <trkpt lat="43.10525" lon="1.61958">
        <ele>306</ele>
        <time>2014-07-25T05:00:24Z</time>
      </trkpt>
      <trkpt lat="43.1053" lon="1.61955">
        <ele>306</ele>
        <time>2014-07-25T05:00:29Z</time>
      </trkpt>
      <trkpt lat="43.10535" lon="1.61951">
        <ele>306</ele>
        <time>2014-07-25T05:00:32Z</time>
      </trkpt>
      <trkpt lat="43.10545" lon="1.61947">
        <ele>305</ele>
        <time>2014-07-25T05:00:40Z</time>
      </trkpt>
      <trkpt lat="43.10547" lon="1.61941">
        <ele>305</ele>
        <time>2014-07-25T05:00:43Z</time>
      </trkpt>
      <trkpt lat="43.10551" lon="1.61937">
        <ele>305</ele>
        <time>2014-07-25T05:00:46Z</time>
      </trkpt>
      <trkpt lat="43.10576" lon="1.61915">
        <ele>315</ele>
        <time>2014-07-25T05:01:08Z</time>
      </trkpt>
      <trkpt lat="43.1058" lon="1.61911">
        <ele>315</ele>
        <time>2014-07-25T05:01:12Z</time>
      </trkpt>
      <trkpt lat="43.1059" lon="1.61908">
        <ele>312</ele>
        <time>2014-07-25T05:01:19Z</time>
      </trkpt>
      <trkpt lat="43.10593" lon="1.61904">
        <ele>311</ele>
        <time>2014-07-25T05:01:23Z</time>
      </trkpt>
      <trkpt lat="43.10603" lon="1.61899">
        <ele>312</ele>
        <time>2014-07-25T05:01:30Z</time>
      </trkpt>
      <trkpt lat="43.10608" lon="1.61898">
        <ele>312</ele>
        <time>2014-07-25T05:01:33Z</time>
      </trkpt>
      <trkpt lat="43.10633" lon="1.61886">
        <ele>307</ele>
        <time>2014-07-25T05:01:53Z</time>
      </trkpt>
      <trkpt lat="43.10638" lon="1.61883">
        <ele>308</ele>
        <time>2014-07-25T05:01:57Z</time>
      </trkpt>
      <trkpt lat="43.10639" lon="1.61883">
        <ele>308</ele>
        <time>2014-07-25T05:02:24Z</time>
      </trkpt>
      <trkpt lat="43.10642" lon="1.61875">
        <ele>308</ele>
        <time>2014-07-25T05:02:36Z</time>
      </trkpt>
      <trkpt lat="43.10652" lon="1.61856">
        <ele>312</ele>
        <time>2014-07-25T05:02:45Z</time>
      </trkpt>
      <trkpt lat="43.10657" lon="1.61855">
        <ele>313</ele>
        <time>2014-07-25T05:02:48Z</time>
      </trkpt>
      <trkpt lat="43.10662" lon="1.61855">
        <ele>313</ele>
        <time>2014-07-25T05:02:52Z</time>
      </trkpt>
      <trkpt lat="43.10702" lon="1.61838">
        <ele>303</ele>
        <time>2014-07-25T05:03:22Z</time>
      </trkpt>
      <trkpt lat="43.10707" lon="1.61836">
        <ele>302</ele>
        <time>2014-07-25T05:03:26Z</time>
      </trkpt>
      <trkpt lat="43.10712" lon="1.61837">
        <ele>302</ele>
        <time>2014-07-25T05:03:30Z</time>
      </trkpt>
      <trkpt lat="43.10716" lon="1.61833">
        <ele>302</ele>
        <time>2014-07-25T05:03:34Z</time>
      </trkpt>
      <trkpt lat="43.1072" lon="1.61828">
        <ele>302</ele>
        <time>2014-07-25T05:03:38Z</time>
      </trkpt>
      <trkpt lat="43.10724" lon="1.61824">
        <ele>302</ele>
        <time>2014-07-25T05:03:42Z</time>
      </trkpt>
      <trkpt lat="43.10738" lon="1.61812">
        <ele>305</ele>
        <time>2014-07-25T05:03:53Z</time>
      </trkpt>
      <trkpt lat="43.10743" lon="1.61808">
        <ele>305</ele>
        <time>2014-07-25T05:03:57Z</time>
      </trkpt>
      <trkpt lat="43.10748" lon="1.61804">
        <ele>305</ele>
        <time>2014-07-25T05:04:01Z</time>
      </trkpt>
      <trkpt lat="43.10752" lon="1.61801">
        <ele>305</ele>
        <time>2014-07-25T05:04:05Z</time>
      </trkpt>
      <trkpt lat="43.10757" lon="1.618">
        <ele>305</ele>
        <time>2014-07-25T05:04:09Z</time>
      </trkpt>
      <trkpt lat="43.10762" lon="1.61797">
        <ele>305</ele>
        <time>2014-07-25T05:04:13Z</time>
      </trkpt>
      <trkpt lat="43.10766" lon="1.61794">
        <ele>305</ele>
        <time>2014-07-25T05:04:17Z</time>
      </trkpt>
      <trkpt lat="43.1077" lon="1.61792">
        <ele>304</ele>
        <time>2014-07-25T05:04:21Z</time>
      </trkpt>
      <trkpt lat="43.10788" lon="1.61778">
        <ele>301</ele>
        <time>2014-07-25T05:04:37Z</time>
      </trkpt>
      <trkpt lat="43.10802" lon="1.61765">
        <ele>301</ele>
        <time>2014-07-25T05:04:48Z</time>
      </trkpt>
      <trkpt lat="43.10811" lon="1.6176">
        <ele>301</ele>
        <time>2014-07-25T05:04:54Z</time>
      </trkpt>
      <trkpt lat="43.10815" lon="1.61757">
        <ele>301</ele>
        <time>2014-07-25T05:04:57Z</time>
      </trkpt>
      <trkpt lat="43.1082" lon="1.61755">
        <ele>302</ele>
        <time>2014-07-25T05:05:00Z</time>
      </trkpt>
      <trkpt lat="43.10824" lon="1.61752">
        <ele>302</ele>
        <time>2014-07-25T05:05:04Z</time>
      </trkpt>
      <trkpt lat="43.10832" lon="1.61745">
        <ele>301</ele>
        <time>2014-07-25T05:05:10Z</time>
      </trkpt>
      <trkpt lat="43.10841" lon="1.61736">
        <ele>303</ele>
        <time>2014-07-25T05:05:17Z</time>
      </trkpt>
      <trkpt lat="43.10846" lon="1.61733">
        <ele>302</ele>
        <time>2014-07-25T05:05:21Z</time>
      </trkpt>
      <trkpt lat="43.10851" lon="1.61729">
        <ele>303</ele>
        <time>2014-07-25T05:05:25Z</time>
      </trkpt>
      <trkpt lat="43.10861" lon="1.61714">
        <ele>308</ele>
        <time>2014-07-25T05:05:35Z</time>
      </trkpt>
      <trkpt lat="43.10866" lon="1.61713">
        <ele>308</ele>
        <time>2014-07-25T05:05:39Z</time>
      </trkpt>
      <trkpt lat="43.10871" lon="1.61713">
        <ele>307</ele>
        <time>2014-07-25T05:05:43Z</time>
      </trkpt>
      <trkpt lat="43.1088" lon="1.61704">
        <ele>308</ele>
        <time>2014-07-25T05:05:51Z</time>
      </trkpt>
      <trkpt lat="43.10885" lon="1.617">
        <ele>308</ele>
        <time>2014-07-25T05:05:55Z</time>
      </trkpt>
      <trkpt lat="43.10889" lon="1.61697">
        <ele>308</ele>
        <time>2014-07-25T05:05:58Z</time>
      </trkpt>
      <trkpt lat="43.10894" lon="1.61692">
        <ele>307</ele>
        <time>2014-07-25T05:06:02Z</time>
      </trkpt>
      <trkpt lat="43.10898" lon="1.61687">
        <ele>306</ele>
        <time>2014-07-25T05:06:06Z</time>
      </trkpt>
      <trkpt lat="43.10911" lon="1.61673">
        <ele>308</ele>
        <time>2014-07-25T05:06:17Z</time>
      </trkpt>
      <trkpt lat="43.10915" lon="1.61669">
        <ele>307</ele>
        <time>2014-07-25T05:06:21Z</time>
      </trkpt>
      <trkpt lat="43.10923" lon="1.6166">
        <ele>307</ele>
        <time>2014-07-25T05:06:28Z</time>
      </trkpt>
      <trkpt lat="43.10938" lon="1.61638">
        <ele>309</ele>
        <time>2014-07-25T05:06:43Z</time>
      </trkpt>
      <trkpt lat="43.10941" lon="1.61631">
        <ele>309</ele>
        <time>2014-07-25T05:06:47Z</time>
      </trkpt>
      <trkpt lat="43.10949" lon="1.6162">
        <ele>310</ele>
        <time>2014-07-25T05:06:55Z</time>
      </trkpt>
      <trkpt lat="43.10952" lon="1.61615">
        <ele>311</ele>
        <time>2014-07-25T05:06:58Z</time>
      </trkpt>
      <trkpt lat="43.10958" lon="1.61603">
        <ele>312</ele>
        <time>2014-07-25T05:07:06Z</time>
      </trkpt>
      <trkpt lat="43.10961" lon="1.61597">
        <ele>312</ele>
        <time>2014-07-25T05:07:10Z</time>
      </trkpt>
      <trkpt lat="43.10965" lon="1.61593">
        <ele>311</ele>
        <time>2014-07-25T05:07:14Z</time>
      </trkpt>
      <trkpt lat="43.10969" lon="1.61588">
        <ele>311</ele>
        <time>2014-07-25T05:07:18Z</time>
      </trkpt>
      <trkpt lat="43.10972" lon="1.61584">
        <ele>309</ele>
        <time>2014-07-25T05:07:22Z</time>
      </trkpt>
      <trkpt lat="43.10996" lon="1.6153">
        <ele>306</ele>
        <time>2014-07-25T05:07:54Z</time>
      </trkpt>
      <trkpt lat="43.10999" lon="1.61524">
        <ele>306</ele>
        <time>2014-07-25T05:07:58Z</time>
      </trkpt>
      <trkpt lat="43.11002" lon="1.61518">
        <ele>306</ele>
        <time>2014-07-25T05:08:02Z</time>
      </trkpt>
      <trkpt lat="43.11008" lon="1.61504">
        <ele>305</ele>
        <time>2014-07-25T05:08:10Z</time>
      </trkpt>
      <trkpt lat="43.11015" lon="1.61485">
        <ele>302</ele>
        <time>2014-07-25T05:08:21Z</time>
      </trkpt>
      <trkpt lat="43.11026" lon="1.61469">
        <ele>303</ele>
        <time>2014-07-25T05:08:32Z</time>
      </trkpt>
      <trkpt lat="43.11035" lon="1.6146">
        <ele>303</ele>
        <time>2014-07-25T05:08:41Z</time>
      </trkpt>
      <trkpt lat="43.11043" lon="1.6145">
        <ele>301</ele>
        <time>2014-07-25T05:08:50Z</time>
      </trkpt>
      <trkpt lat="43.11045" lon="1.61444">
        <ele>301</ele>
        <time>2014-07-25T05:08:54Z</time>
      </trkpt>
      <trkpt lat="43.11047" lon="1.61436">
        <ele>302</ele>
        <time>2014-07-25T05:08:58Z</time>
      </trkpt>
      <trkpt lat="43.11049" lon="1.61431">
        <ele>301</ele>
        <time>2014-07-25T05:09:01Z</time>
      </trkpt>
      <trkpt lat="43.11052" lon="1.61424">
        <ele>302</ele>
        <time>2014-07-25T05:09:05Z</time>
      </trkpt>
      <trkpt lat="43.11056" lon="1.61418">
        <ele>303</ele>
        <time>2014-07-25T05:09:09Z</time>
      </trkpt>
      <trkpt lat="43.11057" lon="1.61411">
        <ele>303</ele>
        <time>2014-07-25T05:09:12Z</time>
      </trkpt>
      <trkpt lat="43.11058" lon="1.61405">
        <ele>303</ele>
        <time>2014-07-25T05:09:15Z</time>
      </trkpt>
      <trkpt lat="43.1106" lon="1.61399">
        <ele>303</ele>
        <time>2014-07-25T05:09:18Z</time>
      </trkpt>
      <trkpt lat="43.11072" lon="1.61376">
        <ele>307</ele>
        <time>2014-07-25T05:09:33Z</time>
      </trkpt>
      <trkpt lat="43.11076" lon="1.61361">
        <ele>305</ele>
        <time>2014-07-25T05:09:42Z</time>
      </trkpt>
      <trkpt lat="43.11085" lon="1.61343">
        <ele>307</ele>
        <time>2014-07-25T05:09:53Z</time>
      </trkpt>
      <trkpt lat="43.11088" lon="1.61338">
        <ele>307</ele>
        <time>2014-07-25T05:09:56Z</time>
      </trkpt>
      <trkpt lat="43.11091" lon="1.61326">
        <ele>304</ele>
        <time>2014-07-25T05:10:06Z</time>
      </trkpt>
      <trkpt lat="43.11099" lon="1.61319">
        <ele>297</ele>
        <time>2014-07-25T05:10:18Z</time>
      </trkpt>
      <trkpt lat="43.11103" lon="1.61305">
        <ele>292</ele>
        <time>2014-07-25T05:10:28Z</time>
      </trkpt>
      <trkpt lat="43.11107" lon="1.61299">
        <ele>292</ele>
        <time>2014-07-25T05:10:30Z</time>
      </trkpt>
      <trkpt lat="43.11111" lon="1.61287">
        <ele>293</ele>
        <time>2014-07-25T05:10:36Z</time>
      </trkpt>
      <trkpt lat="43.11109" lon="1.6128">
        <ele>293</ele>
        <time>2014-07-25T05:10:40Z</time>
      </trkpt>
      <trkpt lat="43.11108" lon="1.61272">
        <ele>293</ele>
        <time>2014-07-25T05:10:45Z</time>
      </trkpt>
      <trkpt lat="43.11114" lon="1.61268">
        <ele>294</ele>
        <time>2014-07-25T05:10:47Z</time>
      </trkpt>
      <trkpt lat="43.11132" lon="1.61258">
        <ele>296</ele>
        <time>2014-07-25T05:10:54Z</time>
      </trkpt>
      <trkpt lat="43.11131" lon="1.61249">
        <ele>295</ele>
        <time>2014-07-25T05:10:59Z</time>
      </trkpt>
      <trkpt lat="43.1113" lon="1.61242">
        <ele>293</ele>
        <time>2014-07-25T05:11:04Z</time>
      </trkpt>
      <trkpt lat="43.11136" lon="1.61238">
        <ele>294</ele>
        <time>2014-07-25T05:11:07Z</time>
      </trkpt>
      <trkpt lat="43.11139" lon="1.61234">
        <ele>294</ele>
        <time>2014-07-25T05:11:10Z</time>
      </trkpt>
      <trkpt lat="43.11142" lon="1.61228">
        <ele>294</ele>
        <time>2014-07-25T05:11:14Z</time>
      </trkpt>
      <trkpt lat="43.11148" lon="1.61215">
        <ele>292</ele>
        <time>2014-07-25T05:11:22Z</time>
      </trkpt>
      <trkpt lat="43.11151" lon="1.61209">
        <ele>291</ele>
        <time>2014-07-25T05:11:26Z</time>
      </trkpt>
      <trkpt lat="43.11153" lon="1.61203">
        <ele>292</ele>
        <time>2014-07-25T05:11:31Z</time>
      </trkpt>
      <trkpt lat="43.1116" lon="1.61195">
        <ele>294</ele>
        <time>2014-07-25T05:11:39Z</time>
      </trkpt>
      <trkpt lat="43.11164" lon="1.61185">
        <ele>293</ele>
        <time>2014-07-25T05:11:46Z</time>
      </trkpt>
      <trkpt lat="43.11185" lon="1.61127">
        <ele>282</ele>
        <time>2014-07-25T05:12:20Z</time>
      </trkpt>
      <trkpt lat="43.11186" lon="1.61114">
        <ele>281</ele>
        <time>2014-07-25T05:12:28Z</time>
      </trkpt>
      <trkpt lat="43.11197" lon="1.61081">
        <ele>285</ele>
        <time>2014-07-25T05:12:46Z</time>
      </trkpt>
      <trkpt lat="43.11202" lon="1.61068">
        <ele>283</ele>
        <time>2014-07-25T05:12:55Z</time>
      </trkpt>
      <trkpt lat="43.11207" lon="1.61062">
        <ele>282</ele>
        <time>2014-07-25T05:12:59Z</time>
      </trkpt>
      <trkpt lat="43.11211" lon="1.61059">
        <ele>282</ele>
        <time>2014-07-25T05:13:02Z</time>
      </trkpt>
      <trkpt lat="43.11211" lon="1.6105">
        <ele>281</ele>
        <time>2014-07-25T05:13:07Z</time>
      </trkpt>
      <trkpt lat="43.11208" lon="1.61043">
        <ele>280</ele>
        <time>2014-07-25T05:13:10Z</time>
      </trkpt>
      <trkpt lat="43.11206" lon="1.61041">
        <ele>280</ele>
        <time>2014-07-25T05:13:17Z</time>
      </trkpt>
      <trkpt lat="43.1121" lon="1.6103">
        <ele>281</ele>
        <time>2014-07-25T05:13:30Z</time>
      </trkpt>
      <trkpt lat="43.1122" lon="1.61029">
        <ele>281</ele>
        <time>2014-07-25T05:13:34Z</time>
      </trkpt>
      <trkpt lat="43.11236" lon="1.61027">
        <ele>283</ele>
        <time>2014-07-25T05:13:44Z</time>
      </trkpt>
      <trkpt lat="43.11254" lon="1.61016">
        <ele>281</ele>
        <time>2014-07-25T05:13:54Z</time>
      </trkpt>
      <trkpt lat="43.11256" lon="1.61011">
        <ele>279</ele>
        <time>2014-07-25T05:13:56Z</time>
      </trkpt>
      <trkpt lat="43.11256" lon="1.6099">
        <ele>274</ele>
        <time>2014-07-25T05:14:10Z</time>
      </trkpt>
      <trkpt lat="43.11253" lon="1.60963">
        <ele>266</ele>
        <time>2014-07-25T05:14:27Z</time>
      </trkpt>
      <trkpt lat="43.11253" lon="1.60957">
        <ele>266</ele>
        <time>2014-07-25T05:14:30Z</time>
      </trkpt>
      <trkpt lat="43.11252" lon="1.60949">
        <ele>266</ele>
        <time>2014-07-25T05:14:33Z</time>
      </trkpt>
      <trkpt lat="43.11252" lon="1.60935">
        <ele>267</ele>
        <time>2014-07-25T05:14:39Z</time>
      </trkpt>
      <trkpt lat="43.11249" lon="1.60899">
        <ele>269</ele>
        <time>2014-07-25T05:14:59Z</time>
      </trkpt>
      <trkpt lat="43.11247" lon="1.60876">
        <ele>273</ele>
        <time>2014-07-25T05:15:11Z</time>
      </trkpt>
      <trkpt lat="43.11255" lon="1.6085">
        <ele>278</ele>
        <time>2014-07-25T05:15:28Z</time>
      </trkpt>
      <trkpt lat="43.11256" lon="1.60823">
        <ele>277</ele>
        <time>2014-07-25T05:15:44Z</time>
      </trkpt>
      <trkpt lat="43.11256" lon="1.60803">
        <ele>273</ele>
        <time>2014-07-25T05:15:56Z</time>
      </trkpt>
      <trkpt lat="43.11256" lon="1.60796">
        <ele>273</ele>
        <time>2014-07-25T05:16:00Z</time>
      </trkpt>
      <trkpt lat="43.11258" lon="1.60776">
        <ele>277</ele>
        <time>2014-07-25T05:16:12Z</time>
      </trkpt>
      <trkpt lat="43.11257" lon="1.60768">
        <ele>278</ele>
        <time>2014-07-25T05:16:16Z</time>
      </trkpt>
      <trkpt lat="43.11259" lon="1.60753">
        <ele>278</ele>
        <time>2014-07-25T05:16:24Z</time>
      </trkpt>
      <trkpt lat="43.1126" lon="1.60746">
        <ele>278</ele>
        <time>2014-07-25T05:16:28Z</time>
      </trkpt>
      <trkpt lat="43.11262" lon="1.60731">
        <ele>282</ele>
        <time>2014-07-25T05:17:09Z</time>
      </trkpt>
      <trkpt lat="43.11265" lon="1.60726">
        <ele>282</ele>
        <time>2014-07-25T05:17:14Z</time>
      </trkpt>
      <trkpt lat="43.11294" lon="1.60672">
        <ele>289</ele>
        <time>2014-07-25T05:17:47Z</time>
      </trkpt>
      <trkpt lat="43.11299" lon="1.60668">
        <ele>291</ele>
        <time>2014-07-25T05:17:50Z</time>
      </trkpt>
      <trkpt lat="43.11302" lon="1.60664">
        <ele>291</ele>
        <time>2014-07-25T05:17:54Z</time>
      </trkpt>
      <trkpt lat="43.1133" lon="1.60623">
        <ele>284</ele>
        <time>2014-07-25T05:18:28Z</time>
      </trkpt>
      <trkpt lat="43.11337" lon="1.60612">
        <ele>285</ele>
        <time>2014-07-25T05:18:34Z</time>
      </trkpt>
      <trkpt lat="43.11341" lon="1.60609">
        <ele>285</ele>
        <time>2014-07-25T05:18:38Z</time>
      </trkpt>
      <trkpt lat="43.11346" lon="1.60605">
        <ele>285</ele>
        <time>2014-07-25T05:18:42Z</time>
      </trkpt>
      <trkpt lat="43.11354" lon="1.60598">
        <ele>285</ele>
        <time>2014-07-25T05:18:50Z</time>
      </trkpt>
      <trkpt lat="43.11356" lon="1.6059">
        <ele>285</ele>
        <time>2014-07-25T05:18:55Z</time>
      </trkpt>
      <trkpt lat="43.11353" lon="1.60576">
        <ele>287</ele>
        <time>2014-07-25T05:19:01Z</time>
      </trkpt>
      <trkpt lat="43.11351" lon="1.60571">
        <ele>288</ele>
        <time>2014-07-25T05:19:04Z</time>
      </trkpt>
      <trkpt lat="43.11348" lon="1.60564">
        <ele>288</ele>
        <time>2014-07-25T05:19:09Z</time>
      </trkpt>
      <trkpt lat="43.11346" lon="1.60558">
        <ele>288</ele>
        <time>2014-07-25T05:19:13Z</time>
      </trkpt>
      <trkpt lat="43.11344" lon="1.60551">
        <ele>288</ele>
        <time>2014-07-25T05:19:17Z</time>
      </trkpt>
      <trkpt lat="43.11335" lon="1.60526">
        <ele>288</ele>
        <time>2014-07-25T05:19:34Z</time>
      </trkpt>
      <trkpt lat="43.11329" lon="1.60508">
        <ele>285</ele>
        <time>2014-07-25T05:19:46Z</time>
      </trkpt>
      <trkpt lat="43.11325" lon="1.60494">
        <ele>286</ele>
        <time>2014-07-25T05:19:54Z</time>
      </trkpt>
      <trkpt lat="43.11322" lon="1.60489">
        <ele>285</ele>
        <time>2014-07-25T05:19:57Z</time>
      </trkpt>
      <trkpt lat="43.11318" lon="1.60477">
        <ele>284</ele>
        <time>2014-07-25T05:20:06Z</time>
      </trkpt>
      <trkpt lat="43.11316" lon="1.6047">
        <ele>283</ele>
        <time>2014-07-25T05:20:12Z</time>
      </trkpt>
      <trkpt lat="43.11314" lon="1.60464">
        <ele>284</ele>
        <time>2014-07-25T05:20:16Z</time>
      </trkpt>
      <trkpt lat="43.113" lon="1.60425">
        <ele>283</ele>
        <time>2014-07-25T05:20:38Z</time>
      </trkpt>
      <trkpt lat="43.11303" lon="1.60411">
        <ele>284</ele>
        <time>2014-07-25T05:20:46Z</time>
      </trkpt>
      <trkpt lat="43.11302" lon="1.60404">
        <ele>285</ele>
        <time>2014-07-25T05:20:52Z</time>
      </trkpt>
      <trkpt lat="43.11297" lon="1.60402">
        <ele>286</ele>
        <time>2014-07-25T05:20:56Z</time>
      </trkpt>
      <trkpt lat="43.11293" lon="1.60397">
        <ele>285</ele>
        <time>2014-07-25T05:21:01Z</time>
      </trkpt>
      <trkpt lat="43.11281" lon="1.60367">
        <ele>280</ele>
        <time>2014-07-25T05:21:23Z</time>
      </trkpt>
      <trkpt lat="43.1128" lon="1.60366">
        <ele>281</ele>
        <time>2014-07-25T05:21:59Z</time>
      </trkpt>
      <trkpt lat="43.11278" lon="1.60359">
        <ele>281</ele>
        <time>2014-07-25T05:22:05Z</time>
      </trkpt>
      <trkpt lat="43.11274" lon="1.60346">
        <ele>280</ele>
        <time>2014-07-25T05:22:12Z</time>
      </trkpt>
      <trkpt lat="43.11272" lon="1.60339">
        <ele>281</ele>
        <time>2014-07-25T05:22:17Z</time>
      </trkpt>
      <trkpt lat="43.11255" lon="1.60285">
        <ele>290</ele>
        <time>2014-07-25T05:22:52Z</time>
      </trkpt>
      <trkpt lat="43.11252" lon="1.60281">
        <ele>291</ele>
        <time>2014-07-25T05:22:57Z</time>
      </trkpt>
      <trkpt lat="43.11247" lon="1.60273">
        <ele>291</ele>
        <time>2014-07-25T05:23:10Z</time>
      </trkpt>
      <trkpt lat="43.11245" lon="1.60271">
        <ele>291</ele>
        <time>2014-07-25T05:23:21Z</time>
      </trkpt>
      <trkpt lat="43.11241" lon="1.60267">
        <ele>291</ele>
        <time>2014-07-25T05:23:27Z</time>
      </trkpt>
      <trkpt lat="43.11236" lon="1.60256">
        <ele>292</ele>
        <time>2014-07-25T05:23:39Z</time>
      </trkpt>
      <trkpt lat="43.11228" lon="1.60229">
        <ele>299</ele>
        <time>2014-07-25T05:24:00Z</time>
      </trkpt>
      <trkpt lat="43.11226" lon="1.60223">
        <ele>299</ele>
        <time>2014-07-25T05:24:06Z</time>
      </trkpt>
      <trkpt lat="43.1122" lon="1.60213">
        <ele>301</ele>
        <time>2014-07-25T05:24:18Z</time>
      </trkpt>
      <trkpt lat="43.1122" lon="1.60209">
        <ele>301</ele>
        <time>2014-07-25T05:24:25Z</time>
      </trkpt>
      <trkpt lat="43.11215" lon="1.6021">
        <ele>302</ele>
        <time>2014-07-25T05:24:32Z</time>
      </trkpt>
      <trkpt lat="43.11205" lon="1.60215">
        <ele>302</ele>
        <time>2014-07-25T05:24:40Z</time>
      </trkpt>
      <trkpt lat="43.11194" lon="1.60218">
        <ele>301</ele>
        <time>2014-07-25T05:24:48Z</time>
      </trkpt>
      <trkpt lat="43.11183" lon="1.60214">
        <ele>302</ele>
        <time>2014-07-25T05:24:56Z</time>
      </trkpt>
      <trkpt lat="43.11169" lon="1.60207">
        <ele>304</ele>
        <time>2014-07-25T05:25:08Z</time>
      </trkpt>
      <trkpt lat="43.11164" lon="1.60203">
        <ele>304</ele>
        <time>2014-07-25T05:25:12Z</time>
      </trkpt>
      <trkpt lat="43.11159" lon="1.60201">
        <ele>304</ele>
        <time>2014-07-25T05:25:17Z</time>
      </trkpt>
      <trkpt lat="43.11148" lon="1.60199">
        <ele>304</ele>
        <time>2014-07-25T05:25:23Z</time>
      </trkpt>
      <trkpt lat="43.11143" lon="1.60197">
        <ele>305</ele>
        <time>2014-07-25T05:25:28Z</time>
      </trkpt>
      <trkpt lat="43.11137" lon="1.60196">
        <ele>305</ele>
        <time>2014-07-25T05:25:32Z</time>
      </trkpt>
      <trkpt lat="43.11127" lon="1.60192">
        <ele>306</ele>
        <time>2014-07-25T05:25:40Z</time>
      </trkpt>
      <trkpt lat="43.11123" lon="1.60189">
        <ele>306</ele>
        <time>2014-07-25T05:25:44Z</time>
      </trkpt>
      <trkpt lat="43.11113" lon="1.60184">
        <ele>307</ele>
        <time>2014-07-25T05:25:52Z</time>
      </trkpt>
      <trkpt lat="43.11108" lon="1.60181">
        <ele>308</ele>
        <time>2014-07-25T05:25:56Z</time>
      </trkpt>
      <trkpt lat="43.11103" lon="1.60177">
        <ele>307</ele>
        <time>2014-07-25T05:26:00Z</time>
      </trkpt>
      <trkpt lat="43.111" lon="1.60174">
        <ele>307</ele>
        <time>2014-07-25T05:26:04Z</time>
      </trkpt>
      <trkpt lat="43.11089" lon="1.60169">
        <ele>307</ele>
        <time>2014-07-25T05:26:14Z</time>
      </trkpt>
      <trkpt lat="43.11084" lon="1.60167">
        <ele>307</ele>
        <time>2014-07-25T05:26:19Z</time>
      </trkpt>
      <trkpt lat="43.1104" lon="1.60154">
        <ele>297</ele>
        <time>2014-07-25T05:26:53Z</time>
      </trkpt>
      <trkpt lat="43.11036" lon="1.60149">
        <ele>296</ele>
        <time>2014-07-25T05:26:56Z</time>
      </trkpt>
      <trkpt lat="43.11023" lon="1.60139">
        <ele>298</ele>
        <time>2014-07-25T05:27:09Z</time>
      </trkpt>
      <trkpt lat="43.11018" lon="1.60136">
        <ele>298</ele>
        <time>2014-07-25T05:27:12Z</time>
      </trkpt>
      <trkpt lat="43.11007" lon="1.6013">
        <ele>299</ele>
        <time>2014-07-25T05:27:21Z</time>
      </trkpt>
      <trkpt lat="43.11001" lon="1.60129">
        <ele>299</ele>
        <time>2014-07-25T05:27:26Z</time>
      </trkpt>
      <trkpt lat="43.10992" lon="1.60129">
        <ele>300</ele>
        <time>2014-07-25T05:27:32Z</time>
      </trkpt>
      <trkpt lat="43.1098" lon="1.60126">
        <ele>299</ele>
        <time>2014-07-25T05:27:39Z</time>
      </trkpt>
      <trkpt lat="43.10956" lon="1.6013">
        <ele>299</ele>
        <time>2014-07-25T05:27:57Z</time>
      </trkpt>
      <trkpt lat="43.10951" lon="1.60129">
        <ele>298</ele>
        <time>2014-07-25T05:28:00Z</time>
      </trkpt>
      <trkpt lat="43.10946" lon="1.60126">
        <ele>297</ele>
        <time>2014-07-25T05:28:04Z</time>
      </trkpt>
      <trkpt lat="43.10942" lon="1.60123">
        <ele>297</ele>
        <time>2014-07-25T05:28:09Z</time>
      </trkpt>
      <trkpt lat="43.10938" lon="1.60126">
        <ele>298</ele>
        <time>2014-07-25T05:28:34Z</time>
      </trkpt>
      <trkpt lat="43.10927" lon="1.60124">
        <ele>298</ele>
        <time>2014-07-25T05:28:40Z</time>
      </trkpt>
      <trkpt lat="43.10922" lon="1.60122">
        <ele>297</ele>
        <time>2014-07-25T05:28:44Z</time>
      </trkpt>
      <trkpt lat="43.10917" lon="1.6012">
        <ele>297</ele>
        <time>2014-07-25T05:28:49Z</time>
      </trkpt>
      <trkpt lat="43.10912" lon="1.60119">
        <ele>298</ele>
        <time>2014-07-25T05:28:53Z</time>
      </trkpt>
      <trkpt lat="43.10908" lon="1.60116">
        <ele>298</ele>
        <time>2014-07-25T05:28:56Z</time>
      </trkpt>
      <trkpt lat="43.10903" lon="1.60112">
        <ele>299</ele>
        <time>2014-07-25T05:29:05Z</time>
      </trkpt>
      <trkpt lat="43.10897" lon="1.60112">
        <ele>300</ele>
        <time>2014-07-25T05:29:12Z</time>
      </trkpt>
      <trkpt lat="43.10881" lon="1.60111">
        <ele>300</ele>
        <time>2014-07-25T05:29:24Z</time>
      </trkpt>
      <trkpt lat="43.10861" lon="1.60112">
        <ele>304</ele>
        <time>2014-07-25T05:29:40Z</time>
      </trkpt>
      <trkpt lat="43.10858" lon="1.60119">
        <ele>303</ele>
        <time>2014-07-25T05:29:45Z</time>
      </trkpt>
      <trkpt lat="43.10854" lon="1.60131">
        <ele>300</ele>
        <time>2014-07-25T05:29:58Z</time>
      </trkpt>
      <trkpt lat="43.10852" lon="1.60137">
        <ele>300</ele>
        <time>2014-07-25T05:30:06Z</time>
      </trkpt>
      <trkpt lat="43.10848" lon="1.60142">
        <ele>300</ele>
        <time>2014-07-25T05:30:14Z</time>
      </trkpt>
      <trkpt lat="43.10845" lon="1.60147">
        <ele>301</ele>
        <time>2014-07-25T05:30:21Z</time>
      </trkpt>
      <trkpt lat="43.10847" lon="1.60146">
        <ele>304</ele>
        <time>2014-07-25T05:30:37Z</time>
      </trkpt>
      <trkpt lat="43.10851" lon="1.60134">
        <ele>304</ele>
        <time>2014-07-25T05:30:51Z</time>
      </trkpt>
      <trkpt lat="43.10857" lon="1.60123">
        <ele>305</ele>
        <time>2014-07-25T05:31:00Z</time>
      </trkpt>
      <trkpt lat="43.10857" lon="1.60119">
        <ele>307</ele>
        <time>2014-07-25T05:31:08Z</time>
      </trkpt>
      <trkpt lat="43.10855" lon="1.60111">
        <ele>308</ele>
        <time>2014-07-25T05:31:34Z</time>
      </trkpt>
      <trkpt lat="43.1085" lon="1.60111">
        <ele>307</ele>
        <time>2014-07-25T05:31:39Z</time>
      </trkpt>
      <trkpt lat="43.10814" lon="1.6011">
        <ele>312</ele>
        <time>2014-07-25T05:32:09Z</time>
      </trkpt>
      <trkpt lat="43.10809" lon="1.60107">
        <ele>312</ele>
        <time>2014-07-25T05:32:15Z</time>
      </trkpt>
      <trkpt lat="43.10806" lon="1.60102">
        <ele>311</ele>
        <time>2014-07-25T05:32:20Z</time>
      </trkpt>
      <trkpt lat="43.10805" lon="1.60096">
        <ele>311</ele>
        <time>2014-07-25T05:32:25Z</time>
      </trkpt>
      <trkpt lat="43.10806" lon="1.6009">
        <ele>311</ele>
        <time>2014-07-25T05:32:38Z</time>
      </trkpt>
      <trkpt lat="43.10804" lon="1.60094">
        <ele>314</ele>
        <time>2014-07-25T05:35:40Z</time>
      </trkpt>
      <trkpt lat="43.10802" lon="1.601">
        <ele>314</ele>
        <time>2014-07-25T05:35:44Z</time>
      </trkpt>
      <trkpt lat="43.10797" lon="1.60101">
        <ele>314</ele>
        <time>2014-07-25T05:35:48Z</time>
      </trkpt>
      <trkpt lat="43.10793" lon="1.60097">
        <ele>315</ele>
        <time>2014-07-25T05:35:52Z</time>
      </trkpt>
      <trkpt lat="43.10789" lon="1.60094">
        <ele>315</ele>
        <time>2014-07-25T05:35:55Z</time>
      </trkpt>
      <trkpt lat="43.10778" lon="1.60091">
        <ele>314</ele>
        <time>2014-07-25T05:36:04Z</time>
      </trkpt>
      <trkpt lat="43.10763" lon="1.60089">
        <ele>313</ele>
        <time>2014-07-25T05:36:13Z</time>
      </trkpt>
      <trkpt lat="43.10758" lon="1.60089">
        <ele>313</ele>
        <time>2014-07-25T05:36:16Z</time>
      </trkpt>
      <trkpt lat="43.10748" lon="1.60088">
        <ele>313</ele>
        <time>2014-07-25T05:36:23Z</time>
      </trkpt>
      <trkpt lat="43.10737" lon="1.60084">
        <ele>313</ele>
        <time>2014-07-25T05:36:30Z</time>
      </trkpt>
      <trkpt lat="43.10732" lon="1.60085">
        <ele>313</ele>
        <time>2014-07-25T05:36:34Z</time>
      </trkpt>
      <trkpt lat="43.10724" lon="1.60093">
        <ele>312</ele>
        <time>2014-07-25T05:36:42Z</time>
      </trkpt>
      <trkpt lat="43.10721" lon="1.60099">
        <ele>311</ele>
        <time>2014-07-25T05:36:47Z</time>
      </trkpt>
      <trkpt lat="43.10721" lon="1.60107">
        <ele>311</ele>
        <time>2014-07-25T05:36:51Z</time>
      </trkpt>
      <trkpt lat="43.10722" lon="1.60128">
        <ele>313</ele>
        <time>2014-07-25T05:37:02Z</time>
      </trkpt>
      <trkpt lat="43.10723" lon="1.60135">
        <ele>313</ele>
        <time>2014-07-25T05:37:05Z</time>
      </trkpt>
      <trkpt lat="43.10723" lon="1.60142">
        <ele>313</ele>
        <time>2014-07-25T05:37:10Z</time>
      </trkpt>
      <trkpt lat="43.10723" lon="1.60149">
        <ele>313</ele>
        <time>2014-07-25T05:37:14Z</time>
      </trkpt>
      <trkpt lat="43.10717" lon="1.60184">
        <ele>309</ele>
        <time>2014-07-25T05:37:36Z</time>
      </trkpt>
      <trkpt lat="43.10721" lon="1.60218">
        <ele>306</ele>
        <time>2014-07-25T05:37:57Z</time>
      </trkpt>
      <trkpt lat="43.10716" lon="1.6023">
        <ele>303</ele>
        <time>2014-07-25T05:38:05Z</time>
      </trkpt>
      <trkpt lat="43.10712" lon="1.6025">
        <ele>297</ele>
        <time>2014-07-25T05:38:19Z</time>
      </trkpt>
      <trkpt lat="43.10713" lon="1.60256">
        <ele>294</ele>
        <time>2014-07-25T05:38:24Z</time>
      </trkpt>
      <trkpt lat="43.10708" lon="1.6027">
        <ele>290</ele>
        <time>2014-07-25T05:38:32Z</time>
      </trkpt>
      <trkpt lat="43.10705" lon="1.60276">
        <ele>290</ele>
        <time>2014-07-25T05:38:35Z</time>
      </trkpt>
      <trkpt lat="43.10697" lon="1.60294">
        <ele>291</ele>
        <time>2014-07-25T05:38:44Z</time>
      </trkpt>
      <trkpt lat="43.10692" lon="1.60297">
        <ele>292</ele>
        <time>2014-07-25T05:38:48Z</time>
      </trkpt>
      <trkpt lat="43.10688" lon="1.60301">
        <ele>292</ele>
        <time>2014-07-25T05:38:52Z</time>
      </trkpt>
      <trkpt lat="43.10683" lon="1.60302">
        <ele>290</ele>
        <time>2014-07-25T05:38:59Z</time>
      </trkpt>
      <trkpt lat="43.1068" lon="1.60309">
        <ele>290</ele>
        <time>2014-07-25T05:39:03Z</time>
      </trkpt>
      <trkpt lat="43.10653" lon="1.60352">
        <ele>299</ele>
        <time>2014-07-25T05:39:38Z</time>
      </trkpt>
      <trkpt lat="43.10648" lon="1.60356">
        <ele>299</ele>
        <time>2014-07-25T05:39:43Z</time>
      </trkpt>
      <trkpt lat="43.10643" lon="1.60358">
        <ele>300</ele>
        <time>2014-07-25T05:39:48Z</time>
      </trkpt>
      <trkpt lat="43.10639" lon="1.60355">
        <ele>301</ele>
        <time>2014-07-25T05:39:55Z</time>
      </trkpt>
      <trkpt lat="43.10634" lon="1.60355">
        <ele>301</ele>
        <time>2014-07-25T05:40:01Z</time>
      </trkpt>
      <trkpt lat="43.10629" lon="1.60354">
        <ele>301</ele>
        <time>2014-07-25T05:40:06Z</time>
      </trkpt>
      <trkpt lat="43.10609" lon="1.60359">
        <ele>298</ele>
        <time>2014-07-25T05:40:23Z</time>
      </trkpt>
      <trkpt lat="43.10594" lon="1.60376">
        <ele>300</ele>
        <time>2014-07-25T05:40:40Z</time>
      </trkpt>
      <trkpt lat="43.10591" lon="1.60381">
        <ele>299</ele>
        <time>2014-07-25T05:40:44Z</time>
      </trkpt>
      <trkpt lat="43.10593" lon="1.60382">
        <ele>300</ele>
        <time>2014-07-25T05:40:57Z</time>
      </trkpt>
      <trkpt lat="43.10589" lon="1.60389">
        <ele>302</ele>
        <time>2014-07-25T05:41:29Z</time>
      </trkpt>
      <trkpt lat="43.10586" lon="1.60401">
        <ele>302</ele>
        <time>2014-07-25T05:41:37Z</time>
      </trkpt>
      <trkpt lat="43.10582" lon="1.60413">
        <ele>301</ele>
        <time>2014-07-25T05:41:45Z</time>
      </trkpt>
      <trkpt lat="43.10579" lon="1.60418">
        <ele>301</ele>
        <time>2014-07-25T05:41:49Z</time>
      </trkpt>
      <trkpt lat="43.10577" lon="1.60424">
        <ele>300</ele>
        <time>2014-07-25T05:41:53Z</time>
      </trkpt>
      <trkpt lat="43.10563" lon="1.60446">
        <ele>303</ele>
        <time>2014-07-25T05:42:09Z</time>
      </trkpt>
      <trkpt lat="43.10559" lon="1.60451">
        <ele>302</ele>
        <time>2014-07-25T05:42:13Z</time>
      </trkpt>
      <trkpt lat="43.10544" lon="1.6047">
        <ele>298</ele>
        <time>2014-07-25T05:42:29Z</time>
      </trkpt>
      <trkpt lat="43.1054" lon="1.60476">
        <ele>298</ele>
        <time>2014-07-25T05:42:33Z</time>
      </trkpt>
      <trkpt lat="43.10537" lon="1.60482">
        <ele>297</ele>
        <time>2014-07-25T05:42:37Z</time>
      </trkpt>
      <trkpt lat="43.10536" lon="1.6049">
        <ele>297</ele>
        <time>2014-07-25T05:42:41Z</time>
      </trkpt>
      <trkpt lat="43.10535" lon="1.60504">
        <ele>298</ele>
        <time>2014-07-25T05:42:48Z</time>
      </trkpt>
      <trkpt lat="43.10534" lon="1.60512">
        <ele>298</ele>
        <time>2014-07-25T05:42:52Z</time>
      </trkpt>
      <trkpt lat="43.10532" lon="1.60527">
        <ele>298</ele>
        <time>2014-07-25T05:43:00Z</time>
      </trkpt>
      <trkpt lat="43.10531" lon="1.60541">
        <ele>297</ele>
        <time>2014-07-25T05:43:08Z</time>
      </trkpt>
      <trkpt lat="43.10528" lon="1.6057">
        <ele>298</ele>
        <time>2014-07-25T05:43:23Z</time>
      </trkpt>
      <trkpt lat="43.1052" lon="1.60618">
        <ele>290</ele>
        <time>2014-07-25T05:43:54Z</time>
      </trkpt>
      <trkpt lat="43.10517" lon="1.60626">
        <ele>290</ele>
        <time>2014-07-25T05:43:58Z</time>
      </trkpt>
      <trkpt lat="43.10509" lon="1.60674">
        <ele>286</ele>
        <time>2014-07-25T05:44:24Z</time>
      </trkpt>
      <trkpt lat="43.10507" lon="1.60687">
        <ele>287</ele>
        <time>2014-07-25T05:44:31Z</time>
      </trkpt>
      <trkpt lat="43.10504" lon="1.60709">
        <ele>287</ele>
        <time>2014-07-25T05:44:42Z</time>
      </trkpt>
      <trkpt lat="43.105" lon="1.60738">
        <ele>289</ele>
        <time>2014-07-25T05:44:57Z</time>
      </trkpt>
      <trkpt lat="43.105" lon="1.60752">
        <ele>287</ele>
        <time>2014-07-25T05:45:05Z</time>
      </trkpt>
      <trkpt lat="43.105" lon="1.60758">
        <ele>287</ele>
        <time>2014-07-25T05:45:09Z</time>
      </trkpt>
      <trkpt lat="43.10495" lon="1.60778">
        <ele>290</ele>
        <time>2014-07-25T05:45:19Z</time>
      </trkpt>
      <trkpt lat="43.10494" lon="1.60785">
        <ele>290</ele>
        <time>2014-07-25T05:45:23Z</time>
      </trkpt>
      <trkpt lat="43.10491" lon="1.60805">
        <ele>293</ele>
        <time>2014-07-25T05:45:32Z</time>
      </trkpt>
      <trkpt lat="43.10491" lon="1.60813">
        <ele>293</ele>
        <time>2014-07-25T05:45:36Z</time>
      </trkpt>
      <trkpt lat="43.1049" lon="1.60832">
        <ele>291</ele>
        <time>2014-07-25T05:45:47Z</time>
      </trkpt>
      <trkpt lat="43.10489" lon="1.60845">
        <ele>292</ele>
        <time>2014-07-25T05:45:54Z</time>
      </trkpt>
      <trkpt lat="43.10487" lon="1.60861">
        <ele>291</ele>
        <time>2014-07-25T05:46:02Z</time>
      </trkpt>
      <trkpt lat="43.10486" lon="1.60869">
        <ele>291</ele>
        <time>2014-07-25T05:46:06Z</time>
      </trkpt>
      <trkpt lat="43.10487" lon="1.60876">
        <ele>291</ele>
        <time>2014-07-25T05:46:10Z</time>
      </trkpt>
      <trkpt lat="43.10487" lon="1.60883">
        <ele>292</ele>
        <time>2014-07-25T05:46:14Z</time>
      </trkpt>
      <trkpt lat="43.10487" lon="1.6089">
        <ele>292</ele>
        <time>2014-07-25T05:46:18Z</time>
      </trkpt>
      <trkpt lat="43.10487" lon="1.60897">
        <ele>292</ele>
        <time>2014-07-25T05:46:22Z</time>
      </trkpt>
      <trkpt lat="43.10488" lon="1.60904">
        <ele>292</ele>
        <time>2014-07-25T05:46:26Z</time>
      </trkpt>
      <trkpt lat="43.10489" lon="1.60911">
        <ele>291</ele>
        <time>2014-07-25T05:46:30Z</time>
      </trkpt>
      <trkpt lat="43.10492" lon="1.60925">
        <ele>290</ele>
        <time>2014-07-25T05:46:38Z</time>
      </trkpt>
      <trkpt lat="43.10492" lon="1.60939">
        <ele>292</ele>
        <time>2014-07-25T05:46:46Z</time>
      </trkpt>
      <trkpt lat="43.10493" lon="1.60947">
        <ele>291</ele>
        <time>2014-07-25T05:46:50Z</time>
      </trkpt>
      <trkpt lat="43.10491" lon="1.60984">
        <ele>294</ele>
        <time>2014-07-25T05:47:09Z</time>
      </trkpt>
      <trkpt lat="43.10494" lon="1.61005">
        <ele>291</ele>
        <time>2014-07-25T05:47:21Z</time>
      </trkpt>
      <trkpt lat="43.10495" lon="1.61012">
        <ele>291</ele>
        <time>2014-07-25T05:47:25Z</time>
      </trkpt>
      <trkpt lat="43.10497" lon="1.61018">
        <ele>291</ele>
        <time>2014-07-25T05:47:28Z</time>
      </trkpt>
      <trkpt lat="43.10502" lon="1.61038">
        <ele>295</ele>
        <time>2014-07-25T05:47:40Z</time>
      </trkpt>
      <trkpt lat="43.105" lon="1.61052">
        <ele>295</ele>
        <time>2014-07-25T05:47:48Z</time>
      </trkpt>
      <trkpt lat="43.10502" lon="1.61066">
        <ele>294</ele>
        <time>2014-07-25T05:47:56Z</time>
      </trkpt>
      <trkpt lat="43.10503" lon="1.61072">
        <ele>293</ele>
        <time>2014-07-25T05:48:12Z</time>
      </trkpt>
      <trkpt lat="43.10501" lon="1.61083">
        <ele>296</ele>
        <time>2014-07-25T05:48:25Z</time>
      </trkpt>
      <trkpt lat="43.10506" lon="1.6108">
        <ele>295</ele>
        <time>2014-07-25T05:48:35Z</time>
      </trkpt>
      <trkpt lat="43.10511" lon="1.61081">
        <ele>295</ele>
        <time>2014-07-25T05:48:40Z</time>
      </trkpt>
      <trkpt lat="43.10519" lon="1.61089">
        <ele>292</ele>
        <time>2014-07-25T05:48:49Z</time>
      </trkpt>
      <trkpt lat="43.10516" lon="1.6109">
        <ele>293</ele>
        <time>2014-07-25T05:49:00Z</time>
      </trkpt>
      <trkpt lat="43.10512" lon="1.61088">
        <ele>294</ele>
        <time>2014-07-25T05:49:04Z</time>
      </trkpt>
      <trkpt lat="43.10509" lon="1.61082">
        <ele>294</ele>
        <time>2014-07-25T05:49:08Z</time>
      </trkpt>
      <trkpt lat="43.10506" lon="1.61077">
        <ele>293</ele>
        <time>2014-07-25T05:49:12Z</time>
      </trkpt>
      <trkpt lat="43.10501" lon="1.61078">
        <ele>292</ele>
        <time>2014-07-25T05:49:17Z</time>
      </trkpt>
      <trkpt lat="43.10499" lon="1.61085">
        <ele>292</ele>
        <time>2014-07-25T05:49:20Z</time>
      </trkpt>
      <trkpt lat="43.10498" lon="1.61092">
        <ele>292</ele>
        <time>2014-07-25T05:49:23Z</time>
      </trkpt>
      <trkpt lat="43.10493" lon="1.61113">
        <ele>294</ele>
        <time>2014-07-25T05:49:34Z</time>
      </trkpt>
      <trkpt lat="43.10492" lon="1.61119">
        <ele>293</ele>
        <time>2014-07-25T05:49:40Z</time>
      </trkpt>
      <trkpt lat="43.10492" lon="1.61126">
        <ele>293</ele>
        <time>2014-07-25T05:49:45Z</time>
      </trkpt>
      <trkpt lat="43.10491" lon="1.6113">
        <ele>293</ele>
        <time>2014-07-25T05:49:52Z</time>
      </trkpt>
      <trkpt lat="43.10488" lon="1.61135">
        <ele>294</ele>
        <time>2014-07-25T05:50:16Z</time>
      </trkpt>
      <trkpt lat="43.10487" lon="1.61142">
        <ele>294</ele>
        <time>2014-07-25T05:50:20Z</time>
      </trkpt>
      <trkpt lat="43.10488" lon="1.61148">
        <ele>294</ele>
        <time>2014-07-25T05:50:23Z</time>
      </trkpt>
      <trkpt lat="43.10488" lon="1.61156">
        <ele>294</ele>
        <time>2014-07-25T05:50:26Z</time>
      </trkpt>
      <trkpt lat="43.10488" lon="1.61161">
        <ele>293</ele>
        <time>2014-07-25T05:50:35Z</time>
      </trkpt>
      <trkpt lat="43.10488" lon="1.61167">
        <ele>293</ele>
        <time>2014-07-25T05:51:11Z</time>
      </trkpt>
      <trkpt lat="43.10488" lon="1.61175">
        <ele>292</ele>
        <time>2014-07-25T05:51:15Z</time>
      </trkpt>
      <trkpt lat="43.1049" lon="1.61181">
        <ele>291</ele>
        <time>2014-07-25T05:51:18Z</time>
      </trkpt>
      <trkpt lat="43.1049" lon="1.61188">
        <ele>292</ele>
        <time>2014-07-25T05:51:21Z</time>
      </trkpt>
      <trkpt lat="43.10491" lon="1.61194">
        <ele>292</ele>
        <time>2014-07-25T05:51:24Z</time>
      </trkpt>
      <trkpt lat="43.10488" lon="1.6123">
        <ele>294</ele>
        <time>2014-07-25T05:51:43Z</time>
      </trkpt>
      <trkpt lat="43.10487" lon="1.61269">
        <ele>291</ele>
        <time>2014-07-25T05:52:09Z</time>
      </trkpt>
      <trkpt lat="43.10484" lon="1.61275">
        <ele>291</ele>
        <time>2014-07-25T05:52:13Z</time>
      </trkpt>
      <trkpt lat="43.10479" lon="1.6128">
        <ele>290</ele>
        <time>2014-07-25T05:52:17Z</time>
      </trkpt>
      <trkpt lat="43.10436" lon="1.61318">
        <ele>295</ele>
        <time>2014-07-25T05:52:49Z</time>
      </trkpt>
      <trkpt lat="43.10428" lon="1.61327">
        <ele>295</ele>
        <time>2014-07-25T05:52:56Z</time>
      </trkpt>
      <trkpt lat="43.10424" lon="1.61332">
        <ele>295</ele>
        <time>2014-07-25T05:53:00Z</time>
      </trkpt>
      <trkpt lat="43.10421" lon="1.61338">
        <ele>295</ele>
        <time>2014-07-25T05:53:04Z</time>
      </trkpt>
      <trkpt lat="43.10419" lon="1.61344">
        <ele>296</ele>
        <time>2014-07-25T05:53:07Z</time>
      </trkpt>
      <trkpt lat="43.10403" lon="1.61373">
        <ele>299</ele>
        <time>2014-07-25T05:53:25Z</time>
      </trkpt>
      <trkpt lat="43.104" lon="1.61378">
        <ele>299</ele>
        <time>2014-07-25T05:53:29Z</time>
      </trkpt>
      <trkpt lat="43.10396" lon="1.61381">
        <ele>297</ele>
        <time>2014-07-25T05:53:34Z</time>
      </trkpt>
      <trkpt lat="43.1039" lon="1.6138">
        <ele>296</ele>
        <time>2014-07-25T05:53:40Z</time>
      </trkpt>
      <trkpt lat="43.10387" lon="1.61375">
        <ele>296</ele>
        <time>2014-07-25T05:53:45Z</time>
      </trkpt>
      <trkpt lat="43.10382" lon="1.61362">
        <ele>296</ele>
        <time>2014-07-25T05:53:53Z</time>
      </trkpt>
      <trkpt lat="43.10356" lon="1.61315">
        <ele>289</ele>
        <time>2014-07-25T05:54:25Z</time>
      </trkpt>
      <trkpt lat="43.10348" lon="1.61306">
        <ele>288</ele>
        <time>2014-07-25T05:54:33Z</time>
      </trkpt>
      <trkpt lat="43.10344" lon="1.61304">
        <ele>288</ele>
        <time>2014-07-25T05:54:37Z</time>
      </trkpt>
      <trkpt lat="43.10317" lon="1.61272">
        <ele>294</ele>
        <time>2014-07-25T05:55:06Z</time>
      </trkpt>
      <trkpt lat="43.10312" lon="1.61268">
        <ele>294</ele>
        <time>2014-07-25T05:55:10Z</time>
      </trkpt>
      <trkpt lat="43.10307" lon="1.61263">
        <ele>294</ele>
        <time>2014-07-25T05:55:14Z</time>
      </trkpt>
      <trkpt lat="43.10303" lon="1.61259">
        <ele>294</ele>
        <time>2014-07-25T05:55:18Z</time>
      </trkpt>
      <trkpt lat="43.10287" lon="1.61242">
        <ele>295</ele>
        <time>2014-07-25T05:55:34Z</time>
      </trkpt>
      <trkpt lat="43.10282" lon="1.6124">
        <ele>295</ele>
        <time>2014-07-25T05:55:38Z</time>
      </trkpt>
      <trkpt lat="43.10266" lon="1.6123">
        <ele>297</ele>
        <time>2014-07-25T05:55:50Z</time>
      </trkpt>
      <trkpt lat="43.10248" lon="1.61217">
        <ele>294</ele>
        <time>2014-07-25T05:56:05Z</time>
      </trkpt>
      <trkpt lat="43.10235" lon="1.61206">
        <ele>295</ele>
        <time>2014-07-25T05:56:17Z</time>
      </trkpt>
      <trkpt lat="43.10226" lon="1.612">
        <ele>296</ele>
        <time>2014-07-25T05:56:25Z</time>
      </trkpt>
      <trkpt lat="43.10222" lon="1.61196">
        <ele>296</ele>
        <time>2014-07-25T05:56:29Z</time>
      </trkpt>
      <trkpt lat="43.10217" lon="1.61192">
        <ele>297</ele>
        <time>2014-07-25T05:56:33Z</time>
      </trkpt>
      <trkpt lat="43.10213" lon="1.61188">
        <ele>297</ele>
        <time>2014-07-25T05:56:37Z</time>
      </trkpt>
      <trkpt lat="43.10209" lon="1.61184">
        <ele>297</ele>
        <time>2014-07-25T05:56:41Z</time>
      </trkpt>
      <trkpt lat="43.102" lon="1.61175">
        <ele>297</ele>
        <time>2014-07-25T05:56:49Z</time>
      </trkpt>
      <trkpt lat="43.10196" lon="1.61171">
        <ele>297</ele>
        <time>2014-07-25T05:56:53Z</time>
      </trkpt>
      <trkpt lat="43.10191" lon="1.61169">
        <ele>296</ele>
        <time>2014-07-25T05:56:58Z</time>
      </trkpt>
      <trkpt lat="43.10187" lon="1.61165">
        <ele>295</ele>
        <time>2014-07-25T05:57:03Z</time>
      </trkpt>
      <trkpt lat="43.10175" lon="1.61153">
        <ele>294</ele>
        <time>2014-07-25T05:57:15Z</time>
      </trkpt>
      <trkpt lat="43.10171" lon="1.61149">
        <ele>293</ele>
        <time>2014-07-25T05:57:20Z</time>
      </trkpt>
      <trkpt lat="43.10167" lon="1.61147">
        <ele>293</ele>
        <time>2014-07-25T05:57:24Z</time>
      </trkpt>
      <trkpt lat="43.10162" lon="1.61145">
        <ele>293</ele>
        <time>2014-07-25T05:57:28Z</time>
      </trkpt>
      <trkpt lat="43.10153" lon="1.61137">
        <ele>295</ele>
        <time>2014-07-25T05:57:38Z</time>
      </trkpt>
      <trkpt lat="43.10149" lon="1.61133">
        <ele>296</ele>
        <time>2014-07-25T05:57:42Z</time>
      </trkpt>
      <trkpt lat="43.10131" lon="1.61118">
        <ele>299</ele>
        <time>2014-07-25T05:57:58Z</time>
      </trkpt>
      <trkpt lat="43.10126" lon="1.61114">
        <ele>298</ele>
        <time>2014-07-25T05:58:03Z</time>
      </trkpt>
      <trkpt lat="43.10122" lon="1.6111">
        <ele>298</ele>
        <time>2014-07-25T05:58:07Z</time>
      </trkpt>
      <trkpt lat="43.10109" lon="1.61101">
        <ele>298</ele>
        <time>2014-07-25T05:58:20Z</time>
      </trkpt>
      <trkpt lat="43.10096" lon="1.61089">
        <ele>301</ele>
        <time>2014-07-25T05:58:34Z</time>
      </trkpt>
      <trkpt lat="43.10083" lon="1.61081">
        <ele>301</ele>
        <time>2014-07-25T05:58:47Z</time>
      </trkpt>
      <trkpt lat="43.10078" lon="1.61078">
        <ele>302</ele>
        <time>2014-07-25T05:58:53Z</time>
      </trkpt>
      <trkpt lat="43.10075" lon="1.61073">
        <ele>303</ele>
        <time>2014-07-25T05:59:00Z</time>
      </trkpt>
      <trkpt lat="43.10071" lon="1.6107">
        <ele>304</ele>
        <time>2014-07-25T05:59:07Z</time>
      </trkpt>
      <trkpt lat="43.10061" lon="1.61067">
        <ele>303</ele>
        <time>2014-07-25T05:59:20Z</time>
      </trkpt>
      <trkpt lat="43.10042" lon="1.61055">
        <ele>307</ele>
        <time>2014-07-25T05:59:39Z</time>
      </trkpt>
      <trkpt lat="43.10038" lon="1.6105">
        <ele>306</ele>
        <time>2014-07-25T05:59:45Z</time>
      </trkpt>
      <trkpt lat="43.10035" lon="1.61045">
        <ele>307</ele>
        <time>2014-07-25T05:59:51Z</time>
      </trkpt>
      <trkpt lat="43.10032" lon="1.61038">
        <ele>308</ele>
        <time>2014-07-25T05:59:59Z</time>
      </trkpt>
      <trkpt lat="43.10025" lon="1.6103">
        <ele>307</ele>
        <time>2014-07-25T06:00:10Z</time>
      </trkpt>
      <trkpt lat="43.10025" lon="1.61023">
        <ele>306</ele>
        <time>2014-07-25T06:00:17Z</time>
      </trkpt>
      <trkpt lat="43.10028" lon="1.61003">
        <ele>307</ele>
        <time>2014-07-25T06:00:36Z</time>
      </trkpt>
      <trkpt lat="43.10034" lon="1.60981">
        <ele>312</ele>
        <time>2014-07-25T06:00:55Z</time>
      </trkpt>
      <trkpt lat="43.10031" lon="1.60968">
        <ele>316</ele>
        <time>2014-07-25T06:01:08Z</time>
      </trkpt>
      <trkpt lat="43.10032" lon="1.60956">
        <ele>315</ele>
        <time>2014-07-25T06:01:20Z</time>
      </trkpt>
      <trkpt lat="43.10037" lon="1.60936">
        <ele>317</ele>
        <time>2014-07-25T06:01:39Z</time>
      </trkpt>
      <trkpt lat="43.10037" lon="1.60926">
        <ele>318</ele>
        <time>2014-07-25T06:01:47Z</time>
      </trkpt>
      <trkpt lat="43.10036" lon="1.60919">
        <ele>320</ele>
        <time>2014-07-25T06:01:56Z</time>
      </trkpt>
      <trkpt lat="43.10034" lon="1.60914">
        <ele>321</ele>
        <time>2014-07-25T06:02:05Z</time>
      </trkpt>
      <trkpt lat="43.10021" lon="1.60898">
        <ele>326</ele>
        <time>2014-07-25T06:02:32Z</time>
      </trkpt>
      <trkpt lat="43.10018" lon="1.60898">
        <ele>329</ele>
        <time>2014-07-25T06:02:44Z</time>
      </trkpt>
      <trkpt lat="43.10017" lon="1.60896">
        <ele>329</ele>
        <time>2014-07-25T06:02:50Z</time>
      </trkpt>
      <trkpt lat="43.10014" lon="1.60891">
        <ele>330</ele>
        <time>2014-07-25T06:03:01Z</time>
      </trkpt>
      <trkpt lat="43.1001" lon="1.60882">
        <ele>333</ele>
        <time>2014-07-25T06:03:14Z</time>
      </trkpt>
      <trkpt lat="43.10009" lon="1.60868">
        <ele>335</ele>
        <time>2014-07-25T06:03:27Z</time>
      </trkpt>
      <trkpt lat="43.10011" lon="1.60862">
        <ele>336</ele>
        <time>2014-07-25T06:03:34Z</time>
      </trkpt>
      <trkpt lat="43.10004" lon="1.60863">
        <ele>339</ele>
        <time>2014-07-25T06:03:52Z</time>
      </trkpt>
      <trkpt lat="43.09995" lon="1.60866">
        <ele>340</ele>
        <time>2014-07-25T06:04:05Z</time>
      </trkpt>
      <trkpt lat="43.09992" lon="1.60871">
        <ele>343</ele>
        <time>2014-07-25T06:04:12Z</time>
      </trkpt>
      <trkpt lat="43.09991" lon="1.6088">
        <ele>347</ele>
        <time>2014-07-25T06:04:37Z</time>
      </trkpt>
      <trkpt lat="43.09989" lon="1.6088">
        <ele>351</ele>
        <time>2014-07-25T06:05:23Z</time>
      </trkpt>
      <trkpt lat="43.09986" lon="1.60882">
        <ele>354</ele>
        <time>2014-07-25T06:05:34Z</time>
      </trkpt>
      <trkpt lat="43.09982" lon="1.60889">
        <ele>358</ele>
        <time>2014-07-25T06:05:49Z</time>
      </trkpt>
      <trkpt lat="43.09978" lon="1.60891">
        <ele>361</ele>
        <time>2014-07-25T06:05:59Z</time>
      </trkpt>
      <trkpt lat="43.09959" lon="1.60896">
        <ele>367</ele>
        <time>2014-07-25T06:06:35Z</time>
      </trkpt>
      <trkpt lat="43.0995" lon="1.60894">
        <ele>368</ele>
        <time>2014-07-25T06:06:51Z</time>
      </trkpt>
      <trkpt lat="43.09945" lon="1.60891">
        <ele>370</ele>
        <time>2014-07-25T06:06:58Z</time>
      </trkpt>
      <trkpt lat="43.09942" lon="1.60887">
        <ele>371</ele>
        <time>2014-07-25T06:07:05Z</time>
      </trkpt>
      <trkpt lat="43.0993" lon="1.60876">
        <ele>373</ele>
        <time>2014-07-25T06:07:26Z</time>
      </trkpt>
      <trkpt lat="43.0992" lon="1.60882">
        <ele>372</ele>
        <time>2014-07-25T06:07:38Z</time>
      </trkpt>
      <trkpt lat="43.09915" lon="1.60883">
        <ele>372</ele>
        <time>2014-07-25T06:07:43Z</time>
      </trkpt>
      <trkpt lat="43.09911" lon="1.60883">
        <ele>372</ele>
        <time>2014-07-25T06:07:51Z</time>
      </trkpt>
      <trkpt lat="43.09907" lon="1.60878">
        <ele>373</ele>
        <time>2014-07-25T06:07:59Z</time>
      </trkpt>
      <trkpt lat="43.09903" lon="1.60878">
        <ele>376</ele>
        <time>2014-07-25T06:08:09Z</time>
      </trkpt>
      <trkpt lat="43.09894" lon="1.60881">
        <ele>377</ele>
        <time>2014-07-25T06:08:25Z</time>
      </trkpt>
      <trkpt lat="43.09889" lon="1.6088">
        <ele>378</ele>
        <time>2014-07-25T06:08:37Z</time>
      </trkpt>
      <trkpt lat="43.09879" lon="1.60878">
        <ele>376</ele>
        <time>2014-07-25T06:08:45Z</time>
      </trkpt>
      <trkpt lat="43.09874" lon="1.60876">
        <ele>377</ele>
        <time>2014-07-25T06:08:49Z</time>
      </trkpt>
      <trkpt lat="43.09864" lon="1.60874">
        <ele>378</ele>
        <time>2014-07-25T06:09:00Z</time>
      </trkpt>
      <trkpt lat="43.0986" lon="1.60871">
        <ele>379</ele>
        <time>2014-07-25T06:09:05Z</time>
      </trkpt>
      <trkpt lat="43.09855" lon="1.60869">
        <ele>380</ele>
        <time>2014-07-25T06:09:10Z</time>
      </trkpt>
      <trkpt lat="43.09845" lon="1.60865">
        <ele>380</ele>
        <time>2014-07-25T06:09:19Z</time>
      </trkpt>
      <trkpt lat="43.0984" lon="1.60863">
        <ele>380</ele>
        <time>2014-07-25T06:09:25Z</time>
      </trkpt>
      <trkpt lat="43.09835" lon="1.60864">
        <ele>381</ele>
        <time>2014-07-25T06:09:34Z</time>
      </trkpt>
      <trkpt lat="43.09831" lon="1.60869">
        <ele>381</ele>
        <time>2014-07-25T06:09:42Z</time>
      </trkpt>
      <trkpt lat="43.09827" lon="1.60872">
        <ele>381</ele>
        <time>2014-07-25T06:09:46Z</time>
      </trkpt>
      <trkpt lat="43.09821" lon="1.60875">
        <ele>381</ele>
        <time>2014-07-25T06:09:50Z</time>
      </trkpt>
      <trkpt lat="43.09818" lon="1.6088">
        <ele>381</ele>
        <time>2014-07-25T06:09:55Z</time>
      </trkpt>
      <trkpt lat="43.09811" lon="1.6089">
        <ele>383</ele>
        <time>2014-07-25T06:10:09Z</time>
      </trkpt>
      <trkpt lat="43.0981" lon="1.60896">
        <ele>384</ele>
        <time>2014-07-25T06:10:14Z</time>
      </trkpt>
      <trkpt lat="43.09807" lon="1.6091">
        <ele>383</ele>
        <time>2014-07-25T06:10:24Z</time>
      </trkpt>
      <trkpt lat="43.09803" lon="1.60916">
        <ele>384</ele>
        <time>2014-07-25T06:10:29Z</time>
      </trkpt>
      <trkpt lat="43.09802" lon="1.60922">
        <ele>384</ele>
        <time>2014-07-25T06:10:33Z</time>
      </trkpt>
      <trkpt lat="43.09794" lon="1.60948">
        <ele>379</ele>
        <time>2014-07-25T06:10:57Z</time>
      </trkpt>
      <trkpt lat="43.09794" lon="1.60955">
        <ele>379</ele>
        <time>2014-07-25T06:11:04Z</time>
      </trkpt>
      <trkpt lat="43.09791" lon="1.60957">
        <ele>379</ele>
        <time>2014-07-25T06:11:13Z</time>
      </trkpt>
      <trkpt lat="43.09789" lon="1.6096">
        <ele>379</ele>
        <time>2014-07-25T06:11:23Z</time>
      </trkpt>
      <trkpt lat="43.09787" lon="1.60962">
        <ele>381</ele>
        <time>2014-07-25T06:11:34Z</time>
      </trkpt>
      <trkpt lat="43.09768" lon="1.60958">
        <ele>388</ele>
        <time>2014-07-25T06:11:59Z</time>
      </trkpt>
      <trkpt lat="43.09763" lon="1.60961">
        <ele>390</ele>
        <time>2014-07-25T06:12:06Z</time>
      </trkpt>
      <trkpt lat="43.09754" lon="1.60965">
        <ele>390</ele>
        <time>2014-07-25T06:12:16Z</time>
      </trkpt>
      <trkpt lat="43.09751" lon="1.60965">
        <ele>390</ele>
        <time>2014-07-25T06:12:23Z</time>
      </trkpt>
      <trkpt lat="43.09748" lon="1.60957">
        <ele>389</ele>
        <time>2014-07-25T06:12:38Z</time>
      </trkpt>
      <trkpt lat="43.09743" lon="1.60947">
        <ele>390</ele>
        <time>2014-07-25T06:12:50Z</time>
      </trkpt>
      <trkpt lat="43.09734" lon="1.60931">
        <ele>394</ele>
        <time>2014-07-25T06:13:11Z</time>
      </trkpt>
      <trkpt lat="43.0973" lon="1.60927">
        <ele>394</ele>
        <time>2014-07-25T06:13:16Z</time>
      </trkpt>
      <trkpt lat="43.09725" lon="1.60925">
        <ele>393</ele>
        <time>2014-07-25T06:13:20Z</time>
      </trkpt>
      <trkpt lat="43.09721" lon="1.60922">
        <ele>393</ele>
        <time>2014-07-25T06:13:25Z</time>
      </trkpt>
      <trkpt lat="43.09716" lon="1.6092">
        <ele>393</ele>
        <time>2014-07-25T06:13:30Z</time>
      </trkpt>
      <trkpt lat="43.09711" lon="1.60919">
        <ele>393</ele>
        <time>2014-07-25T06:13:35Z</time>
      </trkpt>
      <trkpt lat="43.09707" lon="1.60915">
        <ele>393</ele>
        <time>2014-07-25T06:13:41Z</time>
      </trkpt>
      <trkpt lat="43.09698" lon="1.60909">
        <ele>395</ele>
        <time>2014-07-25T06:13:55Z</time>
      </trkpt>
      <trkpt lat="43.09696" lon="1.60904">
        <ele>397</ele>
        <time>2014-07-25T06:14:04Z</time>
      </trkpt>
      <trkpt lat="43.09677" lon="1.60882">
        <ele>407</ele>
        <time>2014-07-25T06:14:37Z</time>
      </trkpt>
      <trkpt lat="43.09672" lon="1.60883">
        <ele>407</ele>
        <time>2014-07-25T06:14:44Z</time>
      </trkpt>
      <trkpt lat="43.09668" lon="1.60885">
        <ele>408</ele>
        <time>2014-07-25T06:14:50Z</time>
      </trkpt>
      <trkpt lat="43.09663" lon="1.60885">
        <ele>408</ele>
        <time>2014-07-25T06:14:56Z</time>
      </trkpt>
      <trkpt lat="43.09658" lon="1.60884">
        <ele>408</ele>
        <time>2014-07-25T06:15:00Z</time>
      </trkpt>
      <trkpt lat="43.09634" lon="1.60889">
        <ele>417</ele>
        <time>2014-07-25T06:15:28Z</time>
      </trkpt>
      <trkpt lat="43.09629" lon="1.60889">
        <ele>418</ele>
        <time>2014-07-25T06:15:36Z</time>
      </trkpt>
      <trkpt lat="43.09627" lon="1.60885">
        <ele>418</ele>
        <time>2014-07-25T06:15:46Z</time>
      </trkpt>
      <trkpt lat="43.09621" lon="1.6087">
        <ele>424</ele>
        <time>2014-07-25T06:16:13Z</time>
      </trkpt>
      <trkpt lat="43.09621" lon="1.60857">
        <ele>425</ele>
        <time>2014-07-25T06:16:27Z</time>
      </trkpt>
      <trkpt lat="43.09622" lon="1.60837">
        <ele>425</ele>
        <time>2014-07-25T06:16:45Z</time>
      </trkpt>
      <trkpt lat="43.09634" lon="1.60808">
        <ele>430</ele>
        <time>2014-07-25T06:17:18Z</time>
      </trkpt>
      <trkpt lat="43.09636" lon="1.6077">
        <ele>439</ele>
        <time>2014-07-25T06:17:55Z</time>
      </trkpt>
      <trkpt lat="43.09638" lon="1.60758">
        <ele>441</ele>
        <time>2014-07-25T06:18:09Z</time>
      </trkpt>
      <trkpt lat="43.09631" lon="1.60726">
        <ele>446</ele>
        <time>2014-07-25T06:18:44Z</time>
      </trkpt>
      <trkpt lat="43.0963" lon="1.6072">
        <ele>447</ele>
        <time>2014-07-25T06:18:51Z</time>
      </trkpt>
      <trkpt lat="43.09629" lon="1.60714">
        <ele>448</ele>
        <time>2014-07-25T06:18:59Z</time>
      </trkpt>
      <trkpt lat="43.09628" lon="1.60707">
        <ele>448</ele>
        <time>2014-07-25T06:19:06Z</time>
      </trkpt>
      <trkpt lat="43.09622" lon="1.6069">
        <ele>455</ele>
        <time>2014-07-25T06:19:29Z</time>
      </trkpt>
      <trkpt lat="43.0962" lon="1.60688">
        <ele>457</ele>
        <time>2014-07-25T06:19:40Z</time>
      </trkpt>
      <trkpt lat="43.09614" lon="1.60684">
        <ele>458</ele>
        <time>2014-07-25T06:19:48Z</time>
      </trkpt>
      <trkpt lat="43.09606" lon="1.60678">
        <ele>457</ele>
        <time>2014-07-25T06:19:57Z</time>
      </trkpt>
      <trkpt lat="43.09598" lon="1.60672">
        <ele>458</ele>
        <time>2014-07-25T06:20:10Z</time>
      </trkpt>
      <trkpt lat="43.09597" lon="1.60666">
        <ele>458</ele>
        <time>2014-07-25T06:20:21Z</time>
      </trkpt>
      <trkpt lat="43.09598" lon="1.60661">
        <ele>455</ele>
        <time>2014-07-25T06:23:00Z</time>
      </trkpt>
      <trkpt lat="43.09593" lon="1.60663">
        <ele>455</ele>
        <time>2014-07-25T06:23:08Z</time>
      </trkpt>
      <trkpt lat="43.09589" lon="1.60667">
        <ele>455</ele>
        <time>2014-07-25T06:23:13Z</time>
      </trkpt>
      <trkpt lat="43.09584" lon="1.60666">
        <ele>455</ele>
        <time>2014-07-25T06:23:17Z</time>
      </trkpt>
      <trkpt lat="43.09579" lon="1.60666">
        <ele>456</ele>
        <time>2014-07-25T06:23:21Z</time>
      </trkpt>
      <trkpt lat="43.09544" lon="1.60653">
        <ele>452</ele>
        <time>2014-07-25T06:23:50Z</time>
      </trkpt>
      <trkpt lat="43.09521" lon="1.6064">
        <ele>447</ele>
        <time>2014-07-25T06:24:12Z</time>
      </trkpt>
      <trkpt lat="43.09512" lon="1.60639">
        <ele>447</ele>
        <time>2014-07-25T06:24:20Z</time>
      </trkpt>
      <trkpt lat="43.09507" lon="1.60643">
        <ele>447</ele>
        <time>2014-07-25T06:24:25Z</time>
      </trkpt>
      <trkpt lat="43.09502" lon="1.60641">
        <ele>447</ele>
        <time>2014-07-25T06:24:29Z</time>
      </trkpt>
      <trkpt lat="43.09495" lon="1.60632">
        <ele>448</ele>
        <time>2014-07-25T06:24:37Z</time>
      </trkpt>
      <trkpt lat="43.09486" lon="1.60625">
        <ele>447</ele>
        <time>2014-07-25T06:24:43Z</time>
      </trkpt>
      <trkpt lat="43.09481" lon="1.60614">
        <ele>446</ele>
        <time>2014-07-25T06:24:51Z</time>
      </trkpt>
      <trkpt lat="43.09449" lon="1.60579">
        <ele>448</ele>
        <time>2014-07-25T06:25:24Z</time>
      </trkpt>
      <trkpt lat="43.09444" lon="1.60576">
        <ele>449</ele>
        <time>2014-07-25T06:25:28Z</time>
      </trkpt>
      <trkpt lat="43.0944" lon="1.60572">
        <ele>449</ele>
        <time>2014-07-25T06:25:33Z</time>
      </trkpt>
      <trkpt lat="43.0943" lon="1.60557">
        <ele>452</ele>
        <time>2014-07-25T06:25:47Z</time>
      </trkpt>
      <trkpt lat="43.09423" lon="1.60545">
        <ele>452</ele>
        <time>2014-07-25T06:25:57Z</time>
      </trkpt>
      <trkpt lat="43.09415" lon="1.60536">
        <ele>452</ele>
        <time>2014-07-25T06:26:03Z</time>
      </trkpt>
      <trkpt lat="43.09407" lon="1.60522">
        <ele>453</ele>
        <time>2014-07-25T06:26:12Z</time>
      </trkpt>
      <trkpt lat="43.09405" lon="1.60515">
        <ele>453</ele>
        <time>2014-07-25T06:26:16Z</time>
      </trkpt>
      <trkpt lat="43.09404" lon="1.60508">
        <ele>453</ele>
        <time>2014-07-25T06:26:21Z</time>
      </trkpt>
      <trkpt lat="43.09401" lon="1.605">
        <ele>454</ele>
        <time>2014-07-25T06:26:26Z</time>
      </trkpt>
      <trkpt lat="43.09389" lon="1.60463">
        <ele>453</ele>
        <time>2014-07-25T06:26:49Z</time>
      </trkpt>
      <trkpt lat="43.09384" lon="1.60453">
        <ele>452</ele>
        <time>2014-07-25T06:26:56Z</time>
      </trkpt>
      <trkpt lat="43.09384" lon="1.60446">
        <ele>452</ele>
        <time>2014-07-25T06:27:00Z</time>
      </trkpt>
      <trkpt lat="43.09377" lon="1.6042">
        <ele>456</ele>
        <time>2014-07-25T06:27:15Z</time>
      </trkpt>
      <trkpt lat="43.09351" lon="1.60397">
        <ele>458</ele>
        <time>2014-07-25T06:27:37Z</time>
      </trkpt>
      <trkpt lat="43.0934" lon="1.60391">
        <ele>457</ele>
        <time>2014-07-25T06:27:45Z</time>
      </trkpt>
      <trkpt lat="43.09303" lon="1.6038">
        <ele>451</ele>
        <time>2014-07-25T06:28:15Z</time>
      </trkpt>
      <trkpt lat="43.09297" lon="1.6038">
        <ele>451</ele>
        <time>2014-07-25T06:28:19Z</time>
      </trkpt>
      <trkpt lat="43.09287" lon="1.60376">
        <ele>450</ele>
        <time>2014-07-25T06:28:28Z</time>
      </trkpt>
      <trkpt lat="43.09279" lon="1.60369">
        <ele>450</ele>
        <time>2014-07-25T06:28:34Z</time>
      </trkpt>
      <trkpt lat="43.09273" lon="1.60366">
        <ele>449</ele>
        <time>2014-07-25T06:28:38Z</time>
      </trkpt>
      <trkpt lat="43.09268" lon="1.60363">
        <ele>448</ele>
        <time>2014-07-25T06:28:42Z</time>
      </trkpt>
      <trkpt lat="43.09265" lon="1.60358">
        <ele>449</ele>
        <time>2014-07-25T06:28:45Z</time>
      </trkpt>
      <trkpt lat="43.09261" lon="1.60355">
        <ele>449</ele>
        <time>2014-07-25T06:28:49Z</time>
      </trkpt>
      <trkpt lat="43.09257" lon="1.60353">
        <ele>449</ele>
        <time>2014-07-25T06:28:52Z</time>
      </trkpt>
      <trkpt lat="43.09242" lon="1.60345">
        <ele>449</ele>
        <time>2014-07-25T06:29:03Z</time>
      </trkpt>
      <trkpt lat="43.09237" lon="1.60342">
        <ele>451</ele>
        <time>2014-07-25T06:29:07Z</time>
      </trkpt>
      <trkpt lat="43.09233" lon="1.60339">
        <ele>451</ele>
        <time>2014-07-25T06:29:12Z</time>
      </trkpt>
      <trkpt lat="43.09228" lon="1.60335">
        <ele>451</ele>
        <time>2014-07-25T06:29:17Z</time>
      </trkpt>
      <trkpt lat="43.09225" lon="1.60331">
        <ele>451</ele>
        <time>2014-07-25T06:29:20Z</time>
      </trkpt>
      <trkpt lat="43.09222" lon="1.60326">
        <ele>450</ele>
        <time>2014-07-25T06:29:24Z</time>
      </trkpt>
      <trkpt lat="43.09214" lon="1.60316">
        <ele>450</ele>
        <time>2014-07-25T06:29:32Z</time>
      </trkpt>
      <trkpt lat="43.09207" lon="1.60303">
        <ele>451</ele>
        <time>2014-07-25T06:29:40Z</time>
      </trkpt>
      <trkpt lat="43.09203" lon="1.60298">
        <ele>451</ele>
        <time>2014-07-25T06:29:44Z</time>
      </trkpt>
      <trkpt lat="43.09198" lon="1.60293">
        <ele>451</ele>
        <time>2014-07-25T06:29:48Z</time>
      </trkpt>
      <trkpt lat="43.09191" lon="1.60285">
        <ele>451</ele>
        <time>2014-07-25T06:29:55Z</time>
      </trkpt>
      <trkpt lat="43.09186" lon="1.6028">
        <ele>451</ele>
        <time>2014-07-25T06:29:59Z</time>
      </trkpt>
      <trkpt lat="43.09182" lon="1.60277">
        <ele>451</ele>
        <time>2014-07-25T06:30:02Z</time>
      </trkpt>
      <trkpt lat="43.09177" lon="1.60274">
        <ele>452</ele>
        <time>2014-07-25T06:30:06Z</time>
      </trkpt>
      <trkpt lat="43.09173" lon="1.60271">
        <ele>452</ele>
        <time>2014-07-25T06:30:10Z</time>
      </trkpt>
      <trkpt lat="43.09168" lon="1.60268">
        <ele>451</ele>
        <time>2014-07-25T06:30:15Z</time>
      </trkpt>
      <trkpt lat="43.09159" lon="1.60261">
        <ele>452</ele>
        <time>2014-07-25T06:30:23Z</time>
      </trkpt>
      <trkpt lat="43.09154" lon="1.60258">
        <ele>452</ele>
        <time>2014-07-25T06:30:28Z</time>
      </trkpt>
      <trkpt lat="43.09125" lon="1.60241">
        <ele>448</ele>
        <time>2014-07-25T06:30:50Z</time>
      </trkpt>
      <trkpt lat="43.09106" lon="1.60232">
        <ele>448</ele>
        <time>2014-07-25T06:31:05Z</time>
      </trkpt>
      <trkpt lat="43.0909" lon="1.60224">
        <ele>447</ele>
        <time>2014-07-25T06:31:17Z</time>
      </trkpt>
      <trkpt lat="43.09085" lon="1.60223">
        <ele>447</ele>
        <time>2014-07-25T06:31:20Z</time>
      </trkpt>
      <trkpt lat="43.0908" lon="1.6022">
        <ele>448</ele>
        <time>2014-07-25T06:31:23Z</time>
      </trkpt>
      <trkpt lat="43.09067" lon="1.6021">
        <ele>446</ele>
        <time>2014-07-25T06:31:35Z</time>
      </trkpt>
      <trkpt lat="43.09063" lon="1.60207">
        <ele>446</ele>
        <time>2014-07-25T06:31:39Z</time>
      </trkpt>
      <trkpt lat="43.09057" lon="1.60205">
        <ele>447</ele>
        <time>2014-07-25T06:31:43Z</time>
      </trkpt>
      <trkpt lat="43.09049" lon="1.60195">
        <ele>449</ele>
        <time>2014-07-25T06:31:51Z</time>
      </trkpt>
      <trkpt lat="43.09046" lon="1.6019">
        <ele>449</ele>
        <time>2014-07-25T06:31:55Z</time>
      </trkpt>
      <trkpt lat="43.09029" lon="1.60164">
        <ele>445</ele>
        <time>2014-07-25T06:32:13Z</time>
      </trkpt>
      <trkpt lat="43.09023" lon="1.60151">
        <ele>445</ele>
        <time>2014-07-25T06:32:21Z</time>
      </trkpt>
      <trkpt lat="43.0902" lon="1.60144">
        <ele>444</ele>
        <time>2014-07-25T06:32:25Z</time>
      </trkpt>
      <trkpt lat="43.09016" lon="1.60137">
        <ele>444</ele>
        <time>2014-07-25T06:32:29Z</time>
      </trkpt>
      <trkpt lat="43.09003" lon="1.60103">
        <ele>449</ele>
        <time>2014-07-25T06:32:50Z</time>
      </trkpt>
      <trkpt lat="43.09" lon="1.601">
        <ele>451</ele>
        <time>2014-07-25T06:33:33Z</time>
      </trkpt>
      <trkpt lat="43.08998" lon="1.60093">
        <ele>451</ele>
        <time>2014-07-25T06:33:40Z</time>
      </trkpt>
      <trkpt lat="43.08999" lon="1.60087">
        <ele>452</ele>
        <time>2014-07-25T06:33:44Z</time>
      </trkpt>
      <trkpt lat="43.09001" lon="1.6008">
        <ele>452</ele>
        <time>2014-07-25T06:33:48Z</time>
      </trkpt>
      <trkpt lat="43.09003" lon="1.60073">
        <ele>453</ele>
        <time>2014-07-25T06:33:53Z</time>
      </trkpt>
      <trkpt lat="43.09007" lon="1.60054">
        <ele>453</ele>
        <time>2014-07-25T06:34:07Z</time>
      </trkpt>
      <trkpt lat="43.09005" lon="1.6004">
        <ele>455</ele>
        <time>2014-07-25T06:34:17Z</time>
      </trkpt>
      <trkpt lat="43.09002" lon="1.60033">
        <ele>456</ele>
        <time>2014-07-25T06:34:21Z</time>
      </trkpt>
      <trkpt lat="43.08996" lon="1.60023">
        <ele>455</ele>
        <time>2014-07-25T06:34:28Z</time>
      </trkpt>
      <trkpt lat="43.08991" lon="1.60011">
        <ele>456</ele>
        <time>2014-07-25T06:34:38Z</time>
      </trkpt>
      <trkpt lat="43.08986" lon="1.60008">
        <ele>458</ele>
        <time>2014-07-25T06:34:54Z</time>
      </trkpt>
      <trkpt lat="43.08972" lon="1.60001">
        <ele>462</ele>
        <time>2014-07-25T06:35:13Z</time>
      </trkpt>
      <trkpt lat="43.08968" lon="1.59999">
        <ele>462</ele>
        <time>2014-07-25T06:35:18Z</time>
      </trkpt>
      <trkpt lat="43.08936" lon="1.59984">
        <ele>462</ele>
        <time>2014-07-25T06:35:47Z</time>
      </trkpt>
      <trkpt lat="43.08931" lon="1.59984">
        <ele>463</ele>
        <time>2014-07-25T06:35:51Z</time>
      </trkpt>
      <trkpt lat="43.08926" lon="1.59984">
        <ele>463</ele>
        <time>2014-07-25T06:35:55Z</time>
      </trkpt>
      <trkpt lat="43.08922" lon="1.59985">
        <ele>462</ele>
        <time>2014-07-25T06:35:59Z</time>
      </trkpt>
      <trkpt lat="43.08917" lon="1.59985">
        <ele>462</ele>
        <time>2014-07-25T06:36:03Z</time>
      </trkpt>
      <trkpt lat="43.08912" lon="1.59984">
        <ele>461</ele>
        <time>2014-07-25T06:36:08Z</time>
      </trkpt>
      <trkpt lat="43.08898" lon="1.5998">
        <ele>460</ele>
        <time>2014-07-25T06:36:18Z</time>
      </trkpt>
      <trkpt lat="43.08893" lon="1.5998">
        <ele>460</ele>
        <time>2014-07-25T06:36:21Z</time>
      </trkpt>
      <trkpt lat="43.08883" lon="1.59977">
        <ele>460</ele>
        <time>2014-07-25T06:36:29Z</time>
      </trkpt>
      <trkpt lat="43.08868" lon="1.59974">
        <ele>461</ele>
        <time>2014-07-25T06:36:42Z</time>
      </trkpt>
      <trkpt lat="43.08863" lon="1.59972">
        <ele>460</ele>
        <time>2014-07-25T06:36:46Z</time>
      </trkpt>
      <trkpt lat="43.08852" lon="1.59966">
        <ele>459</ele>
        <time>2014-07-25T06:36:54Z</time>
      </trkpt>
      <trkpt lat="43.08833" lon="1.5996">
        <ele>460</ele>
        <time>2014-07-25T06:37:08Z</time>
      </trkpt>
      <trkpt lat="43.08828" lon="1.59957">
        <ele>460</ele>
        <time>2014-07-25T06:37:13Z</time>
      </trkpt>
      <trkpt lat="43.08823" lon="1.59956">
        <ele>460</ele>
        <time>2014-07-25T06:37:18Z</time>
      </trkpt>
      <trkpt lat="43.08808" lon="1.5995">
        <ele>462</ele>
        <time>2014-07-25T06:37:30Z</time>
      </trkpt>
      <trkpt lat="43.08802" lon="1.5995">
        <ele>461</ele>
        <time>2014-07-25T06:37:34Z</time>
      </trkpt>
      <trkpt lat="43.08797" lon="1.59948">
        <ele>462</ele>
        <time>2014-07-25T06:37:39Z</time>
      </trkpt>
      <trkpt lat="43.08779" lon="1.59938">
        <ele>464</ele>
        <time>2014-07-25T06:37:55Z</time>
      </trkpt>
      <trkpt lat="43.08773" lon="1.59936">
        <ele>464</ele>
        <time>2014-07-25T06:38:00Z</time>
      </trkpt>
      <trkpt lat="43.08769" lon="1.59935">
        <ele>464</ele>
        <time>2014-07-25T06:38:04Z</time>
      </trkpt>
      <trkpt lat="43.08764" lon="1.59935">
        <ele>463</ele>
        <time>2014-07-25T06:38:08Z</time>
      </trkpt>
      <trkpt lat="43.08759" lon="1.59936">
        <ele>464</ele>
        <time>2014-07-25T06:38:12Z</time>
      </trkpt>
      <trkpt lat="43.08754" lon="1.59937">
        <ele>463</ele>
        <time>2014-07-25T06:38:16Z</time>
      </trkpt>
      <trkpt lat="43.0872" lon="1.59952">
        <ele>468</ele>
        <time>2014-07-25T06:38:47Z</time>
      </trkpt>
      <trkpt lat="43.08704" lon="1.59951">
        <ele>469</ele>
        <time>2014-07-25T06:38:59Z</time>
      </trkpt>
      <trkpt lat="43.08695" lon="1.59946">
        <ele>469</ele>
        <time>2014-07-25T06:39:07Z</time>
      </trkpt>
      <trkpt lat="43.08659" lon="1.59939">
        <ele>474</ele>
        <time>2014-07-25T06:39:32Z</time>
      </trkpt>
      <trkpt lat="43.08654" lon="1.5994">
        <ele>474</ele>
        <time>2014-07-25T06:39:35Z</time>
      </trkpt>
      <trkpt lat="43.08641" lon="1.59943">
        <ele>473</ele>
        <time>2014-07-25T06:39:44Z</time>
      </trkpt>
      <trkpt lat="43.08635" lon="1.59944">
        <ele>473</ele>
        <time>2014-07-25T06:39:48Z</time>
      </trkpt>
      <trkpt lat="43.0863" lon="1.59945">
        <ele>472</ele>
        <time>2014-07-25T06:39:52Z</time>
      </trkpt>
      <trkpt lat="43.08625" lon="1.59947">
        <ele>473</ele>
        <time>2014-07-25T06:39:56Z</time>
      </trkpt>
      <trkpt lat="43.0862" lon="1.59949">
        <ele>473</ele>
        <time>2014-07-25T06:40:00Z</time>
      </trkpt>
      <trkpt lat="43.08601" lon="1.59959">
        <ele>473</ele>
        <time>2014-07-25T06:40:16Z</time>
      </trkpt>
      <trkpt lat="43.08596" lon="1.59963">
        <ele>473</ele>
        <time>2014-07-25T06:40:20Z</time>
      </trkpt>
      <trkpt lat="43.08591" lon="1.59965">
        <ele>473</ele>
        <time>2014-07-25T06:40:24Z</time>
      </trkpt>
      <trkpt lat="43.08586" lon="1.59968">
        <ele>473</ele>
        <time>2014-07-25T06:40:28Z</time>
      </trkpt>
      <trkpt lat="43.08577" lon="1.59971">
        <ele>473</ele>
        <time>2014-07-25T06:40:36Z</time>
      </trkpt>
      <trkpt lat="43.08574" lon="1.59969">
        <ele>474</ele>
        <time>2014-07-25T06:40:43Z</time>
      </trkpt>
      <trkpt lat="43.0857" lon="1.59968">
        <ele>474</ele>
        <time>2014-07-25T06:41:00Z</time>
      </trkpt>
      <trkpt lat="43.08571" lon="1.59961">
        <ele>473</ele>
        <time>2014-07-25T06:41:05Z</time>
      </trkpt>
      <trkpt lat="43.08576" lon="1.59962">
        <ele>473</ele>
        <time>2014-07-25T06:41:09Z</time>
      </trkpt>
      <trkpt lat="43.0858" lon="1.59957">
        <ele>472</ele>
        <time>2014-07-25T06:41:24Z</time>
      </trkpt>
      <trkpt lat="43.08585" lon="1.59955">
        <ele>472</ele>
        <time>2014-07-25T06:41:28Z</time>
      </trkpt>
      <trkpt lat="43.0859" lon="1.59954">
        <ele>472</ele>
        <time>2014-07-25T06:41:32Z</time>
      </trkpt>
      <trkpt lat="43.08595" lon="1.59955">
        <ele>472</ele>
        <time>2014-07-25T06:41:36Z</time>
      </trkpt>
      <trkpt lat="43.08599" lon="1.5995">
        <ele>471</ele>
        <time>2014-07-25T06:42:09Z</time>
      </trkpt>
      <trkpt lat="43.08608" lon="1.59944">
        <ele>473</ele>
        <time>2014-07-25T06:42:17Z</time>
      </trkpt>
      <trkpt lat="43.08619" lon="1.59941">
        <ele>473</ele>
        <time>2014-07-25T06:42:25Z</time>
      </trkpt>
      <trkpt lat="43.08658" lon="1.59918">
        <ele>476</ele>
        <time>2014-07-25T06:42:57Z</time>
      </trkpt>
      <trkpt lat="43.0867" lon="1.59898">
        <ele>478</ele>
        <time>2014-07-25T06:43:13Z</time>
      </trkpt>
      <trkpt lat="43.08674" lon="1.59871">
        <ele>479</ele>
        <time>2014-07-25T06:43:30Z</time>
      </trkpt>
      <trkpt lat="43.08675" lon="1.59856">
        <ele>478</ele>
        <time>2014-07-25T06:43:39Z</time>
      </trkpt>
      <trkpt lat="43.08677" lon="1.59799">
        <ele>474</ele>
        <time>2014-07-25T06:44:09Z</time>
      </trkpt>
      <trkpt lat="43.08677" lon="1.59792">
        <ele>474</ele>
        <time>2014-07-25T06:44:13Z</time>
      </trkpt>
      <trkpt lat="43.08678" lon="1.59784">
        <ele>474</ele>
        <time>2014-07-25T06:44:18Z</time>
      </trkpt>
      <trkpt lat="43.08681" lon="1.59725">
        <ele>471</ele>
        <time>2014-07-25T06:44:50Z</time>
      </trkpt>
      <trkpt lat="43.08684" lon="1.59697">
        <ele>470</ele>
        <time>2014-07-25T06:45:08Z</time>
      </trkpt>
      <trkpt lat="43.08685" lon="1.5969">
        <ele>470</ele>
        <time>2014-07-25T06:45:12Z</time>
      </trkpt>
      <trkpt lat="43.08686" lon="1.59683">
        <ele>469</ele>
        <time>2014-07-25T06:45:16Z</time>
      </trkpt>
      <trkpt lat="43.08687" lon="1.5967">
        <ele>469</ele>
        <time>2014-07-25T06:45:24Z</time>
      </trkpt>
      <trkpt lat="43.08686" lon="1.59656">
        <ele>467</ele>
        <time>2014-07-25T06:45:56Z</time>
      </trkpt>
      <trkpt lat="43.08686" lon="1.59649">
        <ele>466</ele>
        <time>2014-07-25T06:46:01Z</time>
      </trkpt>
      <trkpt lat="43.08683" lon="1.59629">
        <ele>465</ele>
        <time>2014-07-25T06:46:13Z</time>
      </trkpt>
      <trkpt lat="43.08684" lon="1.59622">
        <ele>464</ele>
        <time>2014-07-25T06:46:18Z</time>
      </trkpt>
      <trkpt lat="43.08686" lon="1.59616">
        <ele>464</ele>
        <time>2014-07-25T06:46:23Z</time>
      </trkpt>
      <trkpt lat="43.0869" lon="1.5959">
        <ele>461</ele>
        <time>2014-07-25T06:46:39Z</time>
      </trkpt>
      <trkpt lat="43.08691" lon="1.59583">
        <ele>461</ele>
        <time>2014-07-25T06:46:43Z</time>
      </trkpt>
      <trkpt lat="43.0869" lon="1.59561">
        <ele>462</ele>
        <time>2014-07-25T06:46:58Z</time>
      </trkpt>
      <trkpt lat="43.08689" lon="1.59555">
        <ele>462</ele>
        <time>2014-07-25T06:47:02Z</time>
      </trkpt>
      <trkpt lat="43.08689" lon="1.59548">
        <ele>462</ele>
        <time>2014-07-25T06:47:06Z</time>
      </trkpt>
      <trkpt lat="43.08692" lon="1.59534">
        <ele>461</ele>
        <time>2014-07-25T06:47:15Z</time>
      </trkpt>
      <trkpt lat="43.08691" lon="1.59527">
        <ele>461</ele>
        <time>2014-07-25T06:47:20Z</time>
      </trkpt>
      <trkpt lat="43.08689" lon="1.59521">
        <ele>461</ele>
        <time>2014-07-25T06:47:28Z</time>
      </trkpt>
      <trkpt lat="43.08691" lon="1.59515">
        <ele>460</ele>
        <time>2014-07-25T06:47:33Z</time>
      </trkpt>
      <trkpt lat="43.08693" lon="1.59511">
        <ele>460</ele>
        <time>2014-07-25T06:47:41Z</time>
      </trkpt>
      <trkpt lat="43.08693" lon="1.595">
        <ele>459</ele>
        <time>2014-07-25T06:48:04Z</time>
      </trkpt>
      <trkpt lat="43.08691" lon="1.59494">
        <ele>459</ele>
        <time>2014-07-25T06:48:08Z</time>
      </trkpt>
      <trkpt lat="43.08688" lon="1.59489">
        <ele>458</ele>
        <time>2014-07-25T06:48:12Z</time>
      </trkpt>
      <trkpt lat="43.08676" lon="1.59443">
        <ele>461</ele>
        <time>2014-07-25T06:48:35Z</time>
      </trkpt>
      <trkpt lat="43.08671" lon="1.59409">
        <ele>456</ele>
        <time>2014-07-25T06:48:55Z</time>
      </trkpt>
      <trkpt lat="43.08662" lon="1.59402">
        <ele>453</ele>
        <time>2014-07-25T06:49:04Z</time>
      </trkpt>
      <trkpt lat="43.08657" lon="1.59396">
        <ele>453</ele>
        <time>2014-07-25T06:49:08Z</time>
      </trkpt>
      <trkpt lat="43.08652" lon="1.59391">
        <ele>453</ele>
        <time>2014-07-25T06:49:12Z</time>
      </trkpt>
      <trkpt lat="43.08648" lon="1.59387">
        <ele>453</ele>
        <time>2014-07-25T06:49:17Z</time>
      </trkpt>
      <trkpt lat="43.08645" lon="1.59382">
        <ele>453</ele>
        <time>2014-07-25T06:49:20Z</time>
      </trkpt>
      <trkpt lat="43.08633" lon="1.59343">
        <ele>445</ele>
        <time>2014-07-25T06:49:44Z</time>
      </trkpt>
      <trkpt lat="43.08631" lon="1.59328">
        <ele>447</ele>
        <time>2014-07-25T06:49:51Z</time>
      </trkpt>
      <trkpt lat="43.0863" lon="1.5932">
        <ele>447</ele>
        <time>2014-07-25T06:49:55Z</time>
      </trkpt>
      <trkpt lat="43.08628" lon="1.59307">
        <ele>444</ele>
        <time>2014-07-25T06:50:05Z</time>
      </trkpt>
      <trkpt lat="43.08627" lon="1.59292">
        <ele>443</ele>
        <time>2014-07-25T06:50:14Z</time>
      </trkpt>
      <trkpt lat="43.08629" lon="1.59279">
        <ele>442</ele>
        <time>2014-07-25T06:50:24Z</time>
      </trkpt>
      <trkpt lat="43.08627" lon="1.59249">
        <ele>441</ele>
        <time>2014-07-25T06:50:37Z</time>
      </trkpt>
      <trkpt lat="43.08626" lon="1.59242">
        <ele>441</ele>
        <time>2014-07-25T06:50:41Z</time>
      </trkpt>
      <trkpt lat="43.08626" lon="1.59235">
        <ele>441</ele>
        <time>2014-07-25T06:50:44Z</time>
      </trkpt>
      <trkpt lat="43.08629" lon="1.59215">
        <ele>439</ele>
        <time>2014-07-25T06:50:55Z</time>
      </trkpt>
      <trkpt lat="43.08631" lon="1.59199">
        <ele>439</ele>
        <time>2014-07-25T06:51:03Z</time>
      </trkpt>
      <trkpt lat="43.08646" lon="1.59149">
        <ele>433</ele>
        <time>2014-07-25T06:51:31Z</time>
      </trkpt>
      <trkpt lat="43.08648" lon="1.59142">
        <ele>433</ele>
        <time>2014-07-25T06:51:35Z</time>
      </trkpt>
      <trkpt lat="43.08655" lon="1.59122">
        <ele>433</ele>
        <time>2014-07-25T06:51:47Z</time>
      </trkpt>
      <trkpt lat="43.08658" lon="1.59117">
        <ele>432</ele>
        <time>2014-07-25T06:51:51Z</time>
      </trkpt>
      <trkpt lat="43.08662" lon="1.59104">
        <ele>431</ele>
        <time>2014-07-25T06:51:59Z</time>
      </trkpt>
      <trkpt lat="43.08663" lon="1.59096">
        <ele>431</ele>
        <time>2014-07-25T06:52:03Z</time>
      </trkpt>
      <trkpt lat="43.0867" lon="1.59038">
        <ele>427</ele>
        <time>2014-07-25T06:52:34Z</time>
      </trkpt>
      <trkpt lat="43.0867" lon="1.59031">
        <ele>427</ele>
        <time>2014-07-25T06:52:38Z</time>
      </trkpt>
      <trkpt lat="43.0867" lon="1.58997">
        <ele>429</ele>
        <time>2014-07-25T06:52:56Z</time>
      </trkpt>
      <trkpt lat="43.0867" lon="1.58989">
        <ele>428</ele>
        <time>2014-07-25T06:53:00Z</time>
      </trkpt>
      <trkpt lat="43.08686" lon="1.58941">
        <ele>422</ele>
        <time>2014-07-25T06:53:30Z</time>
      </trkpt>
      <trkpt lat="43.08693" lon="1.58922">
        <ele>420</ele>
        <time>2014-07-25T06:53:42Z</time>
      </trkpt>
      <trkpt lat="43.08701" lon="1.58886">
        <ele>419</ele>
        <time>2014-07-25T06:54:00Z</time>
      </trkpt>
      <trkpt lat="43.08703" lon="1.58874">
        <ele>419</ele>
        <time>2014-07-25T06:54:06Z</time>
      </trkpt>
      <trkpt lat="43.08706" lon="1.58868">
        <ele>419</ele>
        <time>2014-07-25T06:54:10Z</time>
      </trkpt>
      <trkpt lat="43.08709" lon="1.58852">
        <ele>419</ele>
        <time>2014-07-25T06:54:18Z</time>
      </trkpt>
      <trkpt lat="43.08717" lon="1.58843">
        <ele>419</ele>
        <time>2014-07-25T06:54:26Z</time>
      </trkpt>
      <trkpt lat="43.08718" lon="1.58837">
        <ele>419</ele>
        <time>2014-07-25T06:54:29Z</time>
      </trkpt>
      <trkpt lat="43.08721" lon="1.58831">
        <ele>418</ele>
        <time>2014-07-25T06:54:33Z</time>
      </trkpt>
      <trkpt lat="43.08725" lon="1.58827">
        <ele>417</ele>
        <time>2014-07-25T06:54:38Z</time>
      </trkpt>
      <trkpt lat="43.08727" lon="1.58821">
        <ele>415</ele>
        <time>2014-07-25T06:54:42Z</time>
      </trkpt>
      <trkpt lat="43.08735" lon="1.58797">
        <ele>414</ele>
        <time>2014-07-25T06:54:57Z</time>
      </trkpt>
      <trkpt lat="43.08742" lon="1.58755">
        <ele>415</ele>
        <time>2014-07-25T06:55:18Z</time>
      </trkpt>
      <trkpt lat="43.08743" lon="1.58748">
        <ele>415</ele>
        <time>2014-07-25T06:55:22Z</time>
      </trkpt>
      <trkpt lat="43.08747" lon="1.58742">
        <ele>415</ele>
        <time>2014-07-25T06:55:26Z</time>
      </trkpt>
      <trkpt lat="43.0875" lon="1.58738">
        <ele>415</ele>
        <time>2014-07-25T06:55:30Z</time>
      </trkpt>
      <trkpt lat="43.08756" lon="1.58713">
        <ele>413</ele>
        <time>2014-07-25T06:55:47Z</time>
      </trkpt>
      <trkpt lat="43.08756" lon="1.58706">
        <ele>413</ele>
        <time>2014-07-25T06:55:50Z</time>
      </trkpt>
      <trkpt lat="43.08758" lon="1.58656">
        <ele>415</ele>
        <time>2014-07-25T06:56:13Z</time>
      </trkpt>
      <trkpt lat="43.08763" lon="1.58642">
        <ele>416</ele>
        <time>2014-07-25T06:56:22Z</time>
      </trkpt>
      <trkpt lat="43.08767" lon="1.58628">
        <ele>415</ele>
        <time>2014-07-25T06:56:30Z</time>
      </trkpt>
      <trkpt lat="43.08769" lon="1.58623">
        <ele>416</ele>
        <time>2014-07-25T06:56:34Z</time>
      </trkpt>
      <trkpt lat="43.0877" lon="1.58615">
        <ele>415</ele>
        <time>2014-07-25T06:56:37Z</time>
      </trkpt>
      <trkpt lat="43.08772" lon="1.58608">
        <ele>415</ele>
        <time>2014-07-25T06:56:41Z</time>
      </trkpt>
      <trkpt lat="43.08775" lon="1.586">
        <ele>415</ele>
        <time>2014-07-25T06:56:45Z</time>
      </trkpt>
      <trkpt lat="43.0878" lon="1.58586">
        <ele>414</ele>
        <time>2014-07-25T06:56:54Z</time>
      </trkpt>
      <trkpt lat="43.08782" lon="1.58579">
        <ele>414</ele>
        <time>2014-07-25T06:56:58Z</time>
      </trkpt>
      <trkpt lat="43.08792" lon="1.5855">
        <ele>413</ele>
        <time>2014-07-25T06:57:15Z</time>
      </trkpt>
      <trkpt lat="43.08792" lon="1.58543">
        <ele>413</ele>
        <time>2014-07-25T06:57:18Z</time>
      </trkpt>
      <trkpt lat="43.08798" lon="1.58515">
        <ele>413</ele>
        <time>2014-07-25T06:57:32Z</time>
      </trkpt>
      <trkpt lat="43.08799" lon="1.58508">
        <ele>414</ele>
        <time>2014-07-25T06:57:36Z</time>
      </trkpt>
      <trkpt lat="43.08804" lon="1.58496">
        <ele>414</ele>
        <time>2014-07-25T06:57:44Z</time>
      </trkpt>
      <trkpt lat="43.08807" lon="1.58482">
        <ele>414</ele>
        <time>2014-07-25T06:57:52Z</time>
      </trkpt>
      <trkpt lat="43.08829" lon="1.58421">
        <ele>416</ele>
        <time>2014-07-25T06:58:26Z</time>
      </trkpt>
      <trkpt lat="43.08837" lon="1.58401">
        <ele>416</ele>
        <time>2014-07-25T06:58:38Z</time>
      </trkpt>
      <trkpt lat="43.08839" lon="1.58382">
        <ele>415</ele>
        <time>2014-07-25T06:58:48Z</time>
      </trkpt>
      <trkpt lat="43.08841" lon="1.58368">
        <ele>414</ele>
        <time>2014-07-25T06:58:56Z</time>
      </trkpt>
      <trkpt lat="43.08843" lon="1.58362">
        <ele>414</ele>
        <time>2014-07-25T06:59:00Z</time>
      </trkpt>
      <trkpt lat="43.08847" lon="1.58341">
        <ele>412</ele>
        <time>2014-07-25T06:59:13Z</time>
      </trkpt>
      <trkpt lat="43.08846" lon="1.58333">
        <ele>412</ele>
        <time>2014-07-25T06:59:17Z</time>
      </trkpt>
      <trkpt lat="43.08848" lon="1.58326">
        <ele>412</ele>
        <time>2014-07-25T06:59:21Z</time>
      </trkpt>
      <trkpt lat="43.08851" lon="1.58305">
        <ele>410</ele>
        <time>2014-07-25T06:59:33Z</time>
      </trkpt>
      <trkpt lat="43.08853" lon="1.58298">
        <ele>410</ele>
        <time>2014-07-25T06:59:37Z</time>
      </trkpt>
      <trkpt lat="43.08856" lon="1.58291">
        <ele>410</ele>
        <time>2014-07-25T06:59:41Z</time>
      </trkpt>
      <trkpt lat="43.08862" lon="1.5827">
        <ele>410</ele>
        <time>2014-07-25T06:59:53Z</time>
      </trkpt>
      <trkpt lat="43.08865" lon="1.58265">
        <ele>409</ele>
        <time>2014-07-25T06:59:56Z</time>
      </trkpt>
      <trkpt lat="43.08886" lon="1.58233">
        <ele>409</ele>
        <time>2014-07-25T07:00:21Z</time>
      </trkpt>
      <trkpt lat="43.08891" lon="1.58228">
        <ele>409</ele>
        <time>2014-07-25T07:00:25Z</time>
      </trkpt>
      <trkpt lat="43.08899" lon="1.5822">
        <ele>409</ele>
        <time>2014-07-25T07:00:33Z</time>
      </trkpt>
      <trkpt lat="43.08904" lon="1.58216">
        <ele>408</ele>
        <time>2014-07-25T07:00:36Z</time>
      </trkpt>
      <trkpt lat="43.0893" lon="1.58192">
        <ele>405</ele>
        <time>2014-07-25T07:00:59Z</time>
      </trkpt>
      <trkpt lat="43.0896" lon="1.58163">
        <ele>410</ele>
        <time>2014-07-25T07:01:26Z</time>
      </trkpt>
      <trkpt lat="43.08963" lon="1.58159">
        <ele>410</ele>
        <time>2014-07-25T07:01:30Z</time>
      </trkpt>
      <trkpt lat="43.08968" lon="1.58147">
        <ele>411</ele>
        <time>2014-07-25T07:01:38Z</time>
      </trkpt>
      <trkpt lat="43.08972" lon="1.58135">
        <ele>411</ele>
        <time>2014-07-25T07:01:46Z</time>
      </trkpt>
      <trkpt lat="43.08973" lon="1.58128">
        <ele>410</ele>
        <time>2014-07-25T07:01:50Z</time>
      </trkpt>
      <trkpt lat="43.08978" lon="1.58116">
        <ele>410</ele>
        <time>2014-07-25T07:01:58Z</time>
      </trkpt>
      <trkpt lat="43.08981" lon="1.5811">
        <ele>410</ele>
        <time>2014-07-25T07:02:02Z</time>
      </trkpt>
      <trkpt lat="43.08984" lon="1.58103">
        <ele>410</ele>
        <time>2014-07-25T07:02:06Z</time>
      </trkpt>
      <trkpt lat="43.08995" lon="1.58072">
        <ele>410</ele>
        <time>2014-07-25T07:02:25Z</time>
      </trkpt>
      <trkpt lat="43.09002" lon="1.58052">
        <ele>409</ele>
        <time>2014-07-25T07:02:36Z</time>
      </trkpt>
      <trkpt lat="43.09011" lon="1.5802">
        <ele>410</ele>
        <time>2014-07-25T07:02:55Z</time>
      </trkpt>
      <trkpt lat="43.09017" lon="1.58001">
        <ele>408</ele>
        <time>2014-07-25T07:03:07Z</time>
      </trkpt>
      <trkpt lat="43.09019" lon="1.57993">
        <ele>408</ele>
        <time>2014-07-25T07:03:12Z</time>
      </trkpt>
      <trkpt lat="43.09026" lon="1.57944">
        <ele>405</ele>
        <time>2014-07-25T07:03:42Z</time>
      </trkpt>
      <trkpt lat="43.09027" lon="1.5793">
        <ele>403</ele>
        <time>2014-07-25T07:03:51Z</time>
      </trkpt>
      <trkpt lat="43.09031" lon="1.57923">
        <ele>403</ele>
        <time>2014-07-25T07:03:58Z</time>
      </trkpt>
      <trkpt lat="43.0903" lon="1.57901">
        <ele>402</ele>
        <time>2014-07-25T07:04:10Z</time>
      </trkpt>
      <trkpt lat="43.0903" lon="1.57894">
        <ele>402</ele>
        <time>2014-07-25T07:04:13Z</time>
      </trkpt>
      <trkpt lat="43.0903" lon="1.57879">
        <ele>402</ele>
        <time>2014-07-25T07:04:21Z</time>
      </trkpt>
      <trkpt lat="43.09029" lon="1.57872">
        <ele>402</ele>
        <time>2014-07-25T07:04:26Z</time>
      </trkpt>
      <trkpt lat="43.09028" lon="1.57856">
        <ele>402</ele>
        <time>2014-07-25T07:05:04Z</time>
      </trkpt>
      <trkpt lat="43.09029" lon="1.5785">
        <ele>402</ele>
        <time>2014-07-25T07:05:10Z</time>
      </trkpt>
      <trkpt lat="43.09031" lon="1.57848">
        <ele>403</ele>
        <time>2014-07-25T07:06:03Z</time>
      </trkpt>
      <trkpt lat="43.09033" lon="1.57834">
        <ele>401</ele>
        <time>2014-07-25T07:06:09Z</time>
      </trkpt>
      <trkpt lat="43.09034" lon="1.57828">
        <ele>401</ele>
        <time>2014-07-25T07:06:12Z</time>
      </trkpt>
      <trkpt lat="43.09033" lon="1.57822">
        <ele>402</ele>
        <time>2014-07-25T07:06:15Z</time>
      </trkpt>
      <trkpt lat="43.09033" lon="1.57815">
        <ele>402</ele>
        <time>2014-07-25T07:06:18Z</time>
      </trkpt>
      <trkpt lat="43.09036" lon="1.57789">
        <ele>401</ele>
        <time>2014-07-25T07:06:32Z</time>
      </trkpt>
      <trkpt lat="43.09037" lon="1.57782">
        <ele>401</ele>
        <time>2014-07-25T07:06:36Z</time>
      </trkpt>
      <trkpt lat="43.09038" lon="1.57776">
        <ele>400</ele>
        <time>2014-07-25T07:06:40Z</time>
      </trkpt>
      <trkpt lat="43.09041" lon="1.57762">
        <ele>401</ele>
        <time>2014-07-25T07:06:48Z</time>
      </trkpt>
      <trkpt lat="43.09045" lon="1.57749">
        <ele>400</ele>
        <time>2014-07-25T07:06:56Z</time>
      </trkpt>
      <trkpt lat="43.0905" lon="1.57745">
        <ele>399</ele>
        <time>2014-07-25T07:07:01Z</time>
      </trkpt>
      <trkpt lat="43.09053" lon="1.5774">
        <ele>398</ele>
        <time>2014-07-25T07:07:05Z</time>
      </trkpt>
      <trkpt lat="43.09057" lon="1.57732">
        <ele>398</ele>
        <time>2014-07-25T07:07:10Z</time>
      </trkpt>
      <trkpt lat="43.0906" lon="1.57717">
        <ele>398</ele>
        <time>2014-07-25T07:07:18Z</time>
      </trkpt>
      <trkpt lat="43.09065" lon="1.57714">
        <ele>398</ele>
        <time>2014-07-25T07:07:22Z</time>
      </trkpt>
      <trkpt lat="43.09069" lon="1.57712">
        <ele>397</ele>
        <time>2014-07-25T07:07:26Z</time>
      </trkpt>
      <trkpt lat="43.09075" lon="1.57705">
        <ele>397</ele>
        <time>2014-07-25T07:07:32Z</time>
      </trkpt>
      <trkpt lat="43.09084" lon="1.57684">
        <ele>397</ele>
        <time>2014-07-25T07:07:44Z</time>
      </trkpt>
      <trkpt lat="43.09087" lon="1.57678">
        <ele>397</ele>
        <time>2014-07-25T07:07:48Z</time>
      </trkpt>
      <trkpt lat="43.09094" lon="1.57665">
        <ele>397</ele>
        <time>2014-07-25T07:07:56Z</time>
      </trkpt>
      <trkpt lat="43.09098" lon="1.57653">
        <ele>396</ele>
        <time>2014-07-25T07:08:04Z</time>
      </trkpt>
      <trkpt lat="43.09106" lon="1.5763">
        <ele>396</ele>
        <time>2014-07-25T07:08:20Z</time>
      </trkpt>
      <trkpt lat="43.09111" lon="1.57592">
        <ele>396</ele>
        <time>2014-07-25T07:08:40Z</time>
      </trkpt>
      <trkpt lat="43.09111" lon="1.5757">
        <ele>394</ele>
        <time>2014-07-25T07:08:51Z</time>
      </trkpt>
      <trkpt lat="43.09107" lon="1.57535">
        <ele>395</ele>
        <time>2014-07-25T07:09:06Z</time>
      </trkpt>
      <trkpt lat="43.09104" lon="1.57529">
        <ele>395</ele>
        <time>2014-07-25T07:09:10Z</time>
      </trkpt>
      <trkpt lat="43.09102" lon="1.57521">
        <ele>394</ele>
        <time>2014-07-25T07:09:14Z</time>
      </trkpt>
      <trkpt lat="43.09101" lon="1.57506">
        <ele>393</ele>
        <time>2014-07-25T07:09:22Z</time>
      </trkpt>
      <trkpt lat="43.091" lon="1.57477">
        <ele>395</ele>
        <time>2014-07-25T07:09:36Z</time>
      </trkpt>
      <trkpt lat="43.09105" lon="1.57428">
        <ele>392</ele>
        <time>2014-07-25T07:10:04Z</time>
      </trkpt>
      <trkpt lat="43.09106" lon="1.57415">
        <ele>392</ele>
        <time>2014-07-25T07:10:12Z</time>
      </trkpt>
      <trkpt lat="43.09106" lon="1.57408">
        <ele>391</ele>
        <time>2014-07-25T07:10:16Z</time>
      </trkpt>
      <trkpt lat="43.09107" lon="1.57401">
        <ele>391</ele>
        <time>2014-07-25T07:10:20Z</time>
      </trkpt>
      <trkpt lat="43.09109" lon="1.57386">
        <ele>391</ele>
        <time>2014-07-25T07:10:28Z</time>
      </trkpt>
      <trkpt lat="43.09109" lon="1.57378">
        <ele>391</ele>
        <time>2014-07-25T07:10:32Z</time>
      </trkpt>
      <trkpt lat="43.0911" lon="1.5737">
        <ele>391</ele>
        <time>2014-07-25T07:10:35Z</time>
      </trkpt>
      <trkpt lat="43.09111" lon="1.57363">
        <ele>391</ele>
        <time>2014-07-25T07:10:39Z</time>
      </trkpt>
      <trkpt lat="43.09114" lon="1.57329">
        <ele>391</ele>
        <time>2014-07-25T07:10:58Z</time>
      </trkpt>
      <trkpt lat="43.09115" lon="1.57322">
        <ele>390</ele>
        <time>2014-07-25T07:11:02Z</time>
      </trkpt>
      <trkpt lat="43.09121" lon="1.57301">
        <ele>392</ele>
        <time>2014-07-25T07:11:30Z</time>
      </trkpt>
      <trkpt lat="43.09117" lon="1.5728">
        <ele>393</ele>
        <time>2014-07-25T07:11:42Z</time>
      </trkpt>
      <trkpt lat="43.09108" lon="1.5726">
        <ele>394</ele>
        <time>2014-07-25T07:11:53Z</time>
      </trkpt>
      <trkpt lat="43.0911" lon="1.57247">
        <ele>395</ele>
        <time>2014-07-25T07:12:01Z</time>
      </trkpt>
      <trkpt lat="43.09113" lon="1.57227">
        <ele>394</ele>
        <time>2014-07-25T07:12:14Z</time>
      </trkpt>
      <trkpt lat="43.09117" lon="1.57204">
        <ele>395</ele>
        <time>2014-07-25T07:12:26Z</time>
      </trkpt>
      <trkpt lat="43.09118" lon="1.57197">
        <ele>395</ele>
        <time>2014-07-25T07:12:30Z</time>
      </trkpt>
      <trkpt lat="43.09118" lon="1.57191">
        <ele>395</ele>
        <time>2014-07-25T07:12:33Z</time>
      </trkpt>
      <trkpt lat="43.09123" lon="1.57171">
        <ele>393</ele>
        <time>2014-07-25T07:12:45Z</time>
      </trkpt>
      <trkpt lat="43.09125" lon="1.57157">
        <ele>393</ele>
        <time>2014-07-25T07:12:52Z</time>
      </trkpt>
      <trkpt lat="43.09128" lon="1.57136">
        <ele>394</ele>
        <time>2014-07-25T07:13:03Z</time>
      </trkpt>
      <trkpt lat="43.09129" lon="1.57107">
        <ele>390</ele>
        <time>2014-07-25T07:13:21Z</time>
      </trkpt>
      <trkpt lat="43.09126" lon="1.57094">
        <ele>390</ele>
        <time>2014-07-25T07:13:29Z</time>
      </trkpt>
      <trkpt lat="43.09128" lon="1.57082">
        <ele>390</ele>
        <time>2014-07-25T07:13:41Z</time>
      </trkpt>
      <trkpt lat="43.09129" lon="1.57073">
        <ele>390</ele>
        <time>2014-07-25T07:13:56Z</time>
      </trkpt>
      <trkpt lat="43.0913" lon="1.5706">
        <ele>390</ele>
        <time>2014-07-25T07:14:04Z</time>
      </trkpt>
      <trkpt lat="43.09128" lon="1.57046">
        <ele>391</ele>
        <time>2014-07-25T07:14:12Z</time>
      </trkpt>
      <trkpt lat="43.09126" lon="1.57038">
        <ele>391</ele>
        <time>2014-07-25T07:14:16Z</time>
      </trkpt>
      <trkpt lat="43.09127" lon="1.57031">
        <ele>391</ele>
        <time>2014-07-25T07:14:20Z</time>
      </trkpt>
      <trkpt lat="43.09126" lon="1.57024">
        <ele>391</ele>
        <time>2014-07-25T07:14:24Z</time>
      </trkpt>
      <trkpt lat="43.09123" lon="1.56989">
        <ele>387</ele>
        <time>2014-07-25T07:14:44Z</time>
      </trkpt>
      <trkpt lat="43.09123" lon="1.56974">
        <ele>386</ele>
        <time>2014-07-25T07:14:52Z</time>
      </trkpt>
      <trkpt lat="43.09121" lon="1.56953">
        <ele>385</ele>
        <time>2014-07-25T07:15:03Z</time>
      </trkpt>
      <trkpt lat="43.09118" lon="1.56911">
        <ele>388</ele>
        <time>2014-07-25T07:15:25Z</time>
      </trkpt>
      <trkpt lat="43.09115" lon="1.56868">
        <ele>384</ele>
        <time>2014-07-25T07:15:51Z</time>
      </trkpt>
      <trkpt lat="43.09114" lon="1.56861">
        <ele>385</ele>
        <time>2014-07-25T07:15:55Z</time>
      </trkpt>
      <trkpt lat="43.09108" lon="1.56842">
        <ele>383</ele>
        <time>2014-07-25T07:16:07Z</time>
      </trkpt>
      <trkpt lat="43.09106" lon="1.56835">
        <ele>383</ele>
        <time>2014-07-25T07:16:11Z</time>
      </trkpt>
      <trkpt lat="43.09097" lon="1.56802">
        <ele>379</ele>
        <time>2014-07-25T07:16:31Z</time>
      </trkpt>
      <trkpt lat="43.09095" lon="1.56795">
        <ele>379</ele>
        <time>2014-07-25T07:16:35Z</time>
      </trkpt>
      <trkpt lat="43.09091" lon="1.56783">
        <ele>378</ele>
        <time>2014-07-25T07:16:44Z</time>
      </trkpt>
      <trkpt lat="43.09091" lon="1.56777">
        <ele>378</ele>
        <time>2014-07-25T07:16:49Z</time>
      </trkpt>
      <trkpt lat="43.09085" lon="1.56735">
        <ele>375</ele>
        <time>2014-07-25T07:17:16Z</time>
      </trkpt>
      <trkpt lat="43.09082" lon="1.56727">
        <ele>375</ele>
        <time>2014-07-25T07:17:20Z</time>
      </trkpt>
      <trkpt lat="43.0908" lon="1.56718">
        <ele>375</ele>
        <time>2014-07-25T07:17:24Z</time>
      </trkpt>
      <trkpt lat="43.09075" lon="1.56683">
        <ele>372</ele>
        <time>2014-07-25T07:17:44Z</time>
      </trkpt>
      <trkpt lat="43.09073" lon="1.5667">
        <ele>371</ele>
        <time>2014-07-25T07:17:52Z</time>
      </trkpt>
      <trkpt lat="43.09073" lon="1.56644">
        <ele>368</ele>
        <time>2014-07-25T07:18:11Z</time>
      </trkpt>
      <trkpt lat="43.0908" lon="1.56634">
        <ele>369</ele>
        <time>2014-07-25T07:18:22Z</time>
      </trkpt>
      <trkpt lat="43.09081" lon="1.56628">
        <ele>369</ele>
        <time>2014-07-25T07:18:26Z</time>
      </trkpt>
      <trkpt lat="43.09089" lon="1.56597">
        <ele>366</ele>
        <time>2014-07-25T07:18:44Z</time>
      </trkpt>
      <trkpt lat="43.09104" lon="1.56567">
        <ele>361</ele>
        <time>2014-07-25T07:19:09Z</time>
      </trkpt>
      <trkpt lat="43.09119" lon="1.56534">
        <ele>360</ele>
        <time>2014-07-25T07:19:28Z</time>
      </trkpt>
      <trkpt lat="43.09124" lon="1.56532">
        <ele>360</ele>
        <time>2014-07-25T07:19:32Z</time>
      </trkpt>
      <trkpt lat="43.09129" lon="1.56531">
        <ele>359</ele>
        <time>2014-07-25T07:19:36Z</time>
      </trkpt>
      <trkpt lat="43.09134" lon="1.56531">
        <ele>359</ele>
        <time>2014-07-25T07:19:40Z</time>
      </trkpt>
      <trkpt lat="43.09156" lon="1.5653">
        <ele>361</ele>
        <time>2014-07-25T07:19:58Z</time>
      </trkpt>
      <trkpt lat="43.09168" lon="1.56529">
        <ele>361</ele>
        <time>2014-07-25T07:20:06Z</time>
      </trkpt>
      <trkpt lat="43.09172" lon="1.56525">
        <ele>361</ele>
        <time>2014-07-25T07:20:10Z</time>
      </trkpt>
      <trkpt lat="43.09175" lon="1.5652">
        <ele>361</ele>
        <time>2014-07-25T07:20:14Z</time>
      </trkpt>
      <trkpt lat="43.09177" lon="1.56514">
        <ele>360</ele>
        <time>2014-07-25T07:20:19Z</time>
      </trkpt>
      <trkpt lat="43.09179" lon="1.565">
        <ele>358</ele>
        <time>2014-07-25T07:20:31Z</time>
      </trkpt>
      <trkpt lat="43.09181" lon="1.5648">
        <ele>358</ele>
        <time>2014-07-25T07:20:46Z</time>
      </trkpt>
      <trkpt lat="43.0919" lon="1.56458">
        <ele>353</ele>
        <time>2014-07-25T07:21:04Z</time>
      </trkpt>
      <trkpt lat="43.09215" lon="1.56427">
        <ele>347</ele>
        <time>2014-07-25T07:21:32Z</time>
      </trkpt>
      <trkpt lat="43.09219" lon="1.56421">
        <ele>347</ele>
        <time>2014-07-25T07:21:36Z</time>
      </trkpt>
      <trkpt lat="43.09227" lon="1.56414">
        <ele>347</ele>
        <time>2014-07-25T07:21:44Z</time>
      </trkpt>
      <trkpt lat="43.09234" lon="1.56396">
        <ele>349</ele>
        <time>2014-07-25T07:21:54Z</time>
      </trkpt>
      <trkpt lat="43.09237" lon="1.56391">
        <ele>349</ele>
        <time>2014-07-25T07:21:58Z</time>
      </trkpt>
      <trkpt lat="43.09271" lon="1.56363">
        <ele>345</ele>
        <time>2014-07-25T07:22:30Z</time>
      </trkpt>
      <trkpt lat="43.09309" lon="1.56342">
        <ele>341</ele>
        <time>2014-07-25T07:23:02Z</time>
      </trkpt>
      <trkpt lat="43.09333" lon="1.56331">
        <ele>338</ele>
        <time>2014-07-25T07:23:22Z</time>
      </trkpt>
      <trkpt lat="43.09338" lon="1.5633">
        <ele>336</ele>
        <time>2014-07-25T07:23:26Z</time>
      </trkpt>
      <trkpt lat="43.09373" lon="1.56299">
        <ele>331</ele>
        <time>2014-07-25T07:23:59Z</time>
      </trkpt>
      <trkpt lat="43.09382" lon="1.5629">
        <ele>331</ele>
        <time>2014-07-25T07:24:07Z</time>
      </trkpt>
      <trkpt lat="43.09395" lon="1.56276">
        <ele>329</ele>
        <time>2014-07-25T07:24:19Z</time>
      </trkpt>
      <trkpt lat="43.09399" lon="1.56272">
        <ele>329</ele>
        <time>2014-07-25T07:24:23Z</time>
      </trkpt>
      <trkpt lat="43.09406" lon="1.56262">
        <ele>328</ele>
        <time>2014-07-25T07:24:31Z</time>
      </trkpt>
      <trkpt lat="43.0941" lon="1.56258">
        <ele>328</ele>
        <time>2014-07-25T07:24:35Z</time>
      </trkpt>
      <trkpt lat="43.09415" lon="1.56254">
        <ele>327</ele>
        <time>2014-07-25T07:24:39Z</time>
      </trkpt>
      <trkpt lat="43.09419" lon="1.56252">
        <ele>326</ele>
        <time>2014-07-25T07:24:43Z</time>
      </trkpt>
      <trkpt lat="43.09424" lon="1.5625">
        <ele>326</ele>
        <time>2014-07-25T07:24:47Z</time>
      </trkpt>
      <trkpt lat="43.09429" lon="1.56248">
        <ele>326</ele>
        <time>2014-07-25T07:24:51Z</time>
      </trkpt>
      <trkpt lat="43.09467" lon="1.5622">
        <ele>322</ele>
        <time>2014-07-25T07:25:23Z</time>
      </trkpt>
      <trkpt lat="43.09485" lon="1.56207">
        <ele>318</ele>
        <time>2014-07-25T07:25:39Z</time>
      </trkpt>
      <trkpt lat="43.0949" lon="1.56209">
        <ele>317</ele>
        <time>2014-07-25T07:25:43Z</time>
      </trkpt>
      <trkpt lat="43.095" lon="1.56215">
        <ele>317</ele>
        <time>2014-07-25T07:25:50Z</time>
      </trkpt>
      <trkpt lat="43.0951" lon="1.56221">
        <ele>316</ele>
        <time>2014-07-25T07:25:58Z</time>
      </trkpt>
      <trkpt lat="43.09535" lon="1.56234">
        <ele>313</ele>
        <time>2014-07-25T07:26:18Z</time>
      </trkpt>
      <trkpt lat="43.09539" lon="1.56231">
        <ele>313</ele>
        <time>2014-07-25T07:26:22Z</time>
      </trkpt>
      <trkpt lat="43.09541" lon="1.56224">
        <ele>312</ele>
        <time>2014-07-25T07:26:26Z</time>
      </trkpt>
      <trkpt lat="43.09543" lon="1.56195">
        <ele>311</ele>
        <time>2014-07-25T07:26:42Z</time>
      </trkpt>
      <trkpt lat="43.09547" lon="1.56173">
        <ele>310</ele>
        <time>2014-07-25T07:26:53Z</time>
      </trkpt>
      <trkpt lat="43.09548" lon="1.56158">
        <ele>310</ele>
        <time>2014-07-25T07:27:01Z</time>
      </trkpt>
      <trkpt lat="43.09551" lon="1.56127">
        <ele>310</ele>
        <time>2014-07-25T07:27:17Z</time>
      </trkpt>
      <trkpt lat="43.09553" lon="1.5612">
        <ele>309</ele>
        <time>2014-07-25T07:27:21Z</time>
      </trkpt>
      <trkpt lat="43.09554" lon="1.56114">
        <ele>309</ele>
        <time>2014-07-25T07:27:24Z</time>
      </trkpt>
      <trkpt lat="43.09556" lon="1.56107">
        <ele>309</ele>
        <time>2014-07-25T07:27:28Z</time>
      </trkpt>
      <trkpt lat="43.09559" lon="1.56101">
        <ele>308</ele>
        <time>2014-07-25T07:27:32Z</time>
      </trkpt>
      <trkpt lat="43.09562" lon="1.56095">
        <ele>309</ele>
        <time>2014-07-25T07:27:36Z</time>
      </trkpt>
      <trkpt lat="43.09565" lon="1.56089">
        <ele>309</ele>
        <time>2014-07-25T07:27:40Z</time>
      </trkpt>
      <trkpt lat="43.09581" lon="1.56058">
        <ele>306</ele>
        <time>2014-07-25T07:28:00Z</time>
      </trkpt>
      <trkpt lat="43.09584" lon="1.56052">
        <ele>306</ele>
        <time>2014-07-25T07:28:04Z</time>
      </trkpt>
      <trkpt lat="43.09587" lon="1.56048">
        <ele>306</ele>
        <time>2014-07-25T07:28:08Z</time>
      </trkpt>
      <trkpt lat="43.09589" lon="1.56042">
        <ele>305</ele>
        <time>2014-07-25T07:28:20Z</time>
      </trkpt>
      <trkpt lat="43.09583" lon="1.56029">
        <ele>304</ele>
        <time>2014-07-25T07:28:28Z</time>
      </trkpt>
      <trkpt lat="43.09578" lon="1.56017">
        <ele>304</ele>
        <time>2014-07-25T07:28:36Z</time>
      </trkpt>
      <trkpt lat="43.09576" lon="1.55996">
        <ele>303</ele>
        <time>2014-07-25T07:28:48Z</time>
      </trkpt>
      <trkpt lat="43.09576" lon="1.55989">
        <ele>304</ele>
        <time>2014-07-25T07:28:52Z</time>
      </trkpt>
      <trkpt lat="43.09577" lon="1.55981">
        <ele>303</ele>
        <time>2014-07-25T07:28:56Z</time>
      </trkpt>
      <trkpt lat="43.09579" lon="1.55954">
        <ele>302</ele>
        <time>2014-07-25T07:29:15Z</time>
      </trkpt>
      <trkpt lat="43.0958" lon="1.55933">
        <ele>303</ele>
        <time>2014-07-25T07:29:26Z</time>
      </trkpt>
      <trkpt lat="43.09579" lon="1.55912">
        <ele>304</ele>
        <time>2014-07-25T07:29:36Z</time>
      </trkpt>
      <trkpt lat="43.0958" lon="1.55882">
        <ele>305</ele>
        <time>2014-07-25T07:29:51Z</time>
      </trkpt>
      <trkpt lat="43.09579" lon="1.55875">
        <ele>305</ele>
        <time>2014-07-25T07:29:55Z</time>
      </trkpt>
      <trkpt lat="43.09578" lon="1.55868">
        <ele>305</ele>
        <time>2014-07-25T07:29:59Z</time>
      </trkpt>
      <trkpt lat="43.09578" lon="1.55861">
        <ele>305</ele>
        <time>2014-07-25T07:30:03Z</time>
      </trkpt>
      <trkpt lat="43.09575" lon="1.55842">
        <ele>306</ele>
        <time>2014-07-25T07:30:13Z</time>
      </trkpt>
      <trkpt lat="43.09574" lon="1.55834">
        <ele>306</ele>
        <time>2014-07-25T07:30:17Z</time>
      </trkpt>
      <trkpt lat="43.09573" lon="1.55827">
        <ele>305</ele>
        <time>2014-07-25T07:30:21Z</time>
      </trkpt>
      <trkpt lat="43.09572" lon="1.5582">
        <ele>306</ele>
        <time>2014-07-25T07:30:26Z</time>
      </trkpt>
      <trkpt lat="43.09572" lon="1.55813">
        <ele>306</ele>
        <time>2014-07-25T07:30:30Z</time>
      </trkpt>
      <trkpt lat="43.09569" lon="1.55798">
        <ele>307</ele>
        <time>2014-07-25T07:30:38Z</time>
      </trkpt>
      <trkpt lat="43.09568" lon="1.5579">
        <ele>307</ele>
        <time>2014-07-25T07:30:42Z</time>
      </trkpt>
      <trkpt lat="43.09566" lon="1.55784">
        <ele>307</ele>
        <time>2014-07-25T07:30:46Z</time>
      </trkpt>
      <trkpt lat="43.09562" lon="1.55779">
        <ele>307</ele>
        <time>2014-07-25T07:30:51Z</time>
      </trkpt>
      <trkpt lat="43.09561" lon="1.55772">
        <ele>308</ele>
        <time>2014-07-25T07:31:10Z</time>
      </trkpt>
      <trkpt lat="43.09559" lon="1.55765">
        <ele>307</ele>
        <time>2014-07-25T07:31:14Z</time>
      </trkpt>
      <trkpt lat="43.0955" lon="1.55732">
        <ele>307</ele>
        <time>2014-07-25T07:31:33Z</time>
      </trkpt>
      <trkpt lat="43.09539" lon="1.55681">
        <ele>310</ele>
        <time>2014-07-25T07:32:05Z</time>
      </trkpt>
      <trkpt lat="43.09537" lon="1.55675">
        <ele>310</ele>
        <time>2014-07-25T07:32:09Z</time>
      </trkpt>
      <trkpt lat="43.09535" lon="1.55669">
        <ele>310</ele>
        <time>2014-07-25T07:32:14Z</time>
      </trkpt>
      <trkpt lat="43.09534" lon="1.55662">
        <ele>311</ele>
        <time>2014-07-25T07:32:19Z</time>
      </trkpt>
      <trkpt lat="43.09532" lon="1.55656">
        <ele>311</ele>
        <time>2014-07-25T07:32:23Z</time>
      </trkpt>
      <trkpt lat="43.0953" lon="1.5565">
        <ele>310</ele>
        <time>2014-07-25T07:32:27Z</time>
      </trkpt>
      <trkpt lat="43.09527" lon="1.55645">
        <ele>310</ele>
        <time>2014-07-25T07:32:31Z</time>
      </trkpt>
      <trkpt lat="43.09525" lon="1.55639">
        <ele>311</ele>
        <time>2014-07-25T07:32:35Z</time>
      </trkpt>
      <trkpt lat="43.09514" lon="1.55625">
        <ele>310</ele>
        <time>2014-07-25T07:32:47Z</time>
      </trkpt>
      <trkpt lat="43.09507" lon="1.55617">
        <ele>311</ele>
        <time>2014-07-25T07:32:55Z</time>
      </trkpt>
      <trkpt lat="43.09485" lon="1.55595">
        <ele>314</ele>
        <time>2014-07-25T07:33:26Z</time>
      </trkpt>
      <trkpt lat="43.09478" lon="1.55585">
        <ele>317</ele>
        <time>2014-07-25T07:33:36Z</time>
      </trkpt>
      <trkpt lat="43.0947" lon="1.55568">
        <ele>316</ele>
        <time>2014-07-25T07:33:48Z</time>
      </trkpt>
      <trkpt lat="43.09459" lon="1.55543">
        <ele>317</ele>
        <time>2014-07-25T07:34:05Z</time>
      </trkpt>
      <trkpt lat="43.09457" lon="1.55538">
        <ele>317</ele>
        <time>2014-07-25T07:34:09Z</time>
      </trkpt>
      <trkpt lat="43.09455" lon="1.55532">
        <ele>318</ele>
        <time>2014-07-25T07:34:13Z</time>
      </trkpt>
      <trkpt lat="43.0945" lon="1.55519">
        <ele>318</ele>
        <time>2014-07-25T07:34:21Z</time>
      </trkpt>
      <trkpt lat="43.09446" lon="1.55507">
        <ele>320</ele>
        <time>2014-07-25T07:34:29Z</time>
      </trkpt>
      <trkpt lat="43.09443" lon="1.55501">
        <ele>320</ele>
        <time>2014-07-25T07:34:33Z</time>
      </trkpt>
      <trkpt lat="43.09435" lon="1.55482">
        <ele>320</ele>
        <time>2014-07-25T07:34:44Z</time>
      </trkpt>
      <trkpt lat="43.09432" lon="1.55476">
        <ele>321</ele>
        <time>2014-07-25T07:34:48Z</time>
      </trkpt>
      <trkpt lat="43.0943" lon="1.55469">
        <ele>321</ele>
        <time>2014-07-25T07:34:52Z</time>
      </trkpt>
      <trkpt lat="43.09427" lon="1.55463">
        <ele>322</ele>
        <time>2014-07-25T07:34:57Z</time>
      </trkpt>
      <trkpt lat="43.09421" lon="1.55445">
        <ele>322</ele>
        <time>2014-07-25T07:35:09Z</time>
      </trkpt>
      <trkpt lat="43.09407" lon="1.5541">
        <ele>323</ele>
        <time>2014-07-25T07:35:33Z</time>
      </trkpt>
      <trkpt lat="43.09396" lon="1.55386">
        <ele>323</ele>
        <time>2014-07-25T07:35:50Z</time>
      </trkpt>
      <trkpt lat="43.09381" lon="1.55349">
        <ele>326</ele>
        <time>2014-07-25T07:36:14Z</time>
      </trkpt>
      <trkpt lat="43.09379" lon="1.55343">
        <ele>326</ele>
        <time>2014-07-25T07:36:18Z</time>
      </trkpt>
      <trkpt lat="43.09376" lon="1.55338">
        <ele>326</ele>
        <time>2014-07-25T07:36:22Z</time>
      </trkpt>
      <trkpt lat="43.09374" lon="1.55332">
        <ele>326</ele>
        <time>2014-07-25T07:36:26Z</time>
      </trkpt>
      <trkpt lat="43.09372" lon="1.55325">
        <ele>327</ele>
        <time>2014-07-25T07:36:30Z</time>
      </trkpt>
      <trkpt lat="43.09359" lon="1.55295">
        <ele>328</ele>
        <time>2014-07-25T07:36:50Z</time>
      </trkpt>
      <trkpt lat="43.09357" lon="1.55289">
        <ele>329</ele>
        <time>2014-07-25T07:36:54Z</time>
      </trkpt>
      <trkpt lat="43.09345" lon="1.55267">
        <ele>329</ele>
        <time>2014-07-25T07:37:10Z</time>
      </trkpt>
      <trkpt lat="43.09339" lon="1.55255">
        <ele>328</ele>
        <time>2014-07-25T07:37:19Z</time>
      </trkpt>
      <trkpt lat="43.09333" lon="1.55244">
        <ele>329</ele>
        <time>2014-07-25T07:37:28Z</time>
      </trkpt>
      <trkpt lat="43.09331" lon="1.55241">
        <ele>330</ele>
        <time>2014-07-25T07:37:37Z</time>
      </trkpt>
      <trkpt lat="43.09325" lon="1.55216">
        <ele>333</ele>
        <time>2014-07-25T07:37:55Z</time>
      </trkpt>
      <trkpt lat="43.09324" lon="1.55202">
        <ele>333</ele>
        <time>2014-07-25T07:38:04Z</time>
      </trkpt>
      <trkpt lat="43.09326" lon="1.55195">
        <ele>336</ele>
        <time>2014-07-25T07:38:40Z</time>
      </trkpt>
      <trkpt lat="43.09325" lon="1.55179">
        <ele>335</ele>
        <time>2014-07-25T07:38:50Z</time>
      </trkpt>
      <trkpt lat="43.09326" lon="1.55164">
        <ele>335</ele>
        <time>2014-07-25T07:38:59Z</time>
      </trkpt>
      <trkpt lat="43.09328" lon="1.55157">
        <ele>335</ele>
        <time>2014-07-25T07:39:04Z</time>
      </trkpt>
      <trkpt lat="43.09332" lon="1.55153">
        <ele>334</ele>
        <time>2014-07-25T07:39:09Z</time>
      </trkpt>
      <trkpt lat="43.09338" lon="1.55156">
        <ele>334</ele>
        <time>2014-07-25T07:39:13Z</time>
      </trkpt>
      <trkpt lat="43.09343" lon="1.55157">
        <ele>335</ele>
        <time>2014-07-25T07:39:18Z</time>
      </trkpt>
      <trkpt lat="43.09348" lon="1.5516">
        <ele>334</ele>
        <time>2014-07-25T07:39:23Z</time>
      </trkpt>
      <trkpt lat="43.09344" lon="1.55158">
        <ele>335</ele>
        <time>2014-07-25T07:39:37Z</time>
      </trkpt>
      <trkpt lat="43.09339" lon="1.55158">
        <ele>335</ele>
        <time>2014-07-25T07:39:42Z</time>
      </trkpt>
      <trkpt lat="43.09334" lon="1.55158">
        <ele>336</ele>
        <time>2014-07-25T07:39:45Z</time>
      </trkpt>
      <trkpt lat="43.09329" lon="1.55158">
        <ele>337</ele>
        <time>2014-07-25T07:39:49Z</time>
      </trkpt>
      <trkpt lat="43.09327" lon="1.55164">
        <ele>336</ele>
        <time>2014-07-25T07:39:56Z</time>
      </trkpt>
      <trkpt lat="43.09324" lon="1.55164">
        <ele>336</ele>
        <time>2014-07-25T07:40:03Z</time>
      </trkpt>
      <trkpt lat="43.09325" lon="1.55171">
        <ele>335</ele>
        <time>2014-07-25T07:40:11Z</time>
      </trkpt>
      <trkpt lat="43.09324" lon="1.55178">
        <ele>332</ele>
        <time>2014-07-25T07:40:29Z</time>
      </trkpt>
      <trkpt lat="43.09321" lon="1.5518">
        <ele>332</ele>
        <time>2014-07-25T07:40:47Z</time>
      </trkpt>
      <trkpt lat="43.09312" lon="1.55178">
        <ele>333</ele>
        <time>2014-07-25T07:41:12Z</time>
      </trkpt>
      <trkpt lat="43.09312" lon="1.55177">
        <ele>335</ele>
        <time>2014-07-25T07:42:38Z</time>
      </trkpt>
      <trkpt lat="43.09323" lon="1.5518">
        <ele>335</ele>
        <time>2014-07-25T07:42:45Z</time>
      </trkpt>
      <trkpt lat="43.09323" lon="1.55183">
        <ele>334</ele>
        <time>2014-07-25T07:53:36Z</time>
      </trkpt>
      <trkpt lat="43.09325" lon="1.5519">
        <ele>334</ele>
        <time>2014-07-25T07:53:41Z</time>
      </trkpt>
      <trkpt lat="43.09326" lon="1.55196">
        <ele>334</ele>
        <time>2014-07-25T07:53:46Z</time>
      </trkpt>
      <trkpt lat="43.09324" lon="1.55203">
        <ele>334</ele>
        <time>2014-07-25T07:53:51Z</time>
      </trkpt>
      <trkpt lat="43.09323" lon="1.55209">
        <ele>334</ele>
        <time>2014-07-25T07:53:54Z</time>
      </trkpt>
      <trkpt lat="43.09323" lon="1.55216">
        <ele>334</ele>
        <time>2014-07-25T07:53:58Z</time>
      </trkpt>
      <trkpt lat="43.09324" lon="1.55223">
        <ele>333</ele>
        <time>2014-07-25T07:54:02Z</time>
      </trkpt>
      <trkpt lat="43.09325" lon="1.55229">
        <ele>333</ele>
        <time>2014-07-25T07:54:07Z</time>
      </trkpt>
      <trkpt lat="43.09325" lon="1.55235">
        <ele>332</ele>
        <time>2014-07-25T07:54:20Z</time>
      </trkpt>
      <trkpt lat="43.09321" lon="1.55237">
        <ele>332</ele>
        <time>2014-07-25T07:54:24Z</time>
      </trkpt>
      <trkpt lat="43.09316" lon="1.55239">
        <ele>332</ele>
        <time>2014-07-25T07:54:28Z</time>
      </trkpt>
      <trkpt lat="43.09311" lon="1.5524">
        <ele>332</ele>
        <time>2014-07-25T07:54:32Z</time>
      </trkpt>
      <trkpt lat="43.09296" lon="1.55246">
        <ele>334</ele>
        <time>2014-07-25T07:54:44Z</time>
      </trkpt>
      <trkpt lat="43.09291" lon="1.55249">
        <ele>334</ele>
        <time>2014-07-25T07:54:48Z</time>
      </trkpt>
      <trkpt lat="43.09281" lon="1.55253">
        <ele>333</ele>
        <time>2014-07-25T07:54:56Z</time>
      </trkpt>
      <trkpt lat="43.09276" lon="1.55256">
        <ele>333</ele>
        <time>2014-07-25T07:55:00Z</time>
      </trkpt>
      <trkpt lat="43.0927" lon="1.55257">
        <ele>334</ele>
        <time>2014-07-25T07:55:04Z</time>
      </trkpt>
      <trkpt lat="43.09265" lon="1.55259">
        <ele>334</ele>
        <time>2014-07-25T07:55:08Z</time>
      </trkpt>
      <trkpt lat="43.0926" lon="1.55261">
        <ele>333</ele>
        <time>2014-07-25T07:55:12Z</time>
      </trkpt>
      <trkpt lat="43.09245" lon="1.55267">
        <ele>334</ele>
        <time>2014-07-25T07:55:24Z</time>
      </trkpt>
      <trkpt lat="43.09207" lon="1.55285">
        <ele>333</ele>
        <time>2014-07-25T07:55:57Z</time>
      </trkpt>
      <trkpt lat="43.09181" lon="1.55293">
        <ele>334</ele>
        <time>2014-07-25T07:56:15Z</time>
      </trkpt>
      <trkpt lat="43.09175" lon="1.55296">
        <ele>334</ele>
        <time>2014-07-25T07:56:19Z</time>
      </trkpt>
      <trkpt lat="43.0916" lon="1.553">
        <ele>335</ele>
        <time>2014-07-25T07:56:30Z</time>
      </trkpt>
      <trkpt lat="43.09132" lon="1.55314">
        <ele>332</ele>
        <time>2014-07-25T07:56:54Z</time>
      </trkpt>
      <trkpt lat="43.09095" lon="1.55334">
        <ele>331</ele>
        <time>2014-07-25T07:57:26Z</time>
      </trkpt>
      <trkpt lat="43.09078" lon="1.55341">
        <ele>328</ele>
        <time>2014-07-25T07:57:48Z</time>
      </trkpt>
      <trkpt lat="43.09076" lon="1.55339">
        <ele>328</ele>
        <time>2014-07-25T07:58:44Z</time>
      </trkpt>
      <trkpt lat="43.09072" lon="1.55343">
        <ele>329</ele>
        <time>2014-07-25T07:59:07Z</time>
      </trkpt>
      <trkpt lat="43.09053" lon="1.55348">
        <ele>332</ele>
        <time>2014-07-25T07:59:20Z</time>
      </trkpt>
      <trkpt lat="43.09039" lon="1.55353">
        <ele>331</ele>
        <time>2014-07-25T07:59:32Z</time>
      </trkpt>
      <trkpt lat="43.09033" lon="1.55351">
        <ele>331</ele>
        <time>2014-07-25T07:59:36Z</time>
      </trkpt>
      <trkpt lat="43.09028" lon="1.5535">
        <ele>331</ele>
        <time>2014-07-25T07:59:40Z</time>
      </trkpt>
      <trkpt lat="43.09019" lon="1.55348">
        <ele>329</ele>
        <time>2014-07-25T07:59:49Z</time>
      </trkpt>
      <trkpt lat="43.09015" lon="1.55344">
        <ele>330</ele>
        <time>2014-07-25T07:59:53Z</time>
      </trkpt>
      <trkpt lat="43.09011" lon="1.55339">
        <ele>329</ele>
        <time>2014-07-25T07:59:57Z</time>
      </trkpt>
      <trkpt lat="43.09007" lon="1.55335">
        <ele>329</ele>
        <time>2014-07-25T08:00:01Z</time>
      </trkpt>
      <trkpt lat="43.09003" lon="1.5533">
        <ele>329</ele>
        <time>2014-07-25T08:00:05Z</time>
      </trkpt>
      <trkpt lat="43.08998" lon="1.55327">
        <ele>328</ele>
        <time>2014-07-25T08:00:09Z</time>
      </trkpt>
      <trkpt lat="43.08989" lon="1.55319">
        <ele>329</ele>
        <time>2014-07-25T08:00:17Z</time>
      </trkpt>
      <trkpt lat="43.08985" lon="1.55314">
        <ele>329</ele>
        <time>2014-07-25T08:00:22Z</time>
      </trkpt>
      <trkpt lat="43.08981" lon="1.55309">
        <ele>329</ele>
        <time>2014-07-25T08:00:27Z</time>
      </trkpt>
      <trkpt lat="43.08968" lon="1.5529">
        <ele>332</ele>
        <time>2014-07-25T08:00:41Z</time>
      </trkpt>
      <trkpt lat="43.08967" lon="1.55286">
        <ele>332</ele>
        <time>2014-07-25T08:00:48Z</time>
      </trkpt>
      <trkpt lat="43.08964" lon="1.55282">
        <ele>333</ele>
        <time>2014-07-25T08:01:10Z</time>
      </trkpt>
      <trkpt lat="43.0896" lon="1.55276">
        <ele>333</ele>
        <time>2014-07-25T08:01:14Z</time>
      </trkpt>
      <trkpt lat="43.08955" lon="1.55273">
        <ele>333</ele>
        <time>2014-07-25T08:01:18Z</time>
      </trkpt>
      <trkpt lat="43.08951" lon="1.55269">
        <ele>332</ele>
        <time>2014-07-25T08:01:22Z</time>
      </trkpt>
      <trkpt lat="43.08948" lon="1.55263">
        <ele>333</ele>
        <time>2014-07-25T08:01:26Z</time>
      </trkpt>
      <trkpt lat="43.08944" lon="1.55258">
        <ele>333</ele>
        <time>2014-07-25T08:01:29Z</time>
      </trkpt>
      <trkpt lat="43.08929" lon="1.55239">
        <ele>333</ele>
        <time>2014-07-25T08:01:44Z</time>
      </trkpt>
      <trkpt lat="43.08921" lon="1.5523">
        <ele>332</ele>
        <time>2014-07-25T08:01:52Z</time>
      </trkpt>
      <trkpt lat="43.08917" lon="1.55225">
        <ele>332</ele>
        <time>2014-07-25T08:01:56Z</time>
      </trkpt>
      <trkpt lat="43.08908" lon="1.55216">
        <ele>332</ele>
        <time>2014-07-25T08:02:04Z</time>
      </trkpt>
      <trkpt lat="43.08875" lon="1.55175">
        <ele>335</ele>
        <time>2014-07-25T08:02:35Z</time>
      </trkpt>
      <trkpt lat="43.08872" lon="1.55172">
        <ele>334</ele>
        <time>2014-07-25T08:02:38Z</time>
      </trkpt>
      <trkpt lat="43.08868" lon="1.55167">
        <ele>334</ele>
        <time>2014-07-25T08:02:42Z</time>
      </trkpt>
      <trkpt lat="43.08859" lon="1.55156">
        <ele>335</ele>
        <time>2014-07-25T08:02:50Z</time>
      </trkpt>
      <trkpt lat="43.08856" lon="1.55153">
        <ele>335</ele>
        <time>2014-07-25T08:02:53Z</time>
      </trkpt>
      <trkpt lat="43.08848" lon="1.55143">
        <ele>335</ele>
        <time>2014-07-25T08:03:00Z</time>
      </trkpt>
      <trkpt lat="43.08844" lon="1.55138">
        <ele>334</ele>
        <time>2014-07-25T08:03:04Z</time>
      </trkpt>
      <trkpt lat="43.08839" lon="1.55133">
        <ele>334</ele>
        <time>2014-07-25T08:03:08Z</time>
      </trkpt>
      <trkpt lat="43.08836" lon="1.55129">
        <ele>335</ele>
        <time>2014-07-25T08:03:11Z</time>
      </trkpt>
      <trkpt lat="43.08831" lon="1.55124">
        <ele>335</ele>
        <time>2014-07-25T08:03:15Z</time>
      </trkpt>
      <trkpt lat="43.08823" lon="1.55114">
        <ele>336</ele>
        <time>2014-07-25T08:03:23Z</time>
      </trkpt>
      <trkpt lat="43.08819" lon="1.55109">
        <ele>337</ele>
        <time>2014-07-25T08:03:28Z</time>
      </trkpt>
      <trkpt lat="43.08816" lon="1.55104">
        <ele>337</ele>
        <time>2014-07-25T08:03:32Z</time>
      </trkpt>
      <trkpt lat="43.08813" lon="1.55099">
        <ele>336</ele>
        <time>2014-07-25T08:03:37Z</time>
      </trkpt>
      <trkpt lat="43.08806" lon="1.55089">
        <ele>337</ele>
        <time>2014-07-25T08:03:44Z</time>
      </trkpt>
      <trkpt lat="43.08798" lon="1.5508">
        <ele>336</ele>
        <time>2014-07-25T08:03:50Z</time>
      </trkpt>
      <trkpt lat="43.08795" lon="1.55076">
        <ele>336</ele>
        <time>2014-07-25T08:03:53Z</time>
      </trkpt>
      <trkpt lat="43.0879" lon="1.55072">
        <ele>337</ele>
        <time>2014-07-25T08:03:57Z</time>
      </trkpt>
      <trkpt lat="43.08781" lon="1.55062">
        <ele>337</ele>
        <time>2014-07-25T08:04:05Z</time>
      </trkpt>
      <trkpt lat="43.08778" lon="1.55057">
        <ele>337</ele>
        <time>2014-07-25T08:04:08Z</time>
      </trkpt>
      <trkpt lat="43.08774" lon="1.55053">
        <ele>337</ele>
        <time>2014-07-25T08:04:12Z</time>
      </trkpt>
      <trkpt lat="43.0877" lon="1.55048">
        <ele>336</ele>
        <time>2014-07-25T08:04:16Z</time>
      </trkpt>
      <trkpt lat="43.08767" lon="1.55043">
        <ele>337</ele>
        <time>2014-07-25T08:04:20Z</time>
      </trkpt>
      <trkpt lat="43.08762" lon="1.55038">
        <ele>336</ele>
        <time>2014-07-25T08:04:24Z</time>
      </trkpt>
      <trkpt lat="43.08758" lon="1.55033">
        <ele>337</ele>
        <time>2014-07-25T08:04:28Z</time>
      </trkpt>
      <trkpt lat="43.08755" lon="1.55029">
        <ele>336</ele>
        <time>2014-07-25T08:04:32Z</time>
      </trkpt>
      <trkpt lat="43.08751" lon="1.55024">
        <ele>335</ele>
        <time>2014-07-25T08:04:36Z</time>
      </trkpt>
      <trkpt lat="43.08715" lon="1.54984">
        <ele>338</ele>
        <time>2014-07-25T08:05:08Z</time>
      </trkpt>
      <trkpt lat="43.08711" lon="1.54979">
        <ele>338</ele>
        <time>2014-07-25T08:05:12Z</time>
      </trkpt>
      <trkpt lat="43.087" lon="1.54965">
        <ele>339</ele>
        <time>2014-07-25T08:05:24Z</time>
      </trkpt>
      <trkpt lat="43.08684" lon="1.54948">
        <ele>339</ele>
        <time>2014-07-25T08:05:40Z</time>
      </trkpt>
      <trkpt lat="43.0868" lon="1.54943">
        <ele>338</ele>
        <time>2014-07-25T08:05:44Z</time>
      </trkpt>
      <trkpt lat="43.08676" lon="1.54938">
        <ele>339</ele>
        <time>2014-07-25T08:05:48Z</time>
      </trkpt>
      <trkpt lat="43.08664" lon="1.54923">
        <ele>337</ele>
        <time>2014-07-25T08:05:59Z</time>
      </trkpt>
      <trkpt lat="43.08651" lon="1.54907">
        <ele>337</ele>
        <time>2014-07-25T08:06:11Z</time>
      </trkpt>
      <trkpt lat="43.08647" lon="1.54903">
        <ele>338</ele>
        <time>2014-07-25T08:06:15Z</time>
      </trkpt>
      <trkpt lat="43.08643" lon="1.54899">
        <ele>338</ele>
        <time>2014-07-25T08:06:19Z</time>
      </trkpt>
      <trkpt lat="43.08634" lon="1.54891">
        <ele>338</ele>
        <time>2014-07-25T08:06:26Z</time>
      </trkpt>
      <trkpt lat="43.08625" lon="1.54883">
        <ele>339</ele>
        <time>2014-07-25T08:06:34Z</time>
      </trkpt>
      <trkpt lat="43.08621" lon="1.54878">
        <ele>339</ele>
        <time>2014-07-25T08:06:38Z</time>
      </trkpt>
      <trkpt lat="43.08617" lon="1.54874">
        <ele>339</ele>
        <time>2014-07-25T08:06:42Z</time>
      </trkpt>
      <trkpt lat="43.08613" lon="1.54868">
        <ele>338</ele>
        <time>2014-07-25T08:06:46Z</time>
      </trkpt>
      <trkpt lat="43.08601" lon="1.54852">
        <ele>338</ele>
        <time>2014-07-25T08:06:59Z</time>
      </trkpt>
      <trkpt lat="43.08597" lon="1.54847">
        <ele>338</ele>
        <time>2014-07-25T08:07:03Z</time>
      </trkpt>
      <trkpt lat="43.08592" lon="1.54842">
        <ele>338</ele>
        <time>2014-07-25T08:07:07Z</time>
      </trkpt>
      <trkpt lat="43.08584" lon="1.54833">
        <ele>338</ele>
        <time>2014-07-25T08:07:14Z</time>
      </trkpt>
      <trkpt lat="43.0858" lon="1.5483">
        <ele>338</ele>
        <time>2014-07-25T08:07:17Z</time>
      </trkpt>
      <trkpt lat="43.08575" lon="1.54825">
        <ele>339</ele>
        <time>2014-07-25T08:07:21Z</time>
      </trkpt>
      <trkpt lat="43.08555" lon="1.54803">
        <ele>340</ele>
        <time>2014-07-25T08:07:39Z</time>
      </trkpt>
      <trkpt lat="43.08551" lon="1.54798">
        <ele>340</ele>
        <time>2014-07-25T08:07:43Z</time>
      </trkpt>
      <trkpt lat="43.08546" lon="1.54793">
        <ele>340</ele>
        <time>2014-07-25T08:07:47Z</time>
      </trkpt>
      <trkpt lat="43.08541" lon="1.54788">
        <ele>339</ele>
        <time>2014-07-25T08:07:51Z</time>
      </trkpt>
      <trkpt lat="43.08522" lon="1.54765">
        <ele>340</ele>
        <time>2014-07-25T08:08:11Z</time>
      </trkpt>
      <trkpt lat="43.0852" lon="1.54763">
        <ele>341</ele>
        <time>2014-07-25T08:08:40Z</time>
      </trkpt>
      <trkpt lat="43.08515" lon="1.54761">
        <ele>341</ele>
        <time>2014-07-25T08:08:45Z</time>
      </trkpt>
      <trkpt lat="43.08512" lon="1.54757">
        <ele>341</ele>
        <time>2014-07-25T08:08:49Z</time>
      </trkpt>
      <trkpt lat="43.08509" lon="1.54751">
        <ele>340</ele>
        <time>2014-07-25T08:08:54Z</time>
      </trkpt>
      <trkpt lat="43.08502" lon="1.54741">
        <ele>340</ele>
        <time>2014-07-25T08:09:02Z</time>
      </trkpt>
      <trkpt lat="43.08486" lon="1.54723">
        <ele>339</ele>
        <time>2014-07-25T08:09:15Z</time>
      </trkpt>
      <trkpt lat="43.08483" lon="1.54718">
        <ele>339</ele>
        <time>2014-07-25T08:09:18Z</time>
      </trkpt>
      <trkpt lat="43.08479" lon="1.54714">
        <ele>339</ele>
        <time>2014-07-25T08:09:22Z</time>
      </trkpt>
      <trkpt lat="43.08475" lon="1.5471">
        <ele>339</ele>
        <time>2014-07-25T08:09:26Z</time>
      </trkpt>
      <trkpt lat="43.08472" lon="1.54705">
        <ele>339</ele>
        <time>2014-07-25T08:09:30Z</time>
      </trkpt>
      <trkpt lat="43.08453" lon="1.54682">
        <ele>338</ele>
        <time>2014-07-25T08:09:48Z</time>
      </trkpt>
      <trkpt lat="43.08442" lon="1.54667">
        <ele>339</ele>
        <time>2014-07-25T08:09:59Z</time>
      </trkpt>
      <trkpt lat="43.08428" lon="1.54646">
        <ele>339</ele>
        <time>2014-07-25T08:10:13Z</time>
      </trkpt>
      <trkpt lat="43.08425" lon="1.54641">
        <ele>339</ele>
        <time>2014-07-25T08:10:17Z</time>
      </trkpt>
      <trkpt lat="43.08422" lon="1.54635">
        <ele>339</ele>
        <time>2014-07-25T08:10:22Z</time>
      </trkpt>
      <trkpt lat="43.08419" lon="1.54629">
        <ele>338</ele>
        <time>2014-07-25T08:10:26Z</time>
      </trkpt>
      <trkpt lat="43.08415" lon="1.54624">
        <ele>338</ele>
        <time>2014-07-25T08:10:30Z</time>
      </trkpt>
      <trkpt lat="43.08399" lon="1.54595">
        <ele>337</ele>
        <time>2014-07-25T08:10:50Z</time>
      </trkpt>
      <trkpt lat="43.08381" lon="1.54544">
        <ele>340</ele>
        <time>2014-07-25T08:11:21Z</time>
      </trkpt>
      <trkpt lat="43.08377" lon="1.54531">
        <ele>341</ele>
        <time>2014-07-25T08:11:29Z</time>
      </trkpt>
      <trkpt lat="43.08368" lon="1.54505">
        <ele>341</ele>
        <time>2014-07-25T08:11:45Z</time>
      </trkpt>
      <trkpt lat="43.08352" lon="1.54458">
        <ele>344</ele>
        <time>2014-07-25T08:12:13Z</time>
      </trkpt>
      <trkpt lat="43.08349" lon="1.54451">
        <ele>343</ele>
        <time>2014-07-25T08:12:17Z</time>
      </trkpt>
      <trkpt lat="43.08347" lon="1.54445">
        <ele>343</ele>
        <time>2014-07-25T08:12:20Z</time>
      </trkpt>
      <trkpt lat="43.08344" lon="1.5444">
        <ele>343</ele>
        <time>2014-07-25T08:12:23Z</time>
      </trkpt>
      <trkpt lat="43.0834" lon="1.54426">
        <ele>343</ele>
        <time>2014-07-25T08:12:31Z</time>
      </trkpt>
      <trkpt lat="43.08334" lon="1.54407">
        <ele>343</ele>
        <time>2014-07-25T08:12:43Z</time>
      </trkpt>
      <trkpt lat="43.08335" lon="1.54401">
        <ele>344</ele>
        <time>2014-07-25T08:12:55Z</time>
      </trkpt>
      <trkpt lat="43.08334" lon="1.54394">
        <ele>344</ele>
        <time>2014-07-25T08:12:58Z</time>
      </trkpt>
      <trkpt lat="43.08332" lon="1.54387">
        <ele>345</ele>
        <time>2014-07-25T08:13:02Z</time>
      </trkpt>
      <trkpt lat="43.08331" lon="1.54381">
        <ele>345</ele>
        <time>2014-07-25T08:13:05Z</time>
      </trkpt>
      <trkpt lat="43.08328" lon="1.5436">
        <ele>345</ele>
        <time>2014-07-25T08:13:17Z</time>
      </trkpt>
      <trkpt lat="43.08327" lon="1.54352">
        <ele>345</ele>
        <time>2014-07-25T08:13:21Z</time>
      </trkpt>
      <trkpt lat="43.08322" lon="1.54338">
        <ele>345</ele>
        <time>2014-07-25T08:13:29Z</time>
      </trkpt>
      <trkpt lat="43.08304" lon="1.54314">
        <ele>348</ele>
        <time>2014-07-25T08:13:49Z</time>
      </trkpt>
      <trkpt lat="43.08291" lon="1.54298">
        <ele>348</ele>
        <time>2014-07-25T08:14:01Z</time>
      </trkpt>
      <trkpt lat="43.08287" lon="1.54293">
        <ele>349</ele>
        <time>2014-07-25T08:14:05Z</time>
      </trkpt>
      <trkpt lat="43.08283" lon="1.54287">
        <ele>348</ele>
        <time>2014-07-25T08:14:09Z</time>
      </trkpt>
      <trkpt lat="43.08278" lon="1.54276">
        <ele>349</ele>
        <time>2014-07-25T08:14:16Z</time>
      </trkpt>
      <trkpt lat="43.08271" lon="1.54258">
        <ele>351</ele>
        <time>2014-07-25T08:14:28Z</time>
      </trkpt>
      <trkpt lat="43.08269" lon="1.54252">
        <ele>351</ele>
        <time>2014-07-25T08:14:32Z</time>
      </trkpt>
      <trkpt lat="43.08267" lon="1.54246">
        <ele>350</ele>
        <time>2014-07-25T08:14:36Z</time>
      </trkpt>
      <trkpt lat="43.08265" lon="1.5424">
        <ele>350</ele>
        <time>2014-07-25T08:14:40Z</time>
      </trkpt>
      <trkpt lat="43.08257" lon="1.5422">
        <ele>351</ele>
        <time>2014-07-25T08:14:51Z</time>
      </trkpt>
      <trkpt lat="43.08246" lon="1.54194">
        <ele>351</ele>
        <time>2014-07-25T08:15:07Z</time>
      </trkpt>
      <trkpt lat="43.08244" lon="1.54188">
        <ele>351</ele>
        <time>2014-07-25T08:15:11Z</time>
      </trkpt>
      <trkpt lat="43.08241" lon="1.54183">
        <ele>351</ele>
        <time>2014-07-25T08:15:15Z</time>
      </trkpt>
      <trkpt lat="43.08223" lon="1.54132">
        <ele>354</ele>
        <time>2014-07-25T08:15:48Z</time>
      </trkpt>
      <trkpt lat="43.08212" lon="1.54116">
        <ele>356</ele>
        <time>2014-07-25T08:15:59Z</time>
      </trkpt>
      <trkpt lat="43.082" lon="1.54096">
        <ele>357</ele>
        <time>2014-07-25T08:16:13Z</time>
      </trkpt>
      <trkpt lat="43.08199" lon="1.54082">
        <ele>355</ele>
        <time>2014-07-25T08:16:22Z</time>
      </trkpt>
      <trkpt lat="43.082" lon="1.54075">
        <ele>355</ele>
        <time>2014-07-25T08:16:26Z</time>
      </trkpt>
      <trkpt lat="43.08205" lon="1.54063">
        <ele>356</ele>
        <time>2014-07-25T08:16:35Z</time>
      </trkpt>
      <trkpt lat="43.08207" lon="1.54058">
        <ele>356</ele>
        <time>2014-07-25T08:17:19Z</time>
      </trkpt>
      <trkpt lat="43.08213" lon="1.54047">
        <ele>356</ele>
        <time>2014-07-25T08:17:28Z</time>
      </trkpt>
      <trkpt lat="43.08216" lon="1.5404">
        <ele>356</ele>
        <time>2014-07-25T08:17:33Z</time>
      </trkpt>
      <trkpt lat="43.0822" lon="1.54036">
        <ele>357</ele>
        <time>2014-07-25T08:17:37Z</time>
      </trkpt>
      <trkpt lat="43.08223" lon="1.5403">
        <ele>357</ele>
        <time>2014-07-25T08:17:41Z</time>
      </trkpt>
      <trkpt lat="43.08225" lon="1.54025">
        <ele>357</ele>
        <time>2014-07-25T08:17:45Z</time>
      </trkpt>
      <trkpt lat="43.08229" lon="1.54019">
        <ele>358</ele>
        <time>2014-07-25T08:17:49Z</time>
      </trkpt>
      <trkpt lat="43.0823" lon="1.54012">
        <ele>358</ele>
        <time>2014-07-25T08:17:54Z</time>
      </trkpt>
      <trkpt lat="43.08228" lon="1.54005">
        <ele>358</ele>
        <time>2014-07-25T08:17:58Z</time>
      </trkpt>
      <trkpt lat="43.08226" lon="1.53991">
        <ele>359</ele>
        <time>2014-07-25T08:18:06Z</time>
      </trkpt>
      <trkpt lat="43.08211" lon="1.53964">
        <ele>362</ele>
        <time>2014-07-25T08:18:25Z</time>
      </trkpt>
      <trkpt lat="43.08206" lon="1.5396">
        <ele>363</ele>
        <time>2014-07-25T08:18:29Z</time>
      </trkpt>
      <trkpt lat="43.082" lon="1.53959">
        <ele>363</ele>
        <time>2014-07-25T08:18:34Z</time>
      </trkpt>
      <trkpt lat="43.08195" lon="1.53958">
        <ele>363</ele>
        <time>2014-07-25T08:18:38Z</time>
      </trkpt>
      <trkpt lat="43.08186" lon="1.53956">
        <ele>363</ele>
        <time>2014-07-25T08:18:44Z</time>
      </trkpt>
      <trkpt lat="43.0818" lon="1.53955">
        <ele>364</ele>
        <time>2014-07-25T08:18:48Z</time>
      </trkpt>
      <trkpt lat="43.08163" lon="1.53939">
        <ele>365</ele>
        <time>2014-07-25T08:19:05Z</time>
      </trkpt>
      <trkpt lat="43.08154" lon="1.53931">
        <ele>364</ele>
        <time>2014-07-25T08:19:13Z</time>
      </trkpt>
      <trkpt lat="43.0815" lon="1.53927">
        <ele>364</ele>
        <time>2014-07-25T08:19:17Z</time>
      </trkpt>
      <trkpt lat="43.08133" lon="1.53912">
        <ele>368</ele>
        <time>2014-07-25T08:19:34Z</time>
      </trkpt>
      <trkpt lat="43.08115" lon="1.53889">
        <ele>369</ele>
        <time>2014-07-25T08:19:54Z</time>
      </trkpt>
      <trkpt lat="43.08088" lon="1.53858">
        <ele>375</ele>
        <time>2014-07-25T08:20:24Z</time>
      </trkpt>
      <trkpt lat="43.08084" lon="1.53855">
        <ele>375</ele>
        <time>2014-07-25T08:20:28Z</time>
      </trkpt>
      <trkpt lat="43.08064" lon="1.53838">
        <ele>378</ele>
        <time>2014-07-25T08:20:48Z</time>
      </trkpt>
      <trkpt lat="43.0806" lon="1.53834">
        <ele>379</ele>
        <time>2014-07-25T08:20:51Z</time>
      </trkpt>
      <trkpt lat="43.08056" lon="1.53829">
        <ele>378</ele>
        <time>2014-07-25T08:20:55Z</time>
      </trkpt>
      <trkpt lat="43.08052" lon="1.53824">
        <ele>378</ele>
        <time>2014-07-25T08:20:59Z</time>
      </trkpt>
      <trkpt lat="43.08045" lon="1.53815">
        <ele>379</ele>
        <time>2014-07-25T08:21:06Z</time>
      </trkpt>
      <trkpt lat="43.08041" lon="1.53811">
        <ele>380</ele>
        <time>2014-07-25T08:21:09Z</time>
      </trkpt>
      <trkpt lat="43.08036" lon="1.53807">
        <ele>380</ele>
        <time>2014-07-25T08:21:12Z</time>
      </trkpt>
      <trkpt lat="43.08032" lon="1.53804">
        <ele>380</ele>
        <time>2014-07-25T08:21:15Z</time>
      </trkpt>
      <trkpt lat="43.08028" lon="1.53801">
        <ele>380</ele>
        <time>2014-07-25T08:21:18Z</time>
      </trkpt>
      <trkpt lat="43.08001" lon="1.53779">
        <ele>386</ele>
        <time>2014-07-25T08:21:46Z</time>
      </trkpt>
      <trkpt lat="43.07999" lon="1.53774">
        <ele>386</ele>
        <time>2014-07-25T08:21:50Z</time>
      </trkpt>
      <trkpt lat="43.07996" lon="1.53768">
        <ele>384</ele>
        <time>2014-07-25T08:21:54Z</time>
      </trkpt>
      <trkpt lat="43.07989" lon="1.53751">
        <ele>383</ele>
        <time>2014-07-25T08:22:06Z</time>
      </trkpt>
      <trkpt lat="43.07984" lon="1.53737">
        <ele>383</ele>
        <time>2014-07-25T08:22:15Z</time>
      </trkpt>
      <trkpt lat="43.07979" lon="1.53725">
        <ele>383</ele>
        <time>2014-07-25T08:22:23Z</time>
      </trkpt>
      <trkpt lat="43.0798" lon="1.53717">
        <ele>384</ele>
        <time>2014-07-25T08:22:27Z</time>
      </trkpt>
      <trkpt lat="43.0798" lon="1.53711">
        <ele>384</ele>
        <time>2014-07-25T08:22:31Z</time>
      </trkpt>
      <trkpt lat="43.07979" lon="1.53703">
        <ele>385</ele>
        <time>2014-07-25T08:22:36Z</time>
      </trkpt>
      <trkpt lat="43.07978" lon="1.53696">
        <ele>385</ele>
        <time>2014-07-25T08:22:40Z</time>
      </trkpt>
      <trkpt lat="43.07976" lon="1.5369">
        <ele>386</ele>
        <time>2014-07-25T08:22:44Z</time>
      </trkpt>
      <trkpt lat="43.07972" lon="1.53677">
        <ele>387</ele>
        <time>2014-07-25T08:22:52Z</time>
      </trkpt>
      <trkpt lat="43.0797" lon="1.5367">
        <ele>387</ele>
        <time>2014-07-25T08:22:56Z</time>
      </trkpt>
      <trkpt lat="43.07968" lon="1.53657">
        <ele>387</ele>
        <time>2014-07-25T08:23:05Z</time>
      </trkpt>
      <trkpt lat="43.07968" lon="1.5365">
        <ele>386</ele>
        <time>2014-07-25T08:23:10Z</time>
      </trkpt>
      <trkpt lat="43.07962" lon="1.5363">
        <ele>385</ele>
        <time>2014-07-25T08:23:22Z</time>
      </trkpt>
      <trkpt lat="43.0796" lon="1.53624">
        <ele>385</ele>
        <time>2014-07-25T08:23:25Z</time>
      </trkpt>
      <trkpt lat="43.07947" lon="1.53587">
        <ele>390</ele>
        <time>2014-07-25T08:23:48Z</time>
      </trkpt>
      <trkpt lat="43.07945" lon="1.53581">
        <ele>389</ele>
        <time>2014-07-25T08:23:52Z</time>
      </trkpt>
      <trkpt lat="43.07941" lon="1.53576">
        <ele>389</ele>
        <time>2014-07-25T08:23:57Z</time>
      </trkpt>
      <trkpt lat="43.07939" lon="1.53571">
        <ele>389</ele>
        <time>2014-07-25T08:24:01Z</time>
      </trkpt>
      <trkpt lat="43.07935" lon="1.53565">
        <ele>390</ele>
        <time>2014-07-25T08:24:05Z</time>
      </trkpt>
      <trkpt lat="43.07927" lon="1.53556">
        <ele>390</ele>
        <time>2014-07-25T08:24:12Z</time>
      </trkpt>
      <trkpt lat="43.07924" lon="1.5355">
        <ele>390</ele>
        <time>2014-07-25T08:24:16Z</time>
      </trkpt>
      <trkpt lat="43.07922" lon="1.53537">
        <ele>391</ele>
        <time>2014-07-25T08:24:24Z</time>
      </trkpt>
      <trkpt lat="43.07899" lon="1.53489">
        <ele>396</ele>
        <time>2014-07-25T08:24:58Z</time>
      </trkpt>
      <trkpt lat="43.07896" lon="1.53483">
        <ele>397</ele>
        <time>2014-07-25T08:25:03Z</time>
      </trkpt>
      <trkpt lat="43.07873" lon="1.53446">
        <ele>399</ele>
        <time>2014-07-25T08:25:37Z</time>
      </trkpt>
      <trkpt lat="43.07866" lon="1.53436">
        <ele>399</ele>
        <time>2014-07-25T08:25:45Z</time>
      </trkpt>
      <trkpt lat="43.07853" lon="1.53416">
        <ele>398</ele>
        <time>2014-07-25T08:26:00Z</time>
      </trkpt>
      <trkpt lat="43.07839" lon="1.53405">
        <ele>399</ele>
        <time>2014-07-25T08:26:10Z</time>
      </trkpt>
      <trkpt lat="43.0783" lon="1.53398">
        <ele>400</ele>
        <time>2014-07-25T08:26:17Z</time>
      </trkpt>
      <trkpt lat="43.07827" lon="1.53393">
        <ele>400</ele>
        <time>2014-07-25T08:26:21Z</time>
      </trkpt>
      <trkpt lat="43.07822" lon="1.5338">
        <ele>399</ele>
        <time>2014-07-25T08:26:30Z</time>
      </trkpt>
      <trkpt lat="43.07813" lon="1.53373">
        <ele>400</ele>
        <time>2014-07-25T08:26:39Z</time>
      </trkpt>
      <trkpt lat="43.07805" lon="1.53364">
        <ele>402</ele>
        <time>2014-07-25T08:26:48Z</time>
      </trkpt>
      <trkpt lat="43.07798" lon="1.53355">
        <ele>402</ele>
        <time>2014-07-25T08:26:55Z</time>
      </trkpt>
      <trkpt lat="43.07794" lon="1.53349">
        <ele>402</ele>
        <time>2014-07-25T08:26:59Z</time>
      </trkpt>
      <trkpt lat="43.07792" lon="1.53331">
        <ele>403</ele>
        <time>2014-07-25T08:27:14Z</time>
      </trkpt>
      <trkpt lat="43.07797" lon="1.5332">
        <ele>403</ele>
        <time>2014-07-25T08:27:22Z</time>
      </trkpt>
      <trkpt lat="43.07806" lon="1.53319">
        <ele>404</ele>
        <time>2014-07-25T08:27:30Z</time>
      </trkpt>
      <trkpt lat="43.07826" lon="1.5333">
        <ele>405</ele>
        <time>2014-07-25T08:27:55Z</time>
      </trkpt>
      <trkpt lat="43.07836" lon="1.53334">
        <ele>404</ele>
        <time>2014-07-25T08:28:03Z</time>
      </trkpt>
      <trkpt lat="43.0786" lon="1.5336">
        <ele>407</ele>
        <time>2014-07-25T08:28:24Z</time>
      </trkpt>
      <trkpt lat="43.07864" lon="1.53369">
        <ele>407</ele>
        <time>2014-07-25T08:28:31Z</time>
      </trkpt>
      <trkpt lat="43.07872" lon="1.53376">
        <ele>408</ele>
        <time>2014-07-25T08:28:41Z</time>
      </trkpt>
      <trkpt lat="43.07877" lon="1.5338">
        <ele>408</ele>
        <time>2014-07-25T08:28:48Z</time>
      </trkpt>
      <trkpt lat="43.07882" lon="1.53381">
        <ele>409</ele>
        <time>2014-07-25T08:28:52Z</time>
      </trkpt>
      <trkpt lat="43.07904" lon="1.5339">
        <ele>410</ele>
        <time>2014-07-25T08:29:09Z</time>
      </trkpt>
      <trkpt lat="43.07909" lon="1.53392">
        <ele>410</ele>
        <time>2014-07-25T08:29:13Z</time>
      </trkpt>
      <trkpt lat="43.07917" lon="1.53401">
        <ele>410</ele>
        <time>2014-07-25T08:29:22Z</time>
      </trkpt>
      <trkpt lat="43.07935" lon="1.5341">
        <ele>408</ele>
        <time>2014-07-25T08:29:41Z</time>
      </trkpt>
      <trkpt lat="43.07944" lon="1.53417">
        <ele>408</ele>
        <time>2014-07-25T08:29:49Z</time>
      </trkpt>
      <trkpt lat="43.07954" lon="1.53421">
        <ele>409</ele>
        <time>2014-07-25T08:29:56Z</time>
      </trkpt>
      <trkpt lat="43.07995" lon="1.53437">
        <ele>414</ele>
        <time>2014-07-25T08:30:30Z</time>
      </trkpt>
      <trkpt lat="43.07999" lon="1.53442">
        <ele>415</ele>
        <time>2014-07-25T08:30:34Z</time>
      </trkpt>
      <trkpt lat="43.08011" lon="1.53462">
        <ele>416</ele>
        <time>2014-07-25T08:30:47Z</time>
      </trkpt>
      <trkpt lat="43.08017" lon="1.53463">
        <ele>416</ele>
        <time>2014-07-25T08:30:51Z</time>
      </trkpt>
      <trkpt lat="43.08022" lon="1.53463">
        <ele>416</ele>
        <time>2014-07-25T08:30:55Z</time>
      </trkpt>
      <trkpt lat="43.08026" lon="1.5346">
        <ele>417</ele>
        <time>2014-07-25T08:30:59Z</time>
      </trkpt>
      <trkpt lat="43.08028" lon="1.53453">
        <ele>418</ele>
        <time>2014-07-25T08:31:04Z</time>
      </trkpt>
      <trkpt lat="43.08027" lon="1.53446">
        <ele>419</ele>
        <time>2014-07-25T08:31:09Z</time>
      </trkpt>
      <trkpt lat="43.08025" lon="1.5344">
        <ele>419</ele>
        <time>2014-07-25T08:32:18Z</time>
      </trkpt>
      <trkpt lat="43.07995" lon="1.53399">
        <ele>421</ele>
        <time>2014-07-25T08:32:50Z</time>
      </trkpt>
      <trkpt lat="43.07982" lon="1.53384">
        <ele>424</ele>
        <time>2014-07-25T08:33:01Z</time>
      </trkpt>
      <trkpt lat="43.07975" lon="1.53375">
        <ele>424</ele>
        <time>2014-07-25T08:33:10Z</time>
      </trkpt>
      <trkpt lat="43.07971" lon="1.53369">
        <ele>424</ele>
        <time>2014-07-25T08:33:15Z</time>
      </trkpt>
      <trkpt lat="43.07968" lon="1.53364">
        <ele>425</ele>
        <time>2014-07-25T08:33:20Z</time>
      </trkpt>
      <trkpt lat="43.07965" lon="1.53359">
        <ele>425</ele>
        <time>2014-07-25T08:33:24Z</time>
      </trkpt>
      <trkpt lat="43.07958" lon="1.53349">
        <ele>424</ele>
        <time>2014-07-25T08:33:32Z</time>
      </trkpt>
      <trkpt lat="43.07941" lon="1.53323">
        <ele>426</ele>
        <time>2014-07-25T08:33:55Z</time>
      </trkpt>
      <trkpt lat="43.07934" lon="1.53313">
        <ele>428</ele>
        <time>2014-07-25T08:34:04Z</time>
      </trkpt>
      <trkpt lat="43.07929" lon="1.53308">
        <ele>428</ele>
        <time>2014-07-25T08:34:09Z</time>
      </trkpt>
      <trkpt lat="43.0792" lon="1.53296">
        <ele>429</ele>
        <time>2014-07-25T08:34:18Z</time>
      </trkpt>
      <trkpt lat="43.07912" lon="1.53278">
        <ele>430</ele>
        <time>2014-07-25T08:34:30Z</time>
      </trkpt>
      <trkpt lat="43.07903" lon="1.53268">
        <ele>432</ele>
        <time>2014-07-25T08:34:38Z</time>
      </trkpt>
      <trkpt lat="43.07899" lon="1.53262">
        <ele>432</ele>
        <time>2014-07-25T08:34:42Z</time>
      </trkpt>
      <trkpt lat="43.07885" lon="1.5324">
        <ele>436</ele>
        <time>2014-07-25T08:34:58Z</time>
      </trkpt>
      <trkpt lat="43.07879" lon="1.53228">
        <ele>435</ele>
        <time>2014-07-25T08:35:06Z</time>
      </trkpt>
      <trkpt lat="43.07875" lon="1.53209">
        <ele>434</ele>
        <time>2014-07-25T08:35:20Z</time>
      </trkpt>
      <trkpt lat="43.07875" lon="1.53202">
        <ele>435</ele>
        <time>2014-07-25T08:35:26Z</time>
      </trkpt>
      <trkpt lat="43.07877" lon="1.53174">
        <ele>437</ele>
        <time>2014-07-25T08:35:42Z</time>
      </trkpt>
      <trkpt lat="43.07885" lon="1.53155">
        <ele>437</ele>
        <time>2014-07-25T08:35:54Z</time>
      </trkpt>
      <trkpt lat="43.07888" lon="1.5315">
        <ele>438</ele>
        <time>2014-07-25T08:35:58Z</time>
      </trkpt>
      <trkpt lat="43.07894" lon="1.53137">
        <ele>438</ele>
        <time>2014-07-25T08:36:08Z</time>
      </trkpt>
      <trkpt lat="43.079" lon="1.53125">
        <ele>437</ele>
        <time>2014-07-25T08:36:17Z</time>
      </trkpt>
      <trkpt lat="43.07904" lon="1.53109">
        <ele>437</ele>
        <time>2014-07-25T08:36:27Z</time>
      </trkpt>
      <trkpt lat="43.07903" lon="1.53102">
        <ele>436</ele>
        <time>2014-07-25T08:36:31Z</time>
      </trkpt>
      <trkpt lat="43.07902" lon="1.53094">
        <ele>436</ele>
        <time>2014-07-25T08:36:36Z</time>
      </trkpt>
      <trkpt lat="43.07902" lon="1.53088">
        <ele>437</ele>
        <time>2014-07-25T08:36:40Z</time>
      </trkpt>
      <trkpt lat="43.07903" lon="1.53081">
        <ele>437</ele>
        <time>2014-07-25T08:36:45Z</time>
      </trkpt>
      <trkpt lat="43.07902" lon="1.53075">
        <ele>436</ele>
        <time>2014-07-25T08:36:50Z</time>
      </trkpt>
      <trkpt lat="43.07902" lon="1.53061">
        <ele>437</ele>
        <time>2014-07-25T08:36:58Z</time>
      </trkpt>
      <trkpt lat="43.07898" lon="1.53048">
        <ele>438</ele>
        <time>2014-07-25T08:37:06Z</time>
      </trkpt>
      <trkpt lat="43.07895" lon="1.53043">
        <ele>438</ele>
        <time>2014-07-25T08:37:09Z</time>
      </trkpt>
      <trkpt lat="43.07891" lon="1.5303">
        <ele>439</ele>
        <time>2014-07-25T08:37:18Z</time>
      </trkpt>
      <trkpt lat="43.07892" lon="1.53017">
        <ele>441</ele>
        <time>2014-07-25T08:37:26Z</time>
      </trkpt>
      <trkpt lat="43.07897" lon="1.53005">
        <ele>442</ele>
        <time>2014-07-25T08:37:34Z</time>
      </trkpt>
      <trkpt lat="43.07896" lon="1.5298">
        <ele>443</ele>
        <time>2014-07-25T08:37:49Z</time>
      </trkpt>
      <trkpt lat="43.07898" lon="1.5297">
        <ele>443</ele>
        <time>2014-07-25T08:37:57Z</time>
      </trkpt>
      <trkpt lat="43.07885" lon="1.52914">
        <ele>447</ele>
        <time>2014-07-25T08:38:29Z</time>
      </trkpt>
      <trkpt lat="43.07884" lon="1.52907">
        <ele>447</ele>
        <time>2014-07-25T08:38:33Z</time>
      </trkpt>
      <trkpt lat="43.07894" lon="1.52855">
        <ele>450</ele>
        <time>2014-07-25T08:39:05Z</time>
      </trkpt>
      <trkpt lat="43.07913" lon="1.52817">
        <ele>451</ele>
        <time>2014-07-25T08:39:28Z</time>
      </trkpt>
      <trkpt lat="43.07912" lon="1.52809">
        <ele>451</ele>
        <time>2014-07-25T08:39:33Z</time>
      </trkpt>
      <trkpt lat="43.07909" lon="1.52801">
        <ele>451</ele>
        <time>2014-07-25T08:39:41Z</time>
      </trkpt>
      <trkpt lat="43.07903" lon="1.528">
        <ele>451</ele>
        <time>2014-07-25T08:39:45Z</time>
      </trkpt>
      <trkpt lat="43.07892" lon="1.528">
        <ele>452</ele>
        <time>2014-07-25T08:39:53Z</time>
      </trkpt>
      <trkpt lat="43.07878" lon="1.52813">
        <ele>452</ele>
        <time>2014-07-25T08:40:04Z</time>
      </trkpt>
      <trkpt lat="43.07868" lon="1.52828">
        <ele>452</ele>
        <time>2014-07-25T08:40:14Z</time>
      </trkpt>
      <trkpt lat="43.07859" lon="1.52846">
        <ele>453</ele>
        <time>2014-07-25T08:40:28Z</time>
      </trkpt>
      <trkpt lat="43.07852" lon="1.52855">
        <ele>455</ele>
        <time>2014-07-25T08:40:39Z</time>
      </trkpt>
      <trkpt lat="43.0785" lon="1.52862">
        <ele>455</ele>
        <time>2014-07-25T08:40:44Z</time>
      </trkpt>
      <trkpt lat="43.07837" lon="1.52883">
        <ele>456</ele>
        <time>2014-07-25T08:41:00Z</time>
      </trkpt>
      <trkpt lat="43.07825" lon="1.52933">
        <ele>458</ele>
        <time>2014-07-25T08:41:31Z</time>
      </trkpt>
      <trkpt lat="43.07812" lon="1.52956">
        <ele>458</ele>
        <time>2014-07-25T08:41:42Z</time>
      </trkpt>
      <trkpt lat="43.07808" lon="1.5296">
        <ele>459</ele>
        <time>2014-07-25T08:41:46Z</time>
      </trkpt>
      <trkpt lat="43.07803" lon="1.52961">
        <ele>459</ele>
        <time>2014-07-25T08:41:50Z</time>
      </trkpt>
      <trkpt lat="43.07798" lon="1.5296">
        <ele>458</ele>
        <time>2014-07-25T08:41:54Z</time>
      </trkpt>
      <trkpt lat="43.07793" lon="1.52959">
        <ele>458</ele>
        <time>2014-07-25T08:41:59Z</time>
      </trkpt>
      <trkpt lat="43.07789" lon="1.52955">
        <ele>458</ele>
        <time>2014-07-25T08:42:02Z</time>
      </trkpt>
      <trkpt lat="43.07786" lon="1.52949">
        <ele>457</ele>
        <time>2014-07-25T08:42:07Z</time>
      </trkpt>
      <trkpt lat="43.07765" lon="1.52906">
        <ele>459</ele>
        <time>2014-07-25T08:42:44Z</time>
      </trkpt>
      <trkpt lat="43.07727" lon="1.52865">
        <ele>461</ele>
        <time>2014-07-25T08:43:18Z</time>
      </trkpt>
      <trkpt lat="43.07719" lon="1.5286">
        <ele>462</ele>
        <time>2014-07-25T08:43:25Z</time>
      </trkpt>
      <trkpt lat="43.07705" lon="1.52844">
        <ele>462</ele>
        <time>2014-07-25T08:43:41Z</time>
      </trkpt>
      <trkpt lat="43.07672" lon="1.52798">
        <ele>466</ele>
        <time>2014-07-25T08:44:13Z</time>
      </trkpt>
      <trkpt lat="43.07666" lon="1.52788">
        <ele>467</ele>
        <time>2014-07-25T08:44:23Z</time>
      </trkpt>
      <trkpt lat="43.07628" lon="1.52762">
        <ele>471</ele>
        <time>2014-07-25T08:44:55Z</time>
      </trkpt>
      <trkpt lat="43.07587" lon="1.52749">
        <ele>477</ele>
        <time>2014-07-25T08:45:28Z</time>
      </trkpt>
      <trkpt lat="43.07582" lon="1.52747">
        <ele>478</ele>
        <time>2014-07-25T08:45:33Z</time>
      </trkpt>
      <trkpt lat="43.07572" lon="1.5274">
        <ele>478</ele>
        <time>2014-07-25T08:45:41Z</time>
      </trkpt>
      <trkpt lat="43.07568" lon="1.52737">
        <ele>478</ele>
        <time>2014-07-25T08:45:45Z</time>
      </trkpt>
      <trkpt lat="43.07553" lon="1.52736">
        <ele>481</ele>
        <time>2014-07-25T08:46:00Z</time>
      </trkpt>
      <trkpt lat="43.07549" lon="1.52731">
        <ele>481</ele>
        <time>2014-07-25T08:46:04Z</time>
      </trkpt>
      <trkpt lat="43.0754" lon="1.52727">
        <ele>482</ele>
        <time>2014-07-25T08:46:12Z</time>
      </trkpt>
      <trkpt lat="43.07536" lon="1.52724">
        <ele>482</ele>
        <time>2014-07-25T08:46:16Z</time>
      </trkpt>
      <trkpt lat="43.07531" lon="1.52724">
        <ele>483</ele>
        <time>2014-07-25T08:46:20Z</time>
      </trkpt>
      <trkpt lat="43.07526" lon="1.52725">
        <ele>482</ele>
        <time>2014-07-25T08:46:24Z</time>
      </trkpt>
      <trkpt lat="43.07517" lon="1.52728">
        <ele>481</ele>
        <time>2014-07-25T08:46:32Z</time>
      </trkpt>
      <trkpt lat="43.07502" lon="1.52733">
        <ele>482</ele>
        <time>2014-07-25T08:46:45Z</time>
      </trkpt>
      <trkpt lat="43.07487" lon="1.52737">
        <ele>483</ele>
        <time>2014-07-25T08:46:59Z</time>
      </trkpt>
      <trkpt lat="43.0747" lon="1.52739">
        <ele>483</ele>
        <time>2014-07-25T08:47:11Z</time>
      </trkpt>
      <trkpt lat="43.07458" lon="1.52744">
        <ele>484</ele>
        <time>2014-07-25T08:47:21Z</time>
      </trkpt>
      <trkpt lat="43.07455" lon="1.52737">
        <ele>483</ele>
        <time>2014-07-25T08:47:25Z</time>
      </trkpt>
      <trkpt lat="43.07453" lon="1.52729">
        <ele>481</ele>
        <time>2014-07-25T08:47:33Z</time>
      </trkpt>
      <trkpt lat="43.07454" lon="1.52722">
        <ele>480</ele>
        <time>2014-07-25T08:47:36Z</time>
      </trkpt>
      <trkpt lat="43.07455" lon="1.52716">
        <ele>480</ele>
        <time>2014-07-25T08:47:40Z</time>
      </trkpt>
      <trkpt lat="43.07464" lon="1.52712">
        <ele>480</ele>
        <time>2014-07-25T08:47:51Z</time>
      </trkpt>
      <trkpt lat="43.07479" lon="1.52703">
        <ele>483</ele>
        <time>2014-07-25T08:48:02Z</time>
      </trkpt>
      <trkpt lat="43.07489" lon="1.52696">
        <ele>482</ele>
        <time>2014-07-25T08:48:10Z</time>
      </trkpt>
      <trkpt lat="43.07503" lon="1.52682">
        <ele>485</ele>
        <time>2014-07-25T08:48:23Z</time>
      </trkpt>
      <trkpt lat="43.07507" lon="1.52677">
        <ele>485</ele>
        <time>2014-07-25T08:48:28Z</time>
      </trkpt>
      <trkpt lat="43.07523" lon="1.52664">
        <ele>488</ele>
        <time>2014-07-25T08:48:45Z</time>
      </trkpt>
      <trkpt lat="43.07526" lon="1.52657">
        <ele>489</ele>
        <time>2014-07-25T08:48:51Z</time>
      </trkpt>
      <trkpt lat="43.0753" lon="1.52642">
        <ele>490</ele>
        <time>2014-07-25T08:49:02Z</time>
      </trkpt>
      <trkpt lat="43.07537" lon="1.52625">
        <ele>490</ele>
        <time>2014-07-25T08:49:13Z</time>
      </trkpt>
      <trkpt lat="43.07549" lon="1.52581">
        <ele>495</ele>
        <time>2014-07-25T08:49:43Z</time>
      </trkpt>
      <trkpt lat="43.07544" lon="1.52579">
        <ele>496</ele>
        <time>2014-07-25T08:49:46Z</time>
      </trkpt>
      <trkpt lat="43.07534" lon="1.52583">
        <ele>497</ele>
        <time>2014-07-25T08:49:53Z</time>
      </trkpt>
      <trkpt lat="43.07528" lon="1.52588">
        <ele>498</ele>
        <time>2014-07-25T08:49:58Z</time>
      </trkpt>
      <trkpt lat="43.07525" lon="1.52593">
        <ele>498</ele>
        <time>2014-07-25T08:50:02Z</time>
      </trkpt>
      <trkpt lat="43.07519" lon="1.52603">
        <ele>499</ele>
        <time>2014-07-25T08:50:11Z</time>
      </trkpt>
      <trkpt lat="43.07507" lon="1.52618">
        <ele>499</ele>
        <time>2014-07-25T08:50:24Z</time>
      </trkpt>
      <trkpt lat="43.07493" lon="1.52625">
        <ele>497</ele>
        <time>2014-07-25T08:50:36Z</time>
      </trkpt>
      <trkpt lat="43.07481" lon="1.52638">
        <ele>499</ele>
        <time>2014-07-25T08:50:45Z</time>
      </trkpt>
      <trkpt lat="43.07476" lon="1.52639">
        <ele>498</ele>
        <time>2014-07-25T08:50:49Z</time>
      </trkpt>
      <trkpt lat="43.07473" lon="1.52635">
        <ele>498</ele>
        <time>2014-07-25T08:50:54Z</time>
      </trkpt>
      <trkpt lat="43.07471" lon="1.52629">
        <ele>498</ele>
        <time>2014-07-25T08:50:58Z</time>
      </trkpt>
      <trkpt lat="43.07466" lon="1.52626">
        <ele>497</ele>
        <time>2014-07-25T08:51:07Z</time>
      </trkpt>
      <trkpt lat="43.0746" lon="1.52617">
        <ele>498</ele>
        <time>2014-07-25T08:51:15Z</time>
      </trkpt>
      <trkpt lat="43.07454" lon="1.52606">
        <ele>500</ele>
        <time>2014-07-25T08:51:25Z</time>
      </trkpt>
      <trkpt lat="43.07455" lon="1.52598">
        <ele>501</ele>
        <time>2014-07-25T08:51:33Z</time>
      </trkpt>
      <trkpt lat="43.07454" lon="1.52595">
        <ele>502</ele>
        <time>2014-07-25T08:52:42Z</time>
      </trkpt>
      <trkpt lat="43.07444" lon="1.52585">
        <ele>502</ele>
        <time>2014-07-25T08:52:49Z</time>
      </trkpt>
      <trkpt lat="43.0744" lon="1.52581">
        <ele>502</ele>
        <time>2014-07-25T08:52:52Z</time>
      </trkpt>
      <trkpt lat="43.0743" lon="1.52574">
        <ele>503</ele>
        <time>2014-07-25T08:53:00Z</time>
      </trkpt>
      <trkpt lat="43.07416" lon="1.52564">
        <ele>504</ele>
        <time>2014-07-25T08:53:13Z</time>
      </trkpt>
      <trkpt lat="43.07409" lon="1.52554">
        <ele>503</ele>
        <time>2014-07-25T08:53:22Z</time>
      </trkpt>
      <trkpt lat="43.07406" lon="1.5255">
        <ele>503</ele>
        <time>2014-07-25T08:53:26Z</time>
      </trkpt>
      <trkpt lat="43.07387" lon="1.52507">
        <ele>510</ele>
        <time>2014-07-25T08:53:52Z</time>
      </trkpt>
      <trkpt lat="43.07385" lon="1.52501">
        <ele>510</ele>
        <time>2014-07-25T08:53:56Z</time>
      </trkpt>
      <trkpt lat="43.07383" lon="1.52495">
        <ele>510</ele>
        <time>2014-07-25T08:54:00Z</time>
      </trkpt>
      <trkpt lat="43.07381" lon="1.52489">
        <ele>510</ele>
        <time>2014-07-25T08:54:04Z</time>
      </trkpt>
      <trkpt lat="43.07379" lon="1.52483">
        <ele>511</ele>
        <time>2014-07-25T08:54:08Z</time>
      </trkpt>
      <trkpt lat="43.07377" lon="1.52462">
        <ele>510</ele>
        <time>2014-07-25T08:54:22Z</time>
      </trkpt>
      <trkpt lat="43.07376" lon="1.52455">
        <ele>510</ele>
        <time>2014-07-25T08:54:26Z</time>
      </trkpt>
      <trkpt lat="43.07369" lon="1.5243">
        <ele>513</ele>
        <time>2014-07-25T08:54:42Z</time>
      </trkpt>
      <trkpt lat="43.07369" lon="1.52416">
        <ele>514</ele>
        <time>2014-07-25T08:54:51Z</time>
      </trkpt>
      <trkpt lat="43.07368" lon="1.52409">
        <ele>513</ele>
        <time>2014-07-25T08:54:56Z</time>
      </trkpt>
      <trkpt lat="43.07368" lon="1.52395">
        <ele>512</ele>
        <time>2014-07-25T08:55:04Z</time>
      </trkpt>
      <trkpt lat="43.07368" lon="1.52389">
        <ele>512</ele>
        <time>2014-07-25T08:55:08Z</time>
      </trkpt>
      <trkpt lat="43.07368" lon="1.52375">
        <ele>513</ele>
        <time>2014-07-25T08:55:17Z</time>
      </trkpt>
      <trkpt lat="43.07367" lon="1.52369">
        <ele>513</ele>
        <time>2014-07-25T08:55:22Z</time>
      </trkpt>
      <trkpt lat="43.07364" lon="1.52363">
        <ele>513</ele>
        <time>2014-07-25T08:55:27Z</time>
      </trkpt>
      <trkpt lat="43.07356" lon="1.52334">
        <ele>517</ele>
        <time>2014-07-25T08:55:45Z</time>
      </trkpt>
      <trkpt lat="43.07358" lon="1.52329">
        <ele>515</ele>
        <time>2014-07-25T08:56:17Z</time>
      </trkpt>
      <trkpt lat="43.07355" lon="1.52317">
        <ele>515</ele>
        <time>2014-07-25T08:56:26Z</time>
      </trkpt>
      <trkpt lat="43.07352" lon="1.52303">
        <ele>515</ele>
        <time>2014-07-25T08:56:32Z</time>
      </trkpt>
      <trkpt lat="43.07349" lon="1.52292">
        <ele>518</ele>
        <time>2014-07-25T08:56:37Z</time>
      </trkpt>
      <trkpt lat="43.0736" lon="1.52254">
        <ele>522</ele>
        <time>2014-07-25T08:56:58Z</time>
      </trkpt>
      <trkpt lat="43.07362" lon="1.52247">
        <ele>522</ele>
        <time>2014-07-25T08:57:01Z</time>
      </trkpt>
      <trkpt lat="43.07365" lon="1.52233">
        <ele>521</ele>
        <time>2014-07-25T08:57:09Z</time>
      </trkpt>
      <trkpt lat="43.07378" lon="1.52179">
        <ele>524</ele>
        <time>2014-07-25T08:57:41Z</time>
      </trkpt>
      <trkpt lat="43.07378" lon="1.52172">
        <ele>524</ele>
        <time>2014-07-25T08:57:46Z</time>
      </trkpt>
      <trkpt lat="43.07376" lon="1.52158">
        <ele>526</ele>
        <time>2014-07-25T08:57:55Z</time>
      </trkpt>
      <trkpt lat="43.07376" lon="1.52151">
        <ele>526</ele>
        <time>2014-07-25T08:57:59Z</time>
      </trkpt>
      <trkpt lat="43.07374" lon="1.52137">
        <ele>525</ele>
        <time>2014-07-25T08:58:07Z</time>
      </trkpt>
      <trkpt lat="43.07373" lon="1.52129">
        <ele>526</ele>
        <time>2014-07-25T08:58:11Z</time>
      </trkpt>
      <trkpt lat="43.07354" lon="1.52092">
        <ele>534</ele>
        <time>2014-07-25T08:58:35Z</time>
      </trkpt>
      <trkpt lat="43.07353" lon="1.52086">
        <ele>534</ele>
        <time>2014-07-25T08:58:39Z</time>
      </trkpt>
      <trkpt lat="43.07352" lon="1.52046">
        <ele>531</ele>
        <time>2014-07-25T08:59:05Z</time>
      </trkpt>
      <trkpt lat="43.07353" lon="1.52033">
        <ele>531</ele>
        <time>2014-07-25T08:59:13Z</time>
      </trkpt>
      <trkpt lat="43.07353" lon="1.52013">
        <ele>532</ele>
        <time>2014-07-25T08:59:25Z</time>
      </trkpt>
      <trkpt lat="43.07354" lon="1.52007">
        <ele>534</ele>
        <time>2014-07-25T08:59:29Z</time>
      </trkpt>
      <trkpt lat="43.07357" lon="1.52001">
        <ele>534</ele>
        <time>2014-07-25T08:59:34Z</time>
      </trkpt>
      <trkpt lat="43.07358" lon="1.51994">
        <ele>535</ele>
        <time>2014-07-25T08:59:39Z</time>
      </trkpt>
      <trkpt lat="43.07361" lon="1.51988">
        <ele>535</ele>
        <time>2014-07-25T08:59:44Z</time>
      </trkpt>
      <trkpt lat="43.07365" lon="1.51974">
        <ele>535</ele>
        <time>2014-07-25T08:59:53Z</time>
      </trkpt>
      <trkpt lat="43.07367" lon="1.51962">
        <ele>535</ele>
        <time>2014-07-25T09:00:01Z</time>
      </trkpt>
      <trkpt lat="43.07367" lon="1.51946">
        <ele>535</ele>
        <time>2014-07-25T09:00:09Z</time>
      </trkpt>
      <trkpt lat="43.07375" lon="1.5192">
        <ele>535</ele>
        <time>2014-07-25T09:00:26Z</time>
      </trkpt>
      <trkpt lat="43.07378" lon="1.51907">
        <ele>536</ele>
        <time>2014-07-25T09:00:34Z</time>
      </trkpt>
      <trkpt lat="43.07377" lon="1.51893">
        <ele>535</ele>
        <time>2014-07-25T09:00:42Z</time>
      </trkpt>
      <trkpt lat="43.07372" lon="1.51889">
        <ele>534</ele>
        <time>2014-07-25T09:00:47Z</time>
      </trkpt>
      <trkpt lat="43.07372" lon="1.51893">
        <ele>532</ele>
        <time>2014-07-25T09:01:00Z</time>
      </trkpt>
      <trkpt lat="43.07368" lon="1.51896">
        <ele>532</ele>
        <time>2014-07-25T09:01:10Z</time>
      </trkpt>
      <trkpt lat="43.07366" lon="1.51891">
        <ele>531</ele>
        <time>2014-07-25T09:01:13Z</time>
      </trkpt>
      <trkpt lat="43.07366" lon="1.5189">
        <ele>531</ele>
        <time>2014-07-25T09:01:52Z</time>
      </trkpt>
      <trkpt lat="43.07352" lon="1.51908">
        <ele>527</ele>
        <time>2014-07-25T09:02:14Z</time>
      </trkpt>
      <trkpt lat="43.0734" lon="1.51925">
        <ele>526</ele>
        <time>2014-07-25T09:02:26Z</time>
      </trkpt>
      <trkpt lat="43.07327" lon="1.51938">
        <ele>528</ele>
        <time>2014-07-25T09:02:38Z</time>
      </trkpt>
      <trkpt lat="43.07323" lon="1.51941">
        <ele>528</ele>
        <time>2014-07-25T09:02:42Z</time>
      </trkpt>
      <trkpt lat="43.07313" lon="1.51949">
        <ele>527</ele>
        <time>2014-07-25T09:02:50Z</time>
      </trkpt>
      <trkpt lat="43.07305" lon="1.51959">
        <ele>528</ele>
        <time>2014-07-25T09:02:58Z</time>
      </trkpt>
      <trkpt lat="43.07287" lon="1.51974">
        <ele>525</ele>
        <time>2014-07-25T09:03:12Z</time>
      </trkpt>
      <trkpt lat="43.07283" lon="1.51971">
        <ele>524</ele>
        <time>2014-07-25T09:03:16Z</time>
      </trkpt>
      <trkpt lat="43.07282" lon="1.51964">
        <ele>524</ele>
        <time>2014-07-25T09:03:19Z</time>
      </trkpt>
      <trkpt lat="43.07283" lon="1.51958">
        <ele>524</ele>
        <time>2014-07-25T09:03:22Z</time>
      </trkpt>
      <trkpt lat="43.07294" lon="1.51936">
        <ele>525</ele>
        <time>2014-07-25T09:03:35Z</time>
      </trkpt>
      <trkpt lat="43.07308" lon="1.51883">
        <ele>522</ele>
        <time>2014-07-25T09:04:06Z</time>
      </trkpt>
      <trkpt lat="43.07309" lon="1.51876">
        <ele>521</ele>
        <time>2014-07-25T09:04:10Z</time>
      </trkpt>
      <trkpt lat="43.07312" lon="1.51854">
        <ele>519</ele>
        <time>2014-07-25T09:04:22Z</time>
      </trkpt>
      <trkpt lat="43.0732" lon="1.51819">
        <ele>519</ele>
        <time>2014-07-25T09:04:44Z</time>
      </trkpt>
      <trkpt lat="43.07326" lon="1.51762">
        <ele>515</ele>
        <time>2014-07-25T09:05:14Z</time>
      </trkpt>
      <trkpt lat="43.07327" lon="1.51755">
        <ele>514</ele>
        <time>2014-07-25T09:05:18Z</time>
      </trkpt>
      <trkpt lat="43.0733" lon="1.51742">
        <ele>513</ele>
        <time>2014-07-25T09:05:25Z</time>
      </trkpt>
      <trkpt lat="43.07332" lon="1.51729">
        <ele>513</ele>
        <time>2014-07-25T09:05:33Z</time>
      </trkpt>
      <trkpt lat="43.07331" lon="1.51722">
        <ele>513</ele>
        <time>2014-07-25T09:05:36Z</time>
      </trkpt>
      <trkpt lat="43.07332" lon="1.51716">
        <ele>513</ele>
        <time>2014-07-25T09:05:40Z</time>
      </trkpt>
      <trkpt lat="43.07335" lon="1.51709">
        <ele>514</ele>
        <time>2014-07-25T09:05:44Z</time>
      </trkpt>
      <trkpt lat="43.07333" lon="1.51671">
        <ele>511</ele>
        <time>2014-07-25T09:06:04Z</time>
      </trkpt>
      <trkpt lat="43.07332" lon="1.51663">
        <ele>509</ele>
        <time>2014-07-25T09:06:08Z</time>
      </trkpt>
      <trkpt lat="43.07332" lon="1.51635">
        <ele>507</ele>
        <time>2014-07-25T09:06:22Z</time>
      </trkpt>
      <trkpt lat="43.07332" lon="1.51621">
        <ele>508</ele>
        <time>2014-07-25T09:06:30Z</time>
      </trkpt>
      <trkpt lat="43.07329" lon="1.51586">
        <ele>506</ele>
        <time>2014-07-25T09:06:49Z</time>
      </trkpt>
      <trkpt lat="43.07326" lon="1.5158">
        <ele>506</ele>
        <time>2014-07-25T09:06:52Z</time>
      </trkpt>
      <trkpt lat="43.07325" lon="1.51574">
        <ele>505</ele>
        <time>2014-07-25T09:06:55Z</time>
      </trkpt>
      <trkpt lat="43.07323" lon="1.51567">
        <ele>505</ele>
        <time>2014-07-25T09:06:59Z</time>
      </trkpt>
      <trkpt lat="43.07324" lon="1.5156">
        <ele>504</ele>
        <time>2014-07-25T09:07:03Z</time>
      </trkpt>
      <trkpt lat="43.07325" lon="1.51553">
        <ele>504</ele>
        <time>2014-07-25T09:07:07Z</time>
      </trkpt>
      <trkpt lat="43.07325" lon="1.51546">
        <ele>504</ele>
        <time>2014-07-25T09:07:12Z</time>
      </trkpt>
      <trkpt lat="43.07323" lon="1.51539">
        <ele>504</ele>
        <time>2014-07-25T09:07:16Z</time>
      </trkpt>
      <trkpt lat="43.07322" lon="1.51533">
        <ele>504</ele>
        <time>2014-07-25T09:07:20Z</time>
      </trkpt>
      <trkpt lat="43.07321" lon="1.51525">
        <ele>504</ele>
        <time>2014-07-25T09:07:24Z</time>
      </trkpt>
      <trkpt lat="43.07318" lon="1.51517">
        <ele>504</ele>
        <time>2014-07-25T09:07:28Z</time>
      </trkpt>
      <trkpt lat="43.07316" lon="1.51504">
        <ele>502</ele>
        <time>2014-07-25T09:07:36Z</time>
      </trkpt>
      <trkpt lat="43.07314" lon="1.51484">
        <ele>503</ele>
        <time>2014-07-25T09:07:48Z</time>
      </trkpt>
      <trkpt lat="43.07313" lon="1.51477">
        <ele>502</ele>
        <time>2014-07-25T09:07:52Z</time>
      </trkpt>
      <trkpt lat="43.07311" lon="1.51463">
        <ele>502</ele>
        <time>2014-07-25T09:07:59Z</time>
      </trkpt>
      <trkpt lat="43.07309" lon="1.51443">
        <ele>504</ele>
        <time>2014-07-25T09:08:11Z</time>
      </trkpt>
      <trkpt lat="43.07308" lon="1.51435">
        <ele>503</ele>
        <time>2014-07-25T09:08:15Z</time>
      </trkpt>
      <trkpt lat="43.07307" lon="1.51428">
        <ele>504</ele>
        <time>2014-07-25T09:08:19Z</time>
      </trkpt>
      <trkpt lat="43.07308" lon="1.51421">
        <ele>504</ele>
        <time>2014-07-25T09:08:23Z</time>
      </trkpt>
      <trkpt lat="43.07305" lon="1.51406">
        <ele>503</ele>
        <time>2014-07-25T09:08:31Z</time>
      </trkpt>
      <trkpt lat="43.07305" lon="1.514">
        <ele>503</ele>
        <time>2014-07-25T09:08:34Z</time>
      </trkpt>
      <trkpt lat="43.07303" lon="1.51394">
        <ele>503</ele>
        <time>2014-07-25T09:08:37Z</time>
      </trkpt>
      <trkpt lat="43.07302" lon="1.51365">
        <ele>501</ele>
        <time>2014-07-25T09:08:53Z</time>
      </trkpt>
      <trkpt lat="43.07302" lon="1.5135">
        <ele>500</ele>
        <time>2014-07-25T09:09:00Z</time>
      </trkpt>
      <trkpt lat="43.07301" lon="1.51343">
        <ele>500</ele>
        <time>2014-07-25T09:09:04Z</time>
      </trkpt>
      <trkpt lat="43.07295" lon="1.51287">
        <ele>495</ele>
        <time>2014-07-25T09:09:36Z</time>
      </trkpt>
      <trkpt lat="43.07294" lon="1.5128">
        <ele>495</ele>
        <time>2014-07-25T09:09:40Z</time>
      </trkpt>
      <trkpt lat="43.07287" lon="1.51224">
        <ele>491</ele>
        <time>2014-07-25T09:10:14Z</time>
      </trkpt>
      <trkpt lat="43.07282" lon="1.51181">
        <ele>488</ele>
        <time>2014-07-25T09:10:44Z</time>
      </trkpt>
      <trkpt lat="43.07282" lon="1.51172">
        <ele>488</ele>
        <time>2014-07-25T09:11:18Z</time>
      </trkpt>
      <trkpt lat="43.07277" lon="1.51153">
        <ele>487</ele>
        <time>2014-07-25T09:11:31Z</time>
      </trkpt>
      <trkpt lat="43.07275" lon="1.51134">
        <ele>486</ele>
        <time>2014-07-25T09:11:43Z</time>
      </trkpt>
      <trkpt lat="43.07272" lon="1.51128">
        <ele>486</ele>
        <time>2014-07-25T09:11:46Z</time>
      </trkpt>
      <trkpt lat="43.07266" lon="1.51108">
        <ele>484</ele>
        <time>2014-07-25T09:11:58Z</time>
      </trkpt>
      <trkpt lat="43.07256" lon="1.51101">
        <ele>483</ele>
        <time>2014-07-25T09:12:05Z</time>
      </trkpt>
      <trkpt lat="43.07251" lon="1.51097">
        <ele>483</ele>
        <time>2014-07-25T09:12:10Z</time>
      </trkpt>
      <trkpt lat="43.07251" lon="1.51091">
        <ele>483</ele>
        <time>2014-07-25T09:12:18Z</time>
      </trkpt>
      <trkpt lat="43.07246" lon="1.51085">
        <ele>483</ele>
        <time>2014-07-25T09:12:22Z</time>
      </trkpt>
      <trkpt lat="43.07238" lon="1.51077">
        <ele>483</ele>
        <time>2014-07-25T09:12:28Z</time>
      </trkpt>
      <trkpt lat="43.07234" lon="1.51073">
        <ele>483</ele>
        <time>2014-07-25T09:12:31Z</time>
      </trkpt>
      <trkpt lat="43.07232" lon="1.51067">
        <ele>483</ele>
        <time>2014-07-25T09:12:36Z</time>
      </trkpt>
      <trkpt lat="43.07233" lon="1.5106">
        <ele>483</ele>
        <time>2014-07-25T09:12:40Z</time>
      </trkpt>
      <trkpt lat="43.07236" lon="1.51053">
        <ele>483</ele>
        <time>2014-07-25T09:12:44Z</time>
      </trkpt>
      <trkpt lat="43.07238" lon="1.51012">
        <ele>477</ele>
        <time>2014-07-25T09:13:09Z</time>
      </trkpt>
      <trkpt lat="43.07239" lon="1.51005">
        <ele>478</ele>
        <time>2014-07-25T09:13:14Z</time>
      </trkpt>
      <trkpt lat="43.0724" lon="1.5099">
        <ele>481</ele>
        <time>2014-07-25T09:13:21Z</time>
      </trkpt>
      <trkpt lat="43.07251" lon="1.50969">
        <ele>487</ele>
        <time>2014-07-25T09:13:32Z</time>
      </trkpt>
      <trkpt lat="43.0725" lon="1.50928">
        <ele>493</ele>
        <time>2014-07-25T09:13:56Z</time>
      </trkpt>
      <trkpt lat="43.07247" lon="1.50922">
        <ele>494</ele>
        <time>2014-07-25T09:14:00Z</time>
      </trkpt>
      <trkpt lat="43.07248" lon="1.50916">
        <ele>495</ele>
        <time>2014-07-25T09:14:04Z</time>
      </trkpt>
      <trkpt lat="43.07249" lon="1.50904">
        <ele>494</ele>
        <time>2014-07-25T09:14:10Z</time>
      </trkpt>
      <trkpt lat="43.07252" lon="1.50897">
        <ele>495</ele>
        <time>2014-07-25T09:14:14Z</time>
      </trkpt>
      <trkpt lat="43.07251" lon="1.50882">
        <ele>495</ele>
        <time>2014-07-25T09:14:24Z</time>
      </trkpt>
      <trkpt lat="43.07249" lon="1.50876">
        <ele>495</ele>
        <time>2014-07-25T09:14:28Z</time>
      </trkpt>
      <trkpt lat="43.07251" lon="1.5087">
        <ele>496</ele>
        <time>2014-07-25T09:14:32Z</time>
      </trkpt>
      <trkpt lat="43.0725" lon="1.50862">
        <ele>495</ele>
        <time>2014-07-25T09:14:37Z</time>
      </trkpt>
      <trkpt lat="43.07246" lon="1.50857">
        <ele>494</ele>
        <time>2014-07-25T09:14:41Z</time>
      </trkpt>
      <trkpt lat="43.07244" lon="1.50851">
        <ele>494</ele>
        <time>2014-07-25T09:14:45Z</time>
      </trkpt>
      <trkpt lat="43.07243" lon="1.50845">
        <ele>494</ele>
        <time>2014-07-25T09:14:49Z</time>
      </trkpt>
      <trkpt lat="43.07235" lon="1.50836">
        <ele>493</ele>
        <time>2014-07-25T09:14:58Z</time>
      </trkpt>
      <trkpt lat="43.0723" lon="1.50832">
        <ele>492</ele>
        <time>2014-07-25T09:15:02Z</time>
      </trkpt>
      <trkpt lat="43.07225" lon="1.50828">
        <ele>491</ele>
        <time>2014-07-25T09:15:06Z</time>
      </trkpt>
      <trkpt lat="43.0722" lon="1.50824">
        <ele>489</ele>
        <time>2014-07-25T09:15:10Z</time>
      </trkpt>
      <trkpt lat="43.07212" lon="1.50815">
        <ele>491</ele>
        <time>2014-07-25T09:15:19Z</time>
      </trkpt>
      <trkpt lat="43.07189" lon="1.508">
        <ele>496</ele>
        <time>2014-07-25T09:15:41Z</time>
      </trkpt>
      <trkpt lat="43.07185" lon="1.50795">
        <ele>496</ele>
        <time>2014-07-25T09:15:45Z</time>
      </trkpt>
      <trkpt lat="43.07162" lon="1.50774">
        <ele>501</ele>
        <time>2014-07-25T09:16:12Z</time>
      </trkpt>
      <trkpt lat="43.07157" lon="1.5077">
        <ele>501</ele>
        <time>2014-07-25T09:16:16Z</time>
      </trkpt>
      <trkpt lat="43.07154" lon="1.50765">
        <ele>500</ele>
        <time>2014-07-25T09:16:19Z</time>
      </trkpt>
      <trkpt lat="43.0715" lon="1.5076">
        <ele>500</ele>
        <time>2014-07-25T09:16:23Z</time>
      </trkpt>
      <trkpt lat="43.07128" lon="1.50754">
        <ele>495</ele>
        <time>2014-07-25T09:16:42Z</time>
      </trkpt>
      <trkpt lat="43.07118" lon="1.50748">
        <ele>495</ele>
        <time>2014-07-25T09:16:50Z</time>
      </trkpt>
      <trkpt lat="43.07108" lon="1.50734">
        <ele>495</ele>
        <time>2014-07-25T09:17:00Z</time>
      </trkpt>
      <trkpt lat="43.07106" lon="1.50722">
        <ele>493</ele>
        <time>2014-07-25T09:17:08Z</time>
      </trkpt>
      <trkpt lat="43.07107" lon="1.50715">
        <ele>492</ele>
        <time>2014-07-25T09:17:12Z</time>
      </trkpt>
      <trkpt lat="43.07103" lon="1.50687">
        <ele>490</ele>
        <time>2014-07-25T09:17:26Z</time>
      </trkpt>
      <trkpt lat="43.07106" lon="1.50671">
        <ele>489</ele>
        <time>2014-07-25T09:17:35Z</time>
      </trkpt>
      <trkpt lat="43.07104" lon="1.50657">
        <ele>489</ele>
        <time>2014-07-25T09:17:43Z</time>
      </trkpt>
      <trkpt lat="43.07106" lon="1.50642">
        <ele>487</ele>
        <time>2014-07-25T09:17:53Z</time>
      </trkpt>
      <trkpt lat="43.07104" lon="1.50636">
        <ele>486</ele>
        <time>2014-07-25T09:17:57Z</time>
      </trkpt>
      <trkpt lat="43.071" lon="1.50635">
        <ele>486</ele>
        <time>2014-07-25T09:18:00Z</time>
      </trkpt>
      <trkpt lat="43.07091" lon="1.5064">
        <ele>484</ele>
        <time>2014-07-25T09:18:07Z</time>
      </trkpt>
      <trkpt lat="43.07089" lon="1.50647">
        <ele>483</ele>
        <time>2014-07-25T09:18:12Z</time>
      </trkpt>
      <trkpt lat="43.07092" lon="1.50653">
        <ele>483</ele>
        <time>2014-07-25T09:18:17Z</time>
      </trkpt>
      <trkpt lat="43.07088" lon="1.50665">
        <ele>484</ele>
        <time>2014-07-25T09:18:25Z</time>
      </trkpt>
      <trkpt lat="43.07088" lon="1.50679">
        <ele>485</ele>
        <time>2014-07-25T09:18:33Z</time>
      </trkpt>
      <trkpt lat="43.07089" lon="1.50694">
        <ele>486</ele>
        <time>2014-07-25T09:18:43Z</time>
      </trkpt>
      <trkpt lat="43.07089" lon="1.50707">
        <ele>485</ele>
        <time>2014-07-25T09:18:52Z</time>
      </trkpt>
      <trkpt lat="43.0708" lon="1.50712">
        <ele>485</ele>
        <time>2014-07-25T09:18:59Z</time>
      </trkpt>
      <trkpt lat="43.07058" lon="1.50727">
        <ele>482</ele>
        <time>2014-07-25T09:19:14Z</time>
      </trkpt>
      <trkpt lat="43.0705" lon="1.50734">
        <ele>480</ele>
        <time>2014-07-25T09:19:22Z</time>
      </trkpt>
      <trkpt lat="43.07044" lon="1.50734">
        <ele>480</ele>
        <time>2014-07-25T09:19:26Z</time>
      </trkpt>
      <trkpt lat="43.07035" lon="1.5073">
        <ele>481</ele>
        <time>2014-07-25T09:19:32Z</time>
      </trkpt>
      <trkpt lat="43.07006" lon="1.50748">
        <ele>473</ele>
        <time>2014-07-25T09:20:02Z</time>
      </trkpt>
      <trkpt lat="43.06989" lon="1.50764">
        <ele>465</ele>
        <time>2014-07-25T09:20:18Z</time>
      </trkpt>
      <trkpt lat="43.0698" lon="1.50772">
        <ele>465</ele>
        <time>2014-07-25T09:20:25Z</time>
      </trkpt>
      <trkpt lat="43.06972" lon="1.50778">
        <ele>464</ele>
        <time>2014-07-25T09:20:32Z</time>
      </trkpt>
      <trkpt lat="43.06954" lon="1.5079">
        <ele>464</ele>
        <time>2014-07-25T09:20:47Z</time>
      </trkpt>
      <trkpt lat="43.06945" lon="1.5079">
        <ele>463</ele>
        <time>2014-07-25T09:20:54Z</time>
      </trkpt>
      <trkpt lat="43.06931" lon="1.50785">
        <ele>464</ele>
        <time>2014-07-25T09:21:03Z</time>
      </trkpt>
      <trkpt lat="43.06922" lon="1.50775">
        <ele>463</ele>
        <time>2014-07-25T09:21:11Z</time>
      </trkpt>
      <trkpt lat="43.0691" lon="1.50759">
        <ele>466</ele>
        <time>2014-07-25T09:21:20Z</time>
      </trkpt>
      <trkpt lat="43.06905" lon="1.50754">
        <ele>465</ele>
        <time>2014-07-25T09:21:24Z</time>
      </trkpt>
      <trkpt lat="43.06892" lon="1.50745">
        <ele>466</ele>
        <time>2014-07-25T09:21:35Z</time>
      </trkpt>
      <trkpt lat="43.06881" lon="1.50743">
        <ele>465</ele>
        <time>2014-07-25T09:21:42Z</time>
      </trkpt>
      <trkpt lat="43.0687" lon="1.50742">
        <ele>466</ele>
        <time>2014-07-25T09:21:50Z</time>
      </trkpt>
      <trkpt lat="43.0686" lon="1.50742">
        <ele>466</ele>
        <time>2014-07-25T09:21:58Z</time>
      </trkpt>
      <trkpt lat="43.06855" lon="1.50743">
        <ele>465</ele>
        <time>2014-07-25T09:22:02Z</time>
      </trkpt>
      <trkpt lat="43.06851" lon="1.5074">
        <ele>464</ele>
        <time>2014-07-25T09:22:06Z</time>
      </trkpt>
      <trkpt lat="43.06846" lon="1.50739">
        <ele>464</ele>
        <time>2014-07-25T09:22:09Z</time>
      </trkpt>
      <trkpt lat="43.06841" lon="1.50738">
        <ele>464</ele>
        <time>2014-07-25T09:22:12Z</time>
      </trkpt>
      <trkpt lat="43.06835" lon="1.50738">
        <ele>464</ele>
        <time>2014-07-25T09:22:16Z</time>
      </trkpt>
      <trkpt lat="43.06823" lon="1.50736">
        <ele>461</ele>
        <time>2014-07-25T09:22:25Z</time>
      </trkpt>
      <trkpt lat="43.06819" lon="1.5074">
        <ele>460</ele>
        <time>2014-07-25T09:22:30Z</time>
      </trkpt>
      <trkpt lat="43.06814" lon="1.50738">
        <ele>460</ele>
        <time>2014-07-25T09:22:34Z</time>
      </trkpt>
      <trkpt lat="43.06804" lon="1.50734">
        <ele>460</ele>
        <time>2014-07-25T09:22:42Z</time>
      </trkpt>
      <trkpt lat="43.0679" lon="1.50728">
        <ele>455</ele>
        <time>2014-07-25T09:22:57Z</time>
      </trkpt>
      <trkpt lat="43.06786" lon="1.50722">
        <ele>454</ele>
        <time>2014-07-25T09:23:01Z</time>
      </trkpt>
      <trkpt lat="43.06781" lon="1.50702">
        <ele>454</ele>
        <time>2014-07-25T09:23:12Z</time>
      </trkpt>
      <trkpt lat="43.06781" lon="1.50694">
        <ele>454</ele>
        <time>2014-07-25T09:23:16Z</time>
      </trkpt>
      <trkpt lat="43.06781" lon="1.50688">
        <ele>453</ele>
        <time>2014-07-25T09:23:19Z</time>
      </trkpt>
      <trkpt lat="43.06782" lon="1.50681">
        <ele>453</ele>
        <time>2014-07-25T09:23:22Z</time>
      </trkpt>
      <trkpt lat="43.06785" lon="1.50667">
        <ele>452</ele>
        <time>2014-07-25T09:23:29Z</time>
      </trkpt>
      <trkpt lat="43.06791" lon="1.50641">
        <ele>451</ele>
        <time>2014-07-25T09:23:45Z</time>
      </trkpt>
      <trkpt lat="43.06794" lon="1.50636">
        <ele>451</ele>
        <time>2014-07-25T09:23:49Z</time>
      </trkpt>
      <trkpt lat="43.06797" lon="1.50631">
        <ele>452</ele>
        <time>2014-07-25T09:23:53Z</time>
      </trkpt>
      <trkpt lat="43.068" lon="1.50627">
        <ele>452</ele>
        <time>2014-07-25T09:23:57Z</time>
      </trkpt>
      <trkpt lat="43.06806" lon="1.50626">
        <ele>451</ele>
        <time>2014-07-25T09:24:02Z</time>
      </trkpt>
      <trkpt lat="43.06826" lon="1.50634">
        <ele>448</ele>
        <time>2014-07-25T09:24:15Z</time>
      </trkpt>
      <trkpt lat="43.06833" lon="1.50645">
        <ele>445</ele>
        <time>2014-07-25T09:24:21Z</time>
      </trkpt>
      <trkpt lat="43.06835" lon="1.50651">
        <ele>444</ele>
        <time>2014-07-25T09:24:25Z</time>
      </trkpt>
      <trkpt lat="43.06847" lon="1.5068">
        <ele>444</ele>
        <time>2014-07-25T09:24:45Z</time>
      </trkpt>
      <trkpt lat="43.06857" lon="1.50684">
        <ele>443</ele>
        <time>2014-07-25T09:24:51Z</time>
      </trkpt>
      <trkpt lat="43.06872" lon="1.50683">
        <ele>440</ele>
        <time>2014-07-25T09:25:03Z</time>
      </trkpt>
      <trkpt lat="43.06877" lon="1.5068">
        <ele>440</ele>
        <time>2014-07-25T09:25:07Z</time>
      </trkpt>
      <trkpt lat="43.06892" lon="1.50669">
        <ele>437</ele>
        <time>2014-07-25T09:25:20Z</time>
      </trkpt>
      <trkpt lat="43.06896" lon="1.50669">
        <ele>437</ele>
        <time>2014-07-25T09:25:24Z</time>
      </trkpt>
      <trkpt lat="43.06921" lon="1.50653">
        <ele>435</ele>
        <time>2014-07-25T09:25:47Z</time>
      </trkpt>
      <trkpt lat="43.06928" lon="1.50642">
        <ele>434</ele>
        <time>2014-07-25T09:25:55Z</time>
      </trkpt>
      <trkpt lat="43.06931" lon="1.50637">
        <ele>433</ele>
        <time>2014-07-25T09:26:00Z</time>
      </trkpt>
      <trkpt lat="43.06931" lon="1.50629">
        <ele>433</ele>
        <time>2014-07-25T09:26:04Z</time>
      </trkpt>
      <trkpt lat="43.06931" lon="1.50621">
        <ele>434</ele>
        <time>2014-07-25T09:26:08Z</time>
      </trkpt>
      <trkpt lat="43.06932" lon="1.50613">
        <ele>434</ele>
        <time>2014-07-25T09:26:12Z</time>
      </trkpt>
      <trkpt lat="43.06931" lon="1.50607">
        <ele>433</ele>
        <time>2014-07-25T09:26:15Z</time>
      </trkpt>
      <trkpt lat="43.06928" lon="1.50594">
        <ele>433</ele>
        <time>2014-07-25T09:26:21Z</time>
      </trkpt>
      <trkpt lat="43.06924" lon="1.50582">
        <ele>432</ele>
        <time>2014-07-25T09:26:27Z</time>
      </trkpt>
      <trkpt lat="43.06921" lon="1.50576">
        <ele>432</ele>
        <time>2014-07-25T09:26:30Z</time>
      </trkpt>
      <trkpt lat="43.06904" lon="1.50552">
        <ele>429</ele>
        <time>2014-07-25T09:26:50Z</time>
      </trkpt>
      <trkpt lat="43.06887" lon="1.50512">
        <ele>416</ele>
        <time>2014-07-25T09:27:23Z</time>
      </trkpt>
      <trkpt lat="43.06877" lon="1.50497">
        <ele>414</ele>
        <time>2014-07-25T09:27:34Z</time>
      </trkpt>
      <trkpt lat="43.06873" lon="1.50493">
        <ele>413</ele>
        <time>2014-07-25T09:27:38Z</time>
      </trkpt>
      <trkpt lat="43.06869" lon="1.5049">
        <ele>414</ele>
        <time>2014-07-25T09:27:41Z</time>
      </trkpt>
      <trkpt lat="43.06861" lon="1.5048">
        <ele>413</ele>
        <time>2014-07-25T09:27:49Z</time>
      </trkpt>
      <trkpt lat="43.06855" lon="1.50469">
        <ele>414</ele>
        <time>2014-07-25T09:27:57Z</time>
      </trkpt>
      <trkpt lat="43.06853" lon="1.50462">
        <ele>414</ele>
        <time>2014-07-25T09:28:01Z</time>
      </trkpt>
      <trkpt lat="43.06852" lon="1.50455">
        <ele>414</ele>
        <time>2014-07-25T09:28:05Z</time>
      </trkpt>
      <trkpt lat="43.06853" lon="1.50442">
        <ele>414</ele>
        <time>2014-07-25T09:28:13Z</time>
      </trkpt>
      <trkpt lat="43.06856" lon="1.50429">
        <ele>415</ele>
        <time>2014-07-25T09:28:21Z</time>
      </trkpt>
      <trkpt lat="43.0686" lon="1.50417">
        <ele>416</ele>
        <time>2014-07-25T09:28:29Z</time>
      </trkpt>
      <trkpt lat="43.06859" lon="1.50402">
        <ele>418</ele>
        <time>2014-07-25T09:28:35Z</time>
      </trkpt>
      <trkpt lat="43.06859" lon="1.50396">
        <ele>418</ele>
        <time>2014-07-25T09:28:38Z</time>
      </trkpt>
      <trkpt lat="43.0686" lon="1.5039">
        <ele>417</ele>
        <time>2014-07-25T09:28:42Z</time>
      </trkpt>
      <trkpt lat="43.06859" lon="1.50384">
        <ele>416</ele>
        <time>2014-07-25T09:28:46Z</time>
      </trkpt>
      <trkpt lat="43.06831" lon="1.50349">
        <ele>412</ele>
        <time>2014-07-25T09:29:16Z</time>
      </trkpt>
      <trkpt lat="43.06819" lon="1.50334">
        <ele>412</ele>
        <time>2014-07-25T09:29:26Z</time>
      </trkpt>
      <trkpt lat="43.06815" lon="1.50329">
        <ele>412</ele>
        <time>2014-07-25T09:29:29Z</time>
      </trkpt>
      <trkpt lat="43.06808" lon="1.50319">
        <ele>414</ele>
        <time>2014-07-25T09:29:35Z</time>
      </trkpt>
      <trkpt lat="43.06805" lon="1.50314">
        <ele>414</ele>
        <time>2014-07-25T09:29:39Z</time>
      </trkpt>
      <trkpt lat="43.06794" lon="1.50291">
        <ele>408</ele>
        <time>2014-07-25T09:29:57Z</time>
      </trkpt>
      <trkpt lat="43.06788" lon="1.50265">
        <ele>406</ele>
        <time>2014-07-25T09:30:14Z</time>
      </trkpt>
      <trkpt lat="43.06783" lon="1.50247">
        <ele>402</ele>
        <time>2014-07-25T09:30:27Z</time>
      </trkpt>
      <trkpt lat="43.06781" lon="1.5024">
        <ele>401</ele>
        <time>2014-07-25T09:30:31Z</time>
      </trkpt>
      <trkpt lat="43.06774" lon="1.50231">
        <ele>401</ele>
        <time>2014-07-25T09:30:38Z</time>
      </trkpt>
      <trkpt lat="43.06769" lon="1.5022">
        <ele>399</ele>
        <time>2014-07-25T09:30:48Z</time>
      </trkpt>
      <trkpt lat="43.06766" lon="1.50216">
        <ele>399</ele>
        <time>2014-07-25T09:30:52Z</time>
      </trkpt>
      <trkpt lat="43.06761" lon="1.50211">
        <ele>399</ele>
        <time>2014-07-25T09:30:56Z</time>
      </trkpt>
      <trkpt lat="43.06749" lon="1.50197">
        <ele>396</ele>
        <time>2014-07-25T09:31:08Z</time>
      </trkpt>
      <trkpt lat="43.06739" lon="1.50195">
        <ele>394</ele>
        <time>2014-07-25T09:31:15Z</time>
      </trkpt>
      <trkpt lat="43.0673" lon="1.50187">
        <ele>392</ele>
        <time>2014-07-25T09:31:25Z</time>
      </trkpt>
      <trkpt lat="43.06724" lon="1.50186">
        <ele>392</ele>
        <time>2014-07-25T09:31:30Z</time>
      </trkpt>
      <trkpt lat="43.06716" lon="1.50181">
        <ele>393</ele>
        <time>2014-07-25T09:31:36Z</time>
      </trkpt>
      <trkpt lat="43.06704" lon="1.50168">
        <ele>392</ele>
        <time>2014-07-25T09:31:50Z</time>
      </trkpt>
      <trkpt lat="43.06702" lon="1.5017">
        <ele>392</ele>
        <time>2014-07-25T09:32:11Z</time>
      </trkpt>
      <trkpt lat="43.06699" lon="1.50166">
        <ele>392</ele>
        <time>2014-07-25T09:32:16Z</time>
      </trkpt>
      <trkpt lat="43.06696" lon="1.50161">
        <ele>391</ele>
        <time>2014-07-25T09:32:20Z</time>
      </trkpt>
      <trkpt lat="43.06691" lon="1.50158">
        <ele>391</ele>
        <time>2014-07-25T09:32:26Z</time>
      </trkpt>
      <trkpt lat="43.06687" lon="1.50154">
        <ele>391</ele>
        <time>2014-07-25T09:32:32Z</time>
      </trkpt>
      <trkpt lat="43.06683" lon="1.5015">
        <ele>391</ele>
        <time>2014-07-25T09:32:37Z</time>
      </trkpt>
      <trkpt lat="43.06686" lon="1.50148">
        <ele>390</ele>
        <time>2014-07-25T09:32:50Z</time>
      </trkpt>
      <trkpt lat="43.06688" lon="1.50152">
        <ele>389</ele>
        <time>2014-07-25T09:33:02Z</time>
      </trkpt>
      <trkpt lat="43.06693" lon="1.50156">
        <ele>390</ele>
        <time>2014-07-25T09:33:06Z</time>
      </trkpt>
      <trkpt lat="43.06697" lon="1.50161">
        <ele>390</ele>
        <time>2014-07-25T09:33:11Z</time>
      </trkpt>
      <trkpt lat="43.067" lon="1.50166">
        <ele>390</ele>
        <time>2014-07-25T09:33:16Z</time>
      </trkpt>
      <trkpt lat="43.06705" lon="1.50169">
        <ele>391</ele>
        <time>2014-07-25T09:33:20Z</time>
      </trkpt>
      <trkpt lat="43.06709" lon="1.50171">
        <ele>390</ele>
        <time>2014-07-25T09:33:24Z</time>
      </trkpt>
      <trkpt lat="43.06737" lon="1.5019">
        <ele>394</ele>
        <time>2014-07-25T09:33:57Z</time>
      </trkpt>
      <trkpt lat="43.06742" lon="1.50185">
        <ele>394</ele>
        <time>2014-07-25T09:34:06Z</time>
      </trkpt>
      <trkpt lat="43.06747" lon="1.50166">
        <ele>392</ele>
        <time>2014-07-25T09:34:18Z</time>
      </trkpt>
      <trkpt lat="43.06758" lon="1.50143">
        <ele>391</ele>
        <time>2014-07-25T09:34:34Z</time>
      </trkpt>
      <trkpt lat="43.0676" lon="1.50136">
        <ele>391</ele>
        <time>2014-07-25T09:34:37Z</time>
      </trkpt>
      <trkpt lat="43.06761" lon="1.50128">
        <ele>391</ele>
        <time>2014-07-25T09:34:41Z</time>
      </trkpt>
      <trkpt lat="43.06762" lon="1.50118">
        <ele>390</ele>
        <time>2014-07-25T09:34:46Z</time>
      </trkpt>
      <trkpt lat="43.06768" lon="1.50108">
        <ele>388</ele>
        <time>2014-07-25T09:34:54Z</time>
      </trkpt>
      <trkpt lat="43.0678" lon="1.50097">
        <ele>387</ele>
        <time>2014-07-25T09:35:07Z</time>
      </trkpt>
      <trkpt lat="43.06782" lon="1.50089">
        <ele>386</ele>
        <time>2014-07-25T09:35:11Z</time>
      </trkpt>
      <trkpt lat="43.06785" lon="1.50083">
        <ele>386</ele>
        <time>2014-07-25T09:35:14Z</time>
      </trkpt>
      <trkpt lat="43.06789" lon="1.50079">
        <ele>386</ele>
        <time>2014-07-25T09:35:19Z</time>
      </trkpt>
      <trkpt lat="43.06788" lon="1.50073">
        <ele>387</ele>
        <time>2014-07-25T09:35:24Z</time>
      </trkpt>
      <trkpt lat="43.0679" lon="1.5006">
        <ele>386</ele>
        <time>2014-07-25T09:35:31Z</time>
      </trkpt>
      <trkpt lat="43.06797" lon="1.50056">
        <ele>386</ele>
        <time>2014-07-25T09:35:36Z</time>
      </trkpt>
      <trkpt lat="43.06798" lon="1.50045">
        <ele>385</ele>
        <time>2014-07-25T09:35:43Z</time>
      </trkpt>
      <trkpt lat="43.06806" lon="1.50037">
        <ele>385</ele>
        <time>2014-07-25T09:35:52Z</time>
      </trkpt>
      <trkpt lat="43.06815" lon="1.50021">
        <ele>383</ele>
        <time>2014-07-25T09:36:03Z</time>
      </trkpt>
      <trkpt lat="43.06818" lon="1.50007">
        <ele>383</ele>
        <time>2014-07-25T09:36:11Z</time>
      </trkpt>
      <trkpt lat="43.0682" lon="1.50001">
        <ele>382</ele>
        <time>2014-07-25T09:36:15Z</time>
      </trkpt>
      <trkpt lat="43.06824" lon="1.49997">
        <ele>382</ele>
        <time>2014-07-25T09:36:20Z</time>
      </trkpt>
      <trkpt lat="43.06834" lon="1.49992">
        <ele>382</ele>
        <time>2014-07-25T09:36:29Z</time>
      </trkpt>
      <trkpt lat="43.06838" lon="1.49983">
        <ele>382</ele>
        <time>2014-07-25T09:36:34Z</time>
      </trkpt>
      <trkpt lat="43.06839" lon="1.4997">
        <ele>381</ele>
        <time>2014-07-25T09:36:39Z</time>
      </trkpt>
      <trkpt lat="43.06842" lon="1.49962">
        <ele>380</ele>
        <time>2014-07-25T09:36:43Z</time>
      </trkpt>
      <trkpt lat="43.06846" lon="1.49958">
        <ele>380</ele>
        <time>2014-07-25T09:36:47Z</time>
      </trkpt>
      <trkpt lat="43.06851" lon="1.49955">
        <ele>379</ele>
        <time>2014-07-25T09:36:51Z</time>
      </trkpt>
      <trkpt lat="43.06858" lon="1.49944">
        <ele>378</ele>
        <time>2014-07-25T09:37:00Z</time>
      </trkpt>
      <trkpt lat="43.06859" lon="1.49936">
        <ele>379</ele>
        <time>2014-07-25T09:37:03Z</time>
      </trkpt>
      <trkpt lat="43.0686" lon="1.4993">
        <ele>378</ele>
        <time>2014-07-25T09:37:06Z</time>
      </trkpt>
      <trkpt lat="43.06864" lon="1.49902">
        <ele>380</ele>
        <time>2014-07-25T09:37:23Z</time>
      </trkpt>
      <trkpt lat="43.06864" lon="1.49895">
        <ele>381</ele>
        <time>2014-07-25T09:37:26Z</time>
      </trkpt>
      <trkpt lat="43.06865" lon="1.4988">
        <ele>381</ele>
        <time>2014-07-25T09:37:34Z</time>
      </trkpt>
      <trkpt lat="43.06868" lon="1.49874">
        <ele>380</ele>
        <time>2014-07-25T09:37:37Z</time>
      </trkpt>
      <trkpt lat="43.06872" lon="1.49869">
        <ele>380</ele>
        <time>2014-07-25T09:37:41Z</time>
      </trkpt>
      <trkpt lat="43.06879" lon="1.49852">
        <ele>379</ele>
        <time>2014-07-25T09:37:53Z</time>
      </trkpt>
      <trkpt lat="43.06883" lon="1.49838">
        <ele>379</ele>
        <time>2014-07-25T09:38:02Z</time>
      </trkpt>
      <trkpt lat="43.06885" lon="1.49832">
        <ele>379</ele>
        <time>2014-07-25T09:38:06Z</time>
      </trkpt>
      <trkpt lat="43.06887" lon="1.49825">
        <ele>379</ele>
        <time>2014-07-25T09:38:10Z</time>
      </trkpt>
      <trkpt lat="43.06895" lon="1.49808">
        <ele>378</ele>
        <time>2014-07-25T09:38:22Z</time>
      </trkpt>
      <trkpt lat="43.06895" lon="1.4975">
        <ele>378</ele>
        <time>2014-07-25T09:38:53Z</time>
      </trkpt>
      <trkpt lat="43.06896" lon="1.49735">
        <ele>379</ele>
        <time>2014-07-25T09:39:03Z</time>
      </trkpt>
      <trkpt lat="43.06897" lon="1.49721">
        <ele>377</ele>
        <time>2014-07-25T09:39:12Z</time>
      </trkpt>
      <trkpt lat="43.06897" lon="1.497">
        <ele>376</ele>
        <time>2014-07-25T09:39:25Z</time>
      </trkpt>
      <trkpt lat="43.06897" lon="1.49694">
        <ele>376</ele>
        <time>2014-07-25T09:39:29Z</time>
      </trkpt>
      <trkpt lat="43.06896" lon="1.49686">
        <ele>376</ele>
        <time>2014-07-25T09:39:34Z</time>
      </trkpt>
      <trkpt lat="43.06895" lon="1.49679">
        <ele>376</ele>
        <time>2014-07-25T09:39:37Z</time>
      </trkpt>
      <trkpt lat="43.06894" lon="1.49673">
        <ele>376</ele>
        <time>2014-07-25T09:39:40Z</time>
      </trkpt>
      <trkpt lat="43.06895" lon="1.49665">
        <ele>375</ele>
        <time>2014-07-25T09:39:44Z</time>
      </trkpt>
      <trkpt lat="43.06895" lon="1.49658">
        <ele>375</ele>
        <time>2014-07-25T09:39:47Z</time>
      </trkpt>
      <trkpt lat="43.06895" lon="1.49652">
        <ele>376</ele>
        <time>2014-07-25T09:39:51Z</time>
      </trkpt>
      <trkpt lat="43.06895" lon="1.49644">
        <ele>376</ele>
        <time>2014-07-25T09:39:55Z</time>
      </trkpt>
      <trkpt lat="43.06896" lon="1.49631">
        <ele>377</ele>
        <time>2014-07-25T09:40:03Z</time>
      </trkpt>
      <trkpt lat="43.06896" lon="1.49616">
        <ele>377</ele>
        <time>2014-07-25T09:40:11Z</time>
      </trkpt>
      <trkpt lat="43.06896" lon="1.49608">
        <ele>377</ele>
        <time>2014-07-25T09:40:15Z</time>
      </trkpt>
      <trkpt lat="43.069" lon="1.49588">
        <ele>375</ele>
        <time>2014-07-25T09:40:28Z</time>
      </trkpt>
      <trkpt lat="43.069" lon="1.49581">
        <ele>375</ele>
        <time>2014-07-25T09:40:32Z</time>
      </trkpt>
      <trkpt lat="43.06901" lon="1.49573">
        <ele>376</ele>
        <time>2014-07-25T09:40:36Z</time>
      </trkpt>
      <trkpt lat="43.06902" lon="1.49567">
        <ele>376</ele>
        <time>2014-07-25T09:40:40Z</time>
      </trkpt>
      <trkpt lat="43.06902" lon="1.49559">
        <ele>375</ele>
        <time>2014-07-25T09:40:44Z</time>
      </trkpt>
      <trkpt lat="43.06901" lon="1.49552">
        <ele>376</ele>
        <time>2014-07-25T09:40:48Z</time>
      </trkpt>
      <trkpt lat="43.06901" lon="1.49545">
        <ele>375</ele>
        <time>2014-07-25T09:40:52Z</time>
      </trkpt>
      <trkpt lat="43.069" lon="1.49508">
        <ele>372</ele>
        <time>2014-07-25T09:41:14Z</time>
      </trkpt>
      <trkpt lat="43.06904" lon="1.49495">
        <ele>373</ele>
        <time>2014-07-25T09:41:22Z</time>
      </trkpt>
      <trkpt lat="43.06906" lon="1.49488">
        <ele>373</ele>
        <time>2014-07-25T09:41:26Z</time>
      </trkpt>
      <trkpt lat="43.06907" lon="1.4948">
        <ele>373</ele>
        <time>2014-07-25T09:41:30Z</time>
      </trkpt>
      <trkpt lat="43.06916" lon="1.49434">
        <ele>367</ele>
        <time>2014-07-25T09:42:00Z</time>
      </trkpt>
      <trkpt lat="43.06919" lon="1.49384">
        <ele>363</ele>
        <time>2014-07-25T09:42:27Z</time>
      </trkpt>
      <trkpt lat="43.06918" lon="1.49377">
        <ele>363</ele>
        <time>2014-07-25T09:42:31Z</time>
      </trkpt>
      <trkpt lat="43.0692" lon="1.49361">
        <ele>364</ele>
        <time>2014-07-25T09:42:39Z</time>
      </trkpt>
      <trkpt lat="43.0692" lon="1.49347">
        <ele>363</ele>
        <time>2014-07-25T09:42:47Z</time>
      </trkpt>
      <trkpt lat="43.06924" lon="1.49344">
        <ele>362</ele>
        <time>2014-07-25T09:42:51Z</time>
      </trkpt>
      <trkpt lat="43.06938" lon="1.49325">
        <ele>356</ele>
        <time>2014-07-25T09:43:14Z</time>
      </trkpt>
      <trkpt lat="43.06942" lon="1.49327">
        <ele>355</ele>
        <time>2014-07-25T09:43:22Z</time>
      </trkpt>
      <trkpt lat="43.0695" lon="1.4932">
        <ele>354</ele>
        <time>2014-07-25T09:43:30Z</time>
      </trkpt>
      <trkpt lat="43.0695" lon="1.49311">
        <ele>353</ele>
        <time>2014-07-25T09:43:34Z</time>
      </trkpt>
      <trkpt lat="43.06949" lon="1.49304">
        <ele>352</ele>
        <time>2014-07-25T09:43:38Z</time>
      </trkpt>
      <trkpt lat="43.06947" lon="1.49297">
        <ele>352</ele>
        <time>2014-07-25T09:43:42Z</time>
      </trkpt>
      <trkpt lat="43.06927" lon="1.49269">
        <ele>345</ele>
        <time>2014-07-25T09:44:13Z</time>
      </trkpt>
      <trkpt lat="43.06899" lon="1.49229">
        <ele>340</ele>
        <time>2014-07-25T09:44:47Z</time>
      </trkpt>
      <trkpt lat="43.06895" lon="1.49225">
        <ele>340</ele>
        <time>2014-07-25T09:44:51Z</time>
      </trkpt>
      <trkpt lat="43.06893" lon="1.49219">
        <ele>339</ele>
        <time>2014-07-25T09:44:55Z</time>
      </trkpt>
      <trkpt lat="43.06886" lon="1.4921">
        <ele>340</ele>
        <time>2014-07-25T09:45:02Z</time>
      </trkpt>
      <trkpt lat="43.06888" lon="1.49195">
        <ele>340</ele>
        <time>2014-07-25T09:45:11Z</time>
      </trkpt>
      <trkpt lat="43.06892" lon="1.49192">
        <ele>340</ele>
        <time>2014-07-25T09:45:15Z</time>
      </trkpt>
      <trkpt lat="43.06899" lon="1.49181">
        <ele>339</ele>
        <time>2014-07-25T09:45:23Z</time>
      </trkpt>
      <trkpt lat="43.069" lon="1.49178">
        <ele>338</ele>
        <time>2014-07-25T09:45:30Z</time>
      </trkpt>
      <trkpt lat="43.06901" lon="1.49172">
        <ele>339</ele>
        <time>2014-07-25T09:46:17Z</time>
      </trkpt>
      <trkpt lat="43.06904" lon="1.49175">
        <ele>339</ele>
        <time>2014-07-25T09:46:59Z</time>
      </trkpt>
      <trkpt lat="43.06906" lon="1.49169">
        <ele>338</ele>
        <time>2014-07-25T09:47:10Z</time>
      </trkpt>
      <trkpt lat="43.06912" lon="1.49157">
        <ele>337</ele>
        <time>2014-07-25T09:47:19Z</time>
      </trkpt>
      <trkpt lat="43.06915" lon="1.49151">
        <ele>337</ele>
        <time>2014-07-25T09:47:23Z</time>
      </trkpt>
      <trkpt lat="43.06918" lon="1.49146">
        <ele>337</ele>
        <time>2014-07-25T09:47:27Z</time>
      </trkpt>
      <trkpt lat="43.06922" lon="1.49143">
        <ele>337</ele>
        <time>2014-07-25T09:47:32Z</time>
      </trkpt>
      <trkpt lat="43.06925" lon="1.49134">
        <ele>337</ele>
        <time>2014-07-25T09:47:37Z</time>
      </trkpt>
      <trkpt lat="43.06931" lon="1.49124">
        <ele>337</ele>
        <time>2014-07-25T09:47:43Z</time>
      </trkpt>
      <trkpt lat="43.06943" lon="1.49109">
        <ele>336</ele>
        <time>2014-07-25T09:47:55Z</time>
      </trkpt>
      <trkpt lat="43.06952" lon="1.49104">
        <ele>336</ele>
        <time>2014-07-25T09:48:04Z</time>
      </trkpt>
      <trkpt lat="43.06969" lon="1.49071">
        <ele>336</ele>
        <time>2014-07-25T09:48:26Z</time>
      </trkpt>
      <trkpt lat="43.06972" lon="1.4906">
        <ele>336</ele>
        <time>2014-07-25T09:48:31Z</time>
      </trkpt>
      <trkpt lat="43.06972" lon="1.49051">
        <ele>336</ele>
        <time>2014-07-25T09:48:35Z</time>
      </trkpt>
      <trkpt lat="43.06978" lon="1.4904">
        <ele>336</ele>
        <time>2014-07-25T09:48:44Z</time>
      </trkpt>
      <trkpt lat="43.06983" lon="1.4904">
        <ele>336</ele>
        <time>2014-07-25T09:48:52Z</time>
      </trkpt>
      <trkpt lat="43.06985" lon="1.49037">
        <ele>339</ele>
        <time>2014-07-25T09:53:06Z</time>
      </trkpt>
      <trkpt lat="43.06994" lon="1.49028">
        <ele>338</ele>
        <time>2014-07-25T09:53:15Z</time>
      </trkpt>
      <trkpt lat="43.06996" lon="1.49022">
        <ele>338</ele>
        <time>2014-07-25T09:53:18Z</time>
      </trkpt>
      <trkpt lat="43.06999" lon="1.49018">
        <ele>338</ele>
        <time>2014-07-25T09:53:23Z</time>
      </trkpt>
      <trkpt lat="43.07008" lon="1.49014">
        <ele>338</ele>
        <time>2014-07-25T09:53:31Z</time>
      </trkpt>
      <trkpt lat="43.0701" lon="1.49008">
        <ele>339</ele>
        <time>2014-07-25T09:53:35Z</time>
      </trkpt>
      <trkpt lat="43.07022" lon="1.48969">
        <ele>338</ele>
        <time>2014-07-25T09:53:57Z</time>
      </trkpt>
      <trkpt lat="43.07024" lon="1.48964">
        <ele>338</ele>
        <time>2014-07-25T09:54:03Z</time>
      </trkpt>
      <trkpt lat="43.07024" lon="1.4895">
        <ele>337</ele>
        <time>2014-07-25T09:54:11Z</time>
      </trkpt>
      <trkpt lat="43.07024" lon="1.48935">
        <ele>336</ele>
        <time>2014-07-25T09:54:21Z</time>
      </trkpt>
      <trkpt lat="43.07025" lon="1.48929">
        <ele>336</ele>
        <time>2014-07-25T09:54:25Z</time>
      </trkpt>
      <trkpt lat="43.07022" lon="1.48923">
        <ele>336</ele>
        <time>2014-07-25T09:54:31Z</time>
      </trkpt>
      <trkpt lat="43.07015" lon="1.48864">
        <ele>331</ele>
        <time>2014-07-25T09:55:04Z</time>
      </trkpt>
      <trkpt lat="43.07011" lon="1.48845">
        <ele>330</ele>
        <time>2014-07-25T09:55:15Z</time>
      </trkpt>
      <trkpt lat="43.07013" lon="1.48831">
        <ele>328</ele>
        <time>2014-07-25T09:55:27Z</time>
      </trkpt>
      <trkpt lat="43.07013" lon="1.48818">
        <ele>327</ele>
        <time>2014-07-25T09:55:36Z</time>
      </trkpt>
      <trkpt lat="43.0701" lon="1.48802">
        <ele>326</ele>
        <time>2014-07-25T09:55:44Z</time>
      </trkpt>
      <trkpt lat="43.07009" lon="1.48795">
        <ele>327</ele>
        <time>2014-07-25T09:55:47Z</time>
      </trkpt>
      <trkpt lat="43.07007" lon="1.48788">
        <ele>327</ele>
        <time>2014-07-25T09:55:51Z</time>
      </trkpt>
      <trkpt lat="43.07002" lon="1.48741">
        <ele>324</ele>
        <time>2014-07-25T09:56:17Z</time>
      </trkpt>
      <trkpt lat="43.06995" lon="1.48712">
        <ele>325</ele>
        <time>2014-07-25T09:56:33Z</time>
      </trkpt>
      <trkpt lat="43.06994" lon="1.487">
        <ele>325</ele>
        <time>2014-07-25T09:56:41Z</time>
      </trkpt>
      <trkpt lat="43.06994" lon="1.48693">
        <ele>324</ele>
        <time>2014-07-25T09:56:44Z</time>
      </trkpt>
      <trkpt lat="43.06992" lon="1.48687">
        <ele>324</ele>
        <time>2014-07-25T09:56:51Z</time>
      </trkpt>
      <trkpt lat="43.06992" lon="1.4868">
        <ele>323</ele>
        <time>2014-07-25T09:56:54Z</time>
      </trkpt>
      <trkpt lat="43.06985" lon="1.48652">
        <ele>324</ele>
        <time>2014-07-25T09:57:08Z</time>
      </trkpt>
      <trkpt lat="43.06984" lon="1.48644">
        <ele>325</ele>
        <time>2014-07-25T09:57:13Z</time>
      </trkpt>
      <trkpt lat="43.06989" lon="1.48628">
        <ele>325</ele>
        <time>2014-07-25T09:57:29Z</time>
      </trkpt>
      <trkpt lat="43.06987" lon="1.48621">
        <ele>325</ele>
        <time>2014-07-25T09:57:33Z</time>
      </trkpt>
      <trkpt lat="43.06985" lon="1.48614">
        <ele>325</ele>
        <time>2014-07-25T09:57:36Z</time>
      </trkpt>
      <trkpt lat="43.06981" lon="1.4861">
        <ele>326</ele>
        <time>2014-07-25T09:57:39Z</time>
      </trkpt>
      <trkpt lat="43.06977" lon="1.48608">
        <ele>326</ele>
        <time>2014-07-25T09:57:42Z</time>
      </trkpt>
      <trkpt lat="43.06971" lon="1.4861">
        <ele>326</ele>
        <time>2014-07-25T09:57:46Z</time>
      </trkpt>
      <trkpt lat="43.06962" lon="1.48597">
        <ele>327</ele>
        <time>2014-07-25T09:58:12Z</time>
      </trkpt>
      <trkpt lat="43.06956" lon="1.48599">
        <ele>329</ele>
        <time>2014-07-25T09:58:16Z</time>
      </trkpt>
      <trkpt lat="43.0695" lon="1.48599">
        <ele>329</ele>
        <time>2014-07-25T09:58:20Z</time>
      </trkpt>
      <trkpt lat="43.06944" lon="1.48598">
        <ele>329</ele>
        <time>2014-07-25T09:58:24Z</time>
      </trkpt>
      <trkpt lat="43.06939" lon="1.48601">
        <ele>331</ele>
        <time>2014-07-25T09:58:28Z</time>
      </trkpt>
      <trkpt lat="43.06934" lon="1.48601">
        <ele>331</ele>
        <time>2014-07-25T09:58:32Z</time>
      </trkpt>
      <trkpt lat="43.06929" lon="1.48597">
        <ele>331</ele>
        <time>2014-07-25T09:58:36Z</time>
      </trkpt>
      <trkpt lat="43.06924" lon="1.48596">
        <ele>331</ele>
        <time>2014-07-25T09:58:40Z</time>
      </trkpt>
      <trkpt lat="43.06909" lon="1.48592">
        <ele>329</ele>
        <time>2014-07-25T09:58:52Z</time>
      </trkpt>
      <trkpt lat="43.06904" lon="1.48592">
        <ele>329</ele>
        <time>2014-07-25T09:58:55Z</time>
      </trkpt>
      <trkpt lat="43.06899" lon="1.48591">
        <ele>330</ele>
        <time>2014-07-25T09:58:59Z</time>
      </trkpt>
      <trkpt lat="43.06896" lon="1.4859">
        <ele>329</ele>
        <time>2014-07-25T09:59:06Z</time>
      </trkpt>
      <trkpt lat="43.069" lon="1.48585">
        <ele>329</ele>
        <time>2014-07-25T09:59:11Z</time>
      </trkpt>
      <trkpt lat="43.06896" lon="1.48583">
        <ele>329</ele>
        <time>2014-07-25T09:59:44Z</time>
      </trkpt>
      <trkpt lat="43.06886" lon="1.48581">
        <ele>329</ele>
        <time>2014-07-25T09:59:53Z</time>
      </trkpt>
      <trkpt lat="43.06881" lon="1.48581">
        <ele>328</ele>
        <time>2014-07-25T09:59:57Z</time>
      </trkpt>
      <trkpt lat="43.06875" lon="1.48581">
        <ele>328</ele>
        <time>2014-07-25T10:00:01Z</time>
      </trkpt>
      <trkpt lat="43.06859" lon="1.48583">
        <ele>328</ele>
        <time>2014-07-25T10:00:13Z</time>
      </trkpt>
      <trkpt lat="43.06854" lon="1.48581">
        <ele>327</ele>
        <time>2014-07-25T10:00:17Z</time>
      </trkpt>
      <trkpt lat="43.06849" lon="1.48579">
        <ele>327</ele>
        <time>2014-07-25T10:00:21Z</time>
      </trkpt>
      <trkpt lat="43.06844" lon="1.4858">
        <ele>328</ele>
        <time>2014-07-25T10:00:25Z</time>
      </trkpt>
      <trkpt lat="43.06833" lon="1.48578">
        <ele>326</ele>
        <time>2014-07-25T10:00:38Z</time>
      </trkpt>
      <trkpt lat="43.06822" lon="1.48574">
        <ele>326</ele>
        <time>2014-07-25T10:00:45Z</time>
      </trkpt>
      <trkpt lat="43.06817" lon="1.48571">
        <ele>327</ele>
        <time>2014-07-25T10:00:51Z</time>
      </trkpt>
      <trkpt lat="43.06818" lon="1.48566">
        <ele>328</ele>
        <time>2014-07-25T10:01:17Z</time>
      </trkpt>
      <trkpt lat="43.06814" lon="1.48562">
        <ele>328</ele>
        <time>2014-07-25T10:01:22Z</time>
      </trkpt>
      <trkpt lat="43.0681" lon="1.48559">
        <ele>329</ele>
        <time>2014-07-25T10:01:26Z</time>
      </trkpt>
      <trkpt lat="43.06801" lon="1.48552">
        <ele>329</ele>
        <time>2014-07-25T10:01:37Z</time>
      </trkpt>
      <trkpt lat="43.06798" lon="1.48547">
        <ele>329</ele>
        <time>2014-07-25T10:01:42Z</time>
      </trkpt>
      <trkpt lat="43.06795" lon="1.4854">
        <ele>329</ele>
        <time>2014-07-25T10:01:46Z</time>
      </trkpt>
      <trkpt lat="43.06779" lon="1.48524">
        <ele>334</ele>
        <time>2014-07-25T10:02:03Z</time>
      </trkpt>
      <trkpt lat="43.06775" lon="1.48507">
        <ele>336</ele>
        <time>2014-07-25T10:02:16Z</time>
      </trkpt>
      <trkpt lat="43.0677" lon="1.48505">
        <ele>337</ele>
        <time>2014-07-25T10:02:20Z</time>
      </trkpt>
      <trkpt lat="43.06765" lon="1.48504">
        <ele>337</ele>
        <time>2014-07-25T10:02:23Z</time>
      </trkpt>
      <trkpt lat="43.06763" lon="1.48497">
        <ele>337</ele>
        <time>2014-07-25T10:02:28Z</time>
      </trkpt>
      <trkpt lat="43.06743" lon="1.48463">
        <ele>341</ele>
        <time>2014-07-25T10:03:00Z</time>
      </trkpt>
      <trkpt lat="43.06735" lon="1.48454">
        <ele>342</ele>
        <time>2014-07-25T10:03:11Z</time>
      </trkpt>
      <trkpt lat="43.06737" lon="1.48448">
        <ele>342</ele>
        <time>2014-07-25T10:03:16Z</time>
      </trkpt>
      <trkpt lat="43.06736" lon="1.48442">
        <ele>343</ele>
        <time>2014-07-25T10:03:21Z</time>
      </trkpt>
      <trkpt lat="43.0674" lon="1.48436">
        <ele>343</ele>
        <time>2014-07-25T10:03:28Z</time>
      </trkpt>
      <trkpt lat="43.06759" lon="1.48396">
        <ele>347</ele>
        <time>2014-07-25T10:04:01Z</time>
      </trkpt>
      <trkpt lat="43.06758" lon="1.4838">
        <ele>347</ele>
        <time>2014-07-25T10:04:10Z</time>
      </trkpt>
      <trkpt lat="43.06759" lon="1.48355">
        <ele>344</ele>
        <time>2014-07-25T10:04:25Z</time>
      </trkpt>
      <trkpt lat="43.06762" lon="1.4835">
        <ele>343</ele>
        <time>2014-07-25T10:04:30Z</time>
      </trkpt>
      <trkpt lat="43.06761" lon="1.48343">
        <ele>343</ele>
        <time>2014-07-25T10:04:34Z</time>
      </trkpt>
      <trkpt lat="43.06761" lon="1.48333">
        <ele>343</ele>
        <time>2014-07-25T10:04:39Z</time>
      </trkpt>
      <trkpt lat="43.0676" lon="1.48324">
        <ele>342</ele>
        <time>2014-07-25T10:04:44Z</time>
      </trkpt>
      <trkpt lat="43.06755" lon="1.48321">
        <ele>341</ele>
        <time>2014-07-25T10:04:54Z</time>
      </trkpt>
      <trkpt lat="43.06756" lon="1.48321">
        <ele>340</ele>
        <time>2014-07-25T10:05:16Z</time>
      </trkpt>
      <trkpt lat="43.06757" lon="1.48314">
        <ele>340</ele>
        <time>2014-07-25T10:05:23Z</time>
      </trkpt>
      <trkpt lat="43.0676" lon="1.48309">
        <ele>339</ele>
        <time>2014-07-25T10:05:28Z</time>
      </trkpt>
      <trkpt lat="43.06762" lon="1.48302">
        <ele>339</ele>
        <time>2014-07-25T10:05:32Z</time>
      </trkpt>
      <trkpt lat="43.0676" lon="1.48274">
        <ele>335</ele>
        <time>2014-07-25T10:05:48Z</time>
      </trkpt>
      <trkpt lat="43.0676" lon="1.48267">
        <ele>335</ele>
        <time>2014-07-25T10:05:51Z</time>
      </trkpt>
      <trkpt lat="43.06758" lon="1.48219">
        <ele>335</ele>
        <time>2014-07-25T10:06:17Z</time>
      </trkpt>
      <trkpt lat="43.06758" lon="1.48206">
        <ele>333</ele>
        <time>2014-07-25T10:06:23Z</time>
      </trkpt>
      <trkpt lat="43.06758" lon="1.48193">
        <ele>333</ele>
        <time>2014-07-25T10:06:30Z</time>
      </trkpt>
      <trkpt lat="43.06757" lon="1.48186">
        <ele>332</ele>
        <time>2014-07-25T10:06:34Z</time>
      </trkpt>
      <trkpt lat="43.06758" lon="1.48171">
        <ele>333</ele>
        <time>2014-07-25T10:06:42Z</time>
      </trkpt>
      <trkpt lat="43.06756" lon="1.48166">
        <ele>333</ele>
        <time>2014-07-25T10:06:45Z</time>
      </trkpt>
      <trkpt lat="43.06754" lon="1.48157">
        <ele>332</ele>
        <time>2014-07-25T10:06:50Z</time>
      </trkpt>
      <trkpt lat="43.06756" lon="1.48135">
        <ele>328</ele>
        <time>2014-07-25T10:07:02Z</time>
      </trkpt>
      <trkpt lat="43.06755" lon="1.48128">
        <ele>328</ele>
        <time>2014-07-25T10:07:06Z</time>
      </trkpt>
      <trkpt lat="43.06757" lon="1.48121">
        <ele>328</ele>
        <time>2014-07-25T10:07:11Z</time>
      </trkpt>
      <trkpt lat="43.06756" lon="1.48106">
        <ele>329</ele>
        <time>2014-07-25T10:07:20Z</time>
      </trkpt>
      <trkpt lat="43.06759" lon="1.4809">
        <ele>328</ele>
        <time>2014-07-25T10:07:29Z</time>
      </trkpt>
      <trkpt lat="43.06761" lon="1.48076">
        <ele>329</ele>
        <time>2014-07-25T10:07:37Z</time>
      </trkpt>
      <trkpt lat="43.0677" lon="1.48051">
        <ele>328</ele>
        <time>2014-07-25T10:07:54Z</time>
      </trkpt>
      <trkpt lat="43.06769" lon="1.48043">
        <ele>328</ele>
        <time>2014-07-25T10:07:58Z</time>
      </trkpt>
      <trkpt lat="43.06774" lon="1.48032">
        <ele>327</ele>
        <time>2014-07-25T10:08:04Z</time>
      </trkpt>
      <trkpt lat="43.06785" lon="1.48007">
        <ele>323</ele>
        <time>2014-07-25T10:08:20Z</time>
      </trkpt>
      <trkpt lat="43.06806" lon="1.47953">
        <ele>323</ele>
        <time>2014-07-25T10:08:52Z</time>
      </trkpt>
      <trkpt lat="43.06808" lon="1.47948">
        <ele>323</ele>
        <time>2014-07-25T10:08:55Z</time>
      </trkpt>
      <trkpt lat="43.06812" lon="1.47941">
        <ele>323</ele>
        <time>2014-07-25T10:08:59Z</time>
      </trkpt>
      <trkpt lat="43.06827" lon="1.47919">
        <ele>323</ele>
        <time>2014-07-25T10:09:18Z</time>
      </trkpt>
      <trkpt lat="43.06836" lon="1.4791">
        <ele>322</ele>
        <time>2014-07-25T10:09:27Z</time>
      </trkpt>
      <trkpt lat="43.06845" lon="1.479">
        <ele>322</ele>
        <time>2014-07-25T10:09:34Z</time>
      </trkpt>
      <trkpt lat="43.06851" lon="1.47898">
        <ele>322</ele>
        <time>2014-07-25T10:09:38Z</time>
      </trkpt>
      <trkpt lat="43.06855" lon="1.47894">
        <ele>322</ele>
        <time>2014-07-25T10:09:42Z</time>
      </trkpt>
      <trkpt lat="43.06864" lon="1.47888">
        <ele>324</ele>
        <time>2014-07-25T10:09:49Z</time>
      </trkpt>
      <trkpt lat="43.0687" lon="1.47887">
        <ele>324</ele>
        <time>2014-07-25T10:09:54Z</time>
      </trkpt>
      <trkpt lat="43.06881" lon="1.47885">
        <ele>322</ele>
        <time>2014-07-25T10:10:09Z</time>
      </trkpt>
      <trkpt lat="43.06898" lon="1.47887">
        <ele>323</ele>
        <time>2014-07-25T10:10:18Z</time>
      </trkpt>
      <trkpt lat="43.06903" lon="1.47886">
        <ele>324</ele>
        <time>2014-07-25T10:10:21Z</time>
      </trkpt>
      <trkpt lat="43.06908" lon="1.47881">
        <ele>324</ele>
        <time>2014-07-25T10:10:24Z</time>
      </trkpt>
      <trkpt lat="43.0691" lon="1.47875">
        <ele>325</ele>
        <time>2014-07-25T10:10:27Z</time>
      </trkpt>
      <trkpt lat="43.06916" lon="1.47863">
        <ele>323</ele>
        <time>2014-07-25T10:10:35Z</time>
      </trkpt>
      <trkpt lat="43.0692" lon="1.47859">
        <ele>322</ele>
        <time>2014-07-25T10:10:39Z</time>
      </trkpt>
      <trkpt lat="43.06924" lon="1.47857">
        <ele>322</ele>
        <time>2014-07-25T10:10:42Z</time>
      </trkpt>
      <trkpt lat="43.06935" lon="1.47854">
        <ele>321</ele>
        <time>2014-07-25T10:10:49Z</time>
      </trkpt>
      <trkpt lat="43.0694" lon="1.47849">
        <ele>321</ele>
        <time>2014-07-25T10:10:53Z</time>
      </trkpt>
      <trkpt lat="43.06953" lon="1.4783">
        <ele>316</ele>
        <time>2014-07-25T10:11:07Z</time>
      </trkpt>
      <trkpt lat="43.06965" lon="1.4782">
        <ele>318</ele>
        <time>2014-07-25T10:11:17Z</time>
      </trkpt>
      <trkpt lat="43.06972" lon="1.47813">
        <ele>318</ele>
        <time>2014-07-25T10:11:26Z</time>
      </trkpt>
      <trkpt lat="43.06977" lon="1.47796">
        <ele>315</ele>
        <time>2014-07-25T10:11:35Z</time>
      </trkpt>
      <trkpt lat="43.06981" lon="1.47789">
        <ele>315</ele>
        <time>2014-07-25T10:11:40Z</time>
      </trkpt>
      <trkpt lat="43.06989" lon="1.47782">
        <ele>315</ele>
        <time>2014-07-25T10:11:47Z</time>
      </trkpt>
      <trkpt lat="43.07001" lon="1.47763">
        <ele>317</ele>
        <time>2014-07-25T10:12:00Z</time>
      </trkpt>
      <trkpt lat="43.07001" lon="1.47748">
        <ele>318</ele>
        <time>2014-07-25T10:12:05Z</time>
      </trkpt>
      <trkpt lat="43.06994" lon="1.477">
        <ele>318</ele>
        <time>2014-07-25T10:12:30Z</time>
      </trkpt>
      <trkpt lat="43.06992" lon="1.47704">
        <ele>320</ele>
        <time>2014-07-25T10:13:32Z</time>
      </trkpt>
      <trkpt lat="43.06997" lon="1.47706">
        <ele>319</ele>
        <time>2014-07-25T10:14:31Z</time>
      </trkpt>
      <trkpt lat="43.06994" lon="1.47703">
        <ele>319</ele>
        <time>2014-07-25T10:38:45Z</time>
      </trkpt>
      <trkpt lat="43.06991" lon="1.47698">
        <ele>319</ele>
        <time>2014-07-25T10:39:53Z</time>
      </trkpt>
      <trkpt lat="43.06991" lon="1.47691">
        <ele>318</ele>
        <time>2014-07-25T10:39:58Z</time>
      </trkpt>
      <trkpt lat="43.06988" lon="1.47684">
        <ele>319</ele>
        <time>2014-07-25T10:40:01Z</time>
      </trkpt>
      <trkpt lat="43.06987" lon="1.47677">
        <ele>319</ele>
        <time>2014-07-25T10:40:05Z</time>
      </trkpt>
      <trkpt lat="43.06985" lon="1.47671">
        <ele>318</ele>
        <time>2014-07-25T10:40:10Z</time>
      </trkpt>
      <trkpt lat="43.06985" lon="1.47661">
        <ele>318</ele>
        <time>2014-07-25T10:40:15Z</time>
      </trkpt>
      <trkpt lat="43.0698" lon="1.47648">
        <ele>317</ele>
        <time>2014-07-25T10:40:21Z</time>
      </trkpt>
      <trkpt lat="43.06979" lon="1.47635">
        <ele>318</ele>
        <time>2014-07-25T10:40:29Z</time>
      </trkpt>
      <trkpt lat="43.0698" lon="1.47629">
        <ele>318</ele>
        <time>2014-07-25T10:40:33Z</time>
      </trkpt>
      <trkpt lat="43.06979" lon="1.47622">
        <ele>318</ele>
        <time>2014-07-25T10:40:37Z</time>
      </trkpt>
      <trkpt lat="43.06977" lon="1.47615">
        <ele>318</ele>
        <time>2014-07-25T10:40:41Z</time>
      </trkpt>
      <trkpt lat="43.06973" lon="1.47602">
        <ele>317</ele>
        <time>2014-07-25T10:40:49Z</time>
      </trkpt>
      <trkpt lat="43.06969" lon="1.47582">
        <ele>317</ele>
        <time>2014-07-25T10:40:59Z</time>
      </trkpt>
      <trkpt lat="43.06966" lon="1.47561">
        <ele>318</ele>
        <time>2014-07-25T10:41:11Z</time>
      </trkpt>
      <trkpt lat="43.06965" lon="1.47555">
        <ele>318</ele>
        <time>2014-07-25T10:41:15Z</time>
      </trkpt>
      <trkpt lat="43.06962" lon="1.47548">
        <ele>318</ele>
        <time>2014-07-25T10:41:19Z</time>
      </trkpt>
      <trkpt lat="43.06961" lon="1.47541">
        <ele>318</ele>
        <time>2014-07-25T10:41:23Z</time>
      </trkpt>
      <trkpt lat="43.0696" lon="1.47528">
        <ele>319</ele>
        <time>2014-07-25T10:41:31Z</time>
      </trkpt>
      <trkpt lat="43.06961" lon="1.47501">
        <ele>319</ele>
        <time>2014-07-25T10:41:45Z</time>
      </trkpt>
      <trkpt lat="43.06979" lon="1.47461">
        <ele>323</ele>
        <time>2014-07-25T10:42:12Z</time>
      </trkpt>
      <trkpt lat="43.06987" lon="1.47454">
        <ele>324</ele>
        <time>2014-07-25T10:42:21Z</time>
      </trkpt>
      <trkpt lat="43.07006" lon="1.47442">
        <ele>324</ele>
        <time>2014-07-25T10:42:41Z</time>
      </trkpt>
      <trkpt lat="43.0701" lon="1.47438">
        <ele>325</ele>
        <time>2014-07-25T10:42:45Z</time>
      </trkpt>
      <trkpt lat="43.07015" lon="1.47434">
        <ele>325</ele>
        <time>2014-07-25T10:42:49Z</time>
      </trkpt>
      <trkpt lat="43.07019" lon="1.4743">
        <ele>326</ele>
        <time>2014-07-25T10:42:53Z</time>
      </trkpt>
      <trkpt lat="43.07024" lon="1.47426">
        <ele>326</ele>
        <time>2014-07-25T10:42:57Z</time>
      </trkpt>
      <trkpt lat="43.07028" lon="1.47422">
        <ele>325</ele>
        <time>2014-07-25T10:43:01Z</time>
      </trkpt>
      <trkpt lat="43.07032" lon="1.47417">
        <ele>325</ele>
        <time>2014-07-25T10:43:05Z</time>
      </trkpt>
      <trkpt lat="43.07036" lon="1.47412">
        <ele>326</ele>
        <time>2014-07-25T10:43:09Z</time>
      </trkpt>
      <trkpt lat="43.07039" lon="1.47408">
        <ele>326</ele>
        <time>2014-07-25T10:43:13Z</time>
      </trkpt>
      <trkpt lat="43.07042" lon="1.47392">
        <ele>325</ele>
        <time>2014-07-25T10:43:21Z</time>
      </trkpt>
      <trkpt lat="43.07045" lon="1.47385">
        <ele>325</ele>
        <time>2014-07-25T10:43:25Z</time>
      </trkpt>
      <trkpt lat="43.07052" lon="1.47375">
        <ele>327</ele>
        <time>2014-07-25T10:43:33Z</time>
      </trkpt>
      <trkpt lat="43.07053" lon="1.47361">
        <ele>326</ele>
        <time>2014-07-25T10:43:43Z</time>
      </trkpt>
      <trkpt lat="43.07056" lon="1.47355">
        <ele>326</ele>
        <time>2014-07-25T10:43:48Z</time>
      </trkpt>
      <trkpt lat="43.07057" lon="1.47342">
        <ele>325</ele>
        <time>2014-07-25T10:43:56Z</time>
      </trkpt>
      <trkpt lat="43.07059" lon="1.47335">
        <ele>326</ele>
        <time>2014-07-25T10:44:00Z</time>
      </trkpt>
      <trkpt lat="43.07062" lon="1.47287">
        <ele>332</ele>
        <time>2014-07-25T10:44:31Z</time>
      </trkpt>
      <trkpt lat="43.07054" lon="1.47238">
        <ele>333</ele>
        <time>2014-07-25T10:45:02Z</time>
      </trkpt>
      <trkpt lat="43.07053" lon="1.47224">
        <ele>334</ele>
        <time>2014-07-25T10:45:10Z</time>
      </trkpt>
      <trkpt lat="43.07053" lon="1.47217">
        <ele>333</ele>
        <time>2014-07-25T10:45:14Z</time>
      </trkpt>
      <trkpt lat="43.07053" lon="1.4721">
        <ele>332</ele>
        <time>2014-07-25T10:45:18Z</time>
      </trkpt>
      <trkpt lat="43.07055" lon="1.47197">
        <ele>331</ele>
        <time>2014-07-25T10:45:27Z</time>
      </trkpt>
      <trkpt lat="43.07054" lon="1.4717">
        <ele>332</ele>
        <time>2014-07-25T10:45:40Z</time>
      </trkpt>
      <trkpt lat="43.07054" lon="1.47163">
        <ele>331</ele>
        <time>2014-07-25T10:45:43Z</time>
      </trkpt>
      <trkpt lat="43.07055" lon="1.47157">
        <ele>331</ele>
        <time>2014-07-25T10:45:47Z</time>
      </trkpt>
      <trkpt lat="43.07056" lon="1.4715">
        <ele>331</ele>
        <time>2014-07-25T10:45:51Z</time>
      </trkpt>
      <trkpt lat="43.07067" lon="1.47117">
        <ele>337</ele>
        <time>2014-07-25T10:46:11Z</time>
      </trkpt>
      <trkpt lat="43.07067" lon="1.47109">
        <ele>337</ele>
        <time>2014-07-25T10:46:15Z</time>
      </trkpt>
      <trkpt lat="43.07067" lon="1.47102">
        <ele>337</ele>
        <time>2014-07-25T10:46:19Z</time>
      </trkpt>
      <trkpt lat="43.0707" lon="1.47089">
        <ele>339</ele>
        <time>2014-07-25T10:46:25Z</time>
      </trkpt>
      <trkpt lat="43.07072" lon="1.47074">
        <ele>340</ele>
        <time>2014-07-25T10:46:33Z</time>
      </trkpt>
      <trkpt lat="43.07075" lon="1.47061">
        <ele>340</ele>
        <time>2014-07-25T10:46:42Z</time>
      </trkpt>
      <trkpt lat="43.07076" lon="1.47054">
        <ele>341</ele>
        <time>2014-07-25T10:46:47Z</time>
      </trkpt>
      <trkpt lat="43.07075" lon="1.47047">
        <ele>341</ele>
        <time>2014-07-25T10:46:51Z</time>
      </trkpt>
      <trkpt lat="43.07073" lon="1.47041">
        <ele>342</ele>
        <time>2014-07-25T10:46:54Z</time>
      </trkpt>
      <trkpt lat="43.07073" lon="1.47035">
        <ele>342</ele>
        <time>2014-07-25T10:46:57Z</time>
      </trkpt>
      <trkpt lat="43.07075" lon="1.47028">
        <ele>342</ele>
        <time>2014-07-25T10:47:01Z</time>
      </trkpt>
      <trkpt lat="43.07076" lon="1.47022">
        <ele>342</ele>
        <time>2014-07-25T10:47:05Z</time>
      </trkpt>
      <trkpt lat="43.07077" lon="1.47014">
        <ele>341</ele>
        <time>2014-07-25T10:47:10Z</time>
      </trkpt>
      <trkpt lat="43.07077" lon="1.47008">
        <ele>341</ele>
        <time>2014-07-25T10:47:14Z</time>
      </trkpt>
      <trkpt lat="43.07079" lon="1.47">
        <ele>340</ele>
        <time>2014-07-25T10:47:19Z</time>
      </trkpt>
      <trkpt lat="43.07079" lon="1.46994">
        <ele>340</ele>
        <time>2014-07-25T10:47:23Z</time>
      </trkpt>
      <trkpt lat="43.07078" lon="1.46986">
        <ele>340</ele>
        <time>2014-07-25T10:47:27Z</time>
      </trkpt>
      <trkpt lat="43.07079" lon="1.4698">
        <ele>340</ele>
        <time>2014-07-25T10:47:31Z</time>
      </trkpt>
      <trkpt lat="43.07079" lon="1.46972">
        <ele>341</ele>
        <time>2014-07-25T10:47:36Z</time>
      </trkpt>
      <trkpt lat="43.07079" lon="1.46965">
        <ele>341</ele>
        <time>2014-07-25T10:47:41Z</time>
      </trkpt>
      <trkpt lat="43.07077" lon="1.46958">
        <ele>342</ele>
        <time>2014-07-25T10:47:44Z</time>
      </trkpt>
      <trkpt lat="43.07074" lon="1.46953">
        <ele>342</ele>
        <time>2014-07-25T10:47:46Z</time>
      </trkpt>
      <trkpt lat="43.07071" lon="1.46941">
        <ele>342</ele>
        <time>2014-07-25T10:47:52Z</time>
      </trkpt>
      <trkpt lat="43.07068" lon="1.46934">
        <ele>342</ele>
        <time>2014-07-25T10:47:56Z</time>
      </trkpt>
      <trkpt lat="43.07067" lon="1.4692">
        <ele>341</ele>
        <time>2014-07-25T10:48:04Z</time>
      </trkpt>
      <trkpt lat="43.0706" lon="1.46906">
        <ele>339</ele>
        <time>2014-07-25T10:48:11Z</time>
      </trkpt>
      <trkpt lat="43.07061" lon="1.46893">
        <ele>339</ele>
        <time>2014-07-25T10:48:17Z</time>
      </trkpt>
      <trkpt lat="43.0706" lon="1.46887">
        <ele>338</ele>
        <time>2014-07-25T10:48:20Z</time>
      </trkpt>
      <trkpt lat="43.07066" lon="1.46875">
        <ele>335</ele>
        <time>2014-07-25T10:48:28Z</time>
      </trkpt>
      <trkpt lat="43.07067" lon="1.46862">
        <ele>335</ele>
        <time>2014-07-25T10:48:35Z</time>
      </trkpt>
      <trkpt lat="43.07074" lon="1.46851">
        <ele>338</ele>
        <time>2014-07-25T10:48:43Z</time>
      </trkpt>
      <trkpt lat="43.07078" lon="1.46846">
        <ele>339</ele>
        <time>2014-07-25T10:48:48Z</time>
      </trkpt>
      <trkpt lat="43.0708" lon="1.4684">
        <ele>341</ele>
        <time>2014-07-25T10:48:52Z</time>
      </trkpt>
      <trkpt lat="43.0708" lon="1.46833">
        <ele>341</ele>
        <time>2014-07-25T10:48:56Z</time>
      </trkpt>
      <trkpt lat="43.07081" lon="1.46826">
        <ele>341</ele>
        <time>2014-07-25T10:49:00Z</time>
      </trkpt>
      <trkpt lat="43.07082" lon="1.46819">
        <ele>342</ele>
        <time>2014-07-25T10:49:04Z</time>
      </trkpt>
      <trkpt lat="43.07084" lon="1.46811">
        <ele>341</ele>
        <time>2014-07-25T10:49:08Z</time>
      </trkpt>
      <trkpt lat="43.07087" lon="1.46798">
        <ele>343</ele>
        <time>2014-07-25T10:49:16Z</time>
      </trkpt>
      <trkpt lat="43.07089" lon="1.46791">
        <ele>343</ele>
        <time>2014-07-25T10:49:20Z</time>
      </trkpt>
      <trkpt lat="43.07088" lon="1.46784">
        <ele>342</ele>
        <time>2014-07-25T10:49:24Z</time>
      </trkpt>
      <trkpt lat="43.0709" lon="1.46777">
        <ele>342</ele>
        <time>2014-07-25T10:49:28Z</time>
      </trkpt>
      <trkpt lat="43.07091" lon="1.46771">
        <ele>342</ele>
        <time>2014-07-25T10:49:32Z</time>
      </trkpt>
      <trkpt lat="43.07094" lon="1.46766">
        <ele>342</ele>
        <time>2014-07-25T10:49:36Z</time>
      </trkpt>
      <trkpt lat="43.07095" lon="1.46758">
        <ele>342</ele>
        <time>2014-07-25T10:49:40Z</time>
      </trkpt>
      <trkpt lat="43.07098" lon="1.46745">
        <ele>342</ele>
        <time>2014-07-25T10:49:49Z</time>
      </trkpt>
      <trkpt lat="43.07096" lon="1.46738">
        <ele>343</ele>
        <time>2014-07-25T10:49:53Z</time>
      </trkpt>
      <trkpt lat="43.07095" lon="1.46731">
        <ele>343</ele>
        <time>2014-07-25T10:49:58Z</time>
      </trkpt>
      <trkpt lat="43.07093" lon="1.46725">
        <ele>342</ele>
        <time>2014-07-25T10:50:01Z</time>
      </trkpt>
      <trkpt lat="43.07092" lon="1.46704">
        <ele>340</ele>
        <time>2014-07-25T10:50:12Z</time>
      </trkpt>
      <trkpt lat="43.07093" lon="1.46697">
        <ele>340</ele>
        <time>2014-07-25T10:50:16Z</time>
      </trkpt>
      <trkpt lat="43.07095" lon="1.4669">
        <ele>341</ele>
        <time>2014-07-25T10:50:20Z</time>
      </trkpt>
      <trkpt lat="43.07098" lon="1.46684">
        <ele>341</ele>
        <time>2014-07-25T10:50:24Z</time>
      </trkpt>
      <trkpt lat="43.071" lon="1.46679">
        <ele>341</ele>
        <time>2014-07-25T10:50:28Z</time>
      </trkpt>
      <trkpt lat="43.07106" lon="1.46676">
        <ele>341</ele>
        <time>2014-07-25T10:50:33Z</time>
      </trkpt>
      <trkpt lat="43.07124" lon="1.46662">
        <ele>341</ele>
        <time>2014-07-25T10:50:47Z</time>
      </trkpt>
      <trkpt lat="43.07131" lon="1.46653">
        <ele>340</ele>
        <time>2014-07-25T10:50:55Z</time>
      </trkpt>
      <trkpt lat="43.07133" lon="1.46647">
        <ele>339</ele>
        <time>2014-07-25T10:50:58Z</time>
      </trkpt>
      <trkpt lat="43.07135" lon="1.4664">
        <ele>338</ele>
        <time>2014-07-25T10:51:02Z</time>
      </trkpt>
      <trkpt lat="43.07137" lon="1.46632">
        <ele>339</ele>
        <time>2014-07-25T10:51:06Z</time>
      </trkpt>
      <trkpt lat="43.07142" lon="1.4662">
        <ele>340</ele>
        <time>2014-07-25T10:51:15Z</time>
      </trkpt>
      <trkpt lat="43.0714" lon="1.46614">
        <ele>340</ele>
        <time>2014-07-25T10:51:18Z</time>
      </trkpt>
      <trkpt lat="43.07137" lon="1.46601">
        <ele>340</ele>
        <time>2014-07-25T10:51:25Z</time>
      </trkpt>
      <trkpt lat="43.07124" lon="1.46562">
        <ele>339</ele>
        <time>2014-07-25T10:51:49Z</time>
      </trkpt>
      <trkpt lat="43.07119" lon="1.46557">
        <ele>339</ele>
        <time>2014-07-25T10:51:53Z</time>
      </trkpt>
      <trkpt lat="43.07118" lon="1.46548">
        <ele>339</ele>
        <time>2014-07-25T10:51:58Z</time>
      </trkpt>
      <trkpt lat="43.07118" lon="1.46541">
        <ele>338</ele>
        <time>2014-07-25T10:52:02Z</time>
      </trkpt>
      <trkpt lat="43.07116" lon="1.46534">
        <ele>338</ele>
        <time>2014-07-25T10:52:06Z</time>
      </trkpt>
      <trkpt lat="43.07108" lon="1.46477">
        <ele>335</ele>
        <time>2014-07-25T10:52:45Z</time>
      </trkpt>
      <trkpt lat="43.07104" lon="1.46472">
        <ele>334</ele>
        <time>2014-07-25T10:52:54Z</time>
      </trkpt>
      <trkpt lat="43.07097" lon="1.46453">
        <ele>334</ele>
        <time>2014-07-25T10:53:05Z</time>
      </trkpt>
      <trkpt lat="43.07094" lon="1.46447">
        <ele>333</ele>
        <time>2014-07-25T10:53:08Z</time>
      </trkpt>
      <trkpt lat="43.0709" lon="1.46443">
        <ele>333</ele>
        <time>2014-07-25T10:53:11Z</time>
      </trkpt>
      <trkpt lat="43.07082" lon="1.46433">
        <ele>332</ele>
        <time>2014-07-25T10:53:19Z</time>
      </trkpt>
      <trkpt lat="43.07078" lon="1.4643">
        <ele>333</ele>
        <time>2014-07-25T10:53:24Z</time>
      </trkpt>
      <trkpt lat="43.07074" lon="1.46426">
        <ele>333</ele>
        <time>2014-07-25T10:53:29Z</time>
      </trkpt>
      <trkpt lat="43.07071" lon="1.4642">
        <ele>332</ele>
        <time>2014-07-25T10:53:33Z</time>
      </trkpt>
      <trkpt lat="43.07061" lon="1.46404">
        <ele>332</ele>
        <time>2014-07-25T10:53:46Z</time>
      </trkpt>
      <trkpt lat="43.07032" lon="1.46345">
        <ele>330</ele>
        <time>2014-07-25T10:54:18Z</time>
      </trkpt>
      <trkpt lat="43.07028" lon="1.46332">
        <ele>329</ele>
        <time>2014-07-25T10:54:26Z</time>
      </trkpt>
      <trkpt lat="43.07029" lon="1.46325">
        <ele>329</ele>
        <time>2014-07-25T10:54:31Z</time>
      </trkpt>
      <trkpt lat="43.07029" lon="1.46319">
        <ele>330</ele>
        <time>2014-07-25T10:54:36Z</time>
      </trkpt>
      <trkpt lat="43.07018" lon="1.46294">
        <ele>330</ele>
        <time>2014-07-25T10:54:53Z</time>
      </trkpt>
      <trkpt lat="43.07016" lon="1.46288">
        <ele>331</ele>
        <time>2014-07-25T10:54:57Z</time>
      </trkpt>
      <trkpt lat="43.07014" lon="1.46281">
        <ele>331</ele>
        <time>2014-07-25T10:55:01Z</time>
      </trkpt>
      <trkpt lat="43.0701" lon="1.46266">
        <ele>331</ele>
        <time>2014-07-25T10:55:10Z</time>
      </trkpt>
      <trkpt lat="43.07011" lon="1.46256">
        <ele>331</ele>
        <time>2014-07-25T10:55:15Z</time>
      </trkpt>
      <trkpt lat="43.07008" lon="1.4625">
        <ele>331</ele>
        <time>2014-07-25T10:55:18Z</time>
      </trkpt>
      <trkpt lat="43.07002" lon="1.46246">
        <ele>332</ele>
        <time>2014-07-25T10:55:22Z</time>
      </trkpt>
      <trkpt lat="43.06995" lon="1.46233">
        <ele>332</ele>
        <time>2014-07-25T10:55:29Z</time>
      </trkpt>
      <trkpt lat="43.06966" lon="1.46182">
        <ele>331</ele>
        <time>2014-07-25T10:56:02Z</time>
      </trkpt>
      <trkpt lat="43.06959" lon="1.46173">
        <ele>330</ele>
        <time>2014-07-25T10:56:10Z</time>
      </trkpt>
      <trkpt lat="43.06949" lon="1.46158">
        <ele>328</ele>
        <time>2014-07-25T10:56:23Z</time>
      </trkpt>
      <trkpt lat="43.06948" lon="1.46152">
        <ele>328</ele>
        <time>2014-07-25T10:56:28Z</time>
      </trkpt>
      <trkpt lat="43.06937" lon="1.46137">
        <ele>331</ele>
        <time>2014-07-25T10:56:40Z</time>
      </trkpt>
      <trkpt lat="43.06902" lon="1.461">
        <ele>330</ele>
        <time>2014-07-25T10:57:11Z</time>
      </trkpt>
      <trkpt lat="43.06891" lon="1.46099">
        <ele>331</ele>
        <time>2014-07-25T10:57:21Z</time>
      </trkpt>
      <trkpt lat="43.06882" lon="1.46094">
        <ele>332</ele>
        <time>2014-07-25T10:57:28Z</time>
      </trkpt>
      <trkpt lat="43.06859" lon="1.46074">
        <ele>334</ele>
        <time>2014-07-25T10:57:45Z</time>
      </trkpt>
      <trkpt lat="43.06855" lon="1.46071">
        <ele>334</ele>
        <time>2014-07-25T10:57:48Z</time>
      </trkpt>
      <trkpt lat="43.06836" lon="1.46025">
        <ele>336</ele>
        <time>2014-07-25T10:58:21Z</time>
      </trkpt>
      <trkpt lat="43.06819" lon="1.46014">
        <ele>335</ele>
        <time>2014-07-25T10:58:33Z</time>
      </trkpt>
      <trkpt lat="43.06806" lon="1.45996">
        <ele>334</ele>
        <time>2014-07-25T10:58:48Z</time>
      </trkpt>
      <trkpt lat="43.068" lon="1.45985">
        <ele>335</ele>
        <time>2014-07-25T10:58:56Z</time>
      </trkpt>
      <trkpt lat="43.06791" lon="1.45981">
        <ele>334</ele>
        <time>2014-07-25T10:59:04Z</time>
      </trkpt>
      <trkpt lat="43.06774" lon="1.45968">
        <ele>331</ele>
        <time>2014-07-25T10:59:18Z</time>
      </trkpt>
      <trkpt lat="43.06769" lon="1.45966">
        <ele>331</ele>
        <time>2014-07-25T10:59:22Z</time>
      </trkpt>
      <trkpt lat="43.06761" lon="1.45958">
        <ele>332</ele>
        <time>2014-07-25T10:59:33Z</time>
      </trkpt>
      <trkpt lat="43.06754" lon="1.45946">
        <ele>332</ele>
        <time>2014-07-25T10:59:42Z</time>
      </trkpt>
      <trkpt lat="43.06752" lon="1.4594">
        <ele>331</ele>
        <time>2014-07-25T10:59:47Z</time>
      </trkpt>
      <trkpt lat="43.0675" lon="1.45934">
        <ele>330</ele>
        <time>2014-07-25T10:59:51Z</time>
      </trkpt>
      <trkpt lat="43.06745" lon="1.45921">
        <ele>331</ele>
        <time>2014-07-25T10:59:59Z</time>
      </trkpt>
      <trkpt lat="43.06742" lon="1.45915">
        <ele>331</ele>
        <time>2014-07-25T11:00:03Z</time>
      </trkpt>
      <trkpt lat="43.06732" lon="1.4591">
        <ele>332</ele>
        <time>2014-07-25T11:00:11Z</time>
      </trkpt>
      <trkpt lat="43.06711" lon="1.45912">
        <ele>334</ele>
        <time>2014-07-25T11:00:22Z</time>
      </trkpt>
      <trkpt lat="43.06709" lon="1.45905">
        <ele>336</ele>
        <time>2014-07-25T11:00:29Z</time>
      </trkpt>
      <trkpt lat="43.06705" lon="1.459">
        <ele>337</ele>
        <time>2014-07-25T11:00:33Z</time>
      </trkpt>
      <trkpt lat="43.067" lon="1.459">
        <ele>337</ele>
        <time>2014-07-25T11:00:36Z</time>
      </trkpt>
      <trkpt lat="43.06693" lon="1.45892">
        <ele>337</ele>
        <time>2014-07-25T11:00:44Z</time>
      </trkpt>
      <trkpt lat="43.06687" lon="1.45882">
        <ele>337</ele>
        <time>2014-07-25T11:00:52Z</time>
      </trkpt>
      <trkpt lat="43.06681" lon="1.45871">
        <ele>336</ele>
        <time>2014-07-25T11:00:59Z</time>
      </trkpt>
      <trkpt lat="43.06679" lon="1.45866">
        <ele>336</ele>
        <time>2014-07-25T11:01:03Z</time>
      </trkpt>
      <trkpt lat="43.06675" lon="1.4586">
        <ele>336</ele>
        <time>2014-07-25T11:01:07Z</time>
      </trkpt>
      <trkpt lat="43.0667" lon="1.45837">
        <ele>338</ele>
        <time>2014-07-25T11:01:20Z</time>
      </trkpt>
      <trkpt lat="43.06671" lon="1.4583">
        <ele>338</ele>
        <time>2014-07-25T11:01:24Z</time>
      </trkpt>
      <trkpt lat="43.06672" lon="1.45823">
        <ele>338</ele>
        <time>2014-07-25T11:01:28Z</time>
      </trkpt>
      <trkpt lat="43.06677" lon="1.4581">
        <ele>339</ele>
        <time>2014-07-25T11:01:35Z</time>
      </trkpt>
      <trkpt lat="43.0668" lon="1.45805">
        <ele>339</ele>
        <time>2014-07-25T11:01:39Z</time>
      </trkpt>
      <trkpt lat="43.06684" lon="1.45793">
        <ele>338</ele>
        <time>2014-07-25T11:01:47Z</time>
      </trkpt>
      <trkpt lat="43.06686" lon="1.45787">
        <ele>338</ele>
        <time>2014-07-25T11:01:50Z</time>
      </trkpt>
      <trkpt lat="43.06692" lon="1.45762">
        <ele>343</ele>
        <time>2014-07-25T11:02:11Z</time>
      </trkpt>
      <trkpt lat="43.06704" lon="1.45733">
        <ele>345</ele>
        <time>2014-07-25T11:02:27Z</time>
      </trkpt>
      <trkpt lat="43.06707" lon="1.45727">
        <ele>345</ele>
        <time>2014-07-25T11:02:31Z</time>
      </trkpt>
      <trkpt lat="43.06708" lon="1.4572">
        <ele>345</ele>
        <time>2014-07-25T11:02:35Z</time>
      </trkpt>
      <trkpt lat="43.06712" lon="1.45694">
        <ele>345</ele>
        <time>2014-07-25T11:02:49Z</time>
      </trkpt>
      <trkpt lat="43.06711" lon="1.45671">
        <ele>346</ele>
        <time>2014-07-25T11:03:01Z</time>
      </trkpt>
      <trkpt lat="43.06707" lon="1.45667">
        <ele>346</ele>
        <time>2014-07-25T11:03:06Z</time>
      </trkpt>
      <trkpt lat="43.06704" lon="1.45662">
        <ele>346</ele>
        <time>2014-07-25T11:03:11Z</time>
      </trkpt>
      <trkpt lat="43.06701" lon="1.45657">
        <ele>345</ele>
        <time>2014-07-25T11:03:17Z</time>
      </trkpt>
      <trkpt lat="43.06692" lon="1.45652">
        <ele>344</ele>
        <time>2014-07-25T11:03:27Z</time>
      </trkpt>
      <trkpt lat="43.06673" lon="1.45642">
        <ele>345</ele>
        <time>2014-07-25T11:03:44Z</time>
      </trkpt>
      <trkpt lat="43.06665" lon="1.45633">
        <ele>346</ele>
        <time>2014-07-25T11:03:53Z</time>
      </trkpt>
      <trkpt lat="43.06656" lon="1.45631">
        <ele>346</ele>
        <time>2014-07-25T11:03:59Z</time>
      </trkpt>
      <trkpt lat="43.06631" lon="1.45609">
        <ele>348</ele>
        <time>2014-07-25T11:04:21Z</time>
      </trkpt>
      <trkpt lat="43.06632" lon="1.456">
        <ele>350</ele>
        <time>2014-07-25T11:04:32Z</time>
      </trkpt>
      <trkpt lat="43.06627" lon="1.45596">
        <ele>351</ele>
        <time>2014-07-25T11:04:37Z</time>
      </trkpt>
      <trkpt lat="43.06611" lon="1.45582">
        <ele>350</ele>
        <time>2014-07-25T11:04:52Z</time>
      </trkpt>
      <trkpt lat="43.06604" lon="1.4557">
        <ele>351</ele>
        <time>2014-07-25T11:05:02Z</time>
      </trkpt>
      <trkpt lat="43.066" lon="1.45569">
        <ele>351</ele>
        <time>2014-07-25T11:05:05Z</time>
      </trkpt>
      <trkpt lat="43.06594" lon="1.45567">
        <ele>351</ele>
        <time>2014-07-25T11:05:09Z</time>
      </trkpt>
      <trkpt lat="43.0659" lon="1.45564">
        <ele>351</ele>
        <time>2014-07-25T11:05:13Z</time>
      </trkpt>
      <trkpt lat="43.06585" lon="1.45561">
        <ele>351</ele>
        <time>2014-07-25T11:05:17Z</time>
      </trkpt>
      <trkpt lat="43.06581" lon="1.45561">
        <ele>352</ele>
        <time>2014-07-25T11:05:21Z</time>
      </trkpt>
      <trkpt lat="43.06567" lon="1.45567">
        <ele>353</ele>
        <time>2014-07-25T11:05:32Z</time>
      </trkpt>
      <trkpt lat="43.06551" lon="1.45567">
        <ele>353</ele>
        <time>2014-07-25T11:05:46Z</time>
      </trkpt>
      <trkpt lat="43.06536" lon="1.45569">
        <ele>353</ele>
        <time>2014-07-25T11:05:59Z</time>
      </trkpt>
      <trkpt lat="43.06532" lon="1.45564">
        <ele>354</ele>
        <time>2014-07-25T11:06:05Z</time>
      </trkpt>
      <trkpt lat="43.06528" lon="1.45566">
        <ele>354</ele>
        <time>2014-07-25T11:06:10Z</time>
      </trkpt>
      <trkpt lat="43.06521" lon="1.45576">
        <ele>353</ele>
        <time>2014-07-25T11:06:17Z</time>
      </trkpt>
      <trkpt lat="43.06518" lon="1.45571">
        <ele>351</ele>
        <time>2014-07-25T11:06:38Z</time>
      </trkpt>
      <trkpt lat="43.06514" lon="1.45569">
        <ele>350</ele>
        <time>2014-07-25T11:07:21Z</time>
      </trkpt>
      <trkpt lat="43.0651" lon="1.45565">
        <ele>350</ele>
        <time>2014-07-25T11:07:25Z</time>
      </trkpt>
      <trkpt lat="43.06506" lon="1.45562">
        <ele>350</ele>
        <time>2014-07-25T11:07:30Z</time>
      </trkpt>
      <trkpt lat="43.065" lon="1.45563">
        <ele>351</ele>
        <time>2014-07-25T11:07:35Z</time>
      </trkpt>
      <trkpt lat="43.0649" lon="1.45561">
        <ele>351</ele>
        <time>2014-07-25T11:07:43Z</time>
      </trkpt>
      <trkpt lat="43.06485" lon="1.45558">
        <ele>351</ele>
        <time>2014-07-25T11:07:47Z</time>
      </trkpt>
      <trkpt lat="43.0648" lon="1.45556">
        <ele>351</ele>
        <time>2014-07-25T11:07:51Z</time>
      </trkpt>
      <trkpt lat="43.06452" lon="1.45535">
        <ele>353</ele>
        <time>2014-07-25T11:08:15Z</time>
      </trkpt>
      <trkpt lat="43.06449" lon="1.45531">
        <ele>353</ele>
        <time>2014-07-25T11:08:19Z</time>
      </trkpt>
      <trkpt lat="43.06447" lon="1.45524">
        <ele>353</ele>
        <time>2014-07-25T11:08:23Z</time>
      </trkpt>
      <trkpt lat="43.06451" lon="1.45521">
        <ele>353</ele>
        <time>2014-07-25T11:08:33Z</time>
      </trkpt>
      <trkpt lat="43.06451" lon="1.45521">
        <ele>353</ele>
        <time>2014-07-25T11:09:08Z</time>
      </trkpt>
      <trkpt lat="43.06448" lon="1.45523">
        <ele>352</ele>
        <time>2014-07-25T11:10:22Z</time>
      </trkpt>
      <trkpt lat="43.06447" lon="1.45517">
        <ele>352</ele>
        <time>2014-07-25T11:10:25Z</time>
      </trkpt>
      <trkpt lat="43.06446" lon="1.45511">
        <ele>353</ele>
        <time>2014-07-25T11:10:29Z</time>
      </trkpt>
      <trkpt lat="43.06446" lon="1.45504">
        <ele>353</ele>
        <time>2014-07-25T11:10:33Z</time>
      </trkpt>
      <trkpt lat="43.06462" lon="1.45453">
        <ele>353</ele>
        <time>2014-07-25T11:11:05Z</time>
      </trkpt>
      <trkpt lat="43.0648" lon="1.45406">
        <ele>355</ele>
        <time>2014-07-25T11:11:38Z</time>
      </trkpt>
      <trkpt lat="43.06504" lon="1.45363">
        <ele>357</ele>
        <time>2014-07-25T11:12:09Z</time>
      </trkpt>
      <trkpt lat="43.06526" lon="1.45318">
        <ele>357</ele>
        <time>2014-07-25T11:12:42Z</time>
      </trkpt>
      <trkpt lat="43.06536" lon="1.45295">
        <ele>357</ele>
        <time>2014-07-25T11:12:58Z</time>
      </trkpt>
      <trkpt lat="43.06555" lon="1.45245">
        <ele>362</ele>
        <time>2014-07-25T11:13:30Z</time>
      </trkpt>
      <trkpt lat="43.06562" lon="1.45198">
        <ele>366</ele>
        <time>2014-07-25T11:13:58Z</time>
      </trkpt>
      <trkpt lat="43.06569" lon="1.45142">
        <ele>368</ele>
        <time>2014-07-25T11:14:30Z</time>
      </trkpt>
      <trkpt lat="43.06579" lon="1.45089">
        <ele>371</ele>
        <time>2014-07-25T11:15:02Z</time>
      </trkpt>
      <trkpt lat="43.06581" lon="1.45082">
        <ele>371</ele>
        <time>2014-07-25T11:15:06Z</time>
      </trkpt>
      <trkpt lat="43.06585" lon="1.45071">
        <ele>370</ele>
        <time>2014-07-25T11:15:13Z</time>
      </trkpt>
      <trkpt lat="43.06599" lon="1.45043">
        <ele>370</ele>
        <time>2014-07-25T11:15:34Z</time>
      </trkpt>
      <trkpt lat="43.06624" lon="1.45">
        <ele>373</ele>
        <time>2014-07-25T11:16:05Z</time>
      </trkpt>
      <trkpt lat="43.06644" lon="1.44979">
        <ele>376</ele>
        <time>2014-07-25T11:16:25Z</time>
      </trkpt>
      <trkpt lat="43.06658" lon="1.44968">
        <ele>376</ele>
        <time>2014-07-25T11:16:36Z</time>
      </trkpt>
      <trkpt lat="43.0667" lon="1.44957">
        <ele>377</ele>
        <time>2014-07-25T11:16:49Z</time>
      </trkpt>
      <trkpt lat="43.06684" lon="1.44947">
        <ele>379</ele>
        <time>2014-07-25T11:17:04Z</time>
      </trkpt>
      <trkpt lat="43.06688" lon="1.44944">
        <ele>378</ele>
        <time>2014-07-25T11:17:08Z</time>
      </trkpt>
      <trkpt lat="43.06704" lon="1.44926">
        <ele>381</ele>
        <time>2014-07-25T11:17:25Z</time>
      </trkpt>
      <trkpt lat="43.06707" lon="1.44919">
        <ele>381</ele>
        <time>2014-07-25T11:17:29Z</time>
      </trkpt>
      <trkpt lat="43.06709" lon="1.44913">
        <ele>380</ele>
        <time>2014-07-25T11:17:33Z</time>
      </trkpt>
      <trkpt lat="43.06711" lon="1.44907">
        <ele>380</ele>
        <time>2014-07-25T11:17:37Z</time>
      </trkpt>
      <trkpt lat="43.06711" lon="1.44899">
        <ele>381</ele>
        <time>2014-07-25T11:17:41Z</time>
      </trkpt>
      <trkpt lat="43.0671" lon="1.44893">
        <ele>381</ele>
        <time>2014-07-25T11:17:44Z</time>
      </trkpt>
      <trkpt lat="43.06708" lon="1.44871">
        <ele>384</ele>
        <time>2014-07-25T11:17:56Z</time>
      </trkpt>
      <trkpt lat="43.06708" lon="1.44857">
        <ele>385</ele>
        <time>2014-07-25T11:18:04Z</time>
      </trkpt>
      <trkpt lat="43.06708" lon="1.4485">
        <ele>385</ele>
        <time>2014-07-25T11:18:08Z</time>
      </trkpt>
      <trkpt lat="43.06708" lon="1.44828">
        <ele>386</ele>
        <time>2014-07-25T11:18:20Z</time>
      </trkpt>
      <trkpt lat="43.06712" lon="1.448">
        <ele>385</ele>
        <time>2014-07-25T11:18:36Z</time>
      </trkpt>
      <trkpt lat="43.06725" lon="1.44751">
        <ele>390</ele>
        <time>2014-07-25T11:19:05Z</time>
      </trkpt>
      <trkpt lat="43.06727" lon="1.44745">
        <ele>390</ele>
        <time>2014-07-25T11:19:09Z</time>
      </trkpt>
      <trkpt lat="43.06728" lon="1.44738">
        <ele>390</ele>
        <time>2014-07-25T11:19:13Z</time>
      </trkpt>
      <trkpt lat="43.06728" lon="1.44731">
        <ele>390</ele>
        <time>2014-07-25T11:19:17Z</time>
      </trkpt>
      <trkpt lat="43.06729" lon="1.44725">
        <ele>390</ele>
        <time>2014-07-25T11:19:21Z</time>
      </trkpt>
      <trkpt lat="43.06729" lon="1.4471">
        <ele>388</ele>
        <time>2014-07-25T11:19:31Z</time>
      </trkpt>
      <trkpt lat="43.06728" lon="1.44703">
        <ele>388</ele>
        <time>2014-07-25T11:19:35Z</time>
      </trkpt>
      <trkpt lat="43.06727" lon="1.44696">
        <ele>389</ele>
        <time>2014-07-25T11:19:39Z</time>
      </trkpt>
      <trkpt lat="43.06722" lon="1.44684">
        <ele>389</ele>
        <time>2014-07-25T11:19:47Z</time>
      </trkpt>
      <trkpt lat="43.06721" lon="1.4467">
        <ele>391</ele>
        <time>2014-07-25T11:19:55Z</time>
      </trkpt>
      <trkpt lat="43.06719" lon="1.44664">
        <ele>391</ele>
        <time>2014-07-25T11:19:59Z</time>
      </trkpt>
      <trkpt lat="43.06715" lon="1.44651">
        <ele>390</ele>
        <time>2014-07-25T11:20:07Z</time>
      </trkpt>
      <trkpt lat="43.06712" lon="1.44637">
        <ele>391</ele>
        <time>2014-07-25T11:20:15Z</time>
      </trkpt>
      <trkpt lat="43.0671" lon="1.44629">
        <ele>391</ele>
        <time>2014-07-25T11:20:19Z</time>
      </trkpt>
      <trkpt lat="43.06708" lon="1.44608">
        <ele>393</ele>
        <time>2014-07-25T11:20:31Z</time>
      </trkpt>
      <trkpt lat="43.06709" lon="1.44602">
        <ele>393</ele>
        <time>2014-07-25T11:20:35Z</time>
      </trkpt>
      <trkpt lat="43.06711" lon="1.44595">
        <ele>394</ele>
        <time>2014-07-25T11:20:39Z</time>
      </trkpt>
      <trkpt lat="43.06711" lon="1.44588">
        <ele>394</ele>
        <time>2014-07-25T11:20:43Z</time>
      </trkpt>
      <trkpt lat="43.06711" lon="1.44582">
        <ele>394</ele>
        <time>2014-07-25T11:20:47Z</time>
      </trkpt>
      <trkpt lat="43.06711" lon="1.44574">
        <ele>394</ele>
        <time>2014-07-25T11:20:51Z</time>
      </trkpt>
      <trkpt lat="43.06712" lon="1.4456">
        <ele>396</ele>
        <time>2014-07-25T11:21:00Z</time>
      </trkpt>
      <trkpt lat="43.06714" lon="1.44554">
        <ele>396</ele>
        <time>2014-07-25T11:21:04Z</time>
      </trkpt>
      <trkpt lat="43.0671" lon="1.44524">
        <ele>396</ele>
        <time>2014-07-25T11:21:21Z</time>
      </trkpt>
      <trkpt lat="43.06698" lon="1.44473">
        <ele>400</ele>
        <time>2014-07-25T11:21:54Z</time>
      </trkpt>
      <trkpt lat="43.06695" lon="1.44451">
        <ele>402</ele>
        <time>2014-07-25T11:22:06Z</time>
      </trkpt>
      <trkpt lat="43.06694" lon="1.44431">
        <ele>402</ele>
        <time>2014-07-25T11:22:18Z</time>
      </trkpt>
      <trkpt lat="43.06695" lon="1.44425">
        <ele>402</ele>
        <time>2014-07-25T11:22:22Z</time>
      </trkpt>
      <trkpt lat="43.06697" lon="1.44419">
        <ele>403</ele>
        <time>2014-07-25T11:22:26Z</time>
      </trkpt>
      <trkpt lat="43.06697" lon="1.44412">
        <ele>403</ele>
        <time>2014-07-25T11:22:32Z</time>
      </trkpt>
      <trkpt lat="43.06701" lon="1.44411">
        <ele>403</ele>
        <time>2014-07-25T11:22:41Z</time>
      </trkpt>
      <trkpt lat="43.06716" lon="1.44392">
        <ele>404</ele>
        <time>2014-07-25T11:22:58Z</time>
      </trkpt>
      <trkpt lat="43.0672" lon="1.44386">
        <ele>404</ele>
        <time>2014-07-25T11:23:03Z</time>
      </trkpt>
      <trkpt lat="43.06735" lon="1.44365">
        <ele>403</ele>
        <time>2014-07-25T11:23:19Z</time>
      </trkpt>
      <trkpt lat="43.06738" lon="1.4436">
        <ele>404</ele>
        <time>2014-07-25T11:23:23Z</time>
      </trkpt>
      <trkpt lat="43.06741" lon="1.44353">
        <ele>404</ele>
        <time>2014-07-25T11:23:27Z</time>
      </trkpt>
      <trkpt lat="43.06752" lon="1.4432">
        <ele>403</ele>
        <time>2014-07-25T11:23:47Z</time>
      </trkpt>
      <trkpt lat="43.06752" lon="1.44313">
        <ele>403</ele>
        <time>2014-07-25T11:23:51Z</time>
      </trkpt>
      <trkpt lat="43.06754" lon="1.44306">
        <ele>402</ele>
        <time>2014-07-25T11:23:55Z</time>
      </trkpt>
      <trkpt lat="43.06762" lon="1.44248">
        <ele>406</ele>
        <time>2014-07-25T11:24:26Z</time>
      </trkpt>
      <trkpt lat="43.06768" lon="1.44223">
        <ele>408</ele>
        <time>2014-07-25T11:24:42Z</time>
      </trkpt>
      <trkpt lat="43.06772" lon="1.44217">
        <ele>407</ele>
        <time>2014-07-25T11:24:46Z</time>
      </trkpt>
      <trkpt lat="43.06775" lon="1.44212">
        <ele>408</ele>
        <time>2014-07-25T11:24:50Z</time>
      </trkpt>
      <trkpt lat="43.06793" lon="1.44175">
        <ele>411</ele>
        <time>2014-07-25T11:25:14Z</time>
      </trkpt>
      <trkpt lat="43.06795" lon="1.44168">
        <ele>411</ele>
        <time>2014-07-25T11:25:18Z</time>
      </trkpt>
      <trkpt lat="43.06797" lon="1.44149">
        <ele>409</ele>
        <time>2014-07-25T11:25:30Z</time>
      </trkpt>
      <trkpt lat="43.068" lon="1.44129">
        <ele>408</ele>
        <time>2014-07-25T11:25:42Z</time>
      </trkpt>
      <trkpt lat="43.06803" lon="1.44122">
        <ele>409</ele>
        <time>2014-07-25T11:25:46Z</time>
      </trkpt>
      <trkpt lat="43.06813" lon="1.44106">
        <ele>412</ele>
        <time>2014-07-25T11:25:58Z</time>
      </trkpt>
      <trkpt lat="43.06817" lon="1.44102">
        <ele>412</ele>
        <time>2014-07-25T11:26:02Z</time>
      </trkpt>
      <trkpt lat="43.06822" lon="1.44097">
        <ele>413</ele>
        <time>2014-07-25T11:26:07Z</time>
      </trkpt>
      <trkpt lat="43.06833" lon="1.44083">
        <ele>412</ele>
        <time>2014-07-25T11:26:18Z</time>
      </trkpt>
      <trkpt lat="43.06842" lon="1.44066">
        <ele>413</ele>
        <time>2014-07-25T11:26:30Z</time>
      </trkpt>
      <trkpt lat="43.06845" lon="1.4406">
        <ele>413</ele>
        <time>2014-07-25T11:26:34Z</time>
      </trkpt>
      <trkpt lat="43.06847" lon="1.44052">
        <ele>412</ele>
        <time>2014-07-25T11:26:39Z</time>
      </trkpt>
      <trkpt lat="43.06847" lon="1.44038">
        <ele>412</ele>
        <time>2014-07-25T11:26:47Z</time>
      </trkpt>
      <trkpt lat="43.06848" lon="1.44019">
        <ele>415</ele>
        <time>2014-07-25T11:26:58Z</time>
      </trkpt>
      <trkpt lat="43.06846" lon="1.44012">
        <ele>415</ele>
        <time>2014-07-25T11:27:02Z</time>
      </trkpt>
      <trkpt lat="43.06845" lon="1.44005">
        <ele>415</ele>
        <time>2014-07-25T11:27:06Z</time>
      </trkpt>
      <trkpt lat="43.06844" lon="1.43998">
        <ele>415</ele>
        <time>2014-07-25T11:27:10Z</time>
      </trkpt>
      <trkpt lat="43.0684" lon="1.43992">
        <ele>415</ele>
        <time>2014-07-25T11:27:14Z</time>
      </trkpt>
      <trkpt lat="43.06838" lon="1.43984">
        <ele>415</ele>
        <time>2014-07-25T11:27:18Z</time>
      </trkpt>
      <trkpt lat="43.0683" lon="1.43966">
        <ele>416</ele>
        <time>2014-07-25T11:27:30Z</time>
      </trkpt>
      <trkpt lat="43.06822" lon="1.43946">
        <ele>415</ele>
        <time>2014-07-25T11:27:42Z</time>
      </trkpt>
      <trkpt lat="43.0682" lon="1.4394">
        <ele>415</ele>
        <time>2014-07-25T11:27:47Z</time>
      </trkpt>
      <trkpt lat="43.06816" lon="1.43891">
        <ele>417</ele>
        <time>2014-07-25T11:28:15Z</time>
      </trkpt>
      <trkpt lat="43.06819" lon="1.43878">
        <ele>418</ele>
        <time>2014-07-25T11:28:23Z</time>
      </trkpt>
      <trkpt lat="43.0682" lon="1.4387">
        <ele>418</ele>
        <time>2014-07-25T11:28:27Z</time>
      </trkpt>
      <trkpt lat="43.06838" lon="1.43815">
        <ele>415</ele>
        <time>2014-07-25T11:28:59Z</time>
      </trkpt>
      <trkpt lat="43.06842" lon="1.43802">
        <ele>416</ele>
        <time>2014-07-25T11:29:07Z</time>
      </trkpt>
      <trkpt lat="43.06848" lon="1.4379">
        <ele>415</ele>
        <time>2014-07-25T11:29:15Z</time>
      </trkpt>
      <trkpt lat="43.06851" lon="1.43784">
        <ele>415</ele>
        <time>2014-07-25T11:29:18Z</time>
      </trkpt>
      <trkpt lat="43.06859" lon="1.43764">
        <ele>415</ele>
        <time>2014-07-25T11:29:30Z</time>
      </trkpt>
      <trkpt lat="43.06865" lon="1.43745">
        <ele>414</ele>
        <time>2014-07-25T11:29:41Z</time>
      </trkpt>
      <trkpt lat="43.06869" lon="1.43733">
        <ele>415</ele>
        <time>2014-07-25T11:29:48Z</time>
      </trkpt>
      <trkpt lat="43.06877" lon="1.43723">
        <ele>415</ele>
        <time>2014-07-25T11:29:56Z</time>
      </trkpt>
      <trkpt lat="43.06891" lon="1.43701">
        <ele>415</ele>
        <time>2014-07-25T11:30:12Z</time>
      </trkpt>
      <trkpt lat="43.06891" lon="1.43694">
        <ele>414</ele>
        <time>2014-07-25T11:30:16Z</time>
      </trkpt>
      <trkpt lat="43.06893" lon="1.43688">
        <ele>414</ele>
        <time>2014-07-25T11:30:20Z</time>
      </trkpt>
      <trkpt lat="43.06896" lon="1.43682">
        <ele>414</ele>
        <time>2014-07-25T11:30:24Z</time>
      </trkpt>
      <trkpt lat="43.069" lon="1.43669">
        <ele>414</ele>
        <time>2014-07-25T11:30:31Z</time>
      </trkpt>
      <trkpt lat="43.06902" lon="1.43661">
        <ele>415</ele>
        <time>2014-07-25T11:30:35Z</time>
      </trkpt>
      <trkpt lat="43.06903" lon="1.43655">
        <ele>415</ele>
        <time>2014-07-25T11:30:38Z</time>
      </trkpt>
      <trkpt lat="43.06906" lon="1.43648">
        <ele>415</ele>
        <time>2014-07-25T11:30:42Z</time>
      </trkpt>
      <trkpt lat="43.06908" lon="1.43634">
        <ele>415</ele>
        <time>2014-07-25T11:30:51Z</time>
      </trkpt>
      <trkpt lat="43.0691" lon="1.43627">
        <ele>415</ele>
        <time>2014-07-25T11:30:55Z</time>
      </trkpt>
      <trkpt lat="43.0692" lon="1.43568">
        <ele>414</ele>
        <time>2014-07-25T11:31:28Z</time>
      </trkpt>
      <trkpt lat="43.06927" lon="1.43541">
        <ele>414</ele>
        <time>2014-07-25T11:31:43Z</time>
      </trkpt>
      <trkpt lat="43.06931" lon="1.4353">
        <ele>415</ele>
        <time>2014-07-25T11:31:49Z</time>
      </trkpt>
      <trkpt lat="43.06931" lon="1.43522">
        <ele>415</ele>
        <time>2014-07-25T11:31:53Z</time>
      </trkpt>
      <trkpt lat="43.06935" lon="1.43487">
        <ele>417</ele>
        <time>2014-07-25T11:32:13Z</time>
      </trkpt>
      <trkpt lat="43.06932" lon="1.43452">
        <ele>411</ele>
        <time>2014-07-25T11:32:31Z</time>
      </trkpt>
      <trkpt lat="43.06933" lon="1.43438">
        <ele>411</ele>
        <time>2014-07-25T11:32:38Z</time>
      </trkpt>
      <trkpt lat="43.06935" lon="1.43403">
        <ele>413</ele>
        <time>2014-07-25T11:32:57Z</time>
      </trkpt>
      <trkpt lat="43.06933" lon="1.43381">
        <ele>411</ele>
        <time>2014-07-25T11:33:08Z</time>
      </trkpt>
      <trkpt lat="43.06935" lon="1.43375">
        <ele>411</ele>
        <time>2014-07-25T11:33:11Z</time>
      </trkpt>
      <trkpt lat="43.06936" lon="1.43361">
        <ele>410</ele>
        <time>2014-07-25T11:33:18Z</time>
      </trkpt>
      <trkpt lat="43.06937" lon="1.43354">
        <ele>410</ele>
        <time>2014-07-25T11:33:22Z</time>
      </trkpt>
      <trkpt lat="43.06939" lon="1.4334">
        <ele>410</ele>
        <time>2014-07-25T11:33:30Z</time>
      </trkpt>
      <trkpt lat="43.06941" lon="1.43333">
        <ele>409</ele>
        <time>2014-07-25T11:33:34Z</time>
      </trkpt>
      <trkpt lat="43.06942" lon="1.43326">
        <ele>409</ele>
        <time>2014-07-25T11:33:38Z</time>
      </trkpt>
      <trkpt lat="43.06944" lon="1.43319">
        <ele>409</ele>
        <time>2014-07-25T11:33:42Z</time>
      </trkpt>
      <trkpt lat="43.06944" lon="1.43313">
        <ele>408</ele>
        <time>2014-07-25T11:33:46Z</time>
      </trkpt>
      <trkpt lat="43.06947" lon="1.43301">
        <ele>408</ele>
        <time>2014-07-25T11:33:54Z</time>
      </trkpt>
      <trkpt lat="43.06961" lon="1.43269">
        <ele>408</ele>
        <time>2014-07-25T11:34:13Z</time>
      </trkpt>
      <trkpt lat="43.06967" lon="1.43248">
        <ele>407</ele>
        <time>2014-07-25T11:34:25Z</time>
      </trkpt>
      <trkpt lat="43.06969" lon="1.43242">
        <ele>408</ele>
        <time>2014-07-25T11:34:29Z</time>
      </trkpt>
      <trkpt lat="43.06972" lon="1.43236">
        <ele>408</ele>
        <time>2014-07-25T11:34:33Z</time>
      </trkpt>
      <trkpt lat="43.06974" lon="1.43229">
        <ele>408</ele>
        <time>2014-07-25T11:34:37Z</time>
      </trkpt>
      <trkpt lat="43.06979" lon="1.43216">
        <ele>409</ele>
        <time>2014-07-25T11:34:44Z</time>
      </trkpt>
      <trkpt lat="43.06982" lon="1.43209">
        <ele>409</ele>
        <time>2014-07-25T11:34:47Z</time>
      </trkpt>
      <trkpt lat="43.06984" lon="1.43202">
        <ele>409</ele>
        <time>2014-07-25T11:34:51Z</time>
      </trkpt>
      <trkpt lat="43.06986" lon="1.43195">
        <ele>409</ele>
        <time>2014-07-25T11:34:55Z</time>
      </trkpt>
      <trkpt lat="43.06994" lon="1.43177">
        <ele>411</ele>
        <time>2014-07-25T11:35:07Z</time>
      </trkpt>
      <trkpt lat="43.06997" lon="1.43163">
        <ele>411</ele>
        <time>2014-07-25T11:35:15Z</time>
      </trkpt>
      <trkpt lat="43.06999" lon="1.43155">
        <ele>410</ele>
        <time>2014-07-25T11:35:19Z</time>
      </trkpt>
      <trkpt lat="43.07003" lon="1.43144">
        <ele>410</ele>
        <time>2014-07-25T11:35:25Z</time>
      </trkpt>
      <trkpt lat="43.07009" lon="1.4313">
        <ele>409</ele>
        <time>2014-07-25T11:35:33Z</time>
      </trkpt>
      <trkpt lat="43.07011" lon="1.43125">
        <ele>410</ele>
        <time>2014-07-25T11:35:37Z</time>
      </trkpt>
      <trkpt lat="43.07017" lon="1.43113">
        <ele>409</ele>
        <time>2014-07-25T11:35:46Z</time>
      </trkpt>
      <trkpt lat="43.07021" lon="1.43109">
        <ele>410</ele>
        <time>2014-07-25T11:35:50Z</time>
      </trkpt>
      <trkpt lat="43.07025" lon="1.43103">
        <ele>409</ele>
        <time>2014-07-25T11:35:54Z</time>
      </trkpt>
      <trkpt lat="43.07038" lon="1.43089">
        <ele>409</ele>
        <time>2014-07-25T11:36:06Z</time>
      </trkpt>
      <trkpt lat="43.07042" lon="1.43083">
        <ele>410</ele>
        <time>2014-07-25T11:36:11Z</time>
      </trkpt>
      <trkpt lat="43.07044" lon="1.43077">
        <ele>410</ele>
        <time>2014-07-25T11:36:15Z</time>
      </trkpt>
      <trkpt lat="43.07055" lon="1.43041">
        <ele>412</ele>
        <time>2014-07-25T11:36:34Z</time>
      </trkpt>
      <trkpt lat="43.07054" lon="1.43034">
        <ele>412</ele>
        <time>2014-07-25T11:36:38Z</time>
      </trkpt>
      <trkpt lat="43.07053" lon="1.43021">
        <ele>411</ele>
        <time>2014-07-25T11:36:46Z</time>
      </trkpt>
      <trkpt lat="43.07057" lon="1.42986">
        <ele>411</ele>
        <time>2014-07-25T11:37:05Z</time>
      </trkpt>
      <trkpt lat="43.07059" lon="1.42964">
        <ele>410</ele>
        <time>2014-07-25T11:37:17Z</time>
      </trkpt>
      <trkpt lat="43.07061" lon="1.42958">
        <ele>410</ele>
        <time>2014-07-25T11:37:21Z</time>
      </trkpt>
      <trkpt lat="43.07064" lon="1.42952">
        <ele>410</ele>
        <time>2014-07-25T11:37:26Z</time>
      </trkpt>
      <trkpt lat="43.07069" lon="1.42951">
        <ele>410</ele>
        <time>2014-07-25T11:37:32Z</time>
      </trkpt>
      <trkpt lat="43.07073" lon="1.42951">
        <ele>410</ele>
        <time>2014-07-25T11:37:43Z</time>
      </trkpt>
      <trkpt lat="43.07072" lon="1.42942">
        <ele>410</ele>
        <time>2014-07-25T11:37:53Z</time>
      </trkpt>
      <trkpt lat="43.07074" lon="1.42935">
        <ele>411</ele>
        <time>2014-07-25T11:37:57Z</time>
      </trkpt>
      <trkpt lat="43.07076" lon="1.4293">
        <ele>411</ele>
        <time>2014-07-25T11:38:01Z</time>
      </trkpt>
      <trkpt lat="43.07081" lon="1.42925">
        <ele>411</ele>
        <time>2014-07-25T11:38:05Z</time>
      </trkpt>
      <trkpt lat="43.07084" lon="1.4292">
        <ele>411</ele>
        <time>2014-07-25T11:38:09Z</time>
      </trkpt>
      <trkpt lat="43.07087" lon="1.42914">
        <ele>411</ele>
        <time>2014-07-25T11:38:13Z</time>
      </trkpt>
      <trkpt lat="43.07094" lon="1.42903">
        <ele>411</ele>
        <time>2014-07-25T11:38:20Z</time>
      </trkpt>
      <trkpt lat="43.07108" lon="1.42856">
        <ele>407</ele>
        <time>2014-07-25T11:38:46Z</time>
      </trkpt>
      <trkpt lat="43.07109" lon="1.42848">
        <ele>407</ele>
        <time>2014-07-25T11:38:50Z</time>
      </trkpt>
      <trkpt lat="43.0711" lon="1.42841">
        <ele>407</ele>
        <time>2014-07-25T11:38:54Z</time>
      </trkpt>
      <trkpt lat="43.0711" lon="1.42835">
        <ele>407</ele>
        <time>2014-07-25T11:38:58Z</time>
      </trkpt>
      <trkpt lat="43.07113" lon="1.42821">
        <ele>407</ele>
        <time>2014-07-25T11:39:05Z</time>
      </trkpt>
      <trkpt lat="43.07115" lon="1.428">
        <ele>409</ele>
        <time>2014-07-25T11:39:17Z</time>
      </trkpt>
      <trkpt lat="43.07117" lon="1.42795">
        <ele>409</ele>
        <time>2014-07-25T11:39:20Z</time>
      </trkpt>
      <trkpt lat="43.07118" lon="1.42789">
        <ele>409</ele>
        <time>2014-07-25T11:39:23Z</time>
      </trkpt>
      <trkpt lat="43.07119" lon="1.42781">
        <ele>408</ele>
        <time>2014-07-25T11:39:27Z</time>
      </trkpt>
      <trkpt lat="43.07121" lon="1.42766">
        <ele>408</ele>
        <time>2014-07-25T11:39:35Z</time>
      </trkpt>
      <trkpt lat="43.07122" lon="1.42759">
        <ele>408</ele>
        <time>2014-07-25T11:39:39Z</time>
      </trkpt>
      <trkpt lat="43.07122" lon="1.42751">
        <ele>408</ele>
        <time>2014-07-25T11:39:43Z</time>
      </trkpt>
      <trkpt lat="43.07123" lon="1.42744">
        <ele>409</ele>
        <time>2014-07-25T11:39:47Z</time>
      </trkpt>
      <trkpt lat="43.07125" lon="1.4273">
        <ele>409</ele>
        <time>2014-07-25T11:39:55Z</time>
      </trkpt>
      <trkpt lat="43.07132" lon="1.42682">
        <ele>404</ele>
        <time>2014-07-25T11:40:23Z</time>
      </trkpt>
      <trkpt lat="43.07133" lon="1.42675">
        <ele>405</ele>
        <time>2014-07-25T11:40:27Z</time>
      </trkpt>
      <trkpt lat="43.07133" lon="1.42662">
        <ele>404</ele>
        <time>2014-07-25T11:40:35Z</time>
      </trkpt>
      <trkpt lat="43.07136" lon="1.42656">
        <ele>405</ele>
        <time>2014-07-25T11:40:39Z</time>
      </trkpt>
      <trkpt lat="43.07139" lon="1.42642">
        <ele>405</ele>
        <time>2014-07-25T11:40:46Z</time>
      </trkpt>
      <trkpt lat="43.07145" lon="1.42629">
        <ele>403</ele>
        <time>2014-07-25T11:40:54Z</time>
      </trkpt>
      <trkpt lat="43.07149" lon="1.42623">
        <ele>403</ele>
        <time>2014-07-25T11:40:58Z</time>
      </trkpt>
      <trkpt lat="43.07154" lon="1.42612">
        <ele>402</ele>
        <time>2014-07-25T11:41:05Z</time>
      </trkpt>
      <trkpt lat="43.07157" lon="1.42607">
        <ele>403</ele>
        <time>2014-07-25T11:41:09Z</time>
      </trkpt>
      <trkpt lat="43.07172" lon="1.42585">
        <ele>403</ele>
        <time>2014-07-25T11:41:25Z</time>
      </trkpt>
      <trkpt lat="43.07176" lon="1.4258">
        <ele>403</ele>
        <time>2014-07-25T11:41:29Z</time>
      </trkpt>
      <trkpt lat="43.07194" lon="1.42552">
        <ele>401</ele>
        <time>2014-07-25T11:41:49Z</time>
      </trkpt>
      <trkpt lat="43.07201" lon="1.42541">
        <ele>401</ele>
        <time>2014-07-25T11:41:57Z</time>
      </trkpt>
      <trkpt lat="43.07204" lon="1.42535">
        <ele>402</ele>
        <time>2014-07-25T11:42:01Z</time>
      </trkpt>
      <trkpt lat="43.07207" lon="1.42529">
        <ele>402</ele>
        <time>2014-07-25T11:42:05Z</time>
      </trkpt>
      <trkpt lat="43.0721" lon="1.42523">
        <ele>402</ele>
        <time>2014-07-25T11:42:09Z</time>
      </trkpt>
      <trkpt lat="43.07217" lon="1.42505">
        <ele>400</ele>
        <time>2014-07-25T11:42:20Z</time>
      </trkpt>
      <trkpt lat="43.07218" lon="1.42499">
        <ele>398</ele>
        <time>2014-07-25T11:42:24Z</time>
      </trkpt>
      <trkpt lat="43.07235" lon="1.42464">
        <ele>394</ele>
        <time>2014-07-25T11:42:46Z</time>
      </trkpt>
      <trkpt lat="43.07243" lon="1.42451">
        <ele>395</ele>
        <time>2014-07-25T11:42:54Z</time>
      </trkpt>
      <trkpt lat="43.07256" lon="1.42422">
        <ele>399</ele>
        <time>2014-07-25T11:43:12Z</time>
      </trkpt>
      <trkpt lat="43.07261" lon="1.42411">
        <ele>398</ele>
        <time>2014-07-25T11:43:19Z</time>
      </trkpt>
      <trkpt lat="43.07278" lon="1.42358">
        <ele>396</ele>
        <time>2014-07-25T11:43:51Z</time>
      </trkpt>
      <trkpt lat="43.07281" lon="1.42352">
        <ele>396</ele>
        <time>2014-07-25T11:43:54Z</time>
      </trkpt>
      <trkpt lat="43.07283" lon="1.42346">
        <ele>397</ele>
        <time>2014-07-25T11:43:57Z</time>
      </trkpt>
      <trkpt lat="43.07285" lon="1.4234">
        <ele>397</ele>
        <time>2014-07-25T11:44:00Z</time>
      </trkpt>
      <trkpt lat="43.07287" lon="1.42333">
        <ele>397</ele>
        <time>2014-07-25T11:44:04Z</time>
      </trkpt>
      <trkpt lat="43.07288" lon="1.42326">
        <ele>396</ele>
        <time>2014-07-25T11:44:08Z</time>
      </trkpt>
      <trkpt lat="43.07292" lon="1.42305">
        <ele>394</ele>
        <time>2014-07-25T11:44:19Z</time>
      </trkpt>
      <trkpt lat="43.0729" lon="1.42283">
        <ele>394</ele>
        <time>2014-07-25T11:44:31Z</time>
      </trkpt>
      <trkpt lat="43.07288" lon="1.42276">
        <ele>394</ele>
        <time>2014-07-25T11:44:35Z</time>
      </trkpt>
      <trkpt lat="43.07288" lon="1.42269">
        <ele>394</ele>
        <time>2014-07-25T11:44:39Z</time>
      </trkpt>
      <trkpt lat="43.0729" lon="1.42262">
        <ele>394</ele>
        <time>2014-07-25T11:44:43Z</time>
      </trkpt>
      <trkpt lat="43.07291" lon="1.42254">
        <ele>394</ele>
        <time>2014-07-25T11:44:47Z</time>
      </trkpt>
      <trkpt lat="43.07292" lon="1.42247">
        <ele>394</ele>
        <time>2014-07-25T11:44:51Z</time>
      </trkpt>
      <trkpt lat="43.07293" lon="1.42241">
        <ele>394</ele>
        <time>2014-07-25T11:44:54Z</time>
      </trkpt>
      <trkpt lat="43.07295" lon="1.4222">
        <ele>391</ele>
        <time>2014-07-25T11:45:04Z</time>
      </trkpt>
      <trkpt lat="43.073" lon="1.42205">
        <ele>391</ele>
        <time>2014-07-25T11:45:12Z</time>
      </trkpt>
      <trkpt lat="43.07309" lon="1.42186">
        <ele>389</ele>
        <time>2014-07-25T11:45:24Z</time>
      </trkpt>
      <trkpt lat="43.07316" lon="1.42168">
        <ele>390</ele>
        <time>2014-07-25T11:45:36Z</time>
      </trkpt>
      <trkpt lat="43.07321" lon="1.42156">
        <ele>389</ele>
        <time>2014-07-25T11:45:44Z</time>
      </trkpt>
      <trkpt lat="43.07325" lon="1.42149">
        <ele>389</ele>
        <time>2014-07-25T11:45:48Z</time>
      </trkpt>
      <trkpt lat="43.07326" lon="1.42143">
        <ele>390</ele>
        <time>2014-07-25T11:45:52Z</time>
      </trkpt>
      <trkpt lat="43.07327" lon="1.42136">
        <ele>390</ele>
        <time>2014-07-25T11:45:56Z</time>
      </trkpt>
      <trkpt lat="43.0733" lon="1.42121">
        <ele>389</ele>
        <time>2014-07-25T11:46:04Z</time>
      </trkpt>
      <trkpt lat="43.0733" lon="1.42114">
        <ele>388</ele>
        <time>2014-07-25T11:46:08Z</time>
      </trkpt>
      <trkpt lat="43.07331" lon="1.42107">
        <ele>388</ele>
        <time>2014-07-25T11:46:12Z</time>
      </trkpt>
      <trkpt lat="43.07341" lon="1.42075">
        <ele>385</ele>
        <time>2014-07-25T11:46:30Z</time>
      </trkpt>
      <trkpt lat="43.07345" lon="1.4207">
        <ele>386</ele>
        <time>2014-07-25T11:46:33Z</time>
      </trkpt>
      <trkpt lat="43.07359" lon="1.42051">
        <ele>386</ele>
        <time>2014-07-25T11:46:47Z</time>
      </trkpt>
      <trkpt lat="43.07363" lon="1.42045">
        <ele>386</ele>
        <time>2014-07-25T11:46:51Z</time>
      </trkpt>
      <trkpt lat="43.07368" lon="1.42034">
        <ele>386</ele>
        <time>2014-07-25T11:46:57Z</time>
      </trkpt>
      <trkpt lat="43.07372" lon="1.42015">
        <ele>384</ele>
        <time>2014-07-25T11:47:07Z</time>
      </trkpt>
      <trkpt lat="43.07373" lon="1.42008">
        <ele>384</ele>
        <time>2014-07-25T11:47:11Z</time>
      </trkpt>
      <trkpt lat="43.07375" lon="1.41995">
        <ele>384</ele>
        <time>2014-07-25T11:47:17Z</time>
      </trkpt>
      <trkpt lat="43.07376" lon="1.41987">
        <ele>384</ele>
        <time>2014-07-25T11:47:21Z</time>
      </trkpt>
      <trkpt lat="43.07379" lon="1.41974">
        <ele>387</ele>
        <time>2014-07-25T11:47:29Z</time>
      </trkpt>
      <trkpt lat="43.0738" lon="1.41966">
        <ele>387</ele>
        <time>2014-07-25T11:47:33Z</time>
      </trkpt>
      <trkpt lat="43.07383" lon="1.41944">
        <ele>384</ele>
        <time>2014-07-25T11:47:45Z</time>
      </trkpt>
      <trkpt lat="43.07386" lon="1.4193">
        <ele>383</ele>
        <time>2014-07-25T11:47:53Z</time>
      </trkpt>
      <trkpt lat="43.07392" lon="1.41902">
        <ele>380</ele>
        <time>2014-07-25T11:48:09Z</time>
      </trkpt>
      <trkpt lat="43.07395" lon="1.41896">
        <ele>380</ele>
        <time>2014-07-25T11:48:13Z</time>
      </trkpt>
      <trkpt lat="43.07398" lon="1.4189">
        <ele>381</ele>
        <time>2014-07-25T11:48:17Z</time>
      </trkpt>
      <trkpt lat="43.0742" lon="1.41842">
        <ele>381</ele>
        <time>2014-07-25T11:48:48Z</time>
      </trkpt>
      <trkpt lat="43.07427" lon="1.41831">
        <ele>380</ele>
        <time>2014-07-25T11:48:56Z</time>
      </trkpt>
      <trkpt lat="43.07431" lon="1.41827">
        <ele>381</ele>
        <time>2014-07-25T11:48:59Z</time>
      </trkpt>
      <trkpt lat="43.07436" lon="1.41825">
        <ele>382</ele>
        <time>2014-07-25T11:49:01Z</time>
      </trkpt>
      <trkpt lat="43.07435" lon="1.41821">
        <ele>381</ele>
        <time>2014-07-25T11:49:26Z</time>
      </trkpt>
      <trkpt lat="43.07433" lon="1.41813">
        <ele>381</ele>
        <time>2014-07-25T11:49:56Z</time>
      </trkpt>
      <trkpt lat="43.07434" lon="1.41806">
        <ele>380</ele>
        <time>2014-07-25T11:50:00Z</time>
      </trkpt>
      <trkpt lat="43.07436" lon="1.41799">
        <ele>381</ele>
        <time>2014-07-25T11:50:04Z</time>
      </trkpt>
      <trkpt lat="43.07439" lon="1.41793">
        <ele>382</ele>
        <time>2014-07-25T11:50:08Z</time>
      </trkpt>
      <trkpt lat="43.07442" lon="1.41786">
        <ele>382</ele>
        <time>2014-07-25T11:50:11Z</time>
      </trkpt>
      <trkpt lat="43.07447" lon="1.41773">
        <ele>380</ele>
        <time>2014-07-25T11:50:20Z</time>
      </trkpt>
      <trkpt lat="43.07448" lon="1.41766">
        <ele>380</ele>
        <time>2014-07-25T11:50:23Z</time>
      </trkpt>
      <trkpt lat="43.07449" lon="1.4176">
        <ele>379</ele>
        <time>2014-07-25T11:50:27Z</time>
      </trkpt>
      <trkpt lat="43.07452" lon="1.41754">
        <ele>379</ele>
        <time>2014-07-25T11:50:31Z</time>
      </trkpt>
      <trkpt lat="43.07453" lon="1.41747">
        <ele>378</ele>
        <time>2014-07-25T11:50:35Z</time>
      </trkpt>
      <trkpt lat="43.07457" lon="1.41742">
        <ele>377</ele>
        <time>2014-07-25T11:50:39Z</time>
      </trkpt>
      <trkpt lat="43.07462" lon="1.41737">
        <ele>377</ele>
        <time>2014-07-25T11:50:43Z</time>
      </trkpt>
      <trkpt lat="43.07465" lon="1.4173">
        <ele>377</ele>
        <time>2014-07-25T11:50:47Z</time>
      </trkpt>
      <trkpt lat="43.07466" lon="1.41723">
        <ele>377</ele>
        <time>2014-07-25T11:50:51Z</time>
      </trkpt>
      <trkpt lat="43.07475" lon="1.41705">
        <ele>378</ele>
        <time>2014-07-25T11:51:03Z</time>
      </trkpt>
      <trkpt lat="43.07481" lon="1.41692">
        <ele>377</ele>
        <time>2014-07-25T11:51:11Z</time>
      </trkpt>
      <trkpt lat="43.07484" lon="1.41678">
        <ele>377</ele>
        <time>2014-07-25T11:51:19Z</time>
      </trkpt>
      <trkpt lat="43.07491" lon="1.41666">
        <ele>375</ele>
        <time>2014-07-25T11:51:27Z</time>
      </trkpt>
      <trkpt lat="43.07493" lon="1.41668">
        <ele>374</ele>
        <time>2014-07-25T11:51:41Z</time>
      </trkpt>
      <trkpt lat="43.07495" lon="1.41659">
        <ele>374</ele>
        <time>2014-07-25T11:51:57Z</time>
      </trkpt>
      <trkpt lat="43.07499" lon="1.41653">
        <ele>373</ele>
        <time>2014-07-25T11:52:01Z</time>
      </trkpt>
      <trkpt lat="43.07504" lon="1.41648">
        <ele>373</ele>
        <time>2014-07-25T11:52:05Z</time>
      </trkpt>
      <trkpt lat="43.07509" lon="1.41645">
        <ele>373</ele>
        <time>2014-07-25T11:52:09Z</time>
      </trkpt>
      <trkpt lat="43.07529" lon="1.41632">
        <ele>375</ele>
        <time>2014-07-25T11:52:24Z</time>
      </trkpt>
      <trkpt lat="43.07534" lon="1.41629">
        <ele>374</ele>
        <time>2014-07-25T11:52:28Z</time>
      </trkpt>
      <trkpt lat="43.07548" lon="1.4162">
        <ele>372</ele>
        <time>2014-07-25T11:52:40Z</time>
      </trkpt>
      <trkpt lat="43.07554" lon="1.41618">
        <ele>372</ele>
        <time>2014-07-25T11:52:45Z</time>
      </trkpt>
      <trkpt lat="43.07556" lon="1.41612">
        <ele>371</ele>
        <time>2014-07-25T11:52:49Z</time>
      </trkpt>
      <trkpt lat="43.07561" lon="1.41608">
        <ele>371</ele>
        <time>2014-07-25T11:52:53Z</time>
      </trkpt>
      <trkpt lat="43.07566" lon="1.41607">
        <ele>372</ele>
        <time>2014-07-25T11:52:56Z</time>
      </trkpt>
      <trkpt lat="43.0757" lon="1.41606">
        <ele>371</ele>
        <time>2014-07-25T11:52:59Z</time>
      </trkpt>
      <trkpt lat="43.07574" lon="1.41601">
        <ele>371</ele>
        <time>2014-07-25T11:53:03Z</time>
      </trkpt>
      <trkpt lat="43.07578" lon="1.41596">
        <ele>371</ele>
        <time>2014-07-25T11:53:07Z</time>
      </trkpt>
      <trkpt lat="43.07587" lon="1.4159">
        <ele>371</ele>
        <time>2014-07-25T11:53:15Z</time>
      </trkpt>
      <trkpt lat="43.07591" lon="1.41585">
        <ele>371</ele>
        <time>2014-07-25T11:53:19Z</time>
      </trkpt>
      <trkpt lat="43.07595" lon="1.41578">
        <ele>371</ele>
        <time>2014-07-25T11:53:23Z</time>
      </trkpt>
      <trkpt lat="43.07601" lon="1.41549">
        <ele>369</ele>
        <time>2014-07-25T11:53:38Z</time>
      </trkpt>
      <trkpt lat="43.07606" lon="1.41546">
        <ele>368</ele>
        <time>2014-07-25T11:53:41Z</time>
      </trkpt>
      <trkpt lat="43.07614" lon="1.41537">
        <ele>368</ele>
        <time>2014-07-25T11:53:47Z</time>
      </trkpt>
      <trkpt lat="43.07618" lon="1.41531">
        <ele>369</ele>
        <time>2014-07-25T11:53:51Z</time>
      </trkpt>
      <trkpt lat="43.07622" lon="1.41525">
        <ele>369</ele>
        <time>2014-07-25T11:53:55Z</time>
      </trkpt>
      <trkpt lat="43.07626" lon="1.41521">
        <ele>369</ele>
        <time>2014-07-25T11:53:58Z</time>
      </trkpt>
      <trkpt lat="43.07632" lon="1.41509">
        <ele>369</ele>
        <time>2014-07-25T11:54:06Z</time>
      </trkpt>
      <trkpt lat="43.07635" lon="1.41504">
        <ele>368</ele>
        <time>2014-07-25T11:54:10Z</time>
      </trkpt>
      <trkpt lat="43.0765" lon="1.41472">
        <ele>366</ele>
        <time>2014-07-25T11:54:31Z</time>
      </trkpt>
      <trkpt lat="43.07654" lon="1.41465">
        <ele>365</ele>
        <time>2014-07-25T11:54:35Z</time>
      </trkpt>
      <trkpt lat="43.07657" lon="1.41459">
        <ele>365</ele>
        <time>2014-07-25T11:54:39Z</time>
      </trkpt>
      <trkpt lat="43.0768" lon="1.41411">
        <ele>362</ele>
        <time>2014-07-25T11:55:10Z</time>
      </trkpt>
      <trkpt lat="43.07681" lon="1.41397">
        <ele>362</ele>
        <time>2014-07-25T11:55:17Z</time>
      </trkpt>
      <trkpt lat="43.07683" lon="1.4139">
        <ele>362</ele>
        <time>2014-07-25T11:55:21Z</time>
      </trkpt>
      <trkpt lat="43.07687" lon="1.41376">
        <ele>362</ele>
        <time>2014-07-25T11:55:28Z</time>
      </trkpt>
      <trkpt lat="43.07688" lon="1.41369">
        <ele>363</ele>
        <time>2014-07-25T11:55:32Z</time>
      </trkpt>
      <trkpt lat="43.07691" lon="1.41354">
        <ele>362</ele>
        <time>2014-07-25T11:55:40Z</time>
      </trkpt>
      <trkpt lat="43.07693" lon="1.41349">
        <ele>363</ele>
        <time>2014-07-25T11:55:43Z</time>
      </trkpt>
      <trkpt lat="43.07697" lon="1.41343">
        <ele>364</ele>
        <time>2014-07-25T11:55:47Z</time>
      </trkpt>
      <trkpt lat="43.07698" lon="1.41336">
        <ele>364</ele>
        <time>2014-07-25T11:55:51Z</time>
      </trkpt>
      <trkpt lat="43.07699" lon="1.41329">
        <ele>363</ele>
        <time>2014-07-25T11:55:55Z</time>
      </trkpt>
      <trkpt lat="43.07701" lon="1.41322">
        <ele>364</ele>
        <time>2014-07-25T11:55:59Z</time>
      </trkpt>
      <trkpt lat="43.07703" lon="1.41315">
        <ele>363</ele>
        <time>2014-07-25T11:56:03Z</time>
      </trkpt>
      <trkpt lat="43.07706" lon="1.41308">
        <ele>364</ele>
        <time>2014-07-25T11:56:07Z</time>
      </trkpt>
      <trkpt lat="43.07709" lon="1.41295">
        <ele>363</ele>
        <time>2014-07-25T11:56:15Z</time>
      </trkpt>
      <trkpt lat="43.07711" lon="1.4129">
        <ele>362</ele>
        <time>2014-07-25T11:56:19Z</time>
      </trkpt>
      <trkpt lat="43.07719" lon="1.41261">
        <ele>360</ele>
        <time>2014-07-25T11:56:35Z</time>
      </trkpt>
      <trkpt lat="43.07721" lon="1.41254">
        <ele>361</ele>
        <time>2014-07-25T11:56:39Z</time>
      </trkpt>
      <trkpt lat="43.07725" lon="1.4125">
        <ele>361</ele>
        <time>2014-07-25T11:56:42Z</time>
      </trkpt>
      <trkpt lat="43.07729" lon="1.41246">
        <ele>361</ele>
        <time>2014-07-25T11:56:45Z</time>
      </trkpt>
      <trkpt lat="43.07733" lon="1.41235">
        <ele>361</ele>
        <time>2014-07-25T11:56:51Z</time>
      </trkpt>
      <trkpt lat="43.07741" lon="1.41208">
        <ele>359</ele>
        <time>2014-07-25T11:57:05Z</time>
      </trkpt>
      <trkpt lat="43.07743" lon="1.41195">
        <ele>359</ele>
        <time>2014-07-25T11:57:13Z</time>
      </trkpt>
      <trkpt lat="43.07748" lon="1.4118">
        <ele>359</ele>
        <time>2014-07-25T11:57:21Z</time>
      </trkpt>
      <trkpt lat="43.07751" lon="1.41166">
        <ele>357</ele>
        <time>2014-07-25T11:57:29Z</time>
      </trkpt>
      <trkpt lat="43.07752" lon="1.4116">
        <ele>357</ele>
        <time>2014-07-25T11:57:32Z</time>
      </trkpt>
      <trkpt lat="43.07756" lon="1.41147">
        <ele>359</ele>
        <time>2014-07-25T11:57:39Z</time>
      </trkpt>
      <trkpt lat="43.07756" lon="1.4114">
        <ele>359</ele>
        <time>2014-07-25T11:57:43Z</time>
      </trkpt>
      <trkpt lat="43.0776" lon="1.41134">
        <ele>359</ele>
        <time>2014-07-25T11:57:47Z</time>
      </trkpt>
      <trkpt lat="43.07769" lon="1.4108">
        <ele>356</ele>
        <time>2014-07-25T11:58:16Z</time>
      </trkpt>
      <trkpt lat="43.07772" lon="1.41066">
        <ele>356</ele>
        <time>2014-07-25T11:58:24Z</time>
      </trkpt>
      <trkpt lat="43.07774" lon="1.41059">
        <ele>356</ele>
        <time>2014-07-25T11:58:28Z</time>
      </trkpt>
      <trkpt lat="43.07779" lon="1.41046">
        <ele>355</ele>
        <time>2014-07-25T11:58:36Z</time>
      </trkpt>
      <trkpt lat="43.07783" lon="1.40988">
        <ele>350</ele>
        <time>2014-07-25T11:59:07Z</time>
      </trkpt>
      <trkpt lat="43.07782" lon="1.40981">
        <ele>349</ele>
        <time>2014-07-25T11:59:10Z</time>
      </trkpt>
      <trkpt lat="43.07783" lon="1.40959">
        <ele>350</ele>
        <time>2014-07-25T11:59:23Z</time>
      </trkpt>
      <trkpt lat="43.07785" lon="1.40952">
        <ele>349</ele>
        <time>2014-07-25T11:59:27Z</time>
      </trkpt>
      <trkpt lat="43.07785" lon="1.40944">
        <ele>350</ele>
        <time>2014-07-25T11:59:31Z</time>
      </trkpt>
      <trkpt lat="43.07783" lon="1.40937">
        <ele>349</ele>
        <time>2014-07-25T11:59:35Z</time>
      </trkpt>
      <trkpt lat="43.07784" lon="1.40929">
        <ele>349</ele>
        <time>2014-07-25T11:59:39Z</time>
      </trkpt>
      <trkpt lat="43.07785" lon="1.40915">
        <ele>349</ele>
        <time>2014-07-25T11:59:47Z</time>
      </trkpt>
      <trkpt lat="43.07789" lon="1.409">
        <ele>349</ele>
        <time>2014-07-25T11:59:55Z</time>
      </trkpt>
      <trkpt lat="43.0779" lon="1.40893">
        <ele>348</ele>
        <time>2014-07-25T11:59:59Z</time>
      </trkpt>
      <trkpt lat="43.07791" lon="1.40886">
        <ele>348</ele>
        <time>2014-07-25T12:00:03Z</time>
      </trkpt>
      <trkpt lat="43.07797" lon="1.40874">
        <ele>349</ele>
        <time>2014-07-25T12:00:11Z</time>
      </trkpt>
      <trkpt lat="43.07798" lon="1.40867">
        <ele>349</ele>
        <time>2014-07-25T12:00:15Z</time>
      </trkpt>
      <trkpt lat="43.07801" lon="1.4086">
        <ele>350</ele>
        <time>2014-07-25T12:00:26Z</time>
      </trkpt>
      <trkpt lat="43.07802" lon="1.40852">
        <ele>350</ele>
        <time>2014-07-25T12:00:31Z</time>
      </trkpt>
      <trkpt lat="43.07801" lon="1.40844">
        <ele>348</ele>
        <time>2014-07-25T12:00:35Z</time>
      </trkpt>
      <trkpt lat="43.07802" lon="1.40837">
        <ele>347</ele>
        <time>2014-07-25T12:00:39Z</time>
      </trkpt>
      <trkpt lat="43.07807" lon="1.40824">
        <ele>347</ele>
        <time>2014-07-25T12:00:47Z</time>
      </trkpt>
      <trkpt lat="43.07809" lon="1.40817">
        <ele>348</ele>
        <time>2014-07-25T12:00:51Z</time>
      </trkpt>
      <trkpt lat="43.07812" lon="1.4081">
        <ele>348</ele>
        <time>2014-07-25T12:00:55Z</time>
      </trkpt>
      <trkpt lat="43.07818" lon="1.40773">
        <ele>342</ele>
        <time>2014-07-25T12:01:15Z</time>
      </trkpt>
      <trkpt lat="43.0782" lon="1.40766">
        <ele>342</ele>
        <time>2014-07-25T12:01:19Z</time>
      </trkpt>
      <trkpt lat="43.07824" lon="1.40752">
        <ele>343</ele>
        <time>2014-07-25T12:01:27Z</time>
      </trkpt>
      <trkpt lat="43.07826" lon="1.40745">
        <ele>343</ele>
        <time>2014-07-25T12:01:30Z</time>
      </trkpt>
      <trkpt lat="43.07828" lon="1.40739">
        <ele>343</ele>
        <time>2014-07-25T12:01:33Z</time>
      </trkpt>
      <trkpt lat="43.0783" lon="1.40732">
        <ele>344</ele>
        <time>2014-07-25T12:01:37Z</time>
      </trkpt>
      <trkpt lat="43.07832" lon="1.40725">
        <ele>344</ele>
        <time>2014-07-25T12:01:41Z</time>
      </trkpt>
      <trkpt lat="43.07835" lon="1.40719">
        <ele>345</ele>
        <time>2014-07-25T12:01:44Z</time>
      </trkpt>
      <trkpt lat="43.07836" lon="1.40713">
        <ele>344</ele>
        <time>2014-07-25T12:01:48Z</time>
      </trkpt>
      <trkpt lat="43.07839" lon="1.40707">
        <ele>345</ele>
        <time>2014-07-25T12:01:52Z</time>
      </trkpt>
      <trkpt lat="43.07842" lon="1.407">
        <ele>345</ele>
        <time>2014-07-25T12:01:56Z</time>
      </trkpt>
      <trkpt lat="43.07843" lon="1.40669">
        <ele>347</ele>
        <time>2014-07-25T12:02:14Z</time>
      </trkpt>
      <trkpt lat="43.07843" lon="1.40662">
        <ele>346</ele>
        <time>2014-07-25T12:02:17Z</time>
      </trkpt>
      <trkpt lat="43.0784" lon="1.40655">
        <ele>345</ele>
        <time>2014-07-25T12:02:20Z</time>
      </trkpt>
      <trkpt lat="43.07837" lon="1.40649">
        <ele>345</ele>
        <time>2014-07-25T12:02:23Z</time>
      </trkpt>
      <trkpt lat="43.07834" lon="1.40643">
        <ele>345</ele>
        <time>2014-07-25T12:02:26Z</time>
      </trkpt>
      <trkpt lat="43.07831" lon="1.40637">
        <ele>344</ele>
        <time>2014-07-25T12:02:30Z</time>
      </trkpt>
      <trkpt lat="43.07828" lon="1.40624">
        <ele>344</ele>
        <time>2014-07-25T12:02:38Z</time>
      </trkpt>
      <trkpt lat="43.07832" lon="1.40604">
        <ele>342</ele>
        <time>2014-07-25T12:02:49Z</time>
      </trkpt>
      <trkpt lat="43.07834" lon="1.4059">
        <ele>341</ele>
        <time>2014-07-25T12:02:56Z</time>
      </trkpt>
      <trkpt lat="43.07835" lon="1.40582">
        <ele>341</ele>
        <time>2014-07-25T12:03:00Z</time>
      </trkpt>
      <trkpt lat="43.07836" lon="1.40575">
        <ele>341</ele>
        <time>2014-07-25T12:03:04Z</time>
      </trkpt>
      <trkpt lat="43.07837" lon="1.40568">
        <ele>341</ele>
        <time>2014-07-25T12:03:08Z</time>
      </trkpt>
      <trkpt lat="43.07837" lon="1.4056">
        <ele>341</ele>
        <time>2014-07-25T12:03:12Z</time>
      </trkpt>
      <trkpt lat="43.07848" lon="1.40526">
        <ele>342</ele>
        <time>2014-07-25T12:03:32Z</time>
      </trkpt>
      <trkpt lat="43.07852" lon="1.40513">
        <ele>341</ele>
        <time>2014-07-25T12:03:40Z</time>
      </trkpt>
      <trkpt lat="43.07854" lon="1.40506">
        <ele>341</ele>
        <time>2014-07-25T12:03:44Z</time>
      </trkpt>
      <trkpt lat="43.07859" lon="1.40485">
        <ele>338</ele>
        <time>2014-07-25T12:03:56Z</time>
      </trkpt>
      <trkpt lat="43.0786" lon="1.40477">
        <ele>338</ele>
        <time>2014-07-25T12:04:00Z</time>
      </trkpt>
      <trkpt lat="43.07861" lon="1.4047">
        <ele>338</ele>
        <time>2014-07-25T12:04:04Z</time>
      </trkpt>
      <trkpt lat="43.07861" lon="1.40456">
        <ele>338</ele>
        <time>2014-07-25T12:04:12Z</time>
      </trkpt>
      <trkpt lat="43.07859" lon="1.4045">
        <ele>337</ele>
        <time>2014-07-25T12:04:15Z</time>
      </trkpt>
      <trkpt lat="43.07855" lon="1.40438">
        <ele>338</ele>
        <time>2014-07-25T12:04:24Z</time>
      </trkpt>
      <trkpt lat="43.0785" lon="1.40417">
        <ele>338</ele>
        <time>2014-07-25T12:04:38Z</time>
      </trkpt>
      <trkpt lat="43.07849" lon="1.40411">
        <ele>337</ele>
        <time>2014-07-25T12:04:41Z</time>
      </trkpt>
      <trkpt lat="43.07851" lon="1.40389">
        <ele>339</ele>
        <time>2014-07-25T12:04:53Z</time>
      </trkpt>
      <trkpt lat="43.07851" lon="1.40382">
        <ele>339</ele>
        <time>2014-07-25T12:04:57Z</time>
      </trkpt>
      <trkpt lat="43.07852" lon="1.40375">
        <ele>338</ele>
        <time>2014-07-25T12:05:01Z</time>
      </trkpt>
      <trkpt lat="43.07854" lon="1.40368">
        <ele>338</ele>
        <time>2014-07-25T12:05:05Z</time>
      </trkpt>
      <trkpt lat="43.07851" lon="1.40314">
        <ele>332</ele>
        <time>2014-07-25T12:05:31Z</time>
      </trkpt>
      <trkpt lat="43.07841" lon="1.4029">
        <ele>328</ele>
        <time>2014-07-25T12:05:50Z</time>
      </trkpt>
      <trkpt lat="43.07837" lon="1.40275">
        <ele>329</ele>
        <time>2014-07-25T12:05:58Z</time>
      </trkpt>
      <trkpt lat="43.07835" lon="1.40261">
        <ele>331</ele>
        <time>2014-07-25T12:06:06Z</time>
      </trkpt>
      <trkpt lat="43.07834" lon="1.40223">
        <ele>327</ele>
        <time>2014-07-25T12:06:26Z</time>
      </trkpt>
      <trkpt lat="43.07837" lon="1.40193">
        <ele>330</ele>
        <time>2014-07-25T12:06:42Z</time>
      </trkpt>
      <trkpt lat="43.07835" lon="1.40177">
        <ele>331</ele>
        <time>2014-07-25T12:06:50Z</time>
      </trkpt>
      <trkpt lat="43.07835" lon="1.4017">
        <ele>330</ele>
        <time>2014-07-25T12:06:54Z</time>
      </trkpt>
      <trkpt lat="43.07833" lon="1.40157">
        <ele>329</ele>
        <time>2014-07-25T12:07:00Z</time>
      </trkpt>
      <trkpt lat="43.07821" lon="1.40099">
        <ele>327</ele>
        <time>2014-07-25T12:07:32Z</time>
      </trkpt>
      <trkpt lat="43.07814" lon="1.40088">
        <ele>326</ele>
        <time>2014-07-25T12:07:39Z</time>
      </trkpt>
      <trkpt lat="43.07789" lon="1.40043">
        <ele>322</ele>
        <time>2014-07-25T12:08:07Z</time>
      </trkpt>
      <trkpt lat="43.07788" lon="1.40031">
        <ele>322</ele>
        <time>2014-07-25T12:08:14Z</time>
      </trkpt>
      <trkpt lat="43.07791" lon="1.40011">
        <ele>323</ele>
        <time>2014-07-25T12:08:25Z</time>
      </trkpt>
      <trkpt lat="43.07794" lon="1.40005">
        <ele>324</ele>
        <time>2014-07-25T12:08:29Z</time>
      </trkpt>
      <trkpt lat="43.07799" lon="1.40003">
        <ele>324</ele>
        <time>2014-07-25T12:08:32Z</time>
      </trkpt>
      <trkpt lat="43.07803" lon="1.39998">
        <ele>325</ele>
        <time>2014-07-25T12:08:36Z</time>
      </trkpt>
      <trkpt lat="43.07805" lon="1.39992">
        <ele>325</ele>
        <time>2014-07-25T12:08:40Z</time>
      </trkpt>
      <trkpt lat="43.07806" lon="1.39985">
        <ele>325</ele>
        <time>2014-07-25T12:08:44Z</time>
      </trkpt>
      <trkpt lat="43.07805" lon="1.39977">
        <ele>325</ele>
        <time>2014-07-25T12:08:49Z</time>
      </trkpt>
      <trkpt lat="43.07806" lon="1.3997">
        <ele>325</ele>
        <time>2014-07-25T12:08:53Z</time>
      </trkpt>
      <trkpt lat="43.07805" lon="1.3994">
        <ele>321</ele>
        <time>2014-07-25T12:09:08Z</time>
      </trkpt>
      <trkpt lat="43.07801" lon="1.3992">
        <ele>323</ele>
        <time>2014-07-25T12:09:20Z</time>
      </trkpt>
      <trkpt lat="43.07798" lon="1.39905">
        <ele>321</ele>
        <time>2014-07-25T12:09:28Z</time>
      </trkpt>
      <trkpt lat="43.07792" lon="1.39885">
        <ele>316</ele>
        <time>2014-07-25T12:09:40Z</time>
      </trkpt>
      <trkpt lat="43.07791" lon="1.39877">
        <ele>317</ele>
        <time>2014-07-25T12:09:44Z</time>
      </trkpt>
      <trkpt lat="43.07791" lon="1.3987">
        <ele>318</ele>
        <time>2014-07-25T12:09:48Z</time>
      </trkpt>
      <trkpt lat="43.07787" lon="1.39856">
        <ele>317</ele>
        <time>2014-07-25T12:09:54Z</time>
      </trkpt>
      <trkpt lat="43.07777" lon="1.39806">
        <ele>312</ele>
        <time>2014-07-25T12:10:22Z</time>
      </trkpt>
      <trkpt lat="43.07764" lon="1.39745">
        <ele>310</ele>
        <time>2014-07-25T12:10:53Z</time>
      </trkpt>
      <trkpt lat="43.07761" lon="1.3973">
        <ele>309</ele>
        <time>2014-07-25T12:11:01Z</time>
      </trkpt>
      <trkpt lat="43.07755" lon="1.39707">
        <ele>306</ele>
        <time>2014-07-25T12:11:12Z</time>
      </trkpt>
      <trkpt lat="43.07749" lon="1.39686">
        <ele>306</ele>
        <time>2014-07-25T12:11:25Z</time>
      </trkpt>
      <trkpt lat="43.07741" lon="1.3966">
        <ele>311</ele>
        <time>2014-07-25T12:11:40Z</time>
      </trkpt>
      <trkpt lat="43.07743" lon="1.39647">
        <ele>312</ele>
        <time>2014-07-25T12:11:47Z</time>
      </trkpt>
      <trkpt lat="43.07738" lon="1.39636">
        <ele>312</ele>
        <time>2014-07-25T12:11:55Z</time>
      </trkpt>
      <trkpt lat="43.07733" lon="1.39632">
        <ele>311</ele>
        <time>2014-07-25T12:11:58Z</time>
      </trkpt>
      <trkpt lat="43.07729" lon="1.39627">
        <ele>312</ele>
        <time>2014-07-25T12:12:02Z</time>
      </trkpt>
      <trkpt lat="43.0773" lon="1.39619">
        <ele>312</ele>
        <time>2014-07-25T12:12:07Z</time>
      </trkpt>
      <trkpt lat="43.07726" lon="1.3961">
        <ele>311</ele>
        <time>2014-07-25T12:12:12Z</time>
      </trkpt>
      <trkpt lat="43.0772" lon="1.39606">
        <ele>311</ele>
        <time>2014-07-25T12:12:16Z</time>
      </trkpt>
      <trkpt lat="43.07716" lon="1.39601">
        <ele>312</ele>
        <time>2014-07-25T12:12:19Z</time>
      </trkpt>
      <trkpt lat="43.07714" lon="1.39594">
        <ele>313</ele>
        <time>2014-07-25T12:12:23Z</time>
      </trkpt>
      <trkpt lat="43.07696" lon="1.39547">
        <ele>311</ele>
        <time>2014-07-25T12:12:47Z</time>
      </trkpt>
      <trkpt lat="43.07684" lon="1.39496">
        <ele>303</ele>
        <time>2014-07-25T12:13:16Z</time>
      </trkpt>
      <trkpt lat="43.07679" lon="1.39483">
        <ele>304</ele>
        <time>2014-07-25T12:13:24Z</time>
      </trkpt>
      <trkpt lat="43.07677" lon="1.39477">
        <ele>304</ele>
        <time>2014-07-25T12:13:28Z</time>
      </trkpt>
      <trkpt lat="43.07675" lon="1.39471">
        <ele>305</ele>
        <time>2014-07-25T12:13:32Z</time>
      </trkpt>
      <trkpt lat="43.07669" lon="1.39459">
        <ele>304</ele>
        <time>2014-07-25T12:13:39Z</time>
      </trkpt>
      <trkpt lat="43.07667" lon="1.39453">
        <ele>304</ele>
        <time>2014-07-25T12:13:42Z</time>
      </trkpt>
      <trkpt lat="43.07666" lon="1.39446">
        <ele>305</ele>
        <time>2014-07-25T12:13:46Z</time>
      </trkpt>
      <trkpt lat="43.07664" lon="1.39439">
        <ele>305</ele>
        <time>2014-07-25T12:13:50Z</time>
      </trkpt>
      <trkpt lat="43.07649" lon="1.39394">
        <ele>298</ele>
        <time>2014-07-25T12:14:15Z</time>
      </trkpt>
      <trkpt lat="43.07648" lon="1.39387">
        <ele>298</ele>
        <time>2014-07-25T12:14:19Z</time>
      </trkpt>
      <trkpt lat="43.07644" lon="1.39347">
        <ele>295</ele>
        <time>2014-07-25T12:14:40Z</time>
      </trkpt>
      <trkpt lat="43.07643" lon="1.39333">
        <ele>295</ele>
        <time>2014-07-25T12:14:47Z</time>
      </trkpt>
      <trkpt lat="43.07637" lon="1.39309">
        <ele>292</ele>
        <time>2014-07-25T12:15:01Z</time>
      </trkpt>
      <trkpt lat="43.07634" lon="1.39297">
        <ele>292</ele>
        <time>2014-07-25T12:15:08Z</time>
      </trkpt>
      <trkpt lat="43.07624" lon="1.39247">
        <ele>287</ele>
        <time>2014-07-25T12:15:34Z</time>
      </trkpt>
      <trkpt lat="43.07622" lon="1.39221">
        <ele>289</ele>
        <time>2014-07-25T12:15:48Z</time>
      </trkpt>
      <trkpt lat="43.07621" lon="1.39208">
        <ele>290</ele>
        <time>2014-07-25T12:15:55Z</time>
      </trkpt>
      <trkpt lat="43.0762" lon="1.3918">
        <ele>292</ele>
        <time>2014-07-25T12:16:09Z</time>
      </trkpt>
      <trkpt lat="43.07624" lon="1.39148">
        <ele>290</ele>
        <time>2014-07-25T12:16:27Z</time>
      </trkpt>
      <trkpt lat="43.07639" lon="1.39117">
        <ele>290</ele>
        <time>2014-07-25T12:16:47Z</time>
      </trkpt>
      <trkpt lat="43.07643" lon="1.39089">
        <ele>286</ele>
        <time>2014-07-25T12:17:03Z</time>
      </trkpt>
      <trkpt lat="43.07641" lon="1.39082">
        <ele>286</ele>
        <time>2014-07-25T12:17:07Z</time>
      </trkpt>
      <trkpt lat="43.07639" lon="1.39076">
        <ele>286</ele>
        <time>2014-07-25T12:17:11Z</time>
      </trkpt>
      <trkpt lat="43.07638" lon="1.39068">
        <ele>287</ele>
        <time>2014-07-25T12:17:15Z</time>
      </trkpt>
      <trkpt lat="43.07633" lon="1.39054">
        <ele>288</ele>
        <time>2014-07-25T12:17:23Z</time>
      </trkpt>
      <trkpt lat="43.07624" lon="1.39002">
        <ele>284</ele>
        <time>2014-07-25T12:17:51Z</time>
      </trkpt>
      <trkpt lat="43.07602" lon="1.38943">
        <ele>283</ele>
        <time>2014-07-25T12:18:29Z</time>
      </trkpt>
      <trkpt lat="43.07597" lon="1.3893">
        <ele>283</ele>
        <time>2014-07-25T12:18:36Z</time>
      </trkpt>
      <trkpt lat="43.07597" lon="1.38905">
        <ele>281</ele>
        <time>2014-07-25T12:18:50Z</time>
      </trkpt>
      <trkpt lat="43.07601" lon="1.38893">
        <ele>280</ele>
        <time>2014-07-25T12:18:57Z</time>
      </trkpt>
      <trkpt lat="43.07605" lon="1.3888">
        <ele>280</ele>
        <time>2014-07-25T12:19:04Z</time>
      </trkpt>
      <trkpt lat="43.07611" lon="1.38841">
        <ele>285</ele>
        <time>2014-07-25T12:19:24Z</time>
      </trkpt>
      <trkpt lat="43.07611" lon="1.38829">
        <ele>284</ele>
        <time>2014-07-25T12:19:31Z</time>
      </trkpt>
      <trkpt lat="43.07621" lon="1.38765">
        <ele>274</ele>
        <time>2014-07-25T12:20:06Z</time>
      </trkpt>
      <trkpt lat="43.07628" lon="1.38739">
        <ele>273</ele>
        <time>2014-07-25T12:20:20Z</time>
      </trkpt>
      <trkpt lat="43.07648" lon="1.38681">
        <ele>277</ele>
        <time>2014-07-25T12:20:54Z</time>
      </trkpt>
      <trkpt lat="43.07663" lon="1.38632">
        <ele>280</ele>
        <time>2014-07-25T12:21:22Z</time>
      </trkpt>
      <trkpt lat="43.07667" lon="1.38619">
        <ele>281</ele>
        <time>2014-07-25T12:21:30Z</time>
      </trkpt>
      <trkpt lat="43.0767" lon="1.38607">
        <ele>282</ele>
        <time>2014-07-25T12:21:36Z</time>
      </trkpt>
      <trkpt lat="43.07678" lon="1.38582">
        <ele>281</ele>
        <time>2014-07-25T12:21:51Z</time>
      </trkpt>
      <trkpt lat="43.07685" lon="1.38571">
        <ele>282</ele>
        <time>2014-07-25T12:21:58Z</time>
      </trkpt>
      <trkpt lat="43.07706" lon="1.38544">
        <ele>288</ele>
        <time>2014-07-25T12:22:19Z</time>
      </trkpt>
      <trkpt lat="43.07733" lon="1.38508">
        <ele>290</ele>
        <time>2014-07-25T12:22:47Z</time>
      </trkpt>
      <trkpt lat="43.07753" lon="1.38478">
        <ele>289</ele>
        <time>2014-07-25T12:23:08Z</time>
      </trkpt>
      <trkpt lat="43.07759" lon="1.38466">
        <ele>287</ele>
        <time>2014-07-25T12:23:15Z</time>
      </trkpt>
      <trkpt lat="43.07777" lon="1.38436">
        <ele>287</ele>
        <time>2014-07-25T12:23:36Z</time>
      </trkpt>
      <trkpt lat="43.07784" lon="1.38428">
        <ele>288</ele>
        <time>2014-07-25T12:23:42Z</time>
      </trkpt>
      <trkpt lat="43.0779" lon="1.38417">
        <ele>288</ele>
        <time>2014-07-25T12:23:49Z</time>
      </trkpt>
      <trkpt lat="43.07797" lon="1.38379">
        <ele>291</ele>
        <time>2014-07-25T12:24:10Z</time>
      </trkpt>
      <trkpt lat="43.07787" lon="1.38357">
        <ele>291</ele>
        <time>2014-07-25T12:24:25Z</time>
      </trkpt>
      <trkpt lat="43.0778" lon="1.38347">
        <ele>291</ele>
        <time>2014-07-25T12:24:33Z</time>
      </trkpt>
      <trkpt lat="43.07768" lon="1.38312">
        <ele>288</ele>
        <time>2014-07-25T12:24:54Z</time>
      </trkpt>
      <trkpt lat="43.07768" lon="1.38248">
        <ele>288</ele>
        <time>2014-07-25T12:25:28Z</time>
      </trkpt>
      <trkpt lat="43.07767" lon="1.38221">
        <ele>289</ele>
        <time>2014-07-25T12:25:42Z</time>
      </trkpt>
      <trkpt lat="43.07759" lon="1.38156">
        <ele>289</ele>
        <time>2014-07-25T12:26:17Z</time>
      </trkpt>
      <trkpt lat="43.07757" lon="1.38131">
        <ele>288</ele>
        <time>2014-07-25T12:26:31Z</time>
      </trkpt>
      <trkpt lat="43.07759" lon="1.38118">
        <ele>287</ele>
        <time>2014-07-25T12:26:38Z</time>
      </trkpt>
      <trkpt lat="43.07761" lon="1.38105">
        <ele>286</ele>
        <time>2014-07-25T12:26:45Z</time>
      </trkpt>
      <trkpt lat="43.07763" lon="1.38078">
        <ele>288</ele>
        <time>2014-07-25T12:27:00Z</time>
      </trkpt>
      <trkpt lat="43.07759" lon="1.38067">
        <ele>288</ele>
        <time>2014-07-25T12:27:07Z</time>
      </trkpt>
      <trkpt lat="43.07755" lon="1.38055">
        <ele>287</ele>
        <time>2014-07-25T12:27:14Z</time>
      </trkpt>
      <trkpt lat="43.07752" lon="1.38043">
        <ele>285</ele>
        <time>2014-07-25T12:27:21Z</time>
      </trkpt>
      <trkpt lat="43.07747" lon="1.38032">
        <ele>285</ele>
        <time>2014-07-25T12:27:28Z</time>
      </trkpt>
      <trkpt lat="43.07742" lon="1.38021">
        <ele>283</ele>
        <time>2014-07-25T12:27:35Z</time>
      </trkpt>
      <trkpt lat="43.07729" lon="1.37984">
        <ele>283</ele>
        <time>2014-07-25T12:27:56Z</time>
      </trkpt>
      <trkpt lat="43.07727" lon="1.37976">
        <ele>282</ele>
        <time>2014-07-25T12:28:11Z</time>
      </trkpt>
      <trkpt lat="43.07729" lon="1.37961">
        <ele>282</ele>
        <time>2014-07-25T12:28:35Z</time>
      </trkpt>
      <trkpt lat="43.07734" lon="1.37949">
        <ele>283</ele>
        <time>2014-07-25T12:28:42Z</time>
      </trkpt>
      <trkpt lat="43.07741" lon="1.37939">
        <ele>282</ele>
        <time>2014-07-25T12:28:49Z</time>
      </trkpt>
      <trkpt lat="43.07751" lon="1.37936">
        <ele>281</ele>
        <time>2014-07-25T12:28:57Z</time>
      </trkpt>
      <trkpt lat="43.07758" lon="1.37928">
        <ele>281</ele>
        <time>2014-07-25T12:29:04Z</time>
      </trkpt>
      <trkpt lat="43.07787" lon="1.37896">
        <ele>281</ele>
        <time>2014-07-25T12:29:32Z</time>
      </trkpt>
      <trkpt lat="43.07789" lon="1.37858">
        <ele>279</ele>
        <time>2014-07-25T12:29:52Z</time>
      </trkpt>
      <trkpt lat="43.0779" lon="1.37846">
        <ele>279</ele>
        <time>2014-07-25T12:29:58Z</time>
      </trkpt>
      <trkpt lat="43.07789" lon="1.37806">
        <ele>282</ele>
        <time>2014-07-25T12:30:19Z</time>
      </trkpt>
      <trkpt lat="43.07789" lon="1.37779">
        <ele>280</ele>
        <time>2014-07-25T12:30:33Z</time>
      </trkpt>
      <trkpt lat="43.07788" lon="1.37767">
        <ele>281</ele>
        <time>2014-07-25T12:30:40Z</time>
      </trkpt>
      <trkpt lat="43.07788" lon="1.37754">
        <ele>280</ele>
        <time>2014-07-25T12:30:47Z</time>
      </trkpt>
      <trkpt lat="43.07784" lon="1.37716">
        <ele>283</ele>
        <time>2014-07-25T12:31:08Z</time>
      </trkpt>
      <trkpt lat="43.07782" lon="1.37703">
        <ele>285</ele>
        <time>2014-07-25T12:31:19Z</time>
      </trkpt>
      <trkpt lat="43.07778" lon="1.37698">
        <ele>286</ele>
        <time>2014-07-25T12:32:09Z</time>
      </trkpt>
      <trkpt lat="43.07783" lon="1.37688">
        <ele>285</ele>
        <time>2014-07-25T12:32:22Z</time>
      </trkpt>
      <trkpt lat="43.07783" lon="1.37676">
        <ele>284</ele>
        <time>2014-07-25T12:32:28Z</time>
      </trkpt>
      <trkpt lat="43.07782" lon="1.37648">
        <ele>285</ele>
        <time>2014-07-25T12:32:42Z</time>
      </trkpt>
      <trkpt lat="43.07782" lon="1.37635">
        <ele>286</ele>
        <time>2014-07-25T12:32:49Z</time>
      </trkpt>
      <trkpt lat="43.07777" lon="1.37624">
        <ele>286</ele>
        <time>2014-07-25T12:32:56Z</time>
      </trkpt>
      <trkpt lat="43.07778" lon="1.37611">
        <ele>286</ele>
        <time>2014-07-25T12:33:04Z</time>
      </trkpt>
      <trkpt lat="43.07785" lon="1.37573">
        <ele>286</ele>
        <time>2014-07-25T12:33:22Z</time>
      </trkpt>
      <trkpt lat="43.07787" lon="1.3756">
        <ele>287</ele>
        <time>2014-07-25T12:33:29Z</time>
      </trkpt>
      <trkpt lat="43.07793" lon="1.37522">
        <ele>287</ele>
        <time>2014-07-25T12:33:50Z</time>
      </trkpt>
      <trkpt lat="43.078" lon="1.37496">
        <ele>289</ele>
        <time>2014-07-25T12:34:07Z</time>
      </trkpt>
      <trkpt lat="43.07799" lon="1.37441">
        <ele>284</ele>
        <time>2014-07-25T12:34:32Z</time>
      </trkpt>
      <trkpt lat="43.07805" lon="1.3738">
        <ele>285</ele>
        <time>2014-07-25T12:35:04Z</time>
      </trkpt>
      <trkpt lat="43.07807" lon="1.37358">
        <ele>286</ele>
        <time>2014-07-25T12:35:16Z</time>
      </trkpt>
      <trkpt lat="43.07809" lon="1.37351">
        <ele>287</ele>
        <time>2014-07-25T12:35:20Z</time>
      </trkpt>
      <trkpt lat="43.0781" lon="1.37336">
        <ele>286</ele>
        <time>2014-07-25T12:35:28Z</time>
      </trkpt>
      <trkpt lat="43.07813" lon="1.37307">
        <ele>283</ele>
        <time>2014-07-25T12:35:43Z</time>
      </trkpt>
      <trkpt lat="43.07815" lon="1.37293">
        <ele>283</ele>
        <time>2014-07-25T12:35:50Z</time>
      </trkpt>
      <trkpt lat="43.07817" lon="1.37266">
        <ele>283</ele>
        <time>2014-07-25T12:36:04Z</time>
      </trkpt>
      <trkpt lat="43.07818" lon="1.3724">
        <ele>281</ele>
        <time>2014-07-25T12:36:17Z</time>
      </trkpt>
      <trkpt lat="43.07819" lon="1.37199">
        <ele>281</ele>
        <time>2014-07-25T12:36:38Z</time>
      </trkpt>
      <trkpt lat="43.07816" lon="1.37159">
        <ele>282</ele>
        <time>2014-07-25T12:36:59Z</time>
      </trkpt>
      <trkpt lat="43.07817" lon="1.37094">
        <ele>287</ele>
        <time>2014-07-25T12:37:34Z</time>
      </trkpt>
      <trkpt lat="43.07819" lon="1.3708">
        <ele>287</ele>
        <time>2014-07-25T12:37:41Z</time>
      </trkpt>
      <trkpt lat="43.07825" lon="1.37042">
        <ele>290</ele>
        <time>2014-07-25T12:38:03Z</time>
      </trkpt>
      <trkpt lat="43.07827" lon="1.3699">
        <ele>284</ele>
        <time>2014-07-25T12:38:28Z</time>
      </trkpt>
      <trkpt lat="43.07826" lon="1.36951">
        <ele>285</ele>
        <time>2014-07-25T12:38:49Z</time>
      </trkpt>
      <trkpt lat="43.07826" lon="1.36938">
        <ele>285</ele>
        <time>2014-07-25T12:38:56Z</time>
      </trkpt>
      <trkpt lat="43.07826" lon="1.36924">
        <ele>286</ele>
        <time>2014-07-25T12:39:03Z</time>
      </trkpt>
      <trkpt lat="43.07815" lon="1.36874">
        <ele>285</ele>
        <time>2014-07-25T12:39:31Z</time>
      </trkpt>
      <trkpt lat="43.07801" lon="1.36858">
        <ele>286</ele>
        <time>2014-07-25T12:39:46Z</time>
      </trkpt>
      <trkpt lat="43.07803" lon="1.36856">
        <ele>283</ele>
        <time>2014-07-25T13:17:06Z</time>
      </trkpt>
      <trkpt lat="43.07807" lon="1.36859">
        <ele>283</ele>
        <time>2014-07-25T13:17:27Z</time>
      </trkpt>
      <trkpt lat="43.07809" lon="1.36864">
        <ele>283</ele>
        <time>2014-07-25T13:17:29Z</time>
      </trkpt>
      <trkpt lat="43.07814" lon="1.3687">
        <ele>286</ele>
        <time>2014-07-25T13:17:32Z</time>
      </trkpt>
      <trkpt lat="43.07817" lon="1.36871">
        <ele>287</ele>
        <time>2014-07-25T13:17:34Z</time>
      </trkpt>
      <trkpt lat="43.07821" lon="1.36868">
        <ele>288</ele>
        <time>2014-07-25T13:17:36Z</time>
      </trkpt>
      <trkpt lat="43.07822" lon="1.36858">
        <ele>288</ele>
        <time>2014-07-25T13:17:38Z</time>
      </trkpt>
      <trkpt lat="43.07815" lon="1.36771">
        <ele>289</ele>
        <time>2014-07-25T13:17:48Z</time>
      </trkpt>
      <trkpt lat="43.07861" lon="1.36638">
        <ele>287</ele>
        <time>2014-07-25T13:17:59Z</time>
      </trkpt>
      <trkpt lat="43.0809" lon="1.36436">
        <ele>288</ele>
        <time>2014-07-25T13:18:29Z</time>
      </trkpt>
      <trkpt lat="43.08063" lon="1.36178">
        <ele>290</ele>
        <time>2014-07-25T13:18:55Z</time>
      </trkpt>
      <trkpt lat="43.08072" lon="1.36169">
        <ele>290</ele>
        <time>2014-07-25T13:18:59Z</time>
      </trkpt>
      <trkpt lat="43.08112" lon="1.36173">
        <ele>291</ele>
        <time>2014-07-25T13:19:05Z</time>
      </trkpt>
      <trkpt lat="43.08163" lon="1.36145">
        <ele>289</ele>
        <time>2014-07-25T13:19:14Z</time>
      </trkpt>
      <trkpt lat="43.08171" lon="1.36134">
        <ele>290</ele>
        <time>2014-07-25T13:19:17Z</time>
      </trkpt>
      <trkpt lat="43.08174" lon="1.36128">
        <ele>290</ele>
        <time>2014-07-25T13:19:19Z</time>
      </trkpt>
      <trkpt lat="43.08175" lon="1.36121">
        <ele>291</ele>
        <time>2014-07-25T13:19:21Z</time>
      </trkpt>
      <trkpt lat="43.08171" lon="1.36115">
        <ele>290</ele>
        <time>2014-07-25T13:19:24Z</time>
      </trkpt>
      <trkpt lat="43.08154" lon="1.36112">
        <ele>289</ele>
        <time>2014-07-25T13:19:30Z</time>
      </trkpt>
      <trkpt lat="43.08141" lon="1.3611">
        <ele>289</ele>
        <time>2014-07-25T13:19:34Z</time>
      </trkpt>
      <trkpt lat="43.08141" lon="1.36108">
        <ele>297</ele>
        <time>2014-07-25T13:20:29Z</time>
      </trkpt>
      <trkpt lat="43.08131" lon="1.36111">
        <ele>298</ele>
        <time>2014-07-25T13:21:10Z</time>
      </trkpt>
    </trkseg>
  </trk>
</gpx>